<?xml version="1.0" encoding="UTF-8" standalone="no" ?>
<gpx xmlns="http://www.topografix.com/GPX/1/1" xmlns:xsi="http://www.w3.org/2001/XMLSchema-instance" xsi:schemaLocation="http://www.topografix.com/GPX/1/1 http://www.topografix.com/GPX/1/1/gpx.xsd" version="1.1" creator="VisuGPX - https://www.visugpx.com">
  <metadata>
    <name>Les-Dronières-Le-Plan-Vovray</name>
  </metadata>
  <trk>
    <name><![CDATA[2020-12-26 13:32]]></name>
    <desc><![CDATA[]]></desc>
    <trkseg>
      <trkpt lat="46.03551" lon="6.10962">
        <ele>844.8</ele>
        <time>2020-12-26T12:32:10.870Z</time>
      </trkpt>
      <trkpt lat="46.03552" lon="6.10964">
        <ele>848.5</ele>
        <time>2020-12-26T12:32:11.922Z</time>
      </trkpt>
      <trkpt lat="46.03552" lon="6.10964">
        <ele>860.6</ele>
        <time>2020-12-26T12:32:24.664Z</time>
      </trkpt>
      <trkpt lat="46.03541" lon="6.10959">
        <ele>860.6</ele>
        <time>2020-12-26T12:32:25.627Z</time>
      </trkpt>
      <trkpt lat="46.03533" lon="6.10963">
        <ele>855</ele>
        <time>2020-12-26T12:32:51.641Z</time>
      </trkpt>
      <trkpt lat="46.03532" lon="6.10964">
        <ele>855</ele>
        <time>2020-12-26T12:32:52.704Z</time>
      </trkpt>
      <trkpt lat="46.03526" lon="6.10969">
        <ele>854.5</ele>
        <time>2020-12-26T12:32:55.633Z</time>
      </trkpt>
      <trkpt lat="46.03524" lon="6.10971">
        <ele>854.2</ele>
        <time>2020-12-26T12:32:56.644Z</time>
      </trkpt>
      <trkpt lat="46.03516" lon="6.10977">
        <ele>853.7</ele>
        <time>2020-12-26T12:33:01.650Z</time>
      </trkpt>
      <trkpt lat="46.03514" lon="6.10978">
        <ele>853.9</ele>
        <time>2020-12-26T12:33:02.646Z</time>
      </trkpt>
      <trkpt lat="46.03509" lon="6.10983">
        <ele>855</ele>
        <time>2020-12-26T12:33:05.620Z</time>
      </trkpt>
      <trkpt lat="46.03507" lon="6.10985">
        <ele>855.6</ele>
        <time>2020-12-26T12:33:06.633Z</time>
      </trkpt>
      <trkpt lat="46.03503" lon="6.10991">
        <ele>856.4</ele>
        <time>2020-12-26T12:33:08.638Z</time>
      </trkpt>
      <trkpt lat="46.03501" lon="6.10996">
        <ele>856.7</ele>
        <time>2020-12-26T12:33:09.642Z</time>
      </trkpt>
      <trkpt lat="46.03498" lon="6.11004">
        <ele>856.8</ele>
        <time>2020-12-26T12:33:11.656Z</time>
      </trkpt>
      <trkpt lat="46.03497" lon="6.11009">
        <ele>856.7</ele>
        <time>2020-12-26T12:33:12.635Z</time>
      </trkpt>
      <trkpt lat="46.03497" lon="6.11021">
        <ele>857</ele>
        <time>2020-12-26T12:33:15.640Z</time>
      </trkpt>
      <trkpt lat="46.03497" lon="6.11024">
        <ele>857.1</ele>
        <time>2020-12-26T12:33:16.634Z</time>
      </trkpt>
      <trkpt lat="46.03499" lon="6.11033">
        <ele>857.2</ele>
        <time>2020-12-26T12:33:19.638Z</time>
      </trkpt>
      <trkpt lat="46.035" lon="6.11037">
        <ele>857</ele>
        <time>2020-12-26T12:33:20.637Z</time>
      </trkpt>
      <trkpt lat="46.03506" lon="6.11044">
        <ele>853.5</ele>
        <time>2020-12-26T12:33:23.636Z</time>
      </trkpt>
      <trkpt lat="46.03508" lon="6.11047">
        <ele>852.6</ele>
        <time>2020-12-26T12:33:24.638Z</time>
      </trkpt>
      <trkpt lat="46.03513" lon="6.11057">
        <ele>848.1</ele>
        <time>2020-12-26T12:33:27.682Z</time>
      </trkpt>
      <trkpt lat="46.03515" lon="6.11059">
        <ele>847.1</ele>
        <time>2020-12-26T12:33:28.638Z</time>
      </trkpt>
      <trkpt lat="46.03521" lon="6.11066">
        <ele>843.9</ele>
        <time>2020-12-26T12:33:31.635Z</time>
      </trkpt>
      <trkpt lat="46.03524" lon="6.11067">
        <ele>842.7</ele>
        <time>2020-12-26T12:33:32.644Z</time>
      </trkpt>
      <trkpt lat="46.0353" lon="6.11071">
        <ele>839.6</ele>
        <time>2020-12-26T12:33:35.650Z</time>
      </trkpt>
      <trkpt lat="46.03532" lon="6.11072">
        <ele>838.7</ele>
        <time>2020-12-26T12:33:36.633Z</time>
      </trkpt>
      <trkpt lat="46.03538" lon="6.11079">
        <ele>836.9</ele>
        <time>2020-12-26T12:33:40.646Z</time>
      </trkpt>
      <trkpt lat="46.03539" lon="6.11081">
        <ele>836.3</ele>
        <time>2020-12-26T12:33:41.634Z</time>
      </trkpt>
      <trkpt lat="46.03546" lon="6.11087">
        <ele>830.1</ele>
        <time>2020-12-26T12:33:49.648Z</time>
      </trkpt>
      <trkpt lat="46.03548" lon="6.11087">
        <ele>828.7</ele>
        <time>2020-12-26T12:33:50.678Z</time>
      </trkpt>
      <trkpt lat="46.03556" lon="6.11086">
        <ele>824.8</ele>
        <time>2020-12-26T12:33:54.648Z</time>
      </trkpt>
      <trkpt lat="46.03558" lon="6.11084">
        <ele>824.1</ele>
        <time>2020-12-26T12:33:55.626Z</time>
      </trkpt>
      <trkpt lat="46.03565" lon="6.11078">
        <ele>824.1</ele>
        <time>2020-12-26T12:33:59.624Z</time>
      </trkpt>
      <trkpt lat="46.03566" lon="6.11076">
        <ele>824.1</ele>
        <time>2020-12-26T12:34:00.638Z</time>
      </trkpt>
      <trkpt lat="46.03571" lon="6.11067">
        <ele>823.7</ele>
        <time>2020-12-26T12:34:04.640Z</time>
      </trkpt>
      <trkpt lat="46.03572" lon="6.11064">
        <ele>823.9</ele>
        <time>2020-12-26T12:34:05.637Z</time>
      </trkpt>
      <trkpt lat="46.03575" lon="6.11055">
        <ele>825.1</ele>
        <time>2020-12-26T12:34:08.639Z</time>
      </trkpt>
      <trkpt lat="46.03576" lon="6.11052">
        <ele>824.9</ele>
        <time>2020-12-26T12:34:09.653Z</time>
      </trkpt>
      <trkpt lat="46.0358" lon="6.11042">
        <ele>825.9</ele>
        <time>2020-12-26T12:34:13.644Z</time>
      </trkpt>
      <trkpt lat="46.03581" lon="6.1104">
        <ele>828.1</ele>
        <time>2020-12-26T12:34:14.626Z</time>
      </trkpt>
      <trkpt lat="46.03586" lon="6.11029">
        <ele>834.1</ele>
        <time>2020-12-26T12:34:20.636Z</time>
      </trkpt>
      <trkpt lat="46.03586" lon="6.11027">
        <ele>835.2</ele>
        <time>2020-12-26T12:34:21.639Z</time>
      </trkpt>
      <trkpt lat="46.03593" lon="6.11019">
        <ele>840.8</ele>
        <time>2020-12-26T12:34:27.658Z</time>
      </trkpt>
      <trkpt lat="46.03594" lon="6.11016">
        <ele>841.2</ele>
        <time>2020-12-26T12:34:28.646Z</time>
      </trkpt>
      <trkpt lat="46.03597" lon="6.11006">
        <ele>839.6</ele>
        <time>2020-12-26T12:34:31.640Z</time>
      </trkpt>
      <trkpt lat="46.03597" lon="6.11003">
        <ele>838.7</ele>
        <time>2020-12-26T12:34:32.635Z</time>
      </trkpt>
      <trkpt lat="46.03598" lon="6.10994">
        <ele>836.9</ele>
        <time>2020-12-26T12:34:34.637Z</time>
      </trkpt>
      <trkpt lat="46.03597" lon="6.10989">
        <ele>836.4</ele>
        <time>2020-12-26T12:34:35.633Z</time>
      </trkpt>
      <trkpt lat="46.03596" lon="6.10979">
        <ele>836</ele>
        <time>2020-12-26T12:34:37.638Z</time>
      </trkpt>
      <trkpt lat="46.03596" lon="6.10975">
        <ele>835.6</ele>
        <time>2020-12-26T12:34:38.637Z</time>
      </trkpt>
      <trkpt lat="46.03598" lon="6.10963">
        <ele>834.2</ele>
        <time>2020-12-26T12:34:42.636Z</time>
      </trkpt>
      <trkpt lat="46.03599" lon="6.1096">
        <ele>834.9</ele>
        <time>2020-12-26T12:34:43.636Z</time>
      </trkpt>
      <trkpt lat="46.03601" lon="6.10949">
        <ele>834.8</ele>
        <time>2020-12-26T12:34:48.652Z</time>
      </trkpt>
      <trkpt lat="46.03601" lon="6.10947">
        <ele>834.5</ele>
        <time>2020-12-26T12:34:49.640Z</time>
      </trkpt>
      <trkpt lat="46.03603" lon="6.10936">
        <ele>833.3</ele>
        <time>2020-12-26T12:34:54.638Z</time>
      </trkpt>
      <trkpt lat="46.03604" lon="6.10934">
        <ele>833.1</ele>
        <time>2020-12-26T12:34:55.634Z</time>
      </trkpt>
      <trkpt lat="46.03606" lon="6.10924">
        <ele>832.3</ele>
        <time>2020-12-26T12:35:00.626Z</time>
      </trkpt>
      <trkpt lat="46.03607" lon="6.10922">
        <ele>831.9</ele>
        <time>2020-12-26T12:35:01.641Z</time>
      </trkpt>
      <trkpt lat="46.03611" lon="6.10912">
        <ele>831.1</ele>
        <time>2020-12-26T12:35:06.644Z</time>
      </trkpt>
      <trkpt lat="46.03612" lon="6.1091">
        <ele>830.9</ele>
        <time>2020-12-26T12:35:07.638Z</time>
      </trkpt>
      <trkpt lat="46.03616" lon="6.10899">
        <ele>831.2</ele>
        <time>2020-12-26T12:35:12.638Z</time>
      </trkpt>
      <trkpt lat="46.03617" lon="6.10897">
        <ele>831.3</ele>
        <time>2020-12-26T12:35:13.642Z</time>
      </trkpt>
      <trkpt lat="46.03623" lon="6.10888">
        <ele>830.7</ele>
        <time>2020-12-26T12:35:19.636Z</time>
      </trkpt>
      <trkpt lat="46.03625" lon="6.10886">
        <ele>830.3</ele>
        <time>2020-12-26T12:35:20.641Z</time>
      </trkpt>
      <trkpt lat="46.03633" lon="6.1089">
        <ele>825.8</ele>
        <time>2020-12-26T12:35:25.633Z</time>
      </trkpt>
      <trkpt lat="46.03632" lon="6.10893">
        <ele>827.1</ele>
        <time>2020-12-26T12:35:26.648Z</time>
      </trkpt>
      <trkpt lat="46.03629" lon="6.10904">
        <ele>827.6</ele>
        <time>2020-12-26T12:35:30.636Z</time>
      </trkpt>
      <trkpt lat="46.03629" lon="6.10906">
        <ele>827.6</ele>
        <time>2020-12-26T12:35:31.637Z</time>
      </trkpt>
      <trkpt lat="46.03626" lon="6.10917">
        <ele>829.6</ele>
        <time>2020-12-26T12:35:37.652Z</time>
      </trkpt>
      <trkpt lat="46.03626" lon="6.10919">
        <ele>831</ele>
        <time>2020-12-26T12:35:38.641Z</time>
      </trkpt>
      <trkpt lat="46.03633" lon="6.10913">
        <ele>845.7</ele>
        <time>2020-12-26T12:35:49.639Z</time>
      </trkpt>
      <trkpt lat="46.03634" lon="6.10913">
        <ele>846.3</ele>
        <time>2020-12-26T12:35:50.635Z</time>
      </trkpt>
      <trkpt lat="46.03639" lon="6.10922">
        <ele>850.3</ele>
        <time>2020-12-26T12:36:00.638Z</time>
      </trkpt>
      <trkpt lat="46.03639" lon="6.10924">
        <ele>850.6</ele>
        <time>2020-12-26T12:36:01.639Z</time>
      </trkpt>
      <trkpt lat="46.03643" lon="6.10935">
        <ele>850.8</ele>
        <time>2020-12-26T12:36:06.649Z</time>
      </trkpt>
      <trkpt lat="46.03644" lon="6.10938">
        <ele>850.5</ele>
        <time>2020-12-26T12:36:07.644Z</time>
      </trkpt>
      <trkpt lat="46.03646" lon="6.10948">
        <ele>850.1</ele>
        <time>2020-12-26T12:36:11.641Z</time>
      </trkpt>
      <trkpt lat="46.03647" lon="6.10951">
        <ele>850.1</ele>
        <time>2020-12-26T12:36:12.637Z</time>
      </trkpt>
      <trkpt lat="46.03648" lon="6.10962">
        <ele>850.4</ele>
        <time>2020-12-26T12:36:16.634Z</time>
      </trkpt>
      <trkpt lat="46.03648" lon="6.10965">
        <ele>850.6</ele>
        <time>2020-12-26T12:36:17.633Z</time>
      </trkpt>
      <trkpt lat="46.03647" lon="6.10977">
        <ele>852.4</ele>
        <time>2020-12-26T12:36:22.640Z</time>
      </trkpt>
      <trkpt lat="46.03647" lon="6.1098">
        <ele>853.1</ele>
        <time>2020-12-26T12:36:23.641Z</time>
      </trkpt>
      <trkpt lat="46.03648" lon="6.10992">
        <ele>856</ele>
        <time>2020-12-26T12:36:28.634Z</time>
      </trkpt>
      <trkpt lat="46.03648" lon="6.10994">
        <ele>856.6</ele>
        <time>2020-12-26T12:36:29.648Z</time>
      </trkpt>
      <trkpt lat="46.03649" lon="6.11007">
        <ele>859.5</ele>
        <time>2020-12-26T12:36:34.649Z</time>
      </trkpt>
      <trkpt lat="46.0365" lon="6.11009">
        <ele>859.9</ele>
        <time>2020-12-26T12:36:35.641Z</time>
      </trkpt>
      <trkpt lat="46.03651" lon="6.11021">
        <ele>860.6</ele>
        <time>2020-12-26T12:36:40.630Z</time>
      </trkpt>
      <trkpt lat="46.03652" lon="6.11023">
        <ele>861.2</ele>
        <time>2020-12-26T12:36:41.644Z</time>
      </trkpt>
      <trkpt lat="46.03654" lon="6.11035">
        <ele>861.6</ele>
        <time>2020-12-26T12:36:46.636Z</time>
      </trkpt>
      <trkpt lat="46.03654" lon="6.11036">
        <ele>861.5</ele>
        <time>2020-12-26T12:36:47.633Z</time>
      </trkpt>
      <trkpt lat="46.03658" lon="6.11048">
        <ele>861.6</ele>
        <time>2020-12-26T12:36:53.646Z</time>
      </trkpt>
      <trkpt lat="46.03659" lon="6.11049">
        <ele>861.6</ele>
        <time>2020-12-26T12:36:54.638Z</time>
      </trkpt>
      <trkpt lat="46.03664" lon="6.11057">
        <ele>862.7</ele>
        <time>2020-12-26T12:37:00.645Z</time>
      </trkpt>
      <trkpt lat="46.03666" lon="6.11058">
        <ele>862.7</ele>
        <time>2020-12-26T12:37:01.638Z</time>
      </trkpt>
      <trkpt lat="46.03674" lon="6.11063">
        <ele>862.6</ele>
        <time>2020-12-26T12:37:08.729Z</time>
      </trkpt>
      <trkpt lat="46.03675" lon="6.11064">
        <ele>862.5</ele>
        <time>2020-12-26T12:37:09.658Z</time>
      </trkpt>
      <trkpt lat="46.03681" lon="6.11072">
        <ele>861.4</ele>
        <time>2020-12-26T12:37:15.624Z</time>
      </trkpt>
      <trkpt lat="46.03681" lon="6.11073">
        <ele>861.3</ele>
        <time>2020-12-26T12:37:16.630Z</time>
      </trkpt>
      <trkpt lat="46.03686" lon="6.11082">
        <ele>861.3</ele>
        <time>2020-12-26T12:37:20.673Z</time>
      </trkpt>
      <trkpt lat="46.03687" lon="6.11084">
        <ele>860.9</ele>
        <time>2020-12-26T12:37:21.638Z</time>
      </trkpt>
      <trkpt lat="46.0369" lon="6.11094">
        <ele>860.6</ele>
        <time>2020-12-26T12:37:25.639Z</time>
      </trkpt>
      <trkpt lat="46.03691" lon="6.11096">
        <ele>860.6</ele>
        <time>2020-12-26T12:37:26.634Z</time>
      </trkpt>
      <trkpt lat="46.03693" lon="6.11106">
        <ele>860.6</ele>
        <time>2020-12-26T12:37:31.645Z</time>
      </trkpt>
      <trkpt lat="46.03694" lon="6.11109">
        <ele>860.4</ele>
        <time>2020-12-26T12:37:32.709Z</time>
      </trkpt>
      <trkpt lat="46.03698" lon="6.11117">
        <ele>860.1</ele>
        <time>2020-12-26T12:37:36.676Z</time>
      </trkpt>
      <trkpt lat="46.03699" lon="6.11119">
        <ele>860.1</ele>
        <time>2020-12-26T12:37:37.647Z</time>
      </trkpt>
      <trkpt lat="46.03706" lon="6.11126">
        <ele>861.1</ele>
        <time>2020-12-26T12:37:42.636Z</time>
      </trkpt>
      <trkpt lat="46.03708" lon="6.11127">
        <ele>861.3</ele>
        <time>2020-12-26T12:37:43.630Z</time>
      </trkpt>
      <trkpt lat="46.03715" lon="6.11132">
        <ele>862.9</ele>
        <time>2020-12-26T12:37:47.630Z</time>
      </trkpt>
      <trkpt lat="46.03716" lon="6.11134">
        <ele>863.3</ele>
        <time>2020-12-26T12:37:48.637Z</time>
      </trkpt>
      <trkpt lat="46.03722" lon="6.11138">
        <ele>863.8</ele>
        <time>2020-12-26T12:37:51.668Z</time>
      </trkpt>
      <trkpt lat="46.03724" lon="6.1114">
        <ele>863.8</ele>
        <time>2020-12-26T12:37:52.633Z</time>
      </trkpt>
      <trkpt lat="46.03732" lon="6.11147">
        <ele>865.2</ele>
        <time>2020-12-26T12:37:56.661Z</time>
      </trkpt>
      <trkpt lat="46.03734" lon="6.11149">
        <ele>865.2</ele>
        <time>2020-12-26T12:37:57.643Z</time>
      </trkpt>
      <trkpt lat="46.03738" lon="6.11156">
        <ele>865.1</ele>
        <time>2020-12-26T12:38:00.644Z</time>
      </trkpt>
      <trkpt lat="46.0374" lon="6.11158">
        <ele>864.8</ele>
        <time>2020-12-26T12:38:01.639Z</time>
      </trkpt>
      <trkpt lat="46.03745" lon="6.11168">
        <ele>864.8</ele>
        <time>2020-12-26T12:38:05.633Z</time>
      </trkpt>
      <trkpt lat="46.03746" lon="6.1117">
        <ele>865</ele>
        <time>2020-12-26T12:38:06.637Z</time>
      </trkpt>
      <trkpt lat="46.03752" lon="6.11178">
        <ele>866.2</ele>
        <time>2020-12-26T12:38:11.635Z</time>
      </trkpt>
      <trkpt lat="46.03753" lon="6.1118">
        <ele>866.7</ele>
        <time>2020-12-26T12:38:12.639Z</time>
      </trkpt>
      <trkpt lat="46.03759" lon="6.1119">
        <ele>869.1</ele>
        <time>2020-12-26T12:38:17.634Z</time>
      </trkpt>
      <trkpt lat="46.0376" lon="6.11192">
        <ele>869.3</ele>
        <time>2020-12-26T12:38:18.662Z</time>
      </trkpt>
      <trkpt lat="46.03763" lon="6.11204">
        <ele>873.2</ele>
        <time>2020-12-26T12:38:23.640Z</time>
      </trkpt>
      <trkpt lat="46.03763" lon="6.11206">
        <ele>874.6</ele>
        <time>2020-12-26T12:38:24.653Z</time>
      </trkpt>
      <trkpt lat="46.03761" lon="6.11216">
        <ele>880.4</ele>
        <time>2020-12-26T12:38:32.689Z</time>
      </trkpt>
      <trkpt lat="46.03761" lon="6.11219">
        <ele>880.7</ele>
        <time>2020-12-26T12:38:33.633Z</time>
      </trkpt>
      <trkpt lat="46.03762" lon="6.11231">
        <ele>881.7</ele>
        <time>2020-12-26T12:38:37.626Z</time>
      </trkpt>
      <trkpt lat="46.03762" lon="6.11234">
        <ele>881.9</ele>
        <time>2020-12-26T12:38:38.624Z</time>
      </trkpt>
      <trkpt lat="46.03765" lon="6.11245">
        <ele>881.4</ele>
        <time>2020-12-26T12:38:43.673Z</time>
      </trkpt>
      <trkpt lat="46.03765" lon="6.11247">
        <ele>881.3</ele>
        <time>2020-12-26T12:38:44.660Z</time>
      </trkpt>
      <trkpt lat="46.03767" lon="6.11253">
        <ele>878.8</ele>
        <time>2020-12-26T12:38:55.638Z</time>
      </trkpt>
      <trkpt lat="46.0376" lon="6.11251">
        <ele>878.2</ele>
        <time>2020-12-26T12:38:56.646Z</time>
      </trkpt>
      <trkpt lat="46.0376" lon="6.11251">
        <ele>878.2</ele>
        <time>2020-12-26T12:39:03.634Z</time>
      </trkpt>
      <trkpt lat="46.03762" lon="6.11251">
        <ele>877.7</ele>
        <time>2020-12-26T12:39:04.644Z</time>
      </trkpt>
      <trkpt lat="46.03764" lon="6.11256">
        <ele>876.9</ele>
        <time>2020-12-26T12:39:07.686Z</time>
      </trkpt>
      <trkpt lat="46.03764" lon="6.11257">
        <ele>876.7</ele>
        <time>2020-12-26T12:39:08.636Z</time>
      </trkpt>
      <trkpt lat="46.03764" lon="6.11259">
        <ele>876.3</ele>
        <time>2020-12-26T12:39:09.652Z</time>
      </trkpt>
      <trkpt lat="46.03765" lon="6.11261">
        <ele>876.2</ele>
        <time>2020-12-26T12:39:10.660Z</time>
      </trkpt>
      <trkpt lat="46.03763" lon="6.11273">
        <ele>875.2</ele>
        <time>2020-12-26T12:39:15.642Z</time>
      </trkpt>
      <trkpt lat="46.03763" lon="6.11275">
        <ele>875.5</ele>
        <time>2020-12-26T12:39:16.636Z</time>
      </trkpt>
      <trkpt lat="46.03763" lon="6.11278">
        <ele>875.2</ele>
        <time>2020-12-26T12:39:18.635Z</time>
      </trkpt>
      <trkpt lat="46.03763" lon="6.11278">
        <ele>875.2</ele>
        <time>2020-12-26T12:39:19.697Z</time>
      </trkpt>
      <trkpt lat="46.03763" lon="6.11278">
        <ele>875.2</ele>
        <time>2020-12-26T12:39:21.632Z</time>
      </trkpt>
      <trkpt lat="46.03763" lon="6.1128">
        <ele>875.2</ele>
        <time>2020-12-26T12:39:22.644Z</time>
      </trkpt>
      <trkpt lat="46.03765" lon="6.11289">
        <ele>875.5</ele>
        <time>2020-12-26T12:39:25.684Z</time>
      </trkpt>
      <trkpt lat="46.03765" lon="6.11293">
        <ele>875.4</ele>
        <time>2020-12-26T12:39:26.642Z</time>
      </trkpt>
      <trkpt lat="46.03767" lon="6.11302">
        <ele>874.4</ele>
        <time>2020-12-26T12:39:29.641Z</time>
      </trkpt>
      <trkpt lat="46.03767" lon="6.11306">
        <ele>873.8</ele>
        <time>2020-12-26T12:39:30.646Z</time>
      </trkpt>
      <trkpt lat="46.03769" lon="6.11313">
        <ele>872.8</ele>
        <time>2020-12-26T12:39:32.639Z</time>
      </trkpt>
      <trkpt lat="46.03769" lon="6.11317">
        <ele>872.3</ele>
        <time>2020-12-26T12:39:33.647Z</time>
      </trkpt>
      <trkpt lat="46.03771" lon="6.1132">
        <ele>870.7</ele>
        <time>2020-12-26T12:39:36.637Z</time>
      </trkpt>
      <trkpt lat="46.03773" lon="6.11328">
        <ele>870.8</ele>
        <time>2020-12-26T12:39:37.683Z</time>
      </trkpt>
      <trkpt lat="46.03777" lon="6.1134">
        <ele>870</ele>
        <time>2020-12-26T12:39:43.683Z</time>
      </trkpt>
      <trkpt lat="46.03778" lon="6.11341">
        <ele>869.9</ele>
        <time>2020-12-26T12:39:44.676Z</time>
      </trkpt>
      <trkpt lat="46.03781" lon="6.1135">
        <ele>869.5</ele>
        <time>2020-12-26T12:39:52.643Z</time>
      </trkpt>
      <trkpt lat="46.03782" lon="6.11352">
        <ele>869.7</ele>
        <time>2020-12-26T12:39:53.644Z</time>
      </trkpt>
      <trkpt lat="46.03785" lon="6.1136">
        <ele>869.9</ele>
        <time>2020-12-26T12:39:55.676Z</time>
      </trkpt>
      <trkpt lat="46.03787" lon="6.11364">
        <ele>869.7</ele>
        <time>2020-12-26T12:39:56.641Z</time>
      </trkpt>
      <trkpt lat="46.03791" lon="6.11374">
        <ele>870.5</ele>
        <time>2020-12-26T12:39:59.648Z</time>
      </trkpt>
      <trkpt lat="46.03792" lon="6.11376">
        <ele>870.7</ele>
        <time>2020-12-26T12:40:00.628Z</time>
      </trkpt>
      <trkpt lat="46.03797" lon="6.11386">
        <ele>871.8</ele>
        <time>2020-12-26T12:40:04.639Z</time>
      </trkpt>
      <trkpt lat="46.03799" lon="6.1139">
        <ele>871.8</ele>
        <time>2020-12-26T12:40:05.635Z</time>
      </trkpt>
      <trkpt lat="46.03802" lon="6.11398">
        <ele>872.3</ele>
        <time>2020-12-26T12:40:07.685Z</time>
      </trkpt>
      <trkpt lat="46.03804" lon="6.11401">
        <ele>872.5</ele>
        <time>2020-12-26T12:40:08.669Z</time>
      </trkpt>
      <trkpt lat="46.03809" lon="6.11409">
        <ele>873.3</ele>
        <time>2020-12-26T12:40:10.652Z</time>
      </trkpt>
      <trkpt lat="46.03811" lon="6.11413">
        <ele>873.8</ele>
        <time>2020-12-26T12:40:11.650Z</time>
      </trkpt>
      <trkpt lat="46.03816" lon="6.11419">
        <ele>874.9</ele>
        <time>2020-12-26T12:40:13.680Z</time>
      </trkpt>
      <trkpt lat="46.03819" lon="6.11422">
        <ele>874.9</ele>
        <time>2020-12-26T12:40:14.639Z</time>
      </trkpt>
      <trkpt lat="46.03824" lon="6.11429">
        <ele>875.1</ele>
        <time>2020-12-26T12:40:17.646Z</time>
      </trkpt>
      <trkpt lat="46.03826" lon="6.11431">
        <ele>874.8</ele>
        <time>2020-12-26T12:40:18.633Z</time>
      </trkpt>
      <trkpt lat="46.03832" lon="6.11438">
        <ele>873</ele>
        <time>2020-12-26T12:40:22.651Z</time>
      </trkpt>
      <trkpt lat="46.03834" lon="6.11439">
        <ele>872.6</ele>
        <time>2020-12-26T12:40:23.646Z</time>
      </trkpt>
      <trkpt lat="46.03839" lon="6.11447">
        <ele>871.9</ele>
        <time>2020-12-26T12:40:27.636Z</time>
      </trkpt>
      <trkpt lat="46.0384" lon="6.1145">
        <ele>871.4</ele>
        <time>2020-12-26T12:40:28.634Z</time>
      </trkpt>
      <trkpt lat="46.03846" lon="6.11459">
        <ele>871.1</ele>
        <time>2020-12-26T12:40:34.635Z</time>
      </trkpt>
      <trkpt lat="46.03847" lon="6.1146">
        <ele>870.9</ele>
        <time>2020-12-26T12:40:35.652Z</time>
      </trkpt>
      <trkpt lat="46.03854" lon="6.11466">
        <ele>870.1</ele>
        <time>2020-12-26T12:40:39.643Z</time>
      </trkpt>
      <trkpt lat="46.03856" lon="6.11468">
        <ele>870.2</ele>
        <time>2020-12-26T12:40:40.641Z</time>
      </trkpt>
      <trkpt lat="46.03864" lon="6.11472">
        <ele>872.8</ele>
        <time>2020-12-26T12:40:43.659Z</time>
      </trkpt>
      <trkpt lat="46.03867" lon="6.11473">
        <ele>873.6</ele>
        <time>2020-12-26T12:40:44.675Z</time>
      </trkpt>
      <trkpt lat="46.03874" lon="6.11477">
        <ele>877.4</ele>
        <time>2020-12-26T12:40:47.636Z</time>
      </trkpt>
      <trkpt lat="46.03876" lon="6.11478">
        <ele>877.9</ele>
        <time>2020-12-26T12:40:48.692Z</time>
      </trkpt>
      <trkpt lat="46.03883" lon="6.11484">
        <ele>879</ele>
        <time>2020-12-26T12:40:52.638Z</time>
      </trkpt>
      <trkpt lat="46.03885" lon="6.11485">
        <ele>879.3</ele>
        <time>2020-12-26T12:40:53.669Z</time>
      </trkpt>
      <trkpt lat="46.03893" lon="6.11491">
        <ele>881.1</ele>
        <time>2020-12-26T12:40:58.634Z</time>
      </trkpt>
      <trkpt lat="46.03894" lon="6.11492">
        <ele>881.6</ele>
        <time>2020-12-26T12:40:59.649Z</time>
      </trkpt>
      <trkpt lat="46.03901" lon="6.11496">
        <ele>882.2</ele>
        <time>2020-12-26T12:41:03.648Z</time>
      </trkpt>
      <trkpt lat="46.03903" lon="6.11497">
        <ele>882.4</ele>
        <time>2020-12-26T12:41:04.637Z</time>
      </trkpt>
      <trkpt lat="46.03909" lon="6.11504">
        <ele>884.5</ele>
        <time>2020-12-26T12:41:08.643Z</time>
      </trkpt>
      <trkpt lat="46.03911" lon="6.11505">
        <ele>884.7</ele>
        <time>2020-12-26T12:41:09.641Z</time>
      </trkpt>
      <trkpt lat="46.03918" lon="6.11511">
        <ele>884.2</ele>
        <time>2020-12-26T12:41:13.639Z</time>
      </trkpt>
      <trkpt lat="46.0392" lon="6.11513">
        <ele>883.2</ele>
        <time>2020-12-26T12:41:14.638Z</time>
      </trkpt>
      <trkpt lat="46.03927" lon="6.1152">
        <ele>880.9</ele>
        <time>2020-12-26T12:41:18.643Z</time>
      </trkpt>
      <trkpt lat="46.03928" lon="6.11522">
        <ele>880.8</ele>
        <time>2020-12-26T12:41:19.658Z</time>
      </trkpt>
      <trkpt lat="46.03934" lon="6.11531">
        <ele>878.9</ele>
        <time>2020-12-26T12:41:23.683Z</time>
      </trkpt>
      <trkpt lat="46.03935" lon="6.11532">
        <ele>878.6</ele>
        <time>2020-12-26T12:41:24.634Z</time>
      </trkpt>
      <trkpt lat="46.03942" lon="6.11539">
        <ele>879.5</ele>
        <time>2020-12-26T12:41:28.641Z</time>
      </trkpt>
      <trkpt lat="46.03944" lon="6.11542">
        <ele>879.6</ele>
        <time>2020-12-26T12:41:29.682Z</time>
      </trkpt>
      <trkpt lat="46.03949" lon="6.11548">
        <ele>880.2</ele>
        <time>2020-12-26T12:41:32.640Z</time>
      </trkpt>
      <trkpt lat="46.03951" lon="6.1155">
        <ele>880.9</ele>
        <time>2020-12-26T12:41:33.650Z</time>
      </trkpt>
      <trkpt lat="46.03958" lon="6.11557">
        <ele>883.7</ele>
        <time>2020-12-26T12:41:37.639Z</time>
      </trkpt>
      <trkpt lat="46.0396" lon="6.11558">
        <ele>883.9</ele>
        <time>2020-12-26T12:41:38.638Z</time>
      </trkpt>
      <trkpt lat="46.03967" lon="6.11564">
        <ele>884.7</ele>
        <time>2020-12-26T12:41:42.645Z</time>
      </trkpt>
      <trkpt lat="46.03969" lon="6.11566">
        <ele>884.9</ele>
        <time>2020-12-26T12:41:43.624Z</time>
      </trkpt>
      <trkpt lat="46.03976" lon="6.11571">
        <ele>886.5</ele>
        <time>2020-12-26T12:41:47.664Z</time>
      </trkpt>
      <trkpt lat="46.03977" lon="6.11572">
        <ele>886.5</ele>
        <time>2020-12-26T12:41:48.631Z</time>
      </trkpt>
      <trkpt lat="46.03983" lon="6.11578">
        <ele>886</ele>
        <time>2020-12-26T12:41:52.629Z</time>
      </trkpt>
      <trkpt lat="46.03985" lon="6.1158">
        <ele>886</ele>
        <time>2020-12-26T12:41:53.640Z</time>
      </trkpt>
      <trkpt lat="46.03991" lon="6.11585">
        <ele>885.2</ele>
        <time>2020-12-26T12:41:57.647Z</time>
      </trkpt>
      <trkpt lat="46.03993" lon="6.11587">
        <ele>885</ele>
        <time>2020-12-26T12:41:58.684Z</time>
      </trkpt>
      <trkpt lat="46.04" lon="6.11593">
        <ele>882.6</ele>
        <time>2020-12-26T12:42:02.669Z</time>
      </trkpt>
      <trkpt lat="46.04002" lon="6.11594">
        <ele>882</ele>
        <time>2020-12-26T12:42:03.651Z</time>
      </trkpt>
      <trkpt lat="46.04009" lon="6.116">
        <ele>879.8</ele>
        <time>2020-12-26T12:42:07.650Z</time>
      </trkpt>
      <trkpt lat="46.04011" lon="6.11601">
        <ele>879.5</ele>
        <time>2020-12-26T12:42:08.630Z</time>
      </trkpt>
      <trkpt lat="46.04019" lon="6.11606">
        <ele>876.6</ele>
        <time>2020-12-26T12:42:12.634Z</time>
      </trkpt>
      <trkpt lat="46.04021" lon="6.11607">
        <ele>876</ele>
        <time>2020-12-26T12:42:13.648Z</time>
      </trkpt>
      <trkpt lat="46.0403" lon="6.11612">
        <ele>874</ele>
        <time>2020-12-26T12:42:17.639Z</time>
      </trkpt>
      <trkpt lat="46.04032" lon="6.11613">
        <ele>873.7</ele>
        <time>2020-12-26T12:42:18.645Z</time>
      </trkpt>
      <trkpt lat="46.04039" lon="6.11615">
        <ele>871.2</ele>
        <time>2020-12-26T12:42:21.647Z</time>
      </trkpt>
      <trkpt lat="46.04041" lon="6.11616">
        <ele>870.2</ele>
        <time>2020-12-26T12:42:22.645Z</time>
      </trkpt>
      <trkpt lat="46.04047" lon="6.11619">
        <ele>867.8</ele>
        <time>2020-12-26T12:42:25.638Z</time>
      </trkpt>
      <trkpt lat="46.04049" lon="6.1162">
        <ele>867.2</ele>
        <time>2020-12-26T12:42:26.683Z</time>
      </trkpt>
      <trkpt lat="46.04058" lon="6.11625">
        <ele>865.3</ele>
        <time>2020-12-26T12:42:30.635Z</time>
      </trkpt>
      <trkpt lat="46.0406" lon="6.11626">
        <ele>864.8</ele>
        <time>2020-12-26T12:42:31.635Z</time>
      </trkpt>
      <trkpt lat="46.04067" lon="6.11633">
        <ele>862.6</ele>
        <time>2020-12-26T12:42:35.644Z</time>
      </trkpt>
      <trkpt lat="46.04069" lon="6.11634">
        <ele>862.2</ele>
        <time>2020-12-26T12:42:36.645Z</time>
      </trkpt>
      <trkpt lat="46.04075" lon="6.1164">
        <ele>860.8</ele>
        <time>2020-12-26T12:42:40.647Z</time>
      </trkpt>
      <trkpt lat="46.04076" lon="6.11641">
        <ele>860.7</ele>
        <time>2020-12-26T12:42:41.651Z</time>
      </trkpt>
      <trkpt lat="46.04083" lon="6.11646">
        <ele>861.4</ele>
        <time>2020-12-26T12:42:45.652Z</time>
      </trkpt>
      <trkpt lat="46.04085" lon="6.11648">
        <ele>861.5</ele>
        <time>2020-12-26T12:42:46.667Z</time>
      </trkpt>
      <trkpt lat="46.04091" lon="6.11655">
        <ele>862.2</ele>
        <time>2020-12-26T12:42:50.655Z</time>
      </trkpt>
      <trkpt lat="46.04093" lon="6.11657">
        <ele>862.3</ele>
        <time>2020-12-26T12:42:51.664Z</time>
      </trkpt>
      <trkpt lat="46.04099" lon="6.11664">
        <ele>863.5</ele>
        <time>2020-12-26T12:42:55.681Z</time>
      </trkpt>
      <trkpt lat="46.04101" lon="6.11665">
        <ele>863.5</ele>
        <time>2020-12-26T12:42:56.638Z</time>
      </trkpt>
      <trkpt lat="46.04107" lon="6.11672">
        <ele>863.3</ele>
        <time>2020-12-26T12:43:00.636Z</time>
      </trkpt>
      <trkpt lat="46.04108" lon="6.11674">
        <ele>863.6</ele>
        <time>2020-12-26T12:43:01.678Z</time>
      </trkpt>
      <trkpt lat="46.04114" lon="6.11682">
        <ele>862.8</ele>
        <time>2020-12-26T12:43:05.637Z</time>
      </trkpt>
      <trkpt lat="46.04115" lon="6.11684">
        <ele>862.5</ele>
        <time>2020-12-26T12:43:06.643Z</time>
      </trkpt>
      <trkpt lat="46.04121" lon="6.11694">
        <ele>861.7</ele>
        <time>2020-12-26T12:43:10.633Z</time>
      </trkpt>
      <trkpt lat="46.04123" lon="6.11696">
        <ele>861.6</ele>
        <time>2020-12-26T12:43:11.640Z</time>
      </trkpt>
      <trkpt lat="46.04129" lon="6.11705">
        <ele>861.1</ele>
        <time>2020-12-26T12:43:15.639Z</time>
      </trkpt>
      <trkpt lat="46.0413" lon="6.11708">
        <ele>861.2</ele>
        <time>2020-12-26T12:43:16.662Z</time>
      </trkpt>
      <trkpt lat="46.04136" lon="6.11716">
        <ele>860.9</ele>
        <time>2020-12-26T12:43:20.644Z</time>
      </trkpt>
      <trkpt lat="46.04137" lon="6.11718">
        <ele>860.7</ele>
        <time>2020-12-26T12:43:21.636Z</time>
      </trkpt>
      <trkpt lat="46.04143" lon="6.11725">
        <ele>860.9</ele>
        <time>2020-12-26T12:43:25.681Z</time>
      </trkpt>
      <trkpt lat="46.04145" lon="6.11727">
        <ele>860.8</ele>
        <time>2020-12-26T12:43:26.638Z</time>
      </trkpt>
      <trkpt lat="46.0415" lon="6.11734">
        <ele>861.5</ele>
        <time>2020-12-26T12:43:30.664Z</time>
      </trkpt>
      <trkpt lat="46.04151" lon="6.11736">
        <ele>861.6</ele>
        <time>2020-12-26T12:43:31.678Z</time>
      </trkpt>
      <trkpt lat="46.04157" lon="6.11744">
        <ele>861.8</ele>
        <time>2020-12-26T12:43:35.633Z</time>
      </trkpt>
      <trkpt lat="46.04159" lon="6.11746">
        <ele>861.8</ele>
        <time>2020-12-26T12:43:36.637Z</time>
      </trkpt>
      <trkpt lat="46.04165" lon="6.11753">
        <ele>862.7</ele>
        <time>2020-12-26T12:43:40.636Z</time>
      </trkpt>
      <trkpt lat="46.04167" lon="6.11755">
        <ele>863</ele>
        <time>2020-12-26T12:43:41.638Z</time>
      </trkpt>
      <trkpt lat="46.04174" lon="6.11762">
        <ele>864.5</ele>
        <time>2020-12-26T12:43:46.633Z</time>
      </trkpt>
      <trkpt lat="46.04175" lon="6.11764">
        <ele>864.7</ele>
        <time>2020-12-26T12:43:47.642Z</time>
      </trkpt>
      <trkpt lat="46.04183" lon="6.1177">
        <ele>866.5</ele>
        <time>2020-12-26T12:43:52.651Z</time>
      </trkpt>
      <trkpt lat="46.04185" lon="6.11771">
        <ele>867.1</ele>
        <time>2020-12-26T12:43:53.645Z</time>
      </trkpt>
      <trkpt lat="46.04192" lon="6.11774">
        <ele>867.6</ele>
        <time>2020-12-26T12:43:57.638Z</time>
      </trkpt>
      <trkpt lat="46.04194" lon="6.11775">
        <ele>867.6</ele>
        <time>2020-12-26T12:43:58.646Z</time>
      </trkpt>
      <trkpt lat="46.04202" lon="6.1178">
        <ele>865.8</ele>
        <time>2020-12-26T12:44:03.651Z</time>
      </trkpt>
      <trkpt lat="46.04204" lon="6.11781">
        <ele>865.6</ele>
        <time>2020-12-26T12:44:04.643Z</time>
      </trkpt>
      <trkpt lat="46.04204" lon="6.11768">
        <ele>863.7</ele>
        <time>2020-12-26T12:44:13.694Z</time>
      </trkpt>
      <trkpt lat="46.04203" lon="6.11766">
        <ele>863.7</ele>
        <time>2020-12-26T12:44:14.637Z</time>
      </trkpt>
      <trkpt lat="46.04201" lon="6.11755">
        <ele>865.3</ele>
        <time>2020-12-26T12:44:18.636Z</time>
      </trkpt>
      <trkpt lat="46.04201" lon="6.11753">
        <ele>865.5</ele>
        <time>2020-12-26T12:44:19.682Z</time>
      </trkpt>
      <trkpt lat="46.04205" lon="6.11742">
        <ele>865.9</ele>
        <time>2020-12-26T12:44:25.676Z</time>
      </trkpt>
      <trkpt lat="46.04206" lon="6.11741">
        <ele>866.2</ele>
        <time>2020-12-26T12:44:26.635Z</time>
      </trkpt>
      <trkpt lat="46.04211" lon="6.11734">
        <ele>868.4</ele>
        <time>2020-12-26T12:44:32.638Z</time>
      </trkpt>
      <trkpt lat="46.04212" lon="6.11732">
        <ele>868.7</ele>
        <time>2020-12-26T12:44:33.652Z</time>
      </trkpt>
      <trkpt lat="46.04217" lon="6.11721">
        <ele>867.8</ele>
        <time>2020-12-26T12:44:39.632Z</time>
      </trkpt>
      <trkpt lat="46.04218" lon="6.11719">
        <ele>867.5</ele>
        <time>2020-12-26T12:44:40.643Z</time>
      </trkpt>
      <trkpt lat="46.04222" lon="6.11708">
        <ele>866.3</ele>
        <time>2020-12-26T12:44:46.639Z</time>
      </trkpt>
      <trkpt lat="46.04222" lon="6.11706">
        <ele>866.1</ele>
        <time>2020-12-26T12:44:47.644Z</time>
      </trkpt>
      <trkpt lat="46.04226" lon="6.11697">
        <ele>865</ele>
        <time>2020-12-26T12:44:52.644Z</time>
      </trkpt>
      <trkpt lat="46.04227" lon="6.11695">
        <ele>864.7</ele>
        <time>2020-12-26T12:44:53.643Z</time>
      </trkpt>
      <trkpt lat="46.04231" lon="6.11683">
        <ele>863.7</ele>
        <time>2020-12-26T12:44:59.636Z</time>
      </trkpt>
      <trkpt lat="46.04232" lon="6.11681">
        <ele>863.8</ele>
        <time>2020-12-26T12:45:00.637Z</time>
      </trkpt>
      <trkpt lat="46.04236" lon="6.1167">
        <ele>864.2</ele>
        <time>2020-12-26T12:45:06.639Z</time>
      </trkpt>
      <trkpt lat="46.04237" lon="6.11669">
        <ele>864.1</ele>
        <time>2020-12-26T12:45:07.695Z</time>
      </trkpt>
      <trkpt lat="46.04241" lon="6.11659">
        <ele>863</ele>
        <time>2020-12-26T12:45:12.637Z</time>
      </trkpt>
      <trkpt lat="46.04242" lon="6.11657">
        <ele>863.1</ele>
        <time>2020-12-26T12:45:13.645Z</time>
      </trkpt>
      <trkpt lat="46.04246" lon="6.11648">
        <ele>863.8</ele>
        <time>2020-12-26T12:45:17.644Z</time>
      </trkpt>
      <trkpt lat="46.04247" lon="6.11646">
        <ele>864</ele>
        <time>2020-12-26T12:45:18.683Z</time>
      </trkpt>
      <trkpt lat="46.04251" lon="6.11637">
        <ele>863.6</ele>
        <time>2020-12-26T12:45:22.640Z</time>
      </trkpt>
      <trkpt lat="46.04253" lon="6.11635">
        <ele>863.8</ele>
        <time>2020-12-26T12:45:23.639Z</time>
      </trkpt>
      <trkpt lat="46.04259" lon="6.11627">
        <ele>864.2</ele>
        <time>2020-12-26T12:45:28.639Z</time>
      </trkpt>
      <trkpt lat="46.0426" lon="6.11625">
        <ele>864.6</ele>
        <time>2020-12-26T12:45:29.661Z</time>
      </trkpt>
      <trkpt lat="46.04267" lon="6.11621">
        <ele>865.8</ele>
        <time>2020-12-26T12:45:34.635Z</time>
      </trkpt>
      <trkpt lat="46.04269" lon="6.11621">
        <ele>865.9</ele>
        <time>2020-12-26T12:45:35.633Z</time>
      </trkpt>
      <trkpt lat="46.04276" lon="6.11621">
        <ele>866.4</ele>
        <time>2020-12-26T12:45:39.647Z</time>
      </trkpt>
      <trkpt lat="46.04278" lon="6.11621">
        <ele>866.7</ele>
        <time>2020-12-26T12:45:40.644Z</time>
      </trkpt>
      <trkpt lat="46.04285" lon="6.11623">
        <ele>866.9</ele>
        <time>2020-12-26T12:45:44.648Z</time>
      </trkpt>
      <trkpt lat="46.04287" lon="6.11623">
        <ele>867</ele>
        <time>2020-12-26T12:45:45.631Z</time>
      </trkpt>
      <trkpt lat="46.04295" lon="6.11622">
        <ele>866.5</ele>
        <time>2020-12-26T12:45:50.632Z</time>
      </trkpt>
      <trkpt lat="46.04297" lon="6.11622">
        <ele>866.7</ele>
        <time>2020-12-26T12:45:51.640Z</time>
      </trkpt>
      <trkpt lat="46.04306" lon="6.11621">
        <ele>866.1</ele>
        <time>2020-12-26T12:45:56.658Z</time>
      </trkpt>
      <trkpt lat="46.04307" lon="6.11621">
        <ele>866</ele>
        <time>2020-12-26T12:45:57.643Z</time>
      </trkpt>
      <trkpt lat="46.04315" lon="6.11625">
        <ele>865.4</ele>
        <time>2020-12-26T12:46:04.658Z</time>
      </trkpt>
      <trkpt lat="46.04316" lon="6.11625">
        <ele>865.5</ele>
        <time>2020-12-26T12:46:05.651Z</time>
      </trkpt>
      <trkpt lat="46.04325" lon="6.11624">
        <ele>867.8</ele>
        <time>2020-12-26T12:46:10.635Z</time>
      </trkpt>
      <trkpt lat="46.04327" lon="6.11624">
        <ele>868.3</ele>
        <time>2020-12-26T12:46:11.644Z</time>
      </trkpt>
      <trkpt lat="46.04335" lon="6.11624">
        <ele>869.7</ele>
        <time>2020-12-26T12:46:16.637Z</time>
      </trkpt>
      <trkpt lat="46.04337" lon="6.11624">
        <ele>869.9</ele>
        <time>2020-12-26T12:46:17.634Z</time>
      </trkpt>
      <trkpt lat="46.04345" lon="6.11625">
        <ele>870</ele>
        <time>2020-12-26T12:46:22.638Z</time>
      </trkpt>
      <trkpt lat="46.04346" lon="6.11625">
        <ele>870.2</ele>
        <time>2020-12-26T12:46:23.635Z</time>
      </trkpt>
      <trkpt lat="46.04354" lon="6.11628">
        <ele>870.8</ele>
        <time>2020-12-26T12:46:29.651Z</time>
      </trkpt>
      <trkpt lat="46.04355" lon="6.11628">
        <ele>870.7</ele>
        <time>2020-12-26T12:46:30.677Z</time>
      </trkpt>
      <trkpt lat="46.04362" lon="6.11632">
        <ele>872.7</ele>
        <time>2020-12-26T12:46:35.651Z</time>
      </trkpt>
      <trkpt lat="46.04364" lon="6.11633">
        <ele>873.2</ele>
        <time>2020-12-26T12:46:36.641Z</time>
      </trkpt>
      <trkpt lat="46.04371" lon="6.11637">
        <ele>873.9</ele>
        <time>2020-12-26T12:46:40.640Z</time>
      </trkpt>
      <trkpt lat="46.04372" lon="6.11638">
        <ele>874.2</ele>
        <time>2020-12-26T12:46:41.637Z</time>
      </trkpt>
      <trkpt lat="46.04379" lon="6.11645">
        <ele>877.6</ele>
        <time>2020-12-26T12:46:47.632Z</time>
      </trkpt>
      <trkpt lat="46.04379" lon="6.11646">
        <ele>877.9</ele>
        <time>2020-12-26T12:46:48.638Z</time>
      </trkpt>
      <trkpt lat="46.04387" lon="6.1165">
        <ele>881.7</ele>
        <time>2020-12-26T12:46:54.656Z</time>
      </trkpt>
      <trkpt lat="46.04388" lon="6.11649">
        <ele>882</ele>
        <time>2020-12-26T12:46:55.631Z</time>
      </trkpt>
      <trkpt lat="46.04396" lon="6.11642">
        <ele>881.7</ele>
        <time>2020-12-26T12:47:02.985Z</time>
      </trkpt>
      <trkpt lat="46.04397" lon="6.11642">
        <ele>882</ele>
        <time>2020-12-26T12:47:03.645Z</time>
      </trkpt>
      <trkpt lat="46.04402" lon="6.11653">
        <ele>887.2</ele>
        <time>2020-12-26T12:47:11.655Z</time>
      </trkpt>
      <trkpt lat="46.04403" lon="6.11655">
        <ele>887.6</ele>
        <time>2020-12-26T12:47:12.644Z</time>
      </trkpt>
      <trkpt lat="46.04409" lon="6.11663">
        <ele>894</ele>
        <time>2020-12-26T12:47:25.640Z</time>
      </trkpt>
      <trkpt lat="46.04409" lon="6.11664">
        <ele>894.6</ele>
        <time>2020-12-26T12:47:26.644Z</time>
      </trkpt>
      <trkpt lat="46.04414" lon="6.11675">
        <ele>899.9</ele>
        <time>2020-12-26T12:47:33.709Z</time>
      </trkpt>
      <trkpt lat="46.04415" lon="6.11677">
        <ele>900.4</ele>
        <time>2020-12-26T12:47:34.636Z</time>
      </trkpt>
      <trkpt lat="46.04415" lon="6.11689">
        <ele>904</ele>
        <time>2020-12-26T12:47:40.639Z</time>
      </trkpt>
      <trkpt lat="46.04414" lon="6.11692">
        <ele>904.3</ele>
        <time>2020-12-26T12:47:41.652Z</time>
      </trkpt>
      <trkpt lat="46.04414" lon="6.11703">
        <ele>903.9</ele>
        <time>2020-12-26T12:47:47.720Z</time>
      </trkpt>
      <trkpt lat="46.04414" lon="6.11704">
        <ele>903.8</ele>
        <time>2020-12-26T12:47:48.646Z</time>
      </trkpt>
      <trkpt lat="46.04421" lon="6.1171">
        <ele>903.3</ele>
        <time>2020-12-26T12:47:53.637Z</time>
      </trkpt>
      <trkpt lat="46.04423" lon="6.1171">
        <ele>903.3</ele>
        <time>2020-12-26T12:47:54.656Z</time>
      </trkpt>
      <trkpt lat="46.0443" lon="6.11705">
        <ele>902.4</ele>
        <time>2020-12-26T12:48:00.656Z</time>
      </trkpt>
      <trkpt lat="46.04431" lon="6.11705">
        <ele>902.3</ele>
        <time>2020-12-26T12:48:01.709Z</time>
      </trkpt>
      <trkpt lat="46.04439" lon="6.1171">
        <ele>899.7</ele>
        <time>2020-12-26T12:48:06.638Z</time>
      </trkpt>
      <trkpt lat="46.04439" lon="6.11713">
        <ele>899.5</ele>
        <time>2020-12-26T12:48:07.682Z</time>
      </trkpt>
      <trkpt lat="46.04443" lon="6.11724">
        <ele>899.2</ele>
        <time>2020-12-26T12:48:11.672Z</time>
      </trkpt>
      <trkpt lat="46.04444" lon="6.11726">
        <ele>899.5</ele>
        <time>2020-12-26T12:48:12.634Z</time>
      </trkpt>
      <trkpt lat="46.04448" lon="6.11735">
        <ele>900</ele>
        <time>2020-12-26T12:48:16.645Z</time>
      </trkpt>
      <trkpt lat="46.04449" lon="6.11737">
        <ele>900.1</ele>
        <time>2020-12-26T12:48:17.619Z</time>
      </trkpt>
      <trkpt lat="46.04456" lon="6.11744">
        <ele>899</ele>
        <time>2020-12-26T12:48:22.645Z</time>
      </trkpt>
      <trkpt lat="46.04458" lon="6.11745">
        <ele>898.8</ele>
        <time>2020-12-26T12:48:23.644Z</time>
      </trkpt>
      <trkpt lat="46.04464" lon="6.1175">
        <ele>898.1</ele>
        <time>2020-12-26T12:48:27.644Z</time>
      </trkpt>
      <trkpt lat="46.04466" lon="6.11752">
        <ele>898</ele>
        <time>2020-12-26T12:48:28.650Z</time>
      </trkpt>
      <trkpt lat="46.04472" lon="6.11757">
        <ele>897.9</ele>
        <time>2020-12-26T12:48:32.640Z</time>
      </trkpt>
      <trkpt lat="46.04474" lon="6.11758">
        <ele>897.9</ele>
        <time>2020-12-26T12:48:33.641Z</time>
      </trkpt>
      <trkpt lat="46.0448" lon="6.11766">
        <ele>898.9</ele>
        <time>2020-12-26T12:48:38.643Z</time>
      </trkpt>
      <trkpt lat="46.04481" lon="6.11767">
        <ele>899.2</ele>
        <time>2020-12-26T12:48:39.649Z</time>
      </trkpt>
      <trkpt lat="46.04487" lon="6.11777">
        <ele>901.3</ele>
        <time>2020-12-26T12:48:44.634Z</time>
      </trkpt>
      <trkpt lat="46.04488" lon="6.11778">
        <ele>901.5</ele>
        <time>2020-12-26T12:48:45.642Z</time>
      </trkpt>
      <trkpt lat="46.04494" lon="6.11786">
        <ele>903.4</ele>
        <time>2020-12-26T12:48:50.634Z</time>
      </trkpt>
      <trkpt lat="46.04495" lon="6.11788">
        <ele>903.7</ele>
        <time>2020-12-26T12:48:51.645Z</time>
      </trkpt>
      <trkpt lat="46.04502" lon="6.11795">
        <ele>904</ele>
        <time>2020-12-26T12:48:56.643Z</time>
      </trkpt>
      <trkpt lat="46.04503" lon="6.11796">
        <ele>904.6</ele>
        <time>2020-12-26T12:48:57.655Z</time>
      </trkpt>
      <trkpt lat="46.04511" lon="6.11802">
        <ele>904.8</ele>
        <time>2020-12-26T12:49:02.631Z</time>
      </trkpt>
      <trkpt lat="46.04511" lon="6.11804">
        <ele>904.8</ele>
        <time>2020-12-26T12:49:03.645Z</time>
      </trkpt>
      <trkpt lat="46.04519" lon="6.11805">
        <ele>901.2</ele>
        <time>2020-12-26T12:49:11.633Z</time>
      </trkpt>
      <trkpt lat="46.0452" lon="6.11807">
        <ele>901.2</ele>
        <time>2020-12-26T12:49:12.640Z</time>
      </trkpt>
      <trkpt lat="46.04527" lon="6.11813">
        <ele>902.1</ele>
        <time>2020-12-26T12:49:15.639Z</time>
      </trkpt>
      <trkpt lat="46.04528" lon="6.11815">
        <ele>902.3</ele>
        <time>2020-12-26T12:49:16.640Z</time>
      </trkpt>
      <trkpt lat="46.04536" lon="6.11822">
        <ele>902.8</ele>
        <time>2020-12-26T12:49:20.646Z</time>
      </trkpt>
      <trkpt lat="46.04537" lon="6.11824">
        <ele>902.7</ele>
        <time>2020-12-26T12:49:21.639Z</time>
      </trkpt>
      <trkpt lat="46.04544" lon="6.11832">
        <ele>902.9</ele>
        <time>2020-12-26T12:49:25.690Z</time>
      </trkpt>
      <trkpt lat="46.04545" lon="6.11833">
        <ele>903.1</ele>
        <time>2020-12-26T12:49:26.643Z</time>
      </trkpt>
      <trkpt lat="46.04551" lon="6.11841">
        <ele>903.7</ele>
        <time>2020-12-26T12:49:30.636Z</time>
      </trkpt>
      <trkpt lat="46.04552" lon="6.11843">
        <ele>903.6</ele>
        <time>2020-12-26T12:49:31.682Z</time>
      </trkpt>
      <trkpt lat="46.04558" lon="6.11849">
        <ele>903.9</ele>
        <time>2020-12-26T12:49:35.635Z</time>
      </trkpt>
      <trkpt lat="46.0456" lon="6.11851">
        <ele>904</ele>
        <time>2020-12-26T12:49:36.658Z</time>
      </trkpt>
      <trkpt lat="46.04567" lon="6.11858">
        <ele>904.9</ele>
        <time>2020-12-26T12:49:41.649Z</time>
      </trkpt>
      <trkpt lat="46.04568" lon="6.11859">
        <ele>904.9</ele>
        <time>2020-12-26T12:49:42.688Z</time>
      </trkpt>
      <trkpt lat="46.04573" lon="6.11868">
        <ele>906.8</ele>
        <time>2020-12-26T12:49:49.674Z</time>
      </trkpt>
      <trkpt lat="46.04574" lon="6.1187">
        <ele>906.9</ele>
        <time>2020-12-26T12:49:50.634Z</time>
      </trkpt>
      <trkpt lat="46.04581" lon="6.11877">
        <ele>907.4</ele>
        <time>2020-12-26T12:49:55.633Z</time>
      </trkpt>
      <trkpt lat="46.04582" lon="6.11878">
        <ele>907.4</ele>
        <time>2020-12-26T12:49:56.643Z</time>
      </trkpt>
      <trkpt lat="46.04588" lon="6.11884">
        <ele>908.7</ele>
        <time>2020-12-26T12:50:00.678Z</time>
      </trkpt>
      <trkpt lat="46.0459" lon="6.11886">
        <ele>909.1</ele>
        <time>2020-12-26T12:50:01.636Z</time>
      </trkpt>
      <trkpt lat="46.04597" lon="6.11892">
        <ele>912.4</ele>
        <time>2020-12-26T12:50:06.677Z</time>
      </trkpt>
      <trkpt lat="46.04598" lon="6.11893">
        <ele>912.7</ele>
        <time>2020-12-26T12:50:07.634Z</time>
      </trkpt>
      <trkpt lat="46.04604" lon="6.11901">
        <ele>915.1</ele>
        <time>2020-12-26T12:50:12.638Z</time>
      </trkpt>
      <trkpt lat="46.04605" lon="6.11903">
        <ele>915.6</ele>
        <time>2020-12-26T12:50:13.657Z</time>
      </trkpt>
      <trkpt lat="46.04611" lon="6.11911">
        <ele>916.7</ele>
        <time>2020-12-26T12:50:17.679Z</time>
      </trkpt>
      <trkpt lat="46.04612" lon="6.11912">
        <ele>916.9</ele>
        <time>2020-12-26T12:50:18.637Z</time>
      </trkpt>
      <trkpt lat="46.04618" lon="6.11918">
        <ele>918.3</ele>
        <time>2020-12-26T12:50:22.640Z</time>
      </trkpt>
      <trkpt lat="46.0462" lon="6.1192">
        <ele>918</ele>
        <time>2020-12-26T12:50:23.670Z</time>
      </trkpt>
      <trkpt lat="46.04626" lon="6.11926">
        <ele>919.3</ele>
        <time>2020-12-26T12:50:27.636Z</time>
      </trkpt>
      <trkpt lat="46.04627" lon="6.11928">
        <ele>920.1</ele>
        <time>2020-12-26T12:50:28.649Z</time>
      </trkpt>
      <trkpt lat="46.04635" lon="6.11934">
        <ele>925.4</ele>
        <time>2020-12-26T12:50:33.680Z</time>
      </trkpt>
      <trkpt lat="46.04636" lon="6.11936">
        <ele>926.8</ele>
        <time>2020-12-26T12:50:34.647Z</time>
      </trkpt>
      <trkpt lat="46.04643" lon="6.11942">
        <ele>929.6</ele>
        <time>2020-12-26T12:50:38.635Z</time>
      </trkpt>
      <trkpt lat="46.04645" lon="6.11943">
        <ele>930</ele>
        <time>2020-12-26T12:50:39.687Z</time>
      </trkpt>
      <trkpt lat="46.04652" lon="6.11948">
        <ele>929.3</ele>
        <time>2020-12-26T12:50:43.645Z</time>
      </trkpt>
      <trkpt lat="46.04654" lon="6.11949">
        <ele>929</ele>
        <time>2020-12-26T12:50:44.636Z</time>
      </trkpt>
      <trkpt lat="46.0466" lon="6.11956">
        <ele>929.8</ele>
        <time>2020-12-26T12:51:02.636Z</time>
      </trkpt>
      <trkpt lat="46.04661" lon="6.11957">
        <ele>929.8</ele>
        <time>2020-12-26T12:51:03.681Z</time>
      </trkpt>
      <trkpt lat="46.04669" lon="6.11962">
        <ele>933.4</ele>
        <time>2020-12-26T12:51:13.642Z</time>
      </trkpt>
      <trkpt lat="46.0467" lon="6.11962">
        <ele>933.5</ele>
        <time>2020-12-26T12:51:14.620Z</time>
      </trkpt>
      <trkpt lat="46.04675" lon="6.11972">
        <ele>934.7</ele>
        <time>2020-12-26T12:51:18.641Z</time>
      </trkpt>
      <trkpt lat="46.04676" lon="6.11973">
        <ele>934.7</ele>
        <time>2020-12-26T12:51:19.653Z</time>
      </trkpt>
      <trkpt lat="46.04682" lon="6.11982">
        <ele>933.7</ele>
        <time>2020-12-26T12:51:26.638Z</time>
      </trkpt>
      <trkpt lat="46.04684" lon="6.11984">
        <ele>933.7</ele>
        <time>2020-12-26T12:51:27.677Z</time>
      </trkpt>
      <trkpt lat="46.0469" lon="6.1199">
        <ele>933.5</ele>
        <time>2020-12-26T12:51:34.644Z</time>
      </trkpt>
      <trkpt lat="46.04692" lon="6.11992">
        <ele>933.4</ele>
        <time>2020-12-26T12:51:35.642Z</time>
      </trkpt>
      <trkpt lat="46.04699" lon="6.12">
        <ele>933.5</ele>
        <time>2020-12-26T12:51:38.637Z</time>
      </trkpt>
      <trkpt lat="46.04701" lon="6.12002">
        <ele>933.5</ele>
        <time>2020-12-26T12:51:39.700Z</time>
      </trkpt>
      <trkpt lat="46.04707" lon="6.12008">
        <ele>935.1</ele>
        <time>2020-12-26T12:51:45.636Z</time>
      </trkpt>
      <trkpt lat="46.04709" lon="6.12009">
        <ele>935</ele>
        <time>2020-12-26T12:51:46.641Z</time>
      </trkpt>
      <trkpt lat="46.04715" lon="6.12016">
        <ele>935.3</ele>
        <time>2020-12-26T12:51:51.650Z</time>
      </trkpt>
      <trkpt lat="46.04717" lon="6.12018">
        <ele>935.4</ele>
        <time>2020-12-26T12:51:52.641Z</time>
      </trkpt>
      <trkpt lat="46.04722" lon="6.12027">
        <ele>934.9</ele>
        <time>2020-12-26T12:51:55.634Z</time>
      </trkpt>
      <trkpt lat="46.04725" lon="6.12031">
        <ele>934.5</ele>
        <time>2020-12-26T12:51:56.677Z</time>
      </trkpt>
      <trkpt lat="46.04729" lon="6.12038">
        <ele>934.6</ele>
        <time>2020-12-26T12:51:58.634Z</time>
      </trkpt>
      <trkpt lat="46.04731" lon="6.12041">
        <ele>934.6</ele>
        <time>2020-12-26T12:51:59.641Z</time>
      </trkpt>
      <trkpt lat="46.04737" lon="6.12049">
        <ele>934.4</ele>
        <time>2020-12-26T12:52:02.704Z</time>
      </trkpt>
      <trkpt lat="46.04738" lon="6.12052">
        <ele>934.2</ele>
        <time>2020-12-26T12:52:03.649Z</time>
      </trkpt>
      <trkpt lat="46.04744" lon="6.12059">
        <ele>934.2</ele>
        <time>2020-12-26T12:52:06.662Z</time>
      </trkpt>
      <trkpt lat="46.04745" lon="6.12061">
        <ele>934.2</ele>
        <time>2020-12-26T12:52:07.660Z</time>
      </trkpt>
      <trkpt lat="46.04751" lon="6.12069">
        <ele>933.7</ele>
        <time>2020-12-26T12:52:10.624Z</time>
      </trkpt>
      <trkpt lat="46.04753" lon="6.12071">
        <ele>933.7</ele>
        <time>2020-12-26T12:52:11.649Z</time>
      </trkpt>
      <trkpt lat="46.04759" lon="6.12079">
        <ele>934.1</ele>
        <time>2020-12-26T12:52:16.664Z</time>
      </trkpt>
      <trkpt lat="46.04761" lon="6.1208">
        <ele>934.1</ele>
        <time>2020-12-26T12:52:17.640Z</time>
      </trkpt>
      <trkpt lat="46.04767" lon="6.12089">
        <ele>933.1</ele>
        <time>2020-12-26T12:52:20.639Z</time>
      </trkpt>
      <trkpt lat="46.04769" lon="6.12092">
        <ele>932.9</ele>
        <time>2020-12-26T12:52:21.626Z</time>
      </trkpt>
      <trkpt lat="46.04775" lon="6.121">
        <ele>933.2</ele>
        <time>2020-12-26T12:52:26.661Z</time>
      </trkpt>
      <trkpt lat="46.04777" lon="6.12102">
        <ele>933.1</ele>
        <time>2020-12-26T12:52:27.638Z</time>
      </trkpt>
      <trkpt lat="46.04781" lon="6.12108">
        <ele>930.9</ele>
        <time>2020-12-26T12:52:32.694Z</time>
      </trkpt>
      <trkpt lat="46.04784" lon="6.12111">
        <ele>929.5</ele>
        <time>2020-12-26T12:52:33.642Z</time>
      </trkpt>
      <trkpt lat="46.04789" lon="6.12117">
        <ele>928</ele>
        <time>2020-12-26T12:52:34.636Z</time>
      </trkpt>
      <trkpt lat="46.04792" lon="6.12124">
        <ele>927.3</ele>
        <time>2020-12-26T12:52:35.631Z</time>
      </trkpt>
      <trkpt lat="46.04795" lon="6.12136">
        <ele>924.7</ele>
        <time>2020-12-26T12:52:38.704Z</time>
      </trkpt>
      <trkpt lat="46.04796" lon="6.12138">
        <ele>922.4</ele>
        <time>2020-12-26T12:52:39.853Z</time>
      </trkpt>
      <trkpt lat="46.04801" lon="6.12142">
        <ele>916.3</ele>
        <time>2020-12-26T12:52:41.677Z</time>
      </trkpt>
      <trkpt lat="46.04805" lon="6.12146">
        <ele>913.5</ele>
        <time>2020-12-26T12:52:42.624Z</time>
      </trkpt>
      <trkpt lat="46.0481" lon="6.12153">
        <ele>911.1</ele>
        <time>2020-12-26T12:52:43.673Z</time>
      </trkpt>
      <trkpt lat="46.04813" lon="6.12167">
        <ele>909.9</ele>
        <time>2020-12-26T12:52:44.637Z</time>
      </trkpt>
      <trkpt lat="46.04815" lon="6.12179">
        <ele>909.7</ele>
        <time>2020-12-26T12:52:45.626Z</time>
      </trkpt>
      <trkpt lat="46.04817" lon="6.12186">
        <ele>909</ele>
        <time>2020-12-26T12:52:46.632Z</time>
      </trkpt>
      <trkpt lat="46.04821" lon="6.12197">
        <ele>906.6</ele>
        <time>2020-12-26T12:52:51.641Z</time>
      </trkpt>
      <trkpt lat="46.04821" lon="6.12198">
        <ele>906.6</ele>
        <time>2020-12-26T12:52:52.803Z</time>
      </trkpt>
      <trkpt lat="46.0482" lon="6.12205">
        <ele>902.4</ele>
        <time>2020-12-26T12:53:04.626Z</time>
      </trkpt>
      <trkpt lat="46.0482" lon="6.12205">
        <ele>902.4</ele>
        <time>2020-12-26T12:53:05.625Z</time>
      </trkpt>
      <trkpt lat="46.0482" lon="6.12205">
        <ele>902.2</ele>
        <time>2020-12-26T12:53:08.624Z</time>
      </trkpt>
      <trkpt lat="46.0482" lon="6.12204">
        <ele>902</ele>
        <time>2020-12-26T12:53:09.621Z</time>
      </trkpt>
      <trkpt lat="46.04822" lon="6.12193">
        <ele>900.7</ele>
        <time>2020-12-26T12:53:27.635Z</time>
      </trkpt>
      <trkpt lat="46.04823" lon="6.12192">
        <ele>900.7</ele>
        <time>2020-12-26T12:53:28.638Z</time>
      </trkpt>
      <trkpt lat="46.04831" lon="6.12193">
        <ele>900.9</ele>
        <time>2020-12-26T12:53:37.643Z</time>
      </trkpt>
      <trkpt lat="46.04831" lon="6.12193">
        <ele>900.7</ele>
        <time>2020-12-26T12:53:38.635Z</time>
      </trkpt>
      <trkpt lat="46.04839" lon="6.12198">
        <ele>900.7</ele>
        <time>2020-12-26T12:53:51.625Z</time>
      </trkpt>
      <trkpt lat="46.04842" lon="6.12197">
        <ele>901</ele>
        <time>2020-12-26T12:53:52.669Z</time>
      </trkpt>
      <trkpt lat="46.04849" lon="6.12195">
        <ele>901.5</ele>
        <time>2020-12-26T12:53:55.633Z</time>
      </trkpt>
      <trkpt lat="46.04852" lon="6.12194">
        <ele>901.6</ele>
        <time>2020-12-26T12:53:56.637Z</time>
      </trkpt>
      <trkpt lat="46.04859" lon="6.12191">
        <ele>900.7</ele>
        <time>2020-12-26T12:53:59.623Z</time>
      </trkpt>
      <trkpt lat="46.04861" lon="6.12192">
        <ele>900.7</ele>
        <time>2020-12-26T12:54:00.644Z</time>
      </trkpt>
      <trkpt lat="46.04868" lon="6.12192">
        <ele>900.4</ele>
        <time>2020-12-26T12:54:02.677Z</time>
      </trkpt>
      <trkpt lat="46.04871" lon="6.12193">
        <ele>900.8</ele>
        <time>2020-12-26T12:54:03.645Z</time>
      </trkpt>
      <trkpt lat="46.04878" lon="6.12195">
        <ele>900.7</ele>
        <time>2020-12-26T12:54:07.621Z</time>
      </trkpt>
      <trkpt lat="46.0488" lon="6.12196">
        <ele>901.1</ele>
        <time>2020-12-26T12:54:08.695Z</time>
      </trkpt>
      <trkpt lat="46.04886" lon="6.12197">
        <ele>902</ele>
        <time>2020-12-26T12:54:12.639Z</time>
      </trkpt>
      <trkpt lat="46.04889" lon="6.12198">
        <ele>902.2</ele>
        <time>2020-12-26T12:54:13.636Z</time>
      </trkpt>
      <trkpt lat="46.04897" lon="6.122">
        <ele>902.2</ele>
        <time>2020-12-26T12:54:16.636Z</time>
      </trkpt>
      <trkpt lat="46.04899" lon="6.12201">
        <ele>902</ele>
        <time>2020-12-26T12:54:17.642Z</time>
      </trkpt>
      <trkpt lat="46.04908" lon="6.12206">
        <ele>901.6</ele>
        <time>2020-12-26T12:54:25.643Z</time>
      </trkpt>
      <trkpt lat="46.04909" lon="6.12206">
        <ele>901.7</ele>
        <time>2020-12-26T12:54:26.672Z</time>
      </trkpt>
      <trkpt lat="46.04916" lon="6.12209">
        <ele>903</ele>
        <time>2020-12-26T12:54:30.643Z</time>
      </trkpt>
      <trkpt lat="46.04918" lon="6.1221">
        <ele>903.6</ele>
        <time>2020-12-26T12:54:31.638Z</time>
      </trkpt>
      <trkpt lat="46.04927" lon="6.12213">
        <ele>907.1</ele>
        <time>2020-12-26T12:54:36.631Z</time>
      </trkpt>
      <trkpt lat="46.04928" lon="6.12213">
        <ele>907.7</ele>
        <time>2020-12-26T12:54:37.641Z</time>
      </trkpt>
      <trkpt lat="46.04937" lon="6.12217">
        <ele>909.3</ele>
        <time>2020-12-26T12:54:43.691Z</time>
      </trkpt>
      <trkpt lat="46.04938" lon="6.12217">
        <ele>909.3</ele>
        <time>2020-12-26T12:54:44.641Z</time>
      </trkpt>
      <trkpt lat="46.0494" lon="6.12218">
        <ele>909.3</ele>
        <time>2020-12-26T12:54:46.641Z</time>
      </trkpt>
      <trkpt lat="46.0494" lon="6.12218">
        <ele>909.2</ele>
        <time>2020-12-26T12:54:47.641Z</time>
      </trkpt>
      <trkpt lat="46.0494" lon="6.12218">
        <ele>909.5</ele>
        <time>2020-12-26T12:54:48.646Z</time>
      </trkpt>
      <trkpt lat="46.04941" lon="6.12219">
        <ele>910</ele>
        <time>2020-12-26T12:54:49.709Z</time>
      </trkpt>
      <trkpt lat="46.04948" lon="6.12224">
        <ele>912.4</ele>
        <time>2020-12-26T12:54:58.638Z</time>
      </trkpt>
      <trkpt lat="46.0495" lon="6.12225">
        <ele>913.6</ele>
        <time>2020-12-26T12:54:59.646Z</time>
      </trkpt>
      <trkpt lat="46.04956" lon="6.12231">
        <ele>915.9</ele>
        <time>2020-12-26T12:55:06.645Z</time>
      </trkpt>
      <trkpt lat="46.04958" lon="6.12233">
        <ele>916.4</ele>
        <time>2020-12-26T12:55:07.682Z</time>
      </trkpt>
      <trkpt lat="46.04965" lon="6.12238">
        <ele>917.8</ele>
        <time>2020-12-26T12:55:12.636Z</time>
      </trkpt>
      <trkpt lat="46.04966" lon="6.12239">
        <ele>917.8</ele>
        <time>2020-12-26T12:55:13.690Z</time>
      </trkpt>
      <trkpt lat="46.04974" lon="6.12244">
        <ele>920.4</ele>
        <time>2020-12-26T12:55:21.643Z</time>
      </trkpt>
      <trkpt lat="46.04975" lon="6.12245">
        <ele>920.8</ele>
        <time>2020-12-26T12:55:22.636Z</time>
      </trkpt>
      <trkpt lat="46.04981" lon="6.1225">
        <ele>923.1</ele>
        <time>2020-12-26T12:55:27.637Z</time>
      </trkpt>
      <trkpt lat="46.04982" lon="6.12252">
        <ele>923.1</ele>
        <time>2020-12-26T12:55:28.639Z</time>
      </trkpt>
      <trkpt lat="46.0499" lon="6.12258">
        <ele>925.6</ele>
        <time>2020-12-26T12:55:33.658Z</time>
      </trkpt>
      <trkpt lat="46.04992" lon="6.12259">
        <ele>926.2</ele>
        <time>2020-12-26T12:55:34.643Z</time>
      </trkpt>
      <trkpt lat="46.04998" lon="6.12264">
        <ele>926.2</ele>
        <time>2020-12-26T12:55:38.637Z</time>
      </trkpt>
      <trkpt lat="46.05" lon="6.12266">
        <ele>926.2</ele>
        <time>2020-12-26T12:55:39.649Z</time>
      </trkpt>
      <trkpt lat="46.05006" lon="6.12271">
        <ele>926.4</ele>
        <time>2020-12-26T12:55:41.654Z</time>
      </trkpt>
      <trkpt lat="46.05008" lon="6.12272">
        <ele>926.9</ele>
        <time>2020-12-26T12:55:42.620Z</time>
      </trkpt>
      <trkpt lat="46.05015" lon="6.12279">
        <ele>927.7</ele>
        <time>2020-12-26T12:55:45.644Z</time>
      </trkpt>
      <trkpt lat="46.05017" lon="6.12282">
        <ele>928</ele>
        <time>2020-12-26T12:55:46.641Z</time>
      </trkpt>
      <trkpt lat="46.05022" lon="6.12287">
        <ele>928</ele>
        <time>2020-12-26T12:55:48.685Z</time>
      </trkpt>
      <trkpt lat="46.05024" lon="6.1229">
        <ele>928.1</ele>
        <time>2020-12-26T12:55:49.645Z</time>
      </trkpt>
      <trkpt lat="46.0503" lon="6.12296">
        <ele>930.2</ele>
        <time>2020-12-26T12:55:52.673Z</time>
      </trkpt>
      <trkpt lat="46.05032" lon="6.12298">
        <ele>931.2</ele>
        <time>2020-12-26T12:55:53.652Z</time>
      </trkpt>
      <trkpt lat="46.05038" lon="6.12306">
        <ele>932.9</ele>
        <time>2020-12-26T12:55:58.638Z</time>
      </trkpt>
      <trkpt lat="46.0504" lon="6.12307">
        <ele>933.1</ele>
        <time>2020-12-26T12:55:59.657Z</time>
      </trkpt>
      <trkpt lat="46.05047" lon="6.12315">
        <ele>933.1</ele>
        <time>2020-12-26T12:56:05.708Z</time>
      </trkpt>
      <trkpt lat="46.05048" lon="6.12316">
        <ele>933.1</ele>
        <time>2020-12-26T12:56:06.638Z</time>
      </trkpt>
      <trkpt lat="46.05054" lon="6.12321">
        <ele>932</ele>
        <time>2020-12-26T12:56:10.662Z</time>
      </trkpt>
      <trkpt lat="46.05056" lon="6.12323">
        <ele>932</ele>
        <time>2020-12-26T12:56:11.686Z</time>
      </trkpt>
      <trkpt lat="46.05061" lon="6.12332">
        <ele>932</ele>
        <time>2020-12-26T12:56:27.639Z</time>
      </trkpt>
      <trkpt lat="46.05062" lon="6.12333">
        <ele>932.3</ele>
        <time>2020-12-26T12:56:28.642Z</time>
      </trkpt>
      <trkpt lat="46.05069" lon="6.12338">
        <ele>932.8</ele>
        <time>2020-12-26T12:56:32.634Z</time>
      </trkpt>
      <trkpt lat="46.05071" lon="6.12339">
        <ele>933.5</ele>
        <time>2020-12-26T12:56:33.635Z</time>
      </trkpt>
      <trkpt lat="46.05078" lon="6.12343">
        <ele>934.2</ele>
        <time>2020-12-26T12:56:37.653Z</time>
      </trkpt>
      <trkpt lat="46.0508" lon="6.12344">
        <ele>934.1</ele>
        <time>2020-12-26T12:56:38.624Z</time>
      </trkpt>
      <trkpt lat="46.05088" lon="6.12347">
        <ele>934.6</ele>
        <time>2020-12-26T12:56:42.635Z</time>
      </trkpt>
      <trkpt lat="46.05089" lon="6.12348">
        <ele>934.8</ele>
        <time>2020-12-26T12:56:43.653Z</time>
      </trkpt>
      <trkpt lat="46.05096" lon="6.1235">
        <ele>935.4</ele>
        <time>2020-12-26T12:56:47.646Z</time>
      </trkpt>
      <trkpt lat="46.05098" lon="6.12351">
        <ele>935.6</ele>
        <time>2020-12-26T12:56:48.676Z</time>
      </trkpt>
      <trkpt lat="46.05106" lon="6.12355">
        <ele>934.9</ele>
        <time>2020-12-26T12:56:52.687Z</time>
      </trkpt>
      <trkpt lat="46.05108" lon="6.12355">
        <ele>934.9</ele>
        <time>2020-12-26T12:56:53.655Z</time>
      </trkpt>
      <trkpt lat="46.05117" lon="6.12359">
        <ele>934.7</ele>
        <time>2020-12-26T12:56:57.638Z</time>
      </trkpt>
      <trkpt lat="46.05119" lon="6.1236">
        <ele>934.5</ele>
        <time>2020-12-26T12:56:58.686Z</time>
      </trkpt>
      <trkpt lat="46.05126" lon="6.12365">
        <ele>934.7</ele>
        <time>2020-12-26T12:57:03.637Z</time>
      </trkpt>
      <trkpt lat="46.05128" lon="6.12366">
        <ele>934.6</ele>
        <time>2020-12-26T12:57:04.641Z</time>
      </trkpt>
      <trkpt lat="46.05135" lon="6.12374">
        <ele>934.6</ele>
        <time>2020-12-26T12:57:09.645Z</time>
      </trkpt>
      <trkpt lat="46.05136" lon="6.12375">
        <ele>934.8</ele>
        <time>2020-12-26T12:57:10.684Z</time>
      </trkpt>
      <trkpt lat="46.05142" lon="6.12382">
        <ele>934.9</ele>
        <time>2020-12-26T12:57:18.637Z</time>
      </trkpt>
      <trkpt lat="46.05143" lon="6.12383">
        <ele>934.4</ele>
        <time>2020-12-26T12:57:19.665Z</time>
      </trkpt>
      <trkpt lat="46.0515" lon="6.12391">
        <ele>934.2</ele>
        <time>2020-12-26T12:57:24.646Z</time>
      </trkpt>
      <trkpt lat="46.05152" lon="6.12392">
        <ele>934.3</ele>
        <time>2020-12-26T12:57:25.636Z</time>
      </trkpt>
      <trkpt lat="46.05159" lon="6.12398">
        <ele>935.3</ele>
        <time>2020-12-26T12:57:30.635Z</time>
      </trkpt>
      <trkpt lat="46.0516" lon="6.124">
        <ele>935.2</ele>
        <time>2020-12-26T12:57:31.640Z</time>
      </trkpt>
      <trkpt lat="46.05167" lon="6.12406">
        <ele>936.4</ele>
        <time>2020-12-26T12:57:36.626Z</time>
      </trkpt>
      <trkpt lat="46.05168" lon="6.12407">
        <ele>936.4</ele>
        <time>2020-12-26T12:57:37.634Z</time>
      </trkpt>
      <trkpt lat="46.05175" lon="6.12414">
        <ele>936.4</ele>
        <time>2020-12-26T12:57:46.684Z</time>
      </trkpt>
      <trkpt lat="46.05175" lon="6.12415">
        <ele>936.5</ele>
        <time>2020-12-26T12:57:47.640Z</time>
      </trkpt>
      <trkpt lat="46.05183" lon="6.12421">
        <ele>938.3</ele>
        <time>2020-12-26T12:57:52.631Z</time>
      </trkpt>
      <trkpt lat="46.05184" lon="6.12422">
        <ele>938.3</ele>
        <time>2020-12-26T12:57:53.646Z</time>
      </trkpt>
      <trkpt lat="46.05191" lon="6.12428">
        <ele>939.7</ele>
        <time>2020-12-26T12:57:59.634Z</time>
      </trkpt>
      <trkpt lat="46.05193" lon="6.12428">
        <ele>940.3</ele>
        <time>2020-12-26T12:58:00.647Z</time>
      </trkpt>
      <trkpt lat="46.05201" lon="6.12432">
        <ele>940.9</ele>
        <time>2020-12-26T12:58:07.639Z</time>
      </trkpt>
      <trkpt lat="46.05202" lon="6.12433">
        <ele>940.9</ele>
        <time>2020-12-26T12:58:08.637Z</time>
      </trkpt>
      <trkpt lat="46.05209" lon="6.12438">
        <ele>941.4</ele>
        <time>2020-12-26T12:58:13.636Z</time>
      </trkpt>
      <trkpt lat="46.05211" lon="6.12439">
        <ele>941.5</ele>
        <time>2020-12-26T12:58:14.638Z</time>
      </trkpt>
      <trkpt lat="46.05217" lon="6.12442">
        <ele>943</ele>
        <time>2020-12-26T12:58:18.652Z</time>
      </trkpt>
      <trkpt lat="46.05219" lon="6.12444">
        <ele>943</ele>
        <time>2020-12-26T12:58:19.667Z</time>
      </trkpt>
      <trkpt lat="46.05225" lon="6.1245">
        <ele>944.2</ele>
        <time>2020-12-26T12:58:25.643Z</time>
      </trkpt>
      <trkpt lat="46.05227" lon="6.12451">
        <ele>944.8</ele>
        <time>2020-12-26T12:58:26.638Z</time>
      </trkpt>
      <trkpt lat="46.05234" lon="6.12458">
        <ele>945.2</ele>
        <time>2020-12-26T12:58:37.625Z</time>
      </trkpt>
      <trkpt lat="46.05235" lon="6.12459">
        <ele>945.5</ele>
        <time>2020-12-26T12:58:38.644Z</time>
      </trkpt>
      <trkpt lat="46.0523" lon="6.1245">
        <ele>948.1</ele>
        <time>2020-12-26T12:59:02.642Z</time>
      </trkpt>
      <trkpt lat="46.05229" lon="6.12449">
        <ele>948.1</ele>
        <time>2020-12-26T12:59:03.670Z</time>
      </trkpt>
      <trkpt lat="46.05221" lon="6.12445">
        <ele>951.9</ele>
        <time>2020-12-26T12:59:10.636Z</time>
      </trkpt>
      <trkpt lat="46.0522" lon="6.12445">
        <ele>952.6</ele>
        <time>2020-12-26T12:59:11.646Z</time>
      </trkpt>
      <trkpt lat="46.05213" lon="6.12439">
        <ele>958.1</ele>
        <time>2020-12-26T12:59:21.666Z</time>
      </trkpt>
      <trkpt lat="46.05212" lon="6.12438">
        <ele>958.5</ele>
        <time>2020-12-26T12:59:22.635Z</time>
      </trkpt>
      <trkpt lat="46.05207" lon="6.12427">
        <ele>960.8</ele>
        <time>2020-12-26T12:59:33.635Z</time>
      </trkpt>
      <trkpt lat="46.05206" lon="6.12425">
        <ele>961.4</ele>
        <time>2020-12-26T12:59:34.636Z</time>
      </trkpt>
      <trkpt lat="46.05201" lon="6.12418">
        <ele>963.5</ele>
        <time>2020-12-26T12:59:38.686Z</time>
      </trkpt>
      <trkpt lat="46.052" lon="6.12416">
        <ele>963.5</ele>
        <time>2020-12-26T12:59:39.651Z</time>
      </trkpt>
      <trkpt lat="46.05194" lon="6.12408">
        <ele>963.1</ele>
        <time>2020-12-26T12:59:43.656Z</time>
      </trkpt>
      <trkpt lat="46.05192" lon="6.12406">
        <ele>963.2</ele>
        <time>2020-12-26T12:59:44.650Z</time>
      </trkpt>
      <trkpt lat="46.05186" lon="6.12398">
        <ele>961.9</ele>
        <time>2020-12-26T12:59:48.635Z</time>
      </trkpt>
      <trkpt lat="46.05184" lon="6.12396">
        <ele>961.8</ele>
        <time>2020-12-26T12:59:49.633Z</time>
      </trkpt>
      <trkpt lat="46.05178" lon="6.12388">
        <ele>962.6</ele>
        <time>2020-12-26T12:59:53.653Z</time>
      </trkpt>
      <trkpt lat="46.05176" lon="6.12386">
        <ele>962.6</ele>
        <time>2020-12-26T12:59:54.654Z</time>
      </trkpt>
      <trkpt lat="46.0517" lon="6.12378">
        <ele>962.5</ele>
        <time>2020-12-26T12:59:59.639Z</time>
      </trkpt>
      <trkpt lat="46.05168" lon="6.12376">
        <ele>962.3</ele>
        <time>2020-12-26T13:00:00.634Z</time>
      </trkpt>
      <trkpt lat="46.05163" lon="6.1237">
        <ele>962.2</ele>
        <time>2020-12-26T13:00:03.639Z</time>
      </trkpt>
      <trkpt lat="46.05161" lon="6.12368">
        <ele>962</ele>
        <time>2020-12-26T13:00:04.651Z</time>
      </trkpt>
      <trkpt lat="46.05155" lon="6.12362">
        <ele>961.6</ele>
        <time>2020-12-26T13:00:07.640Z</time>
      </trkpt>
      <trkpt lat="46.05153" lon="6.12361">
        <ele>961.4</ele>
        <time>2020-12-26T13:00:08.641Z</time>
      </trkpt>
      <trkpt lat="46.05147" lon="6.12355">
        <ele>960</ele>
        <time>2020-12-26T13:00:11.636Z</time>
      </trkpt>
      <trkpt lat="46.05145" lon="6.12353">
        <ele>959.9</ele>
        <time>2020-12-26T13:00:12.641Z</time>
      </trkpt>
      <trkpt lat="46.05138" lon="6.12345">
        <ele>959.4</ele>
        <time>2020-12-26T13:00:16.658Z</time>
      </trkpt>
      <trkpt lat="46.05137" lon="6.12343">
        <ele>959.4</ele>
        <time>2020-12-26T13:00:17.633Z</time>
      </trkpt>
      <trkpt lat="46.05132" lon="6.12334">
        <ele>960.4</ele>
        <time>2020-12-26T13:00:22.636Z</time>
      </trkpt>
      <trkpt lat="46.05131" lon="6.12333">
        <ele>960.8</ele>
        <time>2020-12-26T13:00:23.637Z</time>
      </trkpt>
      <trkpt lat="46.05126" lon="6.12324">
        <ele>961.8</ele>
        <time>2020-12-26T13:00:29.644Z</time>
      </trkpt>
      <trkpt lat="46.05125" lon="6.12322">
        <ele>961.7</ele>
        <time>2020-12-26T13:00:30.673Z</time>
      </trkpt>
      <trkpt lat="46.05117" lon="6.12318">
        <ele>961.6</ele>
        <time>2020-12-26T13:00:35.640Z</time>
      </trkpt>
      <trkpt lat="46.05115" lon="6.12316">
        <ele>962.1</ele>
        <time>2020-12-26T13:00:36.635Z</time>
      </trkpt>
      <trkpt lat="46.05108" lon="6.12311">
        <ele>964.1</ele>
        <time>2020-12-26T13:00:40.652Z</time>
      </trkpt>
      <trkpt lat="46.05106" lon="6.12309">
        <ele>964.4</ele>
        <time>2020-12-26T13:00:41.651Z</time>
      </trkpt>
      <trkpt lat="46.05101" lon="6.12302">
        <ele>965.1</ele>
        <time>2020-12-26T13:00:45.641Z</time>
      </trkpt>
      <trkpt lat="46.051" lon="6.123">
        <ele>965.5</ele>
        <time>2020-12-26T13:00:46.643Z</time>
      </trkpt>
      <trkpt lat="46.05093" lon="6.12293">
        <ele>965.5</ele>
        <time>2020-12-26T13:00:50.645Z</time>
      </trkpt>
      <trkpt lat="46.05092" lon="6.12291">
        <ele>965.6</ele>
        <time>2020-12-26T13:00:51.633Z</time>
      </trkpt>
      <trkpt lat="46.05085" lon="6.12284">
        <ele>965.8</ele>
        <time>2020-12-26T13:00:55.686Z</time>
      </trkpt>
      <trkpt lat="46.05084" lon="6.12282">
        <ele>965.8</ele>
        <time>2020-12-26T13:00:56.636Z</time>
      </trkpt>
      <trkpt lat="46.05079" lon="6.12272">
        <ele>965.2</ele>
        <time>2020-12-26T13:01:01.666Z</time>
      </trkpt>
      <trkpt lat="46.05078" lon="6.12271">
        <ele>964.6</ele>
        <time>2020-12-26T13:01:02.639Z</time>
      </trkpt>
      <trkpt lat="46.05074" lon="6.12262">
        <ele>963.3</ele>
        <time>2020-12-26T13:01:07.653Z</time>
      </trkpt>
      <trkpt lat="46.05072" lon="6.12259">
        <ele>963.2</ele>
        <time>2020-12-26T13:01:08.646Z</time>
      </trkpt>
      <trkpt lat="46.05067" lon="6.1225">
        <ele>962.6</ele>
        <time>2020-12-26T13:01:12.630Z</time>
      </trkpt>
      <trkpt lat="46.05066" lon="6.12247">
        <ele>962.6</ele>
        <time>2020-12-26T13:01:13.636Z</time>
      </trkpt>
      <trkpt lat="46.05061" lon="6.12238">
        <ele>961.9</ele>
        <time>2020-12-26T13:01:18.694Z</time>
      </trkpt>
      <trkpt lat="46.0506" lon="6.12235">
        <ele>961.9</ele>
        <time>2020-12-26T13:01:19.635Z</time>
      </trkpt>
      <trkpt lat="46.05054" lon="6.12227">
        <ele>962.7</ele>
        <time>2020-12-26T13:01:23.634Z</time>
      </trkpt>
      <trkpt lat="46.05053" lon="6.12224">
        <ele>962.8</ele>
        <time>2020-12-26T13:01:24.639Z</time>
      </trkpt>
      <trkpt lat="46.05047" lon="6.12218">
        <ele>964.5</ele>
        <time>2020-12-26T13:01:28.646Z</time>
      </trkpt>
      <trkpt lat="46.05046" lon="6.12216">
        <ele>964.5</ele>
        <time>2020-12-26T13:01:29.642Z</time>
      </trkpt>
      <trkpt lat="46.05041" lon="6.12207">
        <ele>964.8</ele>
        <time>2020-12-26T13:01:33.652Z</time>
      </trkpt>
      <trkpt lat="46.0504" lon="6.12205">
        <ele>964.8</ele>
        <time>2020-12-26T13:01:34.642Z</time>
      </trkpt>
      <trkpt lat="46.05036" lon="6.12196">
        <ele>964.4</ele>
        <time>2020-12-26T13:01:38.650Z</time>
      </trkpt>
      <trkpt lat="46.05034" lon="6.12194">
        <ele>964.2</ele>
        <time>2020-12-26T13:01:39.638Z</time>
      </trkpt>
      <trkpt lat="46.05029" lon="6.12184">
        <ele>965.2</ele>
        <time>2020-12-26T13:01:43.740Z</time>
      </trkpt>
      <trkpt lat="46.05028" lon="6.12182">
        <ele>965.4</ele>
        <time>2020-12-26T13:01:44.642Z</time>
      </trkpt>
      <trkpt lat="46.05023" lon="6.12173">
        <ele>965.2</ele>
        <time>2020-12-26T13:01:48.660Z</time>
      </trkpt>
      <trkpt lat="46.05022" lon="6.1217">
        <ele>965.3</ele>
        <time>2020-12-26T13:01:49.633Z</time>
      </trkpt>
      <trkpt lat="46.05018" lon="6.1216">
        <ele>966.4</ele>
        <time>2020-12-26T13:01:53.647Z</time>
      </trkpt>
      <trkpt lat="46.05017" lon="6.12157">
        <ele>967</ele>
        <time>2020-12-26T13:01:54.694Z</time>
      </trkpt>
      <trkpt lat="46.05013" lon="6.12147">
        <ele>968.5</ele>
        <time>2020-12-26T13:01:58.638Z</time>
      </trkpt>
      <trkpt lat="46.05012" lon="6.12144">
        <ele>969.1</ele>
        <time>2020-12-26T13:01:59.641Z</time>
      </trkpt>
      <trkpt lat="46.05008" lon="6.12133">
        <ele>970.7</ele>
        <time>2020-12-26T13:02:04.624Z</time>
      </trkpt>
      <trkpt lat="46.05007" lon="6.12131">
        <ele>971.1</ele>
        <time>2020-12-26T13:02:05.644Z</time>
      </trkpt>
      <trkpt lat="46.05003" lon="6.12121">
        <ele>973</ele>
        <time>2020-12-26T13:02:11.634Z</time>
      </trkpt>
      <trkpt lat="46.05002" lon="6.1212">
        <ele>973.5</ele>
        <time>2020-12-26T13:02:12.684Z</time>
      </trkpt>
      <trkpt lat="46.04996" lon="6.12111">
        <ele>975.1</ele>
        <time>2020-12-26T13:02:18.691Z</time>
      </trkpt>
      <trkpt lat="46.04995" lon="6.1211">
        <ele>975.2</ele>
        <time>2020-12-26T13:02:19.641Z</time>
      </trkpt>
      <trkpt lat="46.04989" lon="6.12103">
        <ele>975.8</ele>
        <time>2020-12-26T13:02:24.635Z</time>
      </trkpt>
      <trkpt lat="46.04988" lon="6.12101">
        <ele>976</ele>
        <time>2020-12-26T13:02:25.639Z</time>
      </trkpt>
      <trkpt lat="46.04981" lon="6.12092">
        <ele>976</ele>
        <time>2020-12-26T13:02:30.635Z</time>
      </trkpt>
      <trkpt lat="46.0498" lon="6.12089">
        <ele>976.1</ele>
        <time>2020-12-26T13:02:31.636Z</time>
      </trkpt>
      <trkpt lat="46.04977" lon="6.12081">
        <ele>976.2</ele>
        <time>2020-12-26T13:02:34.637Z</time>
      </trkpt>
      <trkpt lat="46.04976" lon="6.12078">
        <ele>976.4</ele>
        <time>2020-12-26T13:02:35.676Z</time>
      </trkpt>
      <trkpt lat="46.04972" lon="6.12069">
        <ele>977</ele>
        <time>2020-12-26T13:02:38.636Z</time>
      </trkpt>
      <trkpt lat="46.04972" lon="6.12066">
        <ele>977.5</ele>
        <time>2020-12-26T13:02:39.646Z</time>
      </trkpt>
      <trkpt lat="46.04969" lon="6.12056">
        <ele>978.8</ele>
        <time>2020-12-26T13:02:42.631Z</time>
      </trkpt>
      <trkpt lat="46.04968" lon="6.12053">
        <ele>978.8</ele>
        <time>2020-12-26T13:02:43.651Z</time>
      </trkpt>
      <trkpt lat="46.04965" lon="6.12041">
        <ele>978.3</ele>
        <time>2020-12-26T13:02:47.684Z</time>
      </trkpt>
      <trkpt lat="46.04964" lon="6.12038">
        <ele>978.4</ele>
        <time>2020-12-26T13:02:48.646Z</time>
      </trkpt>
      <trkpt lat="46.04962" lon="6.12027">
        <ele>978.2</ele>
        <time>2020-12-26T13:02:53.693Z</time>
      </trkpt>
      <trkpt lat="46.04961" lon="6.12024">
        <ele>978.2</ele>
        <time>2020-12-26T13:02:54.658Z</time>
      </trkpt>
      <trkpt lat="46.04963" lon="6.12013">
        <ele>976.7</ele>
        <time>2020-12-26T13:03:05.650Z</time>
      </trkpt>
      <trkpt lat="46.04962" lon="6.12012">
        <ele>976.8</ele>
        <time>2020-12-26T13:03:06.637Z</time>
      </trkpt>
      <trkpt lat="46.04957" lon="6.12003">
        <ele>977.1</ele>
        <time>2020-12-26T13:03:12.653Z</time>
      </trkpt>
      <trkpt lat="46.04956" lon="6.12001">
        <ele>977.3</ele>
        <time>2020-12-26T13:03:13.640Z</time>
      </trkpt>
      <trkpt lat="46.04952" lon="6.1199">
        <ele>976.5</ele>
        <time>2020-12-26T13:03:21.628Z</time>
      </trkpt>
      <trkpt lat="46.04951" lon="6.11989">
        <ele>976.5</ele>
        <time>2020-12-26T13:03:22.636Z</time>
      </trkpt>
      <trkpt lat="46.04945" lon="6.11982">
        <ele>977.4</ele>
        <time>2020-12-26T13:03:38.637Z</time>
      </trkpt>
      <trkpt lat="46.04945" lon="6.1198">
        <ele>977.5</ele>
        <time>2020-12-26T13:03:39.646Z</time>
      </trkpt>
      <trkpt lat="46.0494" lon="6.1197">
        <ele>977.3</ele>
        <time>2020-12-26T13:03:44.637Z</time>
      </trkpt>
      <trkpt lat="46.04939" lon="6.11968">
        <ele>977.2</ele>
        <time>2020-12-26T13:03:45.634Z</time>
      </trkpt>
      <trkpt lat="46.04938" lon="6.11966">
        <ele>976.2</ele>
        <time>2020-12-26T13:03:58.637Z</time>
      </trkpt>
      <trkpt lat="46.04938" lon="6.11966">
        <ele>976.2</ele>
        <time>2020-12-26T13:03:59.650Z</time>
      </trkpt>
      <trkpt lat="46.04938" lon="6.11966">
        <ele>976.2</ele>
        <time>2020-12-26T13:04:27.681Z</time>
      </trkpt>
      <trkpt lat="46.04939" lon="6.11962">
        <ele>976.2</ele>
        <time>2020-12-26T13:04:28.672Z</time>
      </trkpt>
      <trkpt lat="46.04939" lon="6.11961">
        <ele>976.2</ele>
        <time>2020-12-26T13:04:30.640Z</time>
      </trkpt>
      <trkpt lat="46.04939" lon="6.11961">
        <ele>976.2</ele>
        <time>2020-12-26T13:04:31.638Z</time>
      </trkpt>
      <trkpt lat="46.04939" lon="6.11961">
        <ele>976.2</ele>
        <time>2020-12-26T13:04:51.690Z</time>
      </trkpt>
      <trkpt lat="46.04939" lon="6.11952">
        <ele>976.2</ele>
        <time>2020-12-26T13:04:52.638Z</time>
      </trkpt>
      <trkpt lat="46.04941" lon="6.11945">
        <ele>975.6</ele>
        <time>2020-12-26T13:04:57.688Z</time>
      </trkpt>
      <trkpt lat="46.04941" lon="6.11945">
        <ele>975.6</ele>
        <time>2020-12-26T13:04:58.640Z</time>
      </trkpt>
      <trkpt lat="46.04941" lon="6.11945">
        <ele>975.6</ele>
        <time>2020-12-26T13:05:02.654Z</time>
      </trkpt>
      <trkpt lat="46.04941" lon="6.11943">
        <ele>975.3</ele>
        <time>2020-12-26T13:05:03.695Z</time>
      </trkpt>
      <trkpt lat="46.0495" lon="6.11946">
        <ele>970.3</ele>
        <time>2020-12-26T13:05:12.641Z</time>
      </trkpt>
      <trkpt lat="46.0495" lon="6.11947">
        <ele>970.3</ele>
        <time>2020-12-26T13:05:13.634Z</time>
      </trkpt>
      <trkpt lat="46.04958" lon="6.1195">
        <ele>971</ele>
        <time>2020-12-26T13:05:23.642Z</time>
      </trkpt>
      <trkpt lat="46.0496" lon="6.11951">
        <ele>971.1</ele>
        <time>2020-12-26T13:05:24.636Z</time>
      </trkpt>
      <trkpt lat="46.04967" lon="6.11954">
        <ele>971.3</ele>
        <time>2020-12-26T13:05:26.633Z</time>
      </trkpt>
      <trkpt lat="46.04971" lon="6.11955">
        <ele>971.6</ele>
        <time>2020-12-26T13:05:27.652Z</time>
      </trkpt>
      <trkpt lat="46.04977" lon="6.11958">
        <ele>972.2</ele>
        <time>2020-12-26T13:05:29.644Z</time>
      </trkpt>
      <trkpt lat="46.0498" lon="6.1196">
        <ele>972.6</ele>
        <time>2020-12-26T13:05:30.641Z</time>
      </trkpt>
      <trkpt lat="46.04987" lon="6.11967">
        <ele>972.8</ele>
        <time>2020-12-26T13:05:33.649Z</time>
      </trkpt>
      <trkpt lat="46.04989" lon="6.11969">
        <ele>972.8</ele>
        <time>2020-12-26T13:05:34.660Z</time>
      </trkpt>
      <trkpt lat="46.04997" lon="6.11976">
        <ele>975.8</ele>
        <time>2020-12-26T13:05:38.687Z</time>
      </trkpt>
      <trkpt lat="46.04998" lon="6.11977">
        <ele>976.4</ele>
        <time>2020-12-26T13:05:39.640Z</time>
      </trkpt>
      <trkpt lat="46.05006" lon="6.11981">
        <ele>977.8</ele>
        <time>2020-12-26T13:05:43.645Z</time>
      </trkpt>
      <trkpt lat="46.05007" lon="6.11983">
        <ele>978.2</ele>
        <time>2020-12-26T13:05:44.693Z</time>
      </trkpt>
      <trkpt lat="46.05013" lon="6.1199">
        <ele>979.7</ele>
        <time>2020-12-26T13:05:49.637Z</time>
      </trkpt>
      <trkpt lat="46.05015" lon="6.11991">
        <ele>980.1</ele>
        <time>2020-12-26T13:05:50.688Z</time>
      </trkpt>
      <trkpt lat="46.0502" lon="6.11997">
        <ele>981.6</ele>
        <time>2020-12-26T13:05:53.635Z</time>
      </trkpt>
      <trkpt lat="46.05022" lon="6.11998">
        <ele>981.9</ele>
        <time>2020-12-26T13:05:54.635Z</time>
      </trkpt>
      <trkpt lat="46.05029" lon="6.12003">
        <ele>983.6</ele>
        <time>2020-12-26T13:05:57.633Z</time>
      </trkpt>
      <trkpt lat="46.05031" lon="6.12005">
        <ele>983.9</ele>
        <time>2020-12-26T13:05:58.643Z</time>
      </trkpt>
      <trkpt lat="46.05038" lon="6.12011">
        <ele>985.1</ele>
        <time>2020-12-26T13:06:02.628Z</time>
      </trkpt>
      <trkpt lat="46.0504" lon="6.12012">
        <ele>985.3</ele>
        <time>2020-12-26T13:06:03.635Z</time>
      </trkpt>
      <trkpt lat="46.05046" lon="6.12018">
        <ele>984.5</ele>
        <time>2020-12-26T13:06:07.661Z</time>
      </trkpt>
      <trkpt lat="46.05047" lon="6.12019">
        <ele>984.2</ele>
        <time>2020-12-26T13:06:08.686Z</time>
      </trkpt>
      <trkpt lat="46.05054" lon="6.12026">
        <ele>983.8</ele>
        <time>2020-12-26T13:06:13.641Z</time>
      </trkpt>
      <trkpt lat="46.05056" lon="6.12028">
        <ele>983.9</ele>
        <time>2020-12-26T13:06:14.698Z</time>
      </trkpt>
      <trkpt lat="46.05062" lon="6.12034">
        <ele>984.1</ele>
        <time>2020-12-26T13:06:18.641Z</time>
      </trkpt>
      <trkpt lat="46.05064" lon="6.12036">
        <ele>984.1</ele>
        <time>2020-12-26T13:06:19.645Z</time>
      </trkpt>
      <trkpt lat="46.0507" lon="6.12042">
        <ele>984.9</ele>
        <time>2020-12-26T13:06:23.643Z</time>
      </trkpt>
      <trkpt lat="46.05071" lon="6.12044">
        <ele>984.8</ele>
        <time>2020-12-26T13:06:24.638Z</time>
      </trkpt>
      <trkpt lat="46.05079" lon="6.12049">
        <ele>986.3</ele>
        <time>2020-12-26T13:06:29.642Z</time>
      </trkpt>
      <trkpt lat="46.05081" lon="6.12051">
        <ele>986.3</ele>
        <time>2020-12-26T13:06:30.640Z</time>
      </trkpt>
      <trkpt lat="46.05089" lon="6.12057">
        <ele>986.4</ele>
        <time>2020-12-26T13:06:34.641Z</time>
      </trkpt>
      <trkpt lat="46.05091" lon="6.12058">
        <ele>986.6</ele>
        <time>2020-12-26T13:06:35.643Z</time>
      </trkpt>
      <trkpt lat="46.05097" lon="6.12066">
        <ele>986.3</ele>
        <time>2020-12-26T13:06:40.645Z</time>
      </trkpt>
      <trkpt lat="46.05099" lon="6.12068">
        <ele>986.3</ele>
        <time>2020-12-26T13:06:41.655Z</time>
      </trkpt>
      <trkpt lat="46.05104" lon="6.12076">
        <ele>987.5</ele>
        <time>2020-12-26T13:06:46.645Z</time>
      </trkpt>
      <trkpt lat="46.05105" lon="6.12077">
        <ele>987.9</ele>
        <time>2020-12-26T13:06:47.644Z</time>
      </trkpt>
      <trkpt lat="46.05111" lon="6.12088">
        <ele>987</ele>
        <time>2020-12-26T13:06:52.638Z</time>
      </trkpt>
      <trkpt lat="46.05112" lon="6.1209">
        <ele>987.2</ele>
        <time>2020-12-26T13:06:53.640Z</time>
      </trkpt>
      <trkpt lat="46.05118" lon="6.12098">
        <ele>987.6</ele>
        <time>2020-12-26T13:06:57.638Z</time>
      </trkpt>
      <trkpt lat="46.05119" lon="6.12099">
        <ele>987.5</ele>
        <time>2020-12-26T13:06:58.652Z</time>
      </trkpt>
      <trkpt lat="46.05127" lon="6.12106">
        <ele>987.5</ele>
        <time>2020-12-26T13:07:03.641Z</time>
      </trkpt>
      <trkpt lat="46.05129" lon="6.12107">
        <ele>987.8</ele>
        <time>2020-12-26T13:07:04.674Z</time>
      </trkpt>
      <trkpt lat="46.05134" lon="6.12114">
        <ele>987.3</ele>
        <time>2020-12-26T13:07:08.631Z</time>
      </trkpt>
      <trkpt lat="46.05135" lon="6.12116">
        <ele>987.4</ele>
        <time>2020-12-26T13:07:09.642Z</time>
      </trkpt>
      <trkpt lat="46.05142" lon="6.12122">
        <ele>989</ele>
        <time>2020-12-26T13:07:13.634Z</time>
      </trkpt>
      <trkpt lat="46.05144" lon="6.12124">
        <ele>989.6</ele>
        <time>2020-12-26T13:07:14.682Z</time>
      </trkpt>
      <trkpt lat="46.05152" lon="6.12128">
        <ele>990.7</ele>
        <time>2020-12-26T13:07:18.653Z</time>
      </trkpt>
      <trkpt lat="46.05153" lon="6.1213">
        <ele>990.7</ele>
        <time>2020-12-26T13:07:19.663Z</time>
      </trkpt>
      <trkpt lat="46.05152" lon="6.12117">
        <ele>992.4</ele>
        <time>2020-12-26T13:07:31.700Z</time>
      </trkpt>
      <trkpt lat="46.05151" lon="6.12116">
        <ele>992.4</ele>
        <time>2020-12-26T13:07:32.633Z</time>
      </trkpt>
      <trkpt lat="46.05145" lon="6.12107">
        <ele>996.1</ele>
        <time>2020-12-26T13:07:38.678Z</time>
      </trkpt>
      <trkpt lat="46.05144" lon="6.12105">
        <ele>997.1</ele>
        <time>2020-12-26T13:07:39.645Z</time>
      </trkpt>
      <trkpt lat="46.05141" lon="6.12093">
        <ele>1002.6</ele>
        <time>2020-12-26T13:07:49.705Z</time>
      </trkpt>
      <trkpt lat="46.0514" lon="6.12092">
        <ele>1002.6</ele>
        <time>2020-12-26T13:07:50.640Z</time>
      </trkpt>
      <trkpt lat="46.05135" lon="6.12084">
        <ele>1004.9</ele>
        <time>2020-12-26T13:08:01.677Z</time>
      </trkpt>
      <trkpt lat="46.05134" lon="6.12083">
        <ele>1005</ele>
        <time>2020-12-26T13:08:02.668Z</time>
      </trkpt>
      <trkpt lat="46.05129" lon="6.12075">
        <ele>1007.1</ele>
        <time>2020-12-26T13:08:06.670Z</time>
      </trkpt>
      <trkpt lat="46.05128" lon="6.12073">
        <ele>1007.8</ele>
        <time>2020-12-26T13:08:07.636Z</time>
      </trkpt>
      <trkpt lat="46.05122" lon="6.12065">
        <ele>1011.3</ele>
        <time>2020-12-26T13:08:11.637Z</time>
      </trkpt>
      <trkpt lat="46.05121" lon="6.12063">
        <ele>1012.3</ele>
        <time>2020-12-26T13:08:12.638Z</time>
      </trkpt>
      <trkpt lat="46.05115" lon="6.12055">
        <ele>1016.6</ele>
        <time>2020-12-26T13:08:17.645Z</time>
      </trkpt>
      <trkpt lat="46.05113" lon="6.12054">
        <ele>1016.9</ele>
        <time>2020-12-26T13:08:18.679Z</time>
      </trkpt>
      <trkpt lat="46.05106" lon="6.12048">
        <ele>1018.5</ele>
        <time>2020-12-26T13:08:23.639Z</time>
      </trkpt>
      <trkpt lat="46.05105" lon="6.12047">
        <ele>1018.8</ele>
        <time>2020-12-26T13:08:24.635Z</time>
      </trkpt>
      <trkpt lat="46.05099" lon="6.12041">
        <ele>1020.6</ele>
        <time>2020-12-26T13:08:29.636Z</time>
      </trkpt>
      <trkpt lat="46.05098" lon="6.12039">
        <ele>1020.9</ele>
        <time>2020-12-26T13:08:30.677Z</time>
      </trkpt>
      <trkpt lat="46.05093" lon="6.12029">
        <ele>1022.3</ele>
        <time>2020-12-26T13:08:34.650Z</time>
      </trkpt>
      <trkpt lat="46.05092" lon="6.12027">
        <ele>1022.4</ele>
        <time>2020-12-26T13:08:35.643Z</time>
      </trkpt>
      <trkpt lat="46.05088" lon="6.12018">
        <ele>1022.7</ele>
        <time>2020-12-26T13:08:38.637Z</time>
      </trkpt>
      <trkpt lat="46.05086" lon="6.12015">
        <ele>1023</ele>
        <time>2020-12-26T13:08:39.652Z</time>
      </trkpt>
      <trkpt lat="46.05082" lon="6.12005">
        <ele>1023.2</ele>
        <time>2020-12-26T13:08:43.640Z</time>
      </trkpt>
      <trkpt lat="46.05081" lon="6.12002">
        <ele>1023.4</ele>
        <time>2020-12-26T13:08:44.642Z</time>
      </trkpt>
      <trkpt lat="46.05077" lon="6.11992">
        <ele>1021.8</ele>
        <time>2020-12-26T13:08:48.634Z</time>
      </trkpt>
      <trkpt lat="46.05077" lon="6.11989">
        <ele>1021.5</ele>
        <time>2020-12-26T13:08:49.640Z</time>
      </trkpt>
      <trkpt lat="46.05075" lon="6.11979">
        <ele>1020.9</ele>
        <time>2020-12-26T13:08:53.643Z</time>
      </trkpt>
      <trkpt lat="46.05074" lon="6.11976">
        <ele>1020.3</ele>
        <time>2020-12-26T13:08:54.699Z</time>
      </trkpt>
      <trkpt lat="46.05072" lon="6.11966">
        <ele>1019.4</ele>
        <time>2020-12-26T13:08:58.637Z</time>
      </trkpt>
      <trkpt lat="46.05071" lon="6.11963">
        <ele>1019.3</ele>
        <time>2020-12-26T13:08:59.662Z</time>
      </trkpt>
      <trkpt lat="46.05067" lon="6.11952">
        <ele>1019.3</ele>
        <time>2020-12-26T13:09:04.642Z</time>
      </trkpt>
      <trkpt lat="46.05066" lon="6.1195">
        <ele>1019.3</ele>
        <time>2020-12-26T13:09:05.640Z</time>
      </trkpt>
      <trkpt lat="46.05063" lon="6.11938">
        <ele>1019.6</ele>
        <time>2020-12-26T13:09:10.643Z</time>
      </trkpt>
      <trkpt lat="46.05062" lon="6.11936">
        <ele>1019.6</ele>
        <time>2020-12-26T13:09:11.654Z</time>
      </trkpt>
      <trkpt lat="46.05059" lon="6.11925">
        <ele>1020.5</ele>
        <time>2020-12-26T13:09:16.643Z</time>
      </trkpt>
      <trkpt lat="46.05058" lon="6.11923">
        <ele>1020.6</ele>
        <time>2020-12-26T13:09:17.646Z</time>
      </trkpt>
      <trkpt lat="46.05055" lon="6.11913">
        <ele>1021.8</ele>
        <time>2020-12-26T13:09:21.644Z</time>
      </trkpt>
      <trkpt lat="46.05055" lon="6.1191">
        <ele>1022.3</ele>
        <time>2020-12-26T13:09:22.634Z</time>
      </trkpt>
      <trkpt lat="46.05053" lon="6.11901">
        <ele>1023.2</ele>
        <time>2020-12-26T13:09:25.650Z</time>
      </trkpt>
      <trkpt lat="46.05052" lon="6.11897">
        <ele>1023.6</ele>
        <time>2020-12-26T13:09:26.642Z</time>
      </trkpt>
      <trkpt lat="46.05052" lon="6.11887">
        <ele>1024.6</ele>
        <time>2020-12-26T13:09:29.654Z</time>
      </trkpt>
      <trkpt lat="46.05052" lon="6.11883">
        <ele>1024.7</ele>
        <time>2020-12-26T13:09:30.692Z</time>
      </trkpt>
      <trkpt lat="46.05049" lon="6.11871">
        <ele>1024.8</ele>
        <time>2020-12-26T13:09:34.640Z</time>
      </trkpt>
      <trkpt lat="46.05049" lon="6.11868">
        <ele>1024.9</ele>
        <time>2020-12-26T13:09:35.646Z</time>
      </trkpt>
      <trkpt lat="46.05045" lon="6.11857">
        <ele>1026.3</ele>
        <time>2020-12-26T13:09:39.638Z</time>
      </trkpt>
      <trkpt lat="46.05044" lon="6.11854">
        <ele>1026.3</ele>
        <time>2020-12-26T13:09:40.641Z</time>
      </trkpt>
      <trkpt lat="46.05038" lon="6.11848">
        <ele>1026.3</ele>
        <time>2020-12-26T13:09:44.670Z</time>
      </trkpt>
      <trkpt lat="46.05037" lon="6.11847">
        <ele>1026.6</ele>
        <time>2020-12-26T13:09:45.665Z</time>
      </trkpt>
      <trkpt lat="46.05029" lon="6.11842">
        <ele>1028.8</ele>
        <time>2020-12-26T13:09:50.657Z</time>
      </trkpt>
      <trkpt lat="46.05028" lon="6.11841">
        <ele>1028.8</ele>
        <time>2020-12-26T13:09:51.646Z</time>
      </trkpt>
      <trkpt lat="46.05025" lon="6.11831">
        <ele>1029.8</ele>
        <time>2020-12-26T13:09:56.638Z</time>
      </trkpt>
      <trkpt lat="46.05025" lon="6.11828">
        <ele>1029.9</ele>
        <time>2020-12-26T13:09:57.646Z</time>
      </trkpt>
      <trkpt lat="46.05027" lon="6.11818">
        <ele>1030.8</ele>
        <time>2020-12-26T13:10:00.688Z</time>
      </trkpt>
      <trkpt lat="46.05028" lon="6.11815">
        <ele>1031.5</ele>
        <time>2020-12-26T13:10:01.642Z</time>
      </trkpt>
      <trkpt lat="46.05036" lon="6.1181">
        <ele>1031.3</ele>
        <time>2020-12-26T13:10:05.663Z</time>
      </trkpt>
      <trkpt lat="46.05038" lon="6.1181">
        <ele>1031.1</ele>
        <time>2020-12-26T13:10:06.633Z</time>
      </trkpt>
      <trkpt lat="46.05046" lon="6.11808">
        <ele>1029.8</ele>
        <time>2020-12-26T13:10:11.636Z</time>
      </trkpt>
      <trkpt lat="46.05048" lon="6.11808">
        <ele>1029.8</ele>
        <time>2020-12-26T13:10:12.626Z</time>
      </trkpt>
      <trkpt lat="46.05055" lon="6.11804">
        <ele>1029.6</ele>
        <time>2020-12-26T13:10:18.694Z</time>
      </trkpt>
      <trkpt lat="46.05057" lon="6.11803">
        <ele>1029.7</ele>
        <time>2020-12-26T13:10:19.666Z</time>
      </trkpt>
      <trkpt lat="46.05063" lon="6.11796">
        <ele>1030.8</ele>
        <time>2020-12-26T13:10:32.643Z</time>
      </trkpt>
      <trkpt lat="46.05064" lon="6.11795">
        <ele>1031.5</ele>
        <time>2020-12-26T13:10:33.638Z</time>
      </trkpt>
      <trkpt lat="46.05069" lon="6.11788">
        <ele>1033.1</ele>
        <time>2020-12-26T13:10:39.681Z</time>
      </trkpt>
      <trkpt lat="46.0507" lon="6.11785">
        <ele>1033.2</ele>
        <time>2020-12-26T13:10:40.633Z</time>
      </trkpt>
      <trkpt lat="46.05065" lon="6.11774">
        <ele>1033.2</ele>
        <time>2020-12-26T13:10:44.640Z</time>
      </trkpt>
      <trkpt lat="46.05063" lon="6.11773">
        <ele>1033.2</ele>
        <time>2020-12-26T13:10:45.638Z</time>
      </trkpt>
      <trkpt lat="46.05057" lon="6.11766">
        <ele>1034.8</ele>
        <time>2020-12-26T13:10:49.648Z</time>
      </trkpt>
      <trkpt lat="46.05055" lon="6.11764">
        <ele>1035.1</ele>
        <time>2020-12-26T13:10:50.628Z</time>
      </trkpt>
      <trkpt lat="46.05063" lon="6.11761">
        <ele>1035.9</ele>
        <time>2020-12-26T13:11:06.679Z</time>
      </trkpt>
      <trkpt lat="46.05067" lon="6.11763">
        <ele>1035.5</ele>
        <time>2020-12-26T13:11:07.660Z</time>
      </trkpt>
      <trkpt lat="46.05075" lon="6.11766">
        <ele>1033.8</ele>
        <time>2020-12-26T13:11:10.642Z</time>
      </trkpt>
      <trkpt lat="46.05077" lon="6.11767">
        <ele>1033.7</ele>
        <time>2020-12-26T13:11:11.640Z</time>
      </trkpt>
      <trkpt lat="46.05084" lon="6.11769">
        <ele>1033.4</ele>
        <time>2020-12-26T13:11:14.638Z</time>
      </trkpt>
      <trkpt lat="46.05086" lon="6.1177">
        <ele>1033.3</ele>
        <time>2020-12-26T13:11:15.639Z</time>
      </trkpt>
      <trkpt lat="46.05093" lon="6.11767">
        <ele>1033.4</ele>
        <time>2020-12-26T13:11:18.663Z</time>
      </trkpt>
      <trkpt lat="46.05094" lon="6.11764">
        <ele>1033.6</ele>
        <time>2020-12-26T13:11:19.642Z</time>
      </trkpt>
      <trkpt lat="46.05096" lon="6.11751">
        <ele>1033.4</ele>
        <time>2020-12-26T13:11:22.641Z</time>
      </trkpt>
      <trkpt lat="46.05095" lon="6.11747">
        <ele>1033.4</ele>
        <time>2020-12-26T13:11:23.636Z</time>
      </trkpt>
      <trkpt lat="46.0509" lon="6.11739">
        <ele>1033.4</ele>
        <time>2020-12-26T13:11:26.636Z</time>
      </trkpt>
      <trkpt lat="46.05089" lon="6.11736">
        <ele>1033.4</ele>
        <time>2020-12-26T13:11:27.636Z</time>
      </trkpt>
      <trkpt lat="46.05084" lon="6.11727">
        <ele>1036</ele>
        <time>2020-12-26T13:11:31.637Z</time>
      </trkpt>
      <trkpt lat="46.05083" lon="6.11724">
        <ele>1036.9</ele>
        <time>2020-12-26T13:11:32.636Z</time>
      </trkpt>
      <trkpt lat="46.05084" lon="6.11713">
        <ele>1041.8</ele>
        <time>2020-12-26T13:11:43.643Z</time>
      </trkpt>
      <trkpt lat="46.05084" lon="6.11711">
        <ele>1042</ele>
        <time>2020-12-26T13:11:44.637Z</time>
      </trkpt>
      <trkpt lat="46.05089" lon="6.11701">
        <ele>1043.2</ele>
        <time>2020-12-26T13:11:51.644Z</time>
      </trkpt>
      <trkpt lat="46.05089" lon="6.11699">
        <ele>1043.2</ele>
        <time>2020-12-26T13:11:52.645Z</time>
      </trkpt>
      <trkpt lat="46.05091" lon="6.11689">
        <ele>1045.6</ele>
        <time>2020-12-26T13:11:58.642Z</time>
      </trkpt>
      <trkpt lat="46.05092" lon="6.11686">
        <ele>1045.8</ele>
        <time>2020-12-26T13:11:59.637Z</time>
      </trkpt>
      <trkpt lat="46.05092" lon="6.11675">
        <ele>1045.8</ele>
        <time>2020-12-26T13:12:04.654Z</time>
      </trkpt>
      <trkpt lat="46.05091" lon="6.11673">
        <ele>1046.3</ele>
        <time>2020-12-26T13:12:05.655Z</time>
      </trkpt>
      <trkpt lat="46.0509" lon="6.1166">
        <ele>1047.6</ele>
        <time>2020-12-26T13:12:10.645Z</time>
      </trkpt>
      <trkpt lat="46.0509" lon="6.11657">
        <ele>1048</ele>
        <time>2020-12-26T13:12:11.640Z</time>
      </trkpt>
      <trkpt lat="46.05088" lon="6.11646">
        <ele>1049.3</ele>
        <time>2020-12-26T13:12:15.633Z</time>
      </trkpt>
      <trkpt lat="46.05087" lon="6.11643">
        <ele>1049.6</ele>
        <time>2020-12-26T13:12:16.638Z</time>
      </trkpt>
      <trkpt lat="46.05086" lon="6.11631">
        <ele>1051.2</ele>
        <time>2020-12-26T13:12:20.639Z</time>
      </trkpt>
      <trkpt lat="46.05086" lon="6.11628">
        <ele>1051.4</ele>
        <time>2020-12-26T13:12:21.638Z</time>
      </trkpt>
      <trkpt lat="46.05088" lon="6.11617">
        <ele>1051.9</ele>
        <time>2020-12-26T13:12:25.649Z</time>
      </trkpt>
      <trkpt lat="46.05089" lon="6.11614">
        <ele>1051.9</ele>
        <time>2020-12-26T13:12:26.647Z</time>
      </trkpt>
      <trkpt lat="46.0509" lon="6.11602">
        <ele>1052.4</ele>
        <time>2020-12-26T13:12:31.646Z</time>
      </trkpt>
      <trkpt lat="46.0509" lon="6.116">
        <ele>1052.6</ele>
        <time>2020-12-26T13:12:32.629Z</time>
      </trkpt>
      <trkpt lat="46.05091" lon="6.11589">
        <ele>1055.1</ele>
        <time>2020-12-26T13:12:37.643Z</time>
      </trkpt>
      <trkpt lat="46.05091" lon="6.11586">
        <ele>1054.9</ele>
        <time>2020-12-26T13:12:38.645Z</time>
      </trkpt>
      <trkpt lat="46.05088" lon="6.11576">
        <ele>1055.3</ele>
        <time>2020-12-26T13:12:42.623Z</time>
      </trkpt>
      <trkpt lat="46.05087" lon="6.11573">
        <ele>1055.2</ele>
        <time>2020-12-26T13:12:43.638Z</time>
      </trkpt>
      <trkpt lat="46.05084" lon="6.11562">
        <ele>1056.4</ele>
        <time>2020-12-26T13:12:47.679Z</time>
      </trkpt>
      <trkpt lat="46.05083" lon="6.11559">
        <ele>1056.5</ele>
        <time>2020-12-26T13:12:48.642Z</time>
      </trkpt>
      <trkpt lat="46.05081" lon="6.11547">
        <ele>1057.6</ele>
        <time>2020-12-26T13:12:52.636Z</time>
      </trkpt>
      <trkpt lat="46.0508" lon="6.11544">
        <ele>1057.8</ele>
        <time>2020-12-26T13:12:53.685Z</time>
      </trkpt>
      <trkpt lat="46.05079" lon="6.11531">
        <ele>1059.4</ele>
        <time>2020-12-26T13:12:57.638Z</time>
      </trkpt>
      <trkpt lat="46.0508" lon="6.11527">
        <ele>1059.5</ele>
        <time>2020-12-26T13:12:58.647Z</time>
      </trkpt>
      <trkpt lat="46.05082" lon="6.11516">
        <ele>1060.5</ele>
        <time>2020-12-26T13:13:01.646Z</time>
      </trkpt>
      <trkpt lat="46.05082" lon="6.11512">
        <ele>1060.6</ele>
        <time>2020-12-26T13:13:02.645Z</time>
      </trkpt>
      <trkpt lat="46.05082" lon="6.11501">
        <ele>1060.8</ele>
        <time>2020-12-26T13:13:05.685Z</time>
      </trkpt>
      <trkpt lat="46.05083" lon="6.11497">
        <ele>1061</ele>
        <time>2020-12-26T13:13:06.641Z</time>
      </trkpt>
      <trkpt lat="46.05083" lon="6.11484">
        <ele>1061.7</ele>
        <time>2020-12-26T13:13:09.657Z</time>
      </trkpt>
      <trkpt lat="46.05083" lon="6.11481">
        <ele>1062.1</ele>
        <time>2020-12-26T13:13:10.640Z</time>
      </trkpt>
      <trkpt lat="46.05083" lon="6.1147">
        <ele>1063.7</ele>
        <time>2020-12-26T13:13:13.657Z</time>
      </trkpt>
      <trkpt lat="46.05083" lon="6.11467">
        <ele>1063.8</ele>
        <time>2020-12-26T13:13:14.644Z</time>
      </trkpt>
      <trkpt lat="46.05082" lon="6.11455">
        <ele>1064.4</ele>
        <time>2020-12-26T13:13:18.651Z</time>
      </trkpt>
      <trkpt lat="46.05082" lon="6.11452">
        <ele>1064.2</ele>
        <time>2020-12-26T13:13:19.644Z</time>
      </trkpt>
      <trkpt lat="46.05081" lon="6.1144">
        <ele>1063.2</ele>
        <time>2020-12-26T13:13:23.705Z</time>
      </trkpt>
      <trkpt lat="46.0508" lon="6.11437">
        <ele>1062.8</ele>
        <time>2020-12-26T13:13:24.642Z</time>
      </trkpt>
      <trkpt lat="46.05079" lon="6.11427">
        <ele>1061.8</ele>
        <time>2020-12-26T13:13:27.640Z</time>
      </trkpt>
      <trkpt lat="46.05079" lon="6.11424">
        <ele>1061.1</ele>
        <time>2020-12-26T13:13:28.643Z</time>
      </trkpt>
      <trkpt lat="46.05076" lon="6.11413">
        <ele>1059.1</ele>
        <time>2020-12-26T13:13:31.637Z</time>
      </trkpt>
      <trkpt lat="46.05075" lon="6.1141">
        <ele>1058.5</ele>
        <time>2020-12-26T13:13:32.674Z</time>
      </trkpt>
      <trkpt lat="46.05072" lon="6.114">
        <ele>1056.8</ele>
        <time>2020-12-26T13:13:35.685Z</time>
      </trkpt>
      <trkpt lat="46.0507" lon="6.11397">
        <ele>1056.5</ele>
        <time>2020-12-26T13:13:36.634Z</time>
      </trkpt>
      <trkpt lat="46.05069" lon="6.11385">
        <ele>1055.1</ele>
        <time>2020-12-26T13:13:39.640Z</time>
      </trkpt>
      <trkpt lat="46.05068" lon="6.11381">
        <ele>1054.9</ele>
        <time>2020-12-26T13:13:40.650Z</time>
      </trkpt>
      <trkpt lat="46.05067" lon="6.11369">
        <ele>1053.6</ele>
        <time>2020-12-26T13:13:43.636Z</time>
      </trkpt>
      <trkpt lat="46.05066" lon="6.11366">
        <ele>1053.8</ele>
        <time>2020-12-26T13:13:44.642Z</time>
      </trkpt>
      <trkpt lat="46.05067" lon="6.11353">
        <ele>1052.5</ele>
        <time>2020-12-26T13:13:48.659Z</time>
      </trkpt>
      <trkpt lat="46.05067" lon="6.1135">
        <ele>1052.4</ele>
        <time>2020-12-26T13:13:49.640Z</time>
      </trkpt>
      <trkpt lat="46.05067" lon="6.11339">
        <ele>1051.6</ele>
        <time>2020-12-26T13:13:52.685Z</time>
      </trkpt>
      <trkpt lat="46.05068" lon="6.11336">
        <ele>1051.4</ele>
        <time>2020-12-26T13:13:53.657Z</time>
      </trkpt>
      <trkpt lat="46.05068" lon="6.11326">
        <ele>1051.1</ele>
        <time>2020-12-26T13:13:56.640Z</time>
      </trkpt>
      <trkpt lat="46.05068" lon="6.11322">
        <ele>1051.4</ele>
        <time>2020-12-26T13:13:57.640Z</time>
      </trkpt>
      <trkpt lat="46.05068" lon="6.1131">
        <ele>1051.6</ele>
        <time>2020-12-26T13:14:01.650Z</time>
      </trkpt>
      <trkpt lat="46.05067" lon="6.11307">
        <ele>1051.6</ele>
        <time>2020-12-26T13:14:02.640Z</time>
      </trkpt>
      <trkpt lat="46.05067" lon="6.11295">
        <ele>1051.1</ele>
        <time>2020-12-26T13:14:06.656Z</time>
      </trkpt>
      <trkpt lat="46.05068" lon="6.11293">
        <ele>1051.1</ele>
        <time>2020-12-26T13:14:07.642Z</time>
      </trkpt>
      <trkpt lat="46.05071" lon="6.11283">
        <ele>1050</ele>
        <time>2020-12-26T13:14:10.682Z</time>
      </trkpt>
      <trkpt lat="46.05072" lon="6.1128">
        <ele>1049.6</ele>
        <time>2020-12-26T13:14:11.636Z</time>
      </trkpt>
      <trkpt lat="46.05073" lon="6.11267">
        <ele>1048.2</ele>
        <time>2020-12-26T13:14:14.641Z</time>
      </trkpt>
      <trkpt lat="46.05075" lon="6.11264">
        <ele>1047.6</ele>
        <time>2020-12-26T13:14:15.636Z</time>
      </trkpt>
      <trkpt lat="46.05077" lon="6.11256">
        <ele>1046.9</ele>
        <time>2020-12-26T13:14:17.642Z</time>
      </trkpt>
      <trkpt lat="46.05077" lon="6.11252">
        <ele>1046.9</ele>
        <time>2020-12-26T13:14:18.644Z</time>
      </trkpt>
      <trkpt lat="46.0508" lon="6.11241">
        <ele>1047.4</ele>
        <time>2020-12-26T13:14:21.637Z</time>
      </trkpt>
      <trkpt lat="46.05081" lon="6.11238">
        <ele>1047.4</ele>
        <time>2020-12-26T13:14:22.681Z</time>
      </trkpt>
      <trkpt lat="46.05085" lon="6.11227">
        <ele>1048</ele>
        <time>2020-12-26T13:14:26.641Z</time>
      </trkpt>
      <trkpt lat="46.05086" lon="6.11225">
        <ele>1048.2</ele>
        <time>2020-12-26T13:14:27.670Z</time>
      </trkpt>
      <trkpt lat="46.05087" lon="6.11213">
        <ele>1046.8</ele>
        <time>2020-12-26T13:14:35.652Z</time>
      </trkpt>
      <trkpt lat="46.05088" lon="6.11212">
        <ele>1046.8</ele>
        <time>2020-12-26T13:14:36.667Z</time>
      </trkpt>
      <trkpt lat="46.05095" lon="6.11207">
        <ele>1046.2</ele>
        <time>2020-12-26T13:14:39.644Z</time>
      </trkpt>
      <trkpt lat="46.05098" lon="6.11205">
        <ele>1045.7</ele>
        <time>2020-12-26T13:14:40.692Z</time>
      </trkpt>
      <trkpt lat="46.05105" lon="6.112">
        <ele>1044.8</ele>
        <time>2020-12-26T13:14:43.640Z</time>
      </trkpt>
      <trkpt lat="46.05106" lon="6.11199">
        <ele>1044.8</ele>
        <time>2020-12-26T13:14:44.666Z</time>
      </trkpt>
      <trkpt lat="46.05114" lon="6.11197">
        <ele>1044</ele>
        <time>2020-12-26T13:14:51.647Z</time>
      </trkpt>
      <trkpt lat="46.05117" lon="6.11197">
        <ele>1043.6</ele>
        <time>2020-12-26T13:14:52.678Z</time>
      </trkpt>
      <trkpt lat="46.05124" lon="6.11198">
        <ele>1041.4</ele>
        <time>2020-12-26T13:14:56.650Z</time>
      </trkpt>
      <trkpt lat="46.05126" lon="6.11198">
        <ele>1040.6</ele>
        <time>2020-12-26T13:14:57.640Z</time>
      </trkpt>
      <trkpt lat="46.05133" lon="6.11199">
        <ele>1038</ele>
        <time>2020-12-26T13:15:00.633Z</time>
      </trkpt>
      <trkpt lat="46.05136" lon="6.11199">
        <ele>1036.8</ele>
        <time>2020-12-26T13:15:01.640Z</time>
      </trkpt>
      <trkpt lat="46.05143" lon="6.11199">
        <ele>1033.9</ele>
        <time>2020-12-26T13:15:03.636Z</time>
      </trkpt>
      <trkpt lat="46.05149" lon="6.11201">
        <ele>1032.8</ele>
        <time>2020-12-26T13:15:04.686Z</time>
      </trkpt>
      <trkpt lat="46.05154" lon="6.11202">
        <ele>1032.2</ele>
        <time>2020-12-26T13:15:05.636Z</time>
      </trkpt>
      <trkpt lat="46.05159" lon="6.11204">
        <ele>1031.4</ele>
        <time>2020-12-26T13:15:06.642Z</time>
      </trkpt>
      <trkpt lat="46.05166" lon="6.11207">
        <ele>1030.8</ele>
        <time>2020-12-26T13:15:08.638Z</time>
      </trkpt>
      <trkpt lat="46.05169" lon="6.11208">
        <ele>1030.3</ele>
        <time>2020-12-26T13:15:09.643Z</time>
      </trkpt>
      <trkpt lat="46.05176" lon="6.11212">
        <ele>1030</ele>
        <time>2020-12-26T13:15:12.639Z</time>
      </trkpt>
      <trkpt lat="46.05178" lon="6.11214">
        <ele>1030</ele>
        <time>2020-12-26T13:15:13.636Z</time>
      </trkpt>
      <trkpt lat="46.05183" lon="6.1122">
        <ele>1030.4</ele>
        <time>2020-12-26T13:15:16.682Z</time>
      </trkpt>
      <trkpt lat="46.05185" lon="6.11223">
        <ele>1030.8</ele>
        <time>2020-12-26T13:15:17.651Z</time>
      </trkpt>
      <trkpt lat="46.05191" lon="6.11231">
        <ele>1032.2</ele>
        <time>2020-12-26T13:15:20.635Z</time>
      </trkpt>
      <trkpt lat="46.05193" lon="6.11234">
        <ele>1032.7</ele>
        <time>2020-12-26T13:15:21.674Z</time>
      </trkpt>
      <trkpt lat="46.05198" lon="6.11242">
        <ele>1033.8</ele>
        <time>2020-12-26T13:15:24.645Z</time>
      </trkpt>
      <trkpt lat="46.052" lon="6.11245">
        <ele>1034.5</ele>
        <time>2020-12-26T13:15:25.639Z</time>
      </trkpt>
      <trkpt lat="46.05204" lon="6.11254">
        <ele>1035.4</ele>
        <time>2020-12-26T13:15:28.694Z</time>
      </trkpt>
      <trkpt lat="46.05206" lon="6.11257">
        <ele>1035.5</ele>
        <time>2020-12-26T13:15:29.670Z</time>
      </trkpt>
      <trkpt lat="46.0521" lon="6.11264">
        <ele>1035.8</ele>
        <time>2020-12-26T13:15:32.699Z</time>
      </trkpt>
      <trkpt lat="46.05211" lon="6.11267">
        <ele>1035.8</ele>
        <time>2020-12-26T13:15:33.639Z</time>
      </trkpt>
      <trkpt lat="46.05214" lon="6.11276">
        <ele>1035.7</ele>
        <time>2020-12-26T13:15:36.638Z</time>
      </trkpt>
      <trkpt lat="46.05214" lon="6.11279">
        <ele>1035.6</ele>
        <time>2020-12-26T13:15:37.644Z</time>
      </trkpt>
      <trkpt lat="46.05216" lon="6.11292">
        <ele>1035.3</ele>
        <time>2020-12-26T13:15:40.644Z</time>
      </trkpt>
      <trkpt lat="46.05216" lon="6.11296">
        <ele>1035.7</ele>
        <time>2020-12-26T13:15:41.627Z</time>
      </trkpt>
      <trkpt lat="46.05218" lon="6.11307">
        <ele>1036</ele>
        <time>2020-12-26T13:15:44.635Z</time>
      </trkpt>
      <trkpt lat="46.05218" lon="6.11311">
        <ele>1035.4</ele>
        <time>2020-12-26T13:15:45.649Z</time>
      </trkpt>
      <trkpt lat="46.05219" lon="6.11321">
        <ele>1035.3</ele>
        <time>2020-12-26T13:15:48.646Z</time>
      </trkpt>
      <trkpt lat="46.05219" lon="6.11324">
        <ele>1035.1</ele>
        <time>2020-12-26T13:15:49.636Z</time>
      </trkpt>
      <trkpt lat="46.05221" lon="6.11335">
        <ele>1035</ele>
        <time>2020-12-26T13:15:53.649Z</time>
      </trkpt>
      <trkpt lat="46.05221" lon="6.11337">
        <ele>1035.1</ele>
        <time>2020-12-26T13:15:54.665Z</time>
      </trkpt>
      <trkpt lat="46.05223" lon="6.11348">
        <ele>1035.7</ele>
        <time>2020-12-26T13:15:58.643Z</time>
      </trkpt>
      <trkpt lat="46.05223" lon="6.11351">
        <ele>1035.6</ele>
        <time>2020-12-26T13:15:59.665Z</time>
      </trkpt>
      <trkpt lat="46.05225" lon="6.11363">
        <ele>1036.1</ele>
        <time>2020-12-26T13:16:03.650Z</time>
      </trkpt>
      <trkpt lat="46.05225" lon="6.11367">
        <ele>1036.3</ele>
        <time>2020-12-26T13:16:04.636Z</time>
      </trkpt>
      <trkpt lat="46.05224" lon="6.11377">
        <ele>1036.9</ele>
        <time>2020-12-26T13:16:07.640Z</time>
      </trkpt>
      <trkpt lat="46.05224" lon="6.1138">
        <ele>1037.1</ele>
        <time>2020-12-26T13:16:08.636Z</time>
      </trkpt>
      <trkpt lat="46.05224" lon="6.11391">
        <ele>1037.7</ele>
        <time>2020-12-26T13:16:11.644Z</time>
      </trkpt>
      <trkpt lat="46.05224" lon="6.11394">
        <ele>1038.1</ele>
        <time>2020-12-26T13:16:12.636Z</time>
      </trkpt>
      <trkpt lat="46.05224" lon="6.11404">
        <ele>1039.6</ele>
        <time>2020-12-26T13:16:15.641Z</time>
      </trkpt>
      <trkpt lat="46.05224" lon="6.11407">
        <ele>1040</ele>
        <time>2020-12-26T13:16:16.637Z</time>
      </trkpt>
      <trkpt lat="46.05224" lon="6.1142">
        <ele>1042.9</ele>
        <time>2020-12-26T13:16:20.690Z</time>
      </trkpt>
      <trkpt lat="46.05223" lon="6.11422">
        <ele>1043.8</ele>
        <time>2020-12-26T13:16:21.643Z</time>
      </trkpt>
      <trkpt lat="46.05222" lon="6.11434">
        <ele>1044.8</ele>
        <time>2020-12-26T13:16:26.632Z</time>
      </trkpt>
      <trkpt lat="46.05222" lon="6.11436">
        <ele>1045</ele>
        <time>2020-12-26T13:16:27.635Z</time>
      </trkpt>
      <trkpt lat="46.05223" lon="6.11447">
        <ele>1046.5</ele>
        <time>2020-12-26T13:16:32.677Z</time>
      </trkpt>
      <trkpt lat="46.05223" lon="6.11449">
        <ele>1046.8</ele>
        <time>2020-12-26T13:16:33.623Z</time>
      </trkpt>
      <trkpt lat="46.05221" lon="6.11462">
        <ele>1048.4</ele>
        <time>2020-12-26T13:16:38.693Z</time>
      </trkpt>
      <trkpt lat="46.05221" lon="6.11464">
        <ele>1049</ele>
        <time>2020-12-26T13:16:39.647Z</time>
      </trkpt>
      <trkpt lat="46.05221" lon="6.11477">
        <ele>1052.5</ele>
        <time>2020-12-26T13:16:45.639Z</time>
      </trkpt>
      <trkpt lat="46.05221" lon="6.11479">
        <ele>1052.9</ele>
        <time>2020-12-26T13:16:46.634Z</time>
      </trkpt>
      <trkpt lat="46.05217" lon="6.1149">
        <ele>1056</ele>
        <time>2020-12-26T13:16:51.642Z</time>
      </trkpt>
      <trkpt lat="46.05216" lon="6.11492">
        <ele>1056.5</ele>
        <time>2020-12-26T13:16:52.633Z</time>
      </trkpt>
      <trkpt lat="46.05213" lon="6.11503">
        <ele>1058.8</ele>
        <time>2020-12-26T13:16:57.644Z</time>
      </trkpt>
      <trkpt lat="46.05213" lon="6.11506">
        <ele>1059.2</ele>
        <time>2020-12-26T13:16:58.637Z</time>
      </trkpt>
      <trkpt lat="46.05211" lon="6.11517">
        <ele>1062.1</ele>
        <time>2020-12-26T13:17:02.737Z</time>
      </trkpt>
      <trkpt lat="46.0521" lon="6.1152">
        <ele>1062.9</ele>
        <time>2020-12-26T13:17:03.662Z</time>
      </trkpt>
      <trkpt lat="46.05208" lon="6.11531">
        <ele>1064.4</ele>
        <time>2020-12-26T13:17:07.659Z</time>
      </trkpt>
      <trkpt lat="46.05208" lon="6.11534">
        <ele>1064.7</ele>
        <time>2020-12-26T13:17:08.688Z</time>
      </trkpt>
      <trkpt lat="46.05207" lon="6.11545">
        <ele>1065.4</ele>
        <time>2020-12-26T13:17:12.642Z</time>
      </trkpt>
      <trkpt lat="46.05208" lon="6.11547">
        <ele>1065.2</ele>
        <time>2020-12-26T13:17:13.674Z</time>
      </trkpt>
      <trkpt lat="46.05209" lon="6.11559">
        <ele>1066.1</ele>
        <time>2020-12-26T13:17:17.634Z</time>
      </trkpt>
      <trkpt lat="46.05208" lon="6.11562">
        <ele>1066.2</ele>
        <time>2020-12-26T13:17:18.641Z</time>
      </trkpt>
      <trkpt lat="46.05207" lon="6.11574">
        <ele>1067.1</ele>
        <time>2020-12-26T13:17:23.639Z</time>
      </trkpt>
      <trkpt lat="46.05207" lon="6.11576">
        <ele>1067.4</ele>
        <time>2020-12-26T13:17:24.673Z</time>
      </trkpt>
      <trkpt lat="46.05203" lon="6.11588">
        <ele>1067.3</ele>
        <time>2020-12-26T13:17:29.638Z</time>
      </trkpt>
      <trkpt lat="46.05203" lon="6.1159">
        <ele>1067</ele>
        <time>2020-12-26T13:17:30.652Z</time>
      </trkpt>
      <trkpt lat="46.05207" lon="6.11601">
        <ele>1065.1</ele>
        <time>2020-12-26T13:17:35.636Z</time>
      </trkpt>
      <trkpt lat="46.05207" lon="6.11603">
        <ele>1064.9</ele>
        <time>2020-12-26T13:17:36.643Z</time>
      </trkpt>
      <trkpt lat="46.05209" lon="6.11615">
        <ele>1065.9</ele>
        <time>2020-12-26T13:17:42.645Z</time>
      </trkpt>
      <trkpt lat="46.05208" lon="6.11617">
        <ele>1065.7</ele>
        <time>2020-12-26T13:17:43.674Z</time>
      </trkpt>
      <trkpt lat="46.05209" lon="6.11629">
        <ele>1066.4</ele>
        <time>2020-12-26T13:17:50.644Z</time>
      </trkpt>
      <trkpt lat="46.0521" lon="6.1163">
        <ele>1066.4</ele>
        <time>2020-12-26T13:17:51.654Z</time>
      </trkpt>
      <trkpt lat="46.05211" lon="6.11642">
        <ele>1066.4</ele>
        <time>2020-12-26T13:17:59.644Z</time>
      </trkpt>
      <trkpt lat="46.05211" lon="6.11644">
        <ele>1066.7</ele>
        <time>2020-12-26T13:18:00.639Z</time>
      </trkpt>
      <trkpt lat="46.05211" lon="6.11656">
        <ele>1067.9</ele>
        <time>2020-12-26T13:18:04.648Z</time>
      </trkpt>
      <trkpt lat="46.05212" lon="6.11659">
        <ele>1068.1</ele>
        <time>2020-12-26T13:18:05.640Z</time>
      </trkpt>
      <trkpt lat="46.05214" lon="6.11671">
        <ele>1069.4</ele>
        <time>2020-12-26T13:18:09.654Z</time>
      </trkpt>
      <trkpt lat="46.05215" lon="6.11673">
        <ele>1069.6</ele>
        <time>2020-12-26T13:18:10.662Z</time>
      </trkpt>
      <trkpt lat="46.05218" lon="6.11683">
        <ele>1069.7</ele>
        <time>2020-12-26T13:18:14.638Z</time>
      </trkpt>
      <trkpt lat="46.05219" lon="6.11686">
        <ele>1069.8</ele>
        <time>2020-12-26T13:18:15.648Z</time>
      </trkpt>
      <trkpt lat="46.05222" lon="6.11697">
        <ele>1070.7</ele>
        <time>2020-12-26T13:18:20.640Z</time>
      </trkpt>
      <trkpt lat="46.05223" lon="6.11699">
        <ele>1070.6</ele>
        <time>2020-12-26T13:18:21.636Z</time>
      </trkpt>
      <trkpt lat="46.05225" lon="6.11709">
        <ele>1071.1</ele>
        <time>2020-12-26T13:18:25.689Z</time>
      </trkpt>
      <trkpt lat="46.05225" lon="6.11711">
        <ele>1070.9</ele>
        <time>2020-12-26T13:18:26.644Z</time>
      </trkpt>
      <trkpt lat="46.05227" lon="6.11722">
        <ele>1071.1</ele>
        <time>2020-12-26T13:18:30.640Z</time>
      </trkpt>
      <trkpt lat="46.05228" lon="6.11724">
        <ele>1071.4</ele>
        <time>2020-12-26T13:18:31.702Z</time>
      </trkpt>
      <trkpt lat="46.05232" lon="6.11733">
        <ele>1071.7</ele>
        <time>2020-12-26T13:18:34.641Z</time>
      </trkpt>
      <trkpt lat="46.05234" lon="6.11735">
        <ele>1072</ele>
        <time>2020-12-26T13:18:35.645Z</time>
      </trkpt>
      <trkpt lat="46.05238" lon="6.11742">
        <ele>1073.9</ele>
        <time>2020-12-26T13:18:38.647Z</time>
      </trkpt>
      <trkpt lat="46.0524" lon="6.11745">
        <ele>1074.7</ele>
        <time>2020-12-26T13:18:39.635Z</time>
      </trkpt>
      <trkpt lat="46.05245" lon="6.11754">
        <ele>1076</ele>
        <time>2020-12-26T13:18:43.680Z</time>
      </trkpt>
      <trkpt lat="46.05246" lon="6.11756">
        <ele>1076.9</ele>
        <time>2020-12-26T13:18:44.647Z</time>
      </trkpt>
      <trkpt lat="46.0525" lon="6.11765">
        <ele>1078.7</ele>
        <time>2020-12-26T13:18:48.653Z</time>
      </trkpt>
      <trkpt lat="46.05251" lon="6.11768">
        <ele>1079.1</ele>
        <time>2020-12-26T13:18:49.688Z</time>
      </trkpt>
      <trkpt lat="46.05255" lon="6.11777">
        <ele>1080.5</ele>
        <time>2020-12-26T13:18:53.643Z</time>
      </trkpt>
      <trkpt lat="46.05256" lon="6.11779">
        <ele>1080.7</ele>
        <time>2020-12-26T13:18:54.638Z</time>
      </trkpt>
      <trkpt lat="46.05255" lon="6.1179">
        <ele>1082.3</ele>
        <time>2020-12-26T13:18:58.645Z</time>
      </trkpt>
      <trkpt lat="46.05255" lon="6.11793">
        <ele>1082.5</ele>
        <time>2020-12-26T13:18:59.642Z</time>
      </trkpt>
      <trkpt lat="46.05257" lon="6.11802">
        <ele>1082.7</ele>
        <time>2020-12-26T13:19:03.656Z</time>
      </trkpt>
      <trkpt lat="46.05257" lon="6.11805">
        <ele>1082.7</ele>
        <time>2020-12-26T13:19:04.637Z</time>
      </trkpt>
      <trkpt lat="46.05261" lon="6.11815">
        <ele>1081.4</ele>
        <time>2020-12-26T13:19:09.642Z</time>
      </trkpt>
      <trkpt lat="46.05262" lon="6.11818">
        <ele>1080.9</ele>
        <time>2020-12-26T13:19:10.645Z</time>
      </trkpt>
      <trkpt lat="46.05266" lon="6.11829">
        <ele>1079.8</ele>
        <time>2020-12-26T13:19:14.726Z</time>
      </trkpt>
      <trkpt lat="46.05267" lon="6.11832">
        <ele>1079.7</ele>
        <time>2020-12-26T13:19:15.645Z</time>
      </trkpt>
      <trkpt lat="46.0527" lon="6.11843">
        <ele>1078.9</ele>
        <time>2020-12-26T13:19:19.643Z</time>
      </trkpt>
      <trkpt lat="46.05272" lon="6.11846">
        <ele>1079.5</ele>
        <time>2020-12-26T13:19:20.636Z</time>
      </trkpt>
      <trkpt lat="46.05277" lon="6.11855">
        <ele>1079.5</ele>
        <time>2020-12-26T13:19:24.644Z</time>
      </trkpt>
      <trkpt lat="46.05279" lon="6.11858">
        <ele>1079.5</ele>
        <time>2020-12-26T13:19:25.682Z</time>
      </trkpt>
      <trkpt lat="46.05284" lon="6.11866">
        <ele>1079</ele>
        <time>2020-12-26T13:19:29.645Z</time>
      </trkpt>
      <trkpt lat="46.05286" lon="6.11868">
        <ele>1079</ele>
        <time>2020-12-26T13:19:30.645Z</time>
      </trkpt>
      <trkpt lat="46.05291" lon="6.11878">
        <ele>1079.6</ele>
        <time>2020-12-26T13:19:35.644Z</time>
      </trkpt>
      <trkpt lat="46.05292" lon="6.1188">
        <ele>1079.6</ele>
        <time>2020-12-26T13:19:36.642Z</time>
      </trkpt>
      <trkpt lat="46.05294" lon="6.1189">
        <ele>1080.5</ele>
        <time>2020-12-26T13:19:40.643Z</time>
      </trkpt>
      <trkpt lat="46.05295" lon="6.11892">
        <ele>1081.4</ele>
        <time>2020-12-26T13:19:41.637Z</time>
      </trkpt>
      <trkpt lat="46.05298" lon="6.11903">
        <ele>1083.1</ele>
        <time>2020-12-26T13:19:46.646Z</time>
      </trkpt>
      <trkpt lat="46.05299" lon="6.11905">
        <ele>1083.1</ele>
        <time>2020-12-26T13:19:47.645Z</time>
      </trkpt>
      <trkpt lat="46.05304" lon="6.11915">
        <ele>1083.4</ele>
        <time>2020-12-26T13:19:53.640Z</time>
      </trkpt>
      <trkpt lat="46.05304" lon="6.11917">
        <ele>1083.2</ele>
        <time>2020-12-26T13:19:54.646Z</time>
      </trkpt>
      <trkpt lat="46.05309" lon="6.11925">
        <ele>1083.3</ele>
        <time>2020-12-26T13:19:58.667Z</time>
      </trkpt>
      <trkpt lat="46.0531" lon="6.11928">
        <ele>1083.5</ele>
        <time>2020-12-26T13:19:59.637Z</time>
      </trkpt>
      <trkpt lat="46.05313" lon="6.11938">
        <ele>1083.8</ele>
        <time>2020-12-26T13:20:03.641Z</time>
      </trkpt>
      <trkpt lat="46.05314" lon="6.1194">
        <ele>1084.6</ele>
        <time>2020-12-26T13:20:04.659Z</time>
      </trkpt>
      <trkpt lat="46.05316" lon="6.1195">
        <ele>1086</ele>
        <time>2020-12-26T13:20:08.640Z</time>
      </trkpt>
      <trkpt lat="46.05316" lon="6.11953">
        <ele>1086.2</ele>
        <time>2020-12-26T13:20:09.641Z</time>
      </trkpt>
      <trkpt lat="46.0532" lon="6.11962">
        <ele>1086.3</ele>
        <time>2020-12-26T13:20:13.682Z</time>
      </trkpt>
      <trkpt lat="46.05322" lon="6.11964">
        <ele>1086.3</ele>
        <time>2020-12-26T13:20:14.672Z</time>
      </trkpt>
      <trkpt lat="46.05329" lon="6.1197">
        <ele>1087.4</ele>
        <time>2020-12-26T13:20:19.643Z</time>
      </trkpt>
      <trkpt lat="46.0533" lon="6.1197">
        <ele>1087.2</ele>
        <time>2020-12-26T13:20:20.637Z</time>
      </trkpt>
      <trkpt lat="46.05324" lon="6.11976">
        <ele>1085.1</ele>
        <time>2020-12-26T13:20:23.638Z</time>
      </trkpt>
      <trkpt lat="46.05325" lon="6.11985">
        <ele>1084.7</ele>
        <time>2020-12-26T13:20:24.636Z</time>
      </trkpt>
      <trkpt lat="46.05328" lon="6.11994">
        <ele>1083.9</ele>
        <time>2020-12-26T13:20:27.634Z</time>
      </trkpt>
      <trkpt lat="46.05328" lon="6.11997">
        <ele>1083.6</ele>
        <time>2020-12-26T13:20:28.639Z</time>
      </trkpt>
      <trkpt lat="46.05335" lon="6.12004">
        <ele>1083.6</ele>
        <time>2020-12-26T13:20:34.655Z</time>
      </trkpt>
      <trkpt lat="46.05335" lon="6.12005">
        <ele>1083.7</ele>
        <time>2020-12-26T13:20:35.666Z</time>
      </trkpt>
      <trkpt lat="46.0534" lon="6.1201">
        <ele>1083.8</ele>
        <time>2020-12-26T13:20:38.634Z</time>
      </trkpt>
      <trkpt lat="46.05344" lon="6.12016">
        <ele>1084</ele>
        <time>2020-12-26T13:20:39.642Z</time>
      </trkpt>
      <trkpt lat="46.05349" lon="6.12022">
        <ele>1084.2</ele>
        <time>2020-12-26T13:20:40.641Z</time>
      </trkpt>
      <trkpt lat="46.05352" lon="6.12026">
        <ele>1084.2</ele>
        <time>2020-12-26T13:20:41.638Z</time>
      </trkpt>
      <trkpt lat="46.05357" lon="6.12033">
        <ele>1084.3</ele>
        <time>2020-12-26T13:20:43.648Z</time>
      </trkpt>
      <trkpt lat="46.05359" lon="6.12036">
        <ele>1084.5</ele>
        <time>2020-12-26T13:20:44.634Z</time>
      </trkpt>
      <trkpt lat="46.05365" lon="6.12046">
        <ele>1085.4</ele>
        <time>2020-12-26T13:20:46.633Z</time>
      </trkpt>
      <trkpt lat="46.05368" lon="6.12049">
        <ele>1085.8</ele>
        <time>2020-12-26T13:20:47.637Z</time>
      </trkpt>
      <trkpt lat="46.05374" lon="6.12054">
        <ele>1085.9</ele>
        <time>2020-12-26T13:20:49.672Z</time>
      </trkpt>
      <trkpt lat="46.05376" lon="6.12057">
        <ele>1085.9</ele>
        <time>2020-12-26T13:20:50.635Z</time>
      </trkpt>
      <trkpt lat="46.05382" lon="6.12065">
        <ele>1086.8</ele>
        <time>2020-12-26T13:20:53.648Z</time>
      </trkpt>
      <trkpt lat="46.05384" lon="6.12068">
        <ele>1086.9</ele>
        <time>2020-12-26T13:20:54.647Z</time>
      </trkpt>
      <trkpt lat="46.0539" lon="6.12074">
        <ele>1087.4</ele>
        <time>2020-12-26T13:20:57.644Z</time>
      </trkpt>
      <trkpt lat="46.05391" lon="6.12076">
        <ele>1087.8</ele>
        <time>2020-12-26T13:20:58.662Z</time>
      </trkpt>
      <trkpt lat="46.05396" lon="6.12085">
        <ele>1087.9</ele>
        <time>2020-12-26T13:21:02.636Z</time>
      </trkpt>
      <trkpt lat="46.05397" lon="6.12086">
        <ele>1088</ele>
        <time>2020-12-26T13:21:03.639Z</time>
      </trkpt>
      <trkpt lat="46.05402" lon="6.12095">
        <ele>1087.1</ele>
        <time>2020-12-26T13:21:08.642Z</time>
      </trkpt>
      <trkpt lat="46.05404" lon="6.12096">
        <ele>1087.2</ele>
        <time>2020-12-26T13:21:09.662Z</time>
      </trkpt>
      <trkpt lat="46.05411" lon="6.12101">
        <ele>1086.8</ele>
        <time>2020-12-26T13:21:14.649Z</time>
      </trkpt>
      <trkpt lat="46.05412" lon="6.12102">
        <ele>1086.7</ele>
        <time>2020-12-26T13:21:15.636Z</time>
      </trkpt>
      <trkpt lat="46.05419" lon="6.12108">
        <ele>1087.2</ele>
        <time>2020-12-26T13:21:20.633Z</time>
      </trkpt>
      <trkpt lat="46.05421" lon="6.1211">
        <ele>1087.2</ele>
        <time>2020-12-26T13:21:21.638Z</time>
      </trkpt>
      <trkpt lat="46.05428" lon="6.12116">
        <ele>1087</ele>
        <time>2020-12-26T13:21:25.637Z</time>
      </trkpt>
      <trkpt lat="46.0543" lon="6.12118">
        <ele>1087.1</ele>
        <time>2020-12-26T13:21:26.635Z</time>
      </trkpt>
      <trkpt lat="46.05436" lon="6.12127">
        <ele>1091.6</ele>
        <time>2020-12-26T13:21:40.640Z</time>
      </trkpt>
      <trkpt lat="46.05437" lon="6.12127">
        <ele>1092</ele>
        <time>2020-12-26T13:21:41.639Z</time>
      </trkpt>
      <trkpt lat="46.05435" lon="6.12139">
        <ele>1094.9</ele>
        <time>2020-12-26T13:21:51.640Z</time>
      </trkpt>
      <trkpt lat="46.05434" lon="6.12141">
        <ele>1094.9</ele>
        <time>2020-12-26T13:21:52.644Z</time>
      </trkpt>
      <trkpt lat="46.05435" lon="6.12153">
        <ele>1099.1</ele>
        <time>2020-12-26T13:22:01.636Z</time>
      </trkpt>
      <trkpt lat="46.05437" lon="6.12154">
        <ele>1099.9</ele>
        <time>2020-12-26T13:22:02.695Z</time>
      </trkpt>
      <trkpt lat="46.05443" lon="6.12162">
        <ele>1104.5</ele>
        <time>2020-12-26T13:22:08.641Z</time>
      </trkpt>
      <trkpt lat="46.05444" lon="6.12164">
        <ele>1105.2</ele>
        <time>2020-12-26T13:22:09.645Z</time>
      </trkpt>
      <trkpt lat="46.05444" lon="6.12176">
        <ele>1109.4</ele>
        <time>2020-12-26T13:22:15.648Z</time>
      </trkpt>
      <trkpt lat="46.05443" lon="6.12178">
        <ele>1109.5</ele>
        <time>2020-12-26T13:22:16.634Z</time>
      </trkpt>
      <trkpt lat="46.05447" lon="6.12187">
        <ele>1111.3</ele>
        <time>2020-12-26T13:22:25.642Z</time>
      </trkpt>
      <trkpt lat="46.0545" lon="6.12187">
        <ele>1111.4</ele>
        <time>2020-12-26T13:22:26.642Z</time>
      </trkpt>
      <trkpt lat="46.05456" lon="6.12195">
        <ele>1112.2</ele>
        <time>2020-12-26T13:22:31.642Z</time>
      </trkpt>
      <trkpt lat="46.05457" lon="6.12197">
        <ele>1112.3</ele>
        <time>2020-12-26T13:22:32.684Z</time>
      </trkpt>
      <trkpt lat="46.05463" lon="6.12206">
        <ele>1112.6</ele>
        <time>2020-12-26T13:22:36.649Z</time>
      </trkpt>
      <trkpt lat="46.05465" lon="6.12209">
        <ele>1112.6</ele>
        <time>2020-12-26T13:22:37.637Z</time>
      </trkpt>
      <trkpt lat="46.05469" lon="6.12218">
        <ele>1112.5</ele>
        <time>2020-12-26T13:22:40.652Z</time>
      </trkpt>
      <trkpt lat="46.0547" lon="6.12221">
        <ele>1112.6</ele>
        <time>2020-12-26T13:22:41.678Z</time>
      </trkpt>
      <trkpt lat="46.05473" lon="6.1223">
        <ele>1112.4</ele>
        <time>2020-12-26T13:22:44.646Z</time>
      </trkpt>
      <trkpt lat="46.05474" lon="6.12234">
        <ele>1112.9</ele>
        <time>2020-12-26T13:22:45.642Z</time>
      </trkpt>
      <trkpt lat="46.0548" lon="6.1224">
        <ele>1112.5</ele>
        <time>2020-12-26T13:22:47.687Z</time>
      </trkpt>
      <trkpt lat="46.05483" lon="6.12242">
        <ele>1111.9</ele>
        <time>2020-12-26T13:22:48.637Z</time>
      </trkpt>
      <trkpt lat="46.0549" lon="6.12249">
        <ele>1110.1</ele>
        <time>2020-12-26T13:22:51.638Z</time>
      </trkpt>
      <trkpt lat="46.05493" lon="6.1225">
        <ele>1109.5</ele>
        <time>2020-12-26T13:22:52.634Z</time>
      </trkpt>
      <trkpt lat="46.05499" lon="6.12253">
        <ele>1108.9</ele>
        <time>2020-12-26T13:22:54.642Z</time>
      </trkpt>
      <trkpt lat="46.05502" lon="6.12255">
        <ele>1109</ele>
        <time>2020-12-26T13:22:55.646Z</time>
      </trkpt>
      <trkpt lat="46.05508" lon="6.12259">
        <ele>1109.3</ele>
        <time>2020-12-26T13:22:57.642Z</time>
      </trkpt>
      <trkpt lat="46.05511" lon="6.12261">
        <ele>1109.6</ele>
        <time>2020-12-26T13:22:58.640Z</time>
      </trkpt>
      <trkpt lat="46.05519" lon="6.12266">
        <ele>1110.7</ele>
        <time>2020-12-26T13:23:01.637Z</time>
      </trkpt>
      <trkpt lat="46.05521" lon="6.12268">
        <ele>1110.9</ele>
        <time>2020-12-26T13:23:02.643Z</time>
      </trkpt>
      <trkpt lat="46.05529" lon="6.12272">
        <ele>1111.3</ele>
        <time>2020-12-26T13:23:05.648Z</time>
      </trkpt>
      <trkpt lat="46.05531" lon="6.12273">
        <ele>1111.7</ele>
        <time>2020-12-26T13:23:06.637Z</time>
      </trkpt>
      <trkpt lat="46.0554" lon="6.12274">
        <ele>1113.5</ele>
        <time>2020-12-26T13:23:10.658Z</time>
      </trkpt>
      <trkpt lat="46.05542" lon="6.12274">
        <ele>1114</ele>
        <time>2020-12-26T13:23:11.706Z</time>
      </trkpt>
      <trkpt lat="46.05549" lon="6.12272">
        <ele>1114.3</ele>
        <time>2020-12-26T13:23:14.644Z</time>
      </trkpt>
      <trkpt lat="46.05551" lon="6.12271">
        <ele>1114.5</ele>
        <time>2020-12-26T13:23:15.642Z</time>
      </trkpt>
      <trkpt lat="46.05559" lon="6.12267">
        <ele>1112.7</ele>
        <time>2020-12-26T13:23:18.637Z</time>
      </trkpt>
      <trkpt lat="46.05562" lon="6.12265">
        <ele>1111.9</ele>
        <time>2020-12-26T13:23:19.653Z</time>
      </trkpt>
      <trkpt lat="46.05567" lon="6.12262">
        <ele>1109.9</ele>
        <time>2020-12-26T13:23:21.655Z</time>
      </trkpt>
      <trkpt lat="46.0557" lon="6.1226">
        <ele>1109.2</ele>
        <time>2020-12-26T13:23:22.647Z</time>
      </trkpt>
      <trkpt lat="46.05576" lon="6.12256">
        <ele>1107.8</ele>
        <time>2020-12-26T13:23:24.642Z</time>
      </trkpt>
      <trkpt lat="46.05578" lon="6.12253">
        <ele>1107.4</ele>
        <time>2020-12-26T13:23:25.644Z</time>
      </trkpt>
      <trkpt lat="46.05584" lon="6.12246">
        <ele>1107.2</ele>
        <time>2020-12-26T13:23:28.642Z</time>
      </trkpt>
      <trkpt lat="46.05585" lon="6.12244">
        <ele>1107.2</ele>
        <time>2020-12-26T13:23:29.651Z</time>
      </trkpt>
      <trkpt lat="46.05589" lon="6.12234">
        <ele>1104.4</ele>
        <time>2020-12-26T13:23:34.684Z</time>
      </trkpt>
      <trkpt lat="46.0559" lon="6.12233">
        <ele>1104.1</ele>
        <time>2020-12-26T13:23:35.641Z</time>
      </trkpt>
      <trkpt lat="46.05595" lon="6.12228">
        <ele>1103.4</ele>
        <time>2020-12-26T13:23:45.636Z</time>
      </trkpt>
      <trkpt lat="46.05594" lon="6.12228">
        <ele>1103.4</ele>
        <time>2020-12-26T13:23:46.633Z</time>
      </trkpt>
      <trkpt lat="46.05593" lon="6.12229">
        <ele>1103.4</ele>
        <time>2020-12-26T13:23:54.639Z</time>
      </trkpt>
      <trkpt lat="46.05592" lon="6.1223">
        <ele>1103.4</ele>
        <time>2020-12-26T13:23:55.669Z</time>
      </trkpt>
      <trkpt lat="46.05587" lon="6.12222">
        <ele>1104.1</ele>
        <time>2020-12-26T13:24:05.636Z</time>
      </trkpt>
      <trkpt lat="46.05585" lon="6.12221">
        <ele>1104.1</ele>
        <time>2020-12-26T13:24:06.639Z</time>
      </trkpt>
      <trkpt lat="46.0558" lon="6.1222">
        <ele>1104.1</ele>
        <time>2020-12-26T13:24:14.639Z</time>
      </trkpt>
      <trkpt lat="46.0558" lon="6.1222">
        <ele>1104.1</ele>
        <time>2020-12-26T13:24:15.642Z</time>
      </trkpt>
      <trkpt lat="46.0558" lon="6.1222">
        <ele>1104.1</ele>
        <time>2020-12-26T13:24:17.639Z</time>
      </trkpt>
      <trkpt lat="46.05579" lon="6.1222">
        <ele>1104.1</ele>
        <time>2020-12-26T13:24:18.644Z</time>
      </trkpt>
      <trkpt lat="46.05586" lon="6.12212">
        <ele>1106.8</ele>
        <time>2020-12-26T13:24:33.647Z</time>
      </trkpt>
      <trkpt lat="46.05586" lon="6.12211">
        <ele>1106.9</ele>
        <time>2020-12-26T13:24:34.685Z</time>
      </trkpt>
      <trkpt lat="46.05591" lon="6.12202">
        <ele>1108.8</ele>
        <time>2020-12-26T13:24:40.680Z</time>
      </trkpt>
      <trkpt lat="46.05593" lon="6.122">
        <ele>1109.2</ele>
        <time>2020-12-26T13:24:41.636Z</time>
      </trkpt>
      <trkpt lat="46.05599" lon="6.12192">
        <ele>1110.8</ele>
        <time>2020-12-26T13:24:45.642Z</time>
      </trkpt>
      <trkpt lat="46.056" lon="6.12191">
        <ele>1111.1</ele>
        <time>2020-12-26T13:24:46.692Z</time>
      </trkpt>
      <trkpt lat="46.05609" lon="6.12191">
        <ele>1112.9</ele>
        <time>2020-12-26T13:24:50.636Z</time>
      </trkpt>
      <trkpt lat="46.05612" lon="6.12192">
        <ele>1113</ele>
        <time>2020-12-26T13:24:51.665Z</time>
      </trkpt>
      <trkpt lat="46.05618" lon="6.12194">
        <ele>1112.6</ele>
        <time>2020-12-26T13:24:53.659Z</time>
      </trkpt>
      <trkpt lat="46.05621" lon="6.12196">
        <ele>1112.6</ele>
        <time>2020-12-26T13:24:54.632Z</time>
      </trkpt>
      <trkpt lat="46.05628" lon="6.12201">
        <ele>1111.7</ele>
        <time>2020-12-26T13:24:57.643Z</time>
      </trkpt>
      <trkpt lat="46.0563" lon="6.12202">
        <ele>1111.4</ele>
        <time>2020-12-26T13:24:58.698Z</time>
      </trkpt>
      <trkpt lat="46.05638" lon="6.12207">
        <ele>1110.2</ele>
        <time>2020-12-26T13:25:02.639Z</time>
      </trkpt>
      <trkpt lat="46.05639" lon="6.12209">
        <ele>1109.7</ele>
        <time>2020-12-26T13:25:03.638Z</time>
      </trkpt>
      <trkpt lat="46.05646" lon="6.12216">
        <ele>1107</ele>
        <time>2020-12-26T13:25:08.633Z</time>
      </trkpt>
      <trkpt lat="46.05648" lon="6.12217">
        <ele>1106.3</ele>
        <time>2020-12-26T13:25:09.646Z</time>
      </trkpt>
      <trkpt lat="46.05656" lon="6.12221">
        <ele>1104.1</ele>
        <time>2020-12-26T13:25:13.658Z</time>
      </trkpt>
      <trkpt lat="46.05658" lon="6.12222">
        <ele>1103.6</ele>
        <time>2020-12-26T13:25:14.639Z</time>
      </trkpt>
      <trkpt lat="46.05665" lon="6.12225">
        <ele>1102.7</ele>
        <time>2020-12-26T13:25:17.648Z</time>
      </trkpt>
      <trkpt lat="46.05667" lon="6.12226">
        <ele>1101.5</ele>
        <time>2020-12-26T13:25:18.635Z</time>
      </trkpt>
      <trkpt lat="46.05675" lon="6.1223">
        <ele>1100.4</ele>
        <time>2020-12-26T13:25:22.692Z</time>
      </trkpt>
      <trkpt lat="46.05677" lon="6.12231">
        <ele>1099.8</ele>
        <time>2020-12-26T13:25:23.638Z</time>
      </trkpt>
      <trkpt lat="46.05684" lon="6.12234">
        <ele>1100.5</ele>
        <time>2020-12-26T13:25:27.645Z</time>
      </trkpt>
      <trkpt lat="46.05686" lon="6.12234">
        <ele>1100.4</ele>
        <time>2020-12-26T13:25:28.716Z</time>
      </trkpt>
      <trkpt lat="46.05694" lon="6.12236">
        <ele>1098.8</ele>
        <time>2020-12-26T13:25:32.644Z</time>
      </trkpt>
      <trkpt lat="46.05696" lon="6.12236">
        <ele>1098.1</ele>
        <time>2020-12-26T13:25:33.652Z</time>
      </trkpt>
      <trkpt lat="46.05703" lon="6.12238">
        <ele>1096.7</ele>
        <time>2020-12-26T13:25:37.633Z</time>
      </trkpt>
      <trkpt lat="46.05705" lon="6.12238">
        <ele>1096.6</ele>
        <time>2020-12-26T13:25:38.635Z</time>
      </trkpt>
      <trkpt lat="46.05714" lon="6.12241">
        <ele>1097</ele>
        <time>2020-12-26T13:25:43.641Z</time>
      </trkpt>
      <trkpt lat="46.05715" lon="6.12241">
        <ele>1097.6</ele>
        <time>2020-12-26T13:25:44.639Z</time>
      </trkpt>
      <trkpt lat="46.05724" lon="6.12244">
        <ele>1101.3</ele>
        <time>2020-12-26T13:25:53.664Z</time>
      </trkpt>
      <trkpt lat="46.05724" lon="6.12245">
        <ele>1101.9</ele>
        <time>2020-12-26T13:25:54.617Z</time>
      </trkpt>
      <trkpt lat="46.05733" lon="6.12247">
        <ele>1105.8</ele>
        <time>2020-12-26T13:26:02.651Z</time>
      </trkpt>
      <trkpt lat="46.05734" lon="6.12247">
        <ele>1106.2</ele>
        <time>2020-12-26T13:26:03.638Z</time>
      </trkpt>
      <trkpt lat="46.05741" lon="6.12253">
        <ele>1110.3</ele>
        <time>2020-12-26T13:26:22.642Z</time>
      </trkpt>
      <trkpt lat="46.05742" lon="6.12253">
        <ele>1110.8</ele>
        <time>2020-12-26T13:26:23.632Z</time>
      </trkpt>
      <trkpt lat="46.05755" lon="6.12256">
        <ele>1110.8</ele>
        <time>2020-12-26T13:26:24.706Z</time>
      </trkpt>
      <trkpt lat="46.05761" lon="6.12263">
        <ele>1110.9</ele>
        <time>2020-12-26T13:26:28.644Z</time>
      </trkpt>
      <trkpt lat="46.05762" lon="6.12265">
        <ele>1111.1</ele>
        <time>2020-12-26T13:26:29.637Z</time>
      </trkpt>
      <trkpt lat="46.05765" lon="6.12268">
        <ele>1112.5</ele>
        <time>2020-12-26T13:26:35.627Z</time>
      </trkpt>
      <trkpt lat="46.05764" lon="6.12267">
        <ele>1113.1</ele>
        <time>2020-12-26T13:26:36.639Z</time>
      </trkpt>
      <trkpt lat="46.05764" lon="6.12268">
        <ele>1113.5</ele>
        <time>2020-12-26T13:26:45.634Z</time>
      </trkpt>
      <trkpt lat="46.05763" lon="6.12268">
        <ele>1113.4</ele>
        <time>2020-12-26T13:26:46.635Z</time>
      </trkpt>
      <trkpt lat="46.05763" lon="6.12265">
        <ele>1113.3</ele>
        <time>2020-12-26T13:26:51.616Z</time>
      </trkpt>
      <trkpt lat="46.05763" lon="6.12265">
        <ele>1113.3</ele>
        <time>2020-12-26T13:26:52.623Z</time>
      </trkpt>
      <trkpt lat="46.05763" lon="6.12265">
        <ele>1113.9</ele>
        <time>2020-12-26T13:26:55.684Z</time>
      </trkpt>
      <trkpt lat="46.05763" lon="6.12263">
        <ele>1114.4</ele>
        <time>2020-12-26T13:26:56.646Z</time>
      </trkpt>
      <trkpt lat="46.05762" lon="6.12264">
        <ele>1117.1</ele>
        <time>2020-12-26T13:27:15.627Z</time>
      </trkpt>
      <trkpt lat="46.05762" lon="6.12264">
        <ele>1117.1</ele>
        <time>2020-12-26T13:27:16.616Z</time>
      </trkpt>
      <trkpt lat="46.05762" lon="6.12264">
        <ele>1117.1</ele>
        <time>2020-12-26T13:27:17.639Z</time>
      </trkpt>
      <trkpt lat="46.05762" lon="6.12264">
        <ele>1116.9</ele>
        <time>2020-12-26T13:27:18.649Z</time>
      </trkpt>
      <trkpt lat="46.0576" lon="6.12262">
        <ele>1116.8</ele>
        <time>2020-12-26T13:27:34.644Z</time>
      </trkpt>
      <trkpt lat="46.0576" lon="6.12262">
        <ele>1116.8</ele>
        <time>2020-12-26T13:27:35.638Z</time>
      </trkpt>
      <trkpt lat="46.0576" lon="6.12262">
        <ele>1116.8</ele>
        <time>2020-12-26T13:27:44.632Z</time>
      </trkpt>
      <trkpt lat="46.0576" lon="6.12263">
        <ele>1116.8</ele>
        <time>2020-12-26T13:27:45.654Z</time>
      </trkpt>
      <trkpt lat="46.05768" lon="6.12258">
        <ele>1122.6</ele>
        <time>2020-12-26T13:28:13.634Z</time>
      </trkpt>
      <trkpt lat="46.05768" lon="6.12258">
        <ele>1122.7</ele>
        <time>2020-12-26T13:28:14.648Z</time>
      </trkpt>
      <trkpt lat="46.05776" lon="6.12263">
        <ele>1130.1</ele>
        <time>2020-12-26T13:28:32.628Z</time>
      </trkpt>
      <trkpt lat="46.05776" lon="6.12265">
        <ele>1131.4</ele>
        <time>2020-12-26T13:28:33.631Z</time>
      </trkpt>
      <trkpt lat="46.05779" lon="6.12274">
        <ele>1136.3</ele>
        <time>2020-12-26T13:28:36.629Z</time>
      </trkpt>
      <trkpt lat="46.0578" lon="6.12277">
        <ele>1137.9</ele>
        <time>2020-12-26T13:28:37.655Z</time>
      </trkpt>
      <trkpt lat="46.05784" lon="6.12287">
        <ele>1140.5</ele>
        <time>2020-12-26T13:28:41.646Z</time>
      </trkpt>
      <trkpt lat="46.05785" lon="6.12289">
        <ele>1141.1</ele>
        <time>2020-12-26T13:28:42.655Z</time>
      </trkpt>
      <trkpt lat="46.0579" lon="6.12298">
        <ele>1142</ele>
        <time>2020-12-26T13:28:48.636Z</time>
      </trkpt>
      <trkpt lat="46.05791" lon="6.123">
        <ele>1142</ele>
        <time>2020-12-26T13:28:49.668Z</time>
      </trkpt>
      <trkpt lat="46.05795" lon="6.12311">
        <ele>1141.4</ele>
        <time>2020-12-26T13:28:54.625Z</time>
      </trkpt>
      <trkpt lat="46.05796" lon="6.12312">
        <ele>1141.7</ele>
        <time>2020-12-26T13:28:55.709Z</time>
      </trkpt>
      <trkpt lat="46.05801" lon="6.12319">
        <ele>1142.6</ele>
        <time>2020-12-26T13:29:02.646Z</time>
      </trkpt>
      <trkpt lat="46.05802" lon="6.12321">
        <ele>1142.7</ele>
        <time>2020-12-26T13:29:03.637Z</time>
      </trkpt>
      <trkpt lat="46.05809" lon="6.12328">
        <ele>1144.9</ele>
        <time>2020-12-26T13:29:07.648Z</time>
      </trkpt>
      <trkpt lat="46.0581" lon="6.12329">
        <ele>1145.3</ele>
        <time>2020-12-26T13:29:08.638Z</time>
      </trkpt>
      <trkpt lat="46.05817" lon="6.12335">
        <ele>1147.8</ele>
        <time>2020-12-26T13:29:14.639Z</time>
      </trkpt>
      <trkpt lat="46.05818" lon="6.12336">
        <ele>1148</ele>
        <time>2020-12-26T13:29:15.652Z</time>
      </trkpt>
      <trkpt lat="46.05827" lon="6.1234">
        <ele>1148.9</ele>
        <time>2020-12-26T13:29:19.650Z</time>
      </trkpt>
      <trkpt lat="46.05828" lon="6.1234">
        <ele>1149.2</ele>
        <time>2020-12-26T13:29:20.652Z</time>
      </trkpt>
      <trkpt lat="46.05837" lon="6.1234">
        <ele>1151.4</ele>
        <time>2020-12-26T13:29:29.680Z</time>
      </trkpt>
      <trkpt lat="46.05838" lon="6.1234">
        <ele>1151.8</ele>
        <time>2020-12-26T13:29:30.636Z</time>
      </trkpt>
      <trkpt lat="46.05846" lon="6.12341">
        <ele>1153.5</ele>
        <time>2020-12-26T13:29:45.638Z</time>
      </trkpt>
      <trkpt lat="46.05847" lon="6.12341">
        <ele>1154.1</ele>
        <time>2020-12-26T13:29:46.637Z</time>
      </trkpt>
      <trkpt lat="46.05856" lon="6.1234">
        <ele>1158.6</ele>
        <time>2020-12-26T13:29:55.656Z</time>
      </trkpt>
      <trkpt lat="46.05857" lon="6.1234">
        <ele>1158.9</ele>
        <time>2020-12-26T13:29:56.647Z</time>
      </trkpt>
      <trkpt lat="46.05865" lon="6.12341">
        <ele>1160.4</ele>
        <time>2020-12-26T13:30:08.662Z</time>
      </trkpt>
      <trkpt lat="46.05866" lon="6.12341">
        <ele>1160.7</ele>
        <time>2020-12-26T13:30:09.644Z</time>
      </trkpt>
      <trkpt lat="46.05872" lon="6.12348">
        <ele>1161.4</ele>
        <time>2020-12-26T13:30:13.646Z</time>
      </trkpt>
      <trkpt lat="46.05874" lon="6.1235">
        <ele>1161.5</ele>
        <time>2020-12-26T13:30:14.642Z</time>
      </trkpt>
      <trkpt lat="46.05881" lon="6.12358">
        <ele>1162.3</ele>
        <time>2020-12-26T13:30:22.651Z</time>
      </trkpt>
      <trkpt lat="46.05881" lon="6.12359">
        <ele>1162.8</ele>
        <time>2020-12-26T13:30:23.687Z</time>
      </trkpt>
      <trkpt lat="46.05888" lon="6.12363">
        <ele>1165.6</ele>
        <time>2020-12-26T13:30:31.646Z</time>
      </trkpt>
      <trkpt lat="46.0589" lon="6.12363">
        <ele>1165.8</ele>
        <time>2020-12-26T13:30:32.643Z</time>
      </trkpt>
      <trkpt lat="46.05897" lon="6.12368">
        <ele>1165.8</ele>
        <time>2020-12-26T13:30:38.641Z</time>
      </trkpt>
      <trkpt lat="46.05898" lon="6.12369">
        <ele>1165.9</ele>
        <time>2020-12-26T13:30:39.652Z</time>
      </trkpt>
      <trkpt lat="46.05903" lon="6.12372">
        <ele>1166.9</ele>
        <time>2020-12-26T13:30:42.642Z</time>
      </trkpt>
      <trkpt lat="46.05906" lon="6.12375">
        <ele>1167.3</ele>
        <time>2020-12-26T13:30:43.644Z</time>
      </trkpt>
      <trkpt lat="46.05912" lon="6.1238">
        <ele>1169.6</ele>
        <time>2020-12-26T13:30:46.684Z</time>
      </trkpt>
      <trkpt lat="46.05916" lon="6.1238">
        <ele>1169.9</ele>
        <time>2020-12-26T13:30:47.639Z</time>
      </trkpt>
      <trkpt lat="46.05922" lon="6.1238">
        <ele>1171</ele>
        <time>2020-12-26T13:30:49.646Z</time>
      </trkpt>
      <trkpt lat="46.05925" lon="6.12379">
        <ele>1171.6</ele>
        <time>2020-12-26T13:30:50.636Z</time>
      </trkpt>
      <trkpt lat="46.05933" lon="6.12379">
        <ele>1173.3</ele>
        <time>2020-12-26T13:30:53.650Z</time>
      </trkpt>
      <trkpt lat="46.05935" lon="6.12378">
        <ele>1173.7</ele>
        <time>2020-12-26T13:30:54.637Z</time>
      </trkpt>
      <trkpt lat="46.05943" lon="6.12375">
        <ele>1175.7</ele>
        <time>2020-12-26T13:30:58.682Z</time>
      </trkpt>
      <trkpt lat="46.05944" lon="6.12374">
        <ele>1176.6</ele>
        <time>2020-12-26T13:30:59.640Z</time>
      </trkpt>
      <trkpt lat="46.05952" lon="6.12369">
        <ele>1181.2</ele>
        <time>2020-12-26T13:31:08.638Z</time>
      </trkpt>
      <trkpt lat="46.05953" lon="6.12369">
        <ele>1181.5</ele>
        <time>2020-12-26T13:31:09.648Z</time>
      </trkpt>
      <trkpt lat="46.05961" lon="6.12371">
        <ele>1183.1</ele>
        <time>2020-12-26T13:31:14.649Z</time>
      </trkpt>
      <trkpt lat="46.05963" lon="6.12371">
        <ele>1183.2</ele>
        <time>2020-12-26T13:31:15.645Z</time>
      </trkpt>
      <trkpt lat="46.0597" lon="6.12369">
        <ele>1182.9</ele>
        <time>2020-12-26T13:31:20.634Z</time>
      </trkpt>
      <trkpt lat="46.05972" lon="6.12368">
        <ele>1183.1</ele>
        <time>2020-12-26T13:31:21.639Z</time>
      </trkpt>
      <trkpt lat="46.05979" lon="6.12361">
        <ele>1183.4</ele>
        <time>2020-12-26T13:31:25.637Z</time>
      </trkpt>
      <trkpt lat="46.05981" lon="6.12359">
        <ele>1183.5</ele>
        <time>2020-12-26T13:31:26.640Z</time>
      </trkpt>
      <trkpt lat="46.05988" lon="6.12352">
        <ele>1184.1</ele>
        <time>2020-12-26T13:31:30.638Z</time>
      </trkpt>
      <trkpt lat="46.0599" lon="6.1235">
        <ele>1184.3</ele>
        <time>2020-12-26T13:31:31.634Z</time>
      </trkpt>
      <trkpt lat="46.05996" lon="6.12341">
        <ele>1185.6</ele>
        <time>2020-12-26T13:31:35.643Z</time>
      </trkpt>
      <trkpt lat="46.05997" lon="6.12338">
        <ele>1185.7</ele>
        <time>2020-12-26T13:31:36.639Z</time>
      </trkpt>
      <trkpt lat="46.06005" lon="6.12332">
        <ele>1187.5</ele>
        <time>2020-12-26T13:31:40.692Z</time>
      </trkpt>
      <trkpt lat="46.06007" lon="6.1233">
        <ele>1187.7</ele>
        <time>2020-12-26T13:31:41.625Z</time>
      </trkpt>
      <trkpt lat="46.06013" lon="6.12321">
        <ele>1188.1</ele>
        <time>2020-12-26T13:31:45.644Z</time>
      </trkpt>
      <trkpt lat="46.06015" lon="6.1232">
        <ele>1188</ele>
        <time>2020-12-26T13:31:46.675Z</time>
      </trkpt>
      <trkpt lat="46.06022" lon="6.12313">
        <ele>1188.1</ele>
        <time>2020-12-26T13:31:50.645Z</time>
      </trkpt>
      <trkpt lat="46.06024" lon="6.12311">
        <ele>1188</ele>
        <time>2020-12-26T13:31:51.640Z</time>
      </trkpt>
      <trkpt lat="46.06031" lon="6.12307">
        <ele>1187.9</ele>
        <time>2020-12-26T13:31:54.641Z</time>
      </trkpt>
      <trkpt lat="46.06033" lon="6.12305">
        <ele>1187.7</ele>
        <time>2020-12-26T13:31:55.643Z</time>
      </trkpt>
      <trkpt lat="46.0604" lon="6.12298">
        <ele>1187.1</ele>
        <time>2020-12-26T13:31:59.654Z</time>
      </trkpt>
      <trkpt lat="46.06042" lon="6.12296">
        <ele>1186.8</ele>
        <time>2020-12-26T13:32:00.657Z</time>
      </trkpt>
      <trkpt lat="46.0605" lon="6.12293">
        <ele>1187.2</ele>
        <time>2020-12-26T13:32:04.648Z</time>
      </trkpt>
      <trkpt lat="46.06052" lon="6.12293">
        <ele>1187.3</ele>
        <time>2020-12-26T13:32:05.650Z</time>
      </trkpt>
      <trkpt lat="46.06061" lon="6.12291">
        <ele>1187.5</ele>
        <time>2020-12-26T13:32:10.633Z</time>
      </trkpt>
      <trkpt lat="46.06063" lon="6.12291">
        <ele>1187.7</ele>
        <time>2020-12-26T13:32:11.676Z</time>
      </trkpt>
      <trkpt lat="46.0607" lon="6.12288">
        <ele>1188.4</ele>
        <time>2020-12-26T13:32:15.633Z</time>
      </trkpt>
      <trkpt lat="46.06072" lon="6.12287">
        <ele>1188.5</ele>
        <time>2020-12-26T13:32:16.621Z</time>
      </trkpt>
      <trkpt lat="46.06079" lon="6.12282">
        <ele>1188.2</ele>
        <time>2020-12-26T13:32:20.643Z</time>
      </trkpt>
      <trkpt lat="46.06081" lon="6.12281">
        <ele>1187.8</ele>
        <time>2020-12-26T13:32:21.641Z</time>
      </trkpt>
      <trkpt lat="46.06087" lon="6.12276">
        <ele>1186.2</ele>
        <time>2020-12-26T13:32:24.680Z</time>
      </trkpt>
      <trkpt lat="46.06089" lon="6.12275">
        <ele>1185.9</ele>
        <time>2020-12-26T13:32:25.638Z</time>
      </trkpt>
      <trkpt lat="46.06096" lon="6.1227">
        <ele>1184.6</ele>
        <time>2020-12-26T13:32:28.646Z</time>
      </trkpt>
      <trkpt lat="46.06098" lon="6.12269">
        <ele>1184</ele>
        <time>2020-12-26T13:32:29.645Z</time>
      </trkpt>
      <trkpt lat="46.06105" lon="6.12264">
        <ele>1183.3</ele>
        <time>2020-12-26T13:32:32.641Z</time>
      </trkpt>
      <trkpt lat="46.06107" lon="6.12262">
        <ele>1183.1</ele>
        <time>2020-12-26T13:32:33.645Z</time>
      </trkpt>
      <trkpt lat="46.06113" lon="6.12256">
        <ele>1182.5</ele>
        <time>2020-12-26T13:32:36.697Z</time>
      </trkpt>
      <trkpt lat="46.06114" lon="6.12253">
        <ele>1182.2</ele>
        <time>2020-12-26T13:32:37.637Z</time>
      </trkpt>
      <trkpt lat="46.06119" lon="6.12246">
        <ele>1181.8</ele>
        <time>2020-12-26T13:32:40.645Z</time>
      </trkpt>
      <trkpt lat="46.06121" lon="6.12244">
        <ele>1181.7</ele>
        <time>2020-12-26T13:32:41.643Z</time>
      </trkpt>
      <trkpt lat="46.06128" lon="6.12237">
        <ele>1182.5</ele>
        <time>2020-12-26T13:32:45.672Z</time>
      </trkpt>
      <trkpt lat="46.0613" lon="6.12235">
        <ele>1182.9</ele>
        <time>2020-12-26T13:32:46.639Z</time>
      </trkpt>
      <trkpt lat="46.06137" lon="6.1223">
        <ele>1184.5</ele>
        <time>2020-12-26T13:32:50.651Z</time>
      </trkpt>
      <trkpt lat="46.06139" lon="6.12229">
        <ele>1185</ele>
        <time>2020-12-26T13:32:51.642Z</time>
      </trkpt>
      <trkpt lat="46.06145" lon="6.12224">
        <ele>1186</ele>
        <time>2020-12-26T13:32:55.634Z</time>
      </trkpt>
      <trkpt lat="46.06147" lon="6.12222">
        <ele>1186.3</ele>
        <time>2020-12-26T13:32:56.640Z</time>
      </trkpt>
      <trkpt lat="46.06153" lon="6.12214">
        <ele>1187</ele>
        <time>2020-12-26T13:33:01.639Z</time>
      </trkpt>
      <trkpt lat="46.06154" lon="6.12212">
        <ele>1187.1</ele>
        <time>2020-12-26T13:33:02.640Z</time>
      </trkpt>
      <trkpt lat="46.0616" lon="6.12203">
        <ele>1185.9</ele>
        <time>2020-12-26T13:33:07.637Z</time>
      </trkpt>
      <trkpt lat="46.06161" lon="6.12201">
        <ele>1185.7</ele>
        <time>2020-12-26T13:33:08.670Z</time>
      </trkpt>
      <trkpt lat="46.06167" lon="6.12194">
        <ele>1184.8</ele>
        <time>2020-12-26T13:33:12.635Z</time>
      </trkpt>
      <trkpt lat="46.06169" lon="6.12192">
        <ele>1184.4</ele>
        <time>2020-12-26T13:33:13.638Z</time>
      </trkpt>
      <trkpt lat="46.06173" lon="6.12185">
        <ele>1182.3</ele>
        <time>2020-12-26T13:33:16.700Z</time>
      </trkpt>
      <trkpt lat="46.06175" lon="6.12183">
        <ele>1181.7</ele>
        <time>2020-12-26T13:33:17.652Z</time>
      </trkpt>
      <trkpt lat="46.06181" lon="6.12174">
        <ele>1180</ele>
        <time>2020-12-26T13:33:21.643Z</time>
      </trkpt>
      <trkpt lat="46.06182" lon="6.12172">
        <ele>1179.9</ele>
        <time>2020-12-26T13:33:22.695Z</time>
      </trkpt>
      <trkpt lat="46.06187" lon="6.12163">
        <ele>1179.8</ele>
        <time>2020-12-26T13:33:26.641Z</time>
      </trkpt>
      <trkpt lat="46.06187" lon="6.1216">
        <ele>1180.4</ele>
        <time>2020-12-26T13:33:27.641Z</time>
      </trkpt>
      <trkpt lat="46.0619" lon="6.12149">
        <ele>1182.7</ele>
        <time>2020-12-26T13:33:31.642Z</time>
      </trkpt>
      <trkpt lat="46.06191" lon="6.12147">
        <ele>1182.8</ele>
        <time>2020-12-26T13:33:32.650Z</time>
      </trkpt>
      <trkpt lat="46.06194" lon="6.12136">
        <ele>1183.7</ele>
        <time>2020-12-26T13:33:36.637Z</time>
      </trkpt>
      <trkpt lat="46.06195" lon="6.12134">
        <ele>1183.8</ele>
        <time>2020-12-26T13:33:37.671Z</time>
      </trkpt>
      <trkpt lat="46.06197" lon="6.12121">
        <ele>1184.7</ele>
        <time>2020-12-26T13:33:42.643Z</time>
      </trkpt>
      <trkpt lat="46.06198" lon="6.12118">
        <ele>1184.9</ele>
        <time>2020-12-26T13:33:43.639Z</time>
      </trkpt>
      <trkpt lat="46.06199" lon="6.12107">
        <ele>1186.5</ele>
        <time>2020-12-26T13:33:48.648Z</time>
      </trkpt>
      <trkpt lat="46.06199" lon="6.12104">
        <ele>1186.9</ele>
        <time>2020-12-26T13:33:49.640Z</time>
      </trkpt>
      <trkpt lat="46.062" lon="6.12092">
        <ele>1189.3</ele>
        <time>2020-12-26T13:33:54.637Z</time>
      </trkpt>
      <trkpt lat="46.062" lon="6.1209">
        <ele>1189.4</ele>
        <time>2020-12-26T13:33:55.637Z</time>
      </trkpt>
      <trkpt lat="46.06203" lon="6.1208">
        <ele>1189.9</ele>
        <time>2020-12-26T13:34:00.640Z</time>
      </trkpt>
      <trkpt lat="46.06204" lon="6.12078">
        <ele>1190</ele>
        <time>2020-12-26T13:34:01.641Z</time>
      </trkpt>
      <trkpt lat="46.06207" lon="6.12068">
        <ele>1190</ele>
        <time>2020-12-26T13:34:05.639Z</time>
      </trkpt>
      <trkpt lat="46.06208" lon="6.12066">
        <ele>1190.1</ele>
        <time>2020-12-26T13:34:06.635Z</time>
      </trkpt>
      <trkpt lat="46.06212" lon="6.12058">
        <ele>1190.3</ele>
        <time>2020-12-26T13:34:09.644Z</time>
      </trkpt>
      <trkpt lat="46.06213" lon="6.12055">
        <ele>1190.4</ele>
        <time>2020-12-26T13:34:10.625Z</time>
      </trkpt>
      <trkpt lat="46.06217" lon="6.12046">
        <ele>1190.1</ele>
        <time>2020-12-26T13:34:13.647Z</time>
      </trkpt>
      <trkpt lat="46.06218" lon="6.12044">
        <ele>1189.6</ele>
        <time>2020-12-26T13:34:14.631Z</time>
      </trkpt>
      <trkpt lat="46.06223" lon="6.12036">
        <ele>1189</ele>
        <time>2020-12-26T13:34:17.644Z</time>
      </trkpt>
      <trkpt lat="46.06224" lon="6.12034">
        <ele>1189</ele>
        <time>2020-12-26T13:34:18.646Z</time>
      </trkpt>
      <trkpt lat="46.0623" lon="6.12024">
        <ele>1187.7</ele>
        <time>2020-12-26T13:34:22.629Z</time>
      </trkpt>
      <trkpt lat="46.06232" lon="6.12022">
        <ele>1187.6</ele>
        <time>2020-12-26T13:34:23.636Z</time>
      </trkpt>
      <trkpt lat="46.06237" lon="6.12014">
        <ele>1187.8</ele>
        <time>2020-12-26T13:34:27.650Z</time>
      </trkpt>
      <trkpt lat="46.06239" lon="6.12012">
        <ele>1187.7</ele>
        <time>2020-12-26T13:34:28.684Z</time>
      </trkpt>
      <trkpt lat="46.06244" lon="6.12005">
        <ele>1187.9</ele>
        <time>2020-12-26T13:34:32.642Z</time>
      </trkpt>
      <trkpt lat="46.06246" lon="6.12003">
        <ele>1187.9</ele>
        <time>2020-12-26T13:34:33.648Z</time>
      </trkpt>
      <trkpt lat="46.06252" lon="6.11996">
        <ele>1187.6</ele>
        <time>2020-12-26T13:34:37.645Z</time>
      </trkpt>
      <trkpt lat="46.06253" lon="6.11994">
        <ele>1187.7</ele>
        <time>2020-12-26T13:34:38.659Z</time>
      </trkpt>
      <trkpt lat="46.0626" lon="6.11986">
        <ele>1187.2</ele>
        <time>2020-12-26T13:34:42.640Z</time>
      </trkpt>
      <trkpt lat="46.06262" lon="6.11984">
        <ele>1187.3</ele>
        <time>2020-12-26T13:34:43.642Z</time>
      </trkpt>
      <trkpt lat="46.06268" lon="6.11978">
        <ele>1186.4</ele>
        <time>2020-12-26T13:34:46.684Z</time>
      </trkpt>
      <trkpt lat="46.0627" lon="6.11976">
        <ele>1186.2</ele>
        <time>2020-12-26T13:34:47.638Z</time>
      </trkpt>
      <trkpt lat="46.06276" lon="6.11969">
        <ele>1186.7</ele>
        <time>2020-12-26T13:34:50.670Z</time>
      </trkpt>
      <trkpt lat="46.06278" lon="6.11967">
        <ele>1187.3</ele>
        <time>2020-12-26T13:34:51.632Z</time>
      </trkpt>
      <trkpt lat="46.06284" lon="6.11959">
        <ele>1189</ele>
        <time>2020-12-26T13:34:54.640Z</time>
      </trkpt>
      <trkpt lat="46.06285" lon="6.11957">
        <ele>1189.9</ele>
        <time>2020-12-26T13:34:55.638Z</time>
      </trkpt>
      <trkpt lat="46.06293" lon="6.1195">
        <ele>1191.9</ele>
        <time>2020-12-26T13:34:59.654Z</time>
      </trkpt>
      <trkpt lat="46.06295" lon="6.11949">
        <ele>1191.9</ele>
        <time>2020-12-26T13:35:00.635Z</time>
      </trkpt>
      <trkpt lat="46.06302" lon="6.11942">
        <ele>1192.2</ele>
        <time>2020-12-26T13:35:04.653Z</time>
      </trkpt>
      <trkpt lat="46.06303" lon="6.11941">
        <ele>1192.3</ele>
        <time>2020-12-26T13:35:05.637Z</time>
      </trkpt>
      <trkpt lat="46.06309" lon="6.11934">
        <ele>1192.3</ele>
        <time>2020-12-26T13:35:09.639Z</time>
      </trkpt>
      <trkpt lat="46.06311" lon="6.11932">
        <ele>1192.3</ele>
        <time>2020-12-26T13:35:10.683Z</time>
      </trkpt>
      <trkpt lat="46.06317" lon="6.11924">
        <ele>1191.1</ele>
        <time>2020-12-26T13:35:17.648Z</time>
      </trkpt>
      <trkpt lat="46.06318" lon="6.11924">
        <ele>1190.8</ele>
        <time>2020-12-26T13:35:18.642Z</time>
      </trkpt>
      <trkpt lat="46.06325" lon="6.11916">
        <ele>1188.7</ele>
        <time>2020-12-26T13:35:23.640Z</time>
      </trkpt>
      <trkpt lat="46.06326" lon="6.11914">
        <ele>1188</ele>
        <time>2020-12-26T13:35:24.649Z</time>
      </trkpt>
      <trkpt lat="46.06327" lon="6.11925">
        <ele>1183.6</ele>
        <time>2020-12-26T13:35:34.681Z</time>
      </trkpt>
      <trkpt lat="46.06329" lon="6.11927">
        <ele>1183.6</ele>
        <time>2020-12-26T13:35:35.638Z</time>
      </trkpt>
      <trkpt lat="46.0633" lon="6.11928">
        <ele>1183.6</ele>
        <time>2020-12-26T13:35:36.660Z</time>
      </trkpt>
      <trkpt lat="46.06334" lon="6.11934">
        <ele>1183.6</ele>
        <time>2020-12-26T13:35:37.636Z</time>
      </trkpt>
      <trkpt lat="46.06334" lon="6.11934">
        <ele>1183.6</ele>
        <time>2020-12-26T13:35:40.663Z</time>
      </trkpt>
      <trkpt lat="46.06336" lon="6.11931">
        <ele>1183.7</ele>
        <time>2020-12-26T13:35:41.630Z</time>
      </trkpt>
      <trkpt lat="46.06337" lon="6.11928">
        <ele>1183.4</ele>
        <time>2020-12-26T13:35:42.696Z</time>
      </trkpt>
      <trkpt lat="46.06338" lon="6.11923">
        <ele>1184.4</ele>
        <time>2020-12-26T13:35:43.634Z</time>
      </trkpt>
      <trkpt lat="46.06338" lon="6.11923">
        <ele>1184.4</ele>
        <time>2020-12-26T13:36:09.648Z</time>
      </trkpt>
      <trkpt lat="46.06339" lon="6.11923">
        <ele>1183.4</ele>
        <time>2020-12-26T13:36:10.644Z</time>
      </trkpt>
      <trkpt lat="46.0634" lon="6.11918">
        <ele>1181.6</ele>
        <time>2020-12-26T13:36:17.681Z</time>
      </trkpt>
      <trkpt lat="46.06339" lon="6.11918">
        <ele>1181.5</ele>
        <time>2020-12-26T13:36:18.639Z</time>
      </trkpt>
      <trkpt lat="46.06339" lon="6.11918">
        <ele>1181.3</ele>
        <time>2020-12-26T13:36:19.657Z</time>
      </trkpt>
      <trkpt lat="46.06339" lon="6.11916">
        <ele>1181.3</ele>
        <time>2020-12-26T13:36:20.641Z</time>
      </trkpt>
      <trkpt lat="46.06345" lon="6.1191">
        <ele>1181.6</ele>
        <time>2020-12-26T13:36:26.656Z</time>
      </trkpt>
      <trkpt lat="46.06347" lon="6.11909">
        <ele>1182</ele>
        <time>2020-12-26T13:36:27.642Z</time>
      </trkpt>
      <trkpt lat="46.06353" lon="6.11902">
        <ele>1183.9</ele>
        <time>2020-12-26T13:36:32.653Z</time>
      </trkpt>
      <trkpt lat="46.06355" lon="6.11901">
        <ele>1184.2</ele>
        <time>2020-12-26T13:36:33.643Z</time>
      </trkpt>
      <trkpt lat="46.06362" lon="6.11894">
        <ele>1188.4</ele>
        <time>2020-12-26T13:36:41.687Z</time>
      </trkpt>
      <trkpt lat="46.06364" lon="6.11892">
        <ele>1188.7</ele>
        <time>2020-12-26T13:36:42.645Z</time>
      </trkpt>
      <trkpt lat="46.06369" lon="6.11883">
        <ele>1189.9</ele>
        <time>2020-12-26T13:36:45.646Z</time>
      </trkpt>
      <trkpt lat="46.06372" lon="6.11879">
        <ele>1190.4</ele>
        <time>2020-12-26T13:36:46.649Z</time>
      </trkpt>
      <trkpt lat="46.06374" lon="6.11876">
        <ele>1190.8</ele>
        <time>2020-12-26T13:36:47.690Z</time>
      </trkpt>
      <trkpt lat="46.06376" lon="6.11874">
        <ele>1191.1</ele>
        <time>2020-12-26T13:36:48.709Z</time>
      </trkpt>
      <trkpt lat="46.06376" lon="6.11874">
        <ele>1192.1</ele>
        <time>2020-12-26T13:36:50.644Z</time>
      </trkpt>
      <trkpt lat="46.06379" lon="6.11874">
        <ele>1192.3</ele>
        <time>2020-12-26T13:36:51.649Z</time>
      </trkpt>
      <trkpt lat="46.06385" lon="6.11867">
        <ele>1193.6</ele>
        <time>2020-12-26T13:36:56.645Z</time>
      </trkpt>
      <trkpt lat="46.06388" lon="6.11866">
        <ele>1194.1</ele>
        <time>2020-12-26T13:36:57.644Z</time>
      </trkpt>
      <trkpt lat="46.06395" lon="6.11864">
        <ele>1195.8</ele>
        <time>2020-12-26T13:37:00.643Z</time>
      </trkpt>
      <trkpt lat="46.06398" lon="6.11863">
        <ele>1196.6</ele>
        <time>2020-12-26T13:37:01.642Z</time>
      </trkpt>
      <trkpt lat="46.06406" lon="6.11861">
        <ele>1200.1</ele>
        <time>2020-12-26T13:37:06.625Z</time>
      </trkpt>
      <trkpt lat="46.06407" lon="6.11861">
        <ele>1201.2</ele>
        <time>2020-12-26T13:37:07.664Z</time>
      </trkpt>
      <trkpt lat="46.06412" lon="6.11857">
        <ele>1205</ele>
        <time>2020-12-26T13:37:12.644Z</time>
      </trkpt>
      <trkpt lat="46.06416" lon="6.11854">
        <ele>1205.4</ele>
        <time>2020-12-26T13:37:13.635Z</time>
      </trkpt>
      <trkpt lat="46.06423" lon="6.11849">
        <ele>1206.4</ele>
        <time>2020-12-26T13:37:16.633Z</time>
      </trkpt>
      <trkpt lat="46.06425" lon="6.11848">
        <ele>1206.6</ele>
        <time>2020-12-26T13:37:17.634Z</time>
      </trkpt>
      <trkpt lat="46.06432" lon="6.11843">
        <ele>1207.7</ele>
        <time>2020-12-26T13:37:20.637Z</time>
      </trkpt>
      <trkpt lat="46.06434" lon="6.11841">
        <ele>1208.2</ele>
        <time>2020-12-26T13:37:21.649Z</time>
      </trkpt>
      <trkpt lat="46.06442" lon="6.11839">
        <ele>1210.5</ele>
        <time>2020-12-26T13:37:24.639Z</time>
      </trkpt>
      <trkpt lat="46.06444" lon="6.11839">
        <ele>1211.5</ele>
        <time>2020-12-26T13:37:25.629Z</time>
      </trkpt>
      <trkpt lat="46.06451" lon="6.11838">
        <ele>1212.8</ele>
        <time>2020-12-26T13:37:28.640Z</time>
      </trkpt>
      <trkpt lat="46.06453" lon="6.11837">
        <ele>1213.1</ele>
        <time>2020-12-26T13:37:29.693Z</time>
      </trkpt>
      <trkpt lat="46.0646" lon="6.11832">
        <ele>1213.6</ele>
        <time>2020-12-26T13:37:33.647Z</time>
      </trkpt>
      <trkpt lat="46.06462" lon="6.11831">
        <ele>1214.2</ele>
        <time>2020-12-26T13:37:34.662Z</time>
      </trkpt>
      <trkpt lat="46.06468" lon="6.11826">
        <ele>1215.1</ele>
        <time>2020-12-26T13:37:38.651Z</time>
      </trkpt>
      <trkpt lat="46.06471" lon="6.11825">
        <ele>1215.4</ele>
        <time>2020-12-26T13:37:39.644Z</time>
      </trkpt>
      <trkpt lat="46.06478" lon="6.11824">
        <ele>1216.5</ele>
        <time>2020-12-26T13:37:42.656Z</time>
      </trkpt>
      <trkpt lat="46.0648" lon="6.11824">
        <ele>1216.8</ele>
        <time>2020-12-26T13:37:43.643Z</time>
      </trkpt>
      <trkpt lat="46.06489" lon="6.11825">
        <ele>1216.9</ele>
        <time>2020-12-26T13:37:47.689Z</time>
      </trkpt>
      <trkpt lat="46.06491" lon="6.11826">
        <ele>1216.9</ele>
        <time>2020-12-26T13:37:48.640Z</time>
      </trkpt>
      <trkpt lat="46.06499" lon="6.11827">
        <ele>1217.1</ele>
        <time>2020-12-26T13:37:52.649Z</time>
      </trkpt>
      <trkpt lat="46.06501" lon="6.11828">
        <ele>1217.1</ele>
        <time>2020-12-26T13:37:53.689Z</time>
      </trkpt>
      <trkpt lat="46.06509" lon="6.11832">
        <ele>1215.5</ele>
        <time>2020-12-26T13:37:57.643Z</time>
      </trkpt>
      <trkpt lat="46.06511" lon="6.11834">
        <ele>1215.3</ele>
        <time>2020-12-26T13:37:58.650Z</time>
      </trkpt>
      <trkpt lat="46.06519" lon="6.11839">
        <ele>1214.8</ele>
        <time>2020-12-26T13:38:02.643Z</time>
      </trkpt>
      <trkpt lat="46.06521" lon="6.1184">
        <ele>1214.6</ele>
        <time>2020-12-26T13:38:03.645Z</time>
      </trkpt>
      <trkpt lat="46.06528" lon="6.11846">
        <ele>1214.4</ele>
        <time>2020-12-26T13:38:07.643Z</time>
      </trkpt>
      <trkpt lat="46.06529" lon="6.11846">
        <ele>1214.4</ele>
        <time>2020-12-26T13:38:08.644Z</time>
      </trkpt>
      <trkpt lat="46.06536" lon="6.11852">
        <ele>1213.6</ele>
        <time>2020-12-26T13:38:14.656Z</time>
      </trkpt>
      <trkpt lat="46.06537" lon="6.11853">
        <ele>1213.6</ele>
        <time>2020-12-26T13:38:15.671Z</time>
      </trkpt>
      <trkpt lat="46.06538" lon="6.11866">
        <ele>1212</ele>
        <time>2020-12-26T13:38:23.682Z</time>
      </trkpt>
      <trkpt lat="46.06539" lon="6.11867">
        <ele>1212</ele>
        <time>2020-12-26T13:38:24.659Z</time>
      </trkpt>
      <trkpt lat="46.06548" lon="6.11868">
        <ele>1212</ele>
        <time>2020-12-26T13:38:31.660Z</time>
      </trkpt>
      <trkpt lat="46.06549" lon="6.11867">
        <ele>1212</ele>
        <time>2020-12-26T13:38:32.649Z</time>
      </trkpt>
      <trkpt lat="46.06557" lon="6.11863">
        <ele>1213.1</ele>
        <time>2020-12-26T13:38:37.654Z</time>
      </trkpt>
      <trkpt lat="46.06558" lon="6.11862">
        <ele>1213.6</ele>
        <time>2020-12-26T13:38:38.648Z</time>
      </trkpt>
      <trkpt lat="46.06567" lon="6.11865">
        <ele>1222.7</ele>
        <time>2020-12-26T13:38:48.656Z</time>
      </trkpt>
      <trkpt lat="46.06568" lon="6.11865">
        <ele>1223.3</ele>
        <time>2020-12-26T13:38:49.644Z</time>
      </trkpt>
      <trkpt lat="46.06576" lon="6.11861">
        <ele>1224.7</ele>
        <time>2020-12-26T13:38:56.646Z</time>
      </trkpt>
      <trkpt lat="46.06577" lon="6.11862">
        <ele>1225</ele>
        <time>2020-12-26T13:38:57.640Z</time>
      </trkpt>
      <trkpt lat="46.06584" lon="6.1186">
        <ele>1225.3</ele>
        <time>2020-12-26T13:39:04.684Z</time>
      </trkpt>
      <trkpt lat="46.06586" lon="6.1186">
        <ele>1225.4</ele>
        <time>2020-12-26T13:39:05.658Z</time>
      </trkpt>
      <trkpt lat="46.06594" lon="6.11856">
        <ele>1225.5</ele>
        <time>2020-12-26T13:39:11.642Z</time>
      </trkpt>
      <trkpt lat="46.06595" lon="6.11855">
        <ele>1225.3</ele>
        <time>2020-12-26T13:39:12.642Z</time>
      </trkpt>
      <trkpt lat="46.06603" lon="6.11852">
        <ele>1225.6</ele>
        <time>2020-12-26T13:39:22.690Z</time>
      </trkpt>
      <trkpt lat="46.06604" lon="6.11851">
        <ele>1225.5</ele>
        <time>2020-12-26T13:39:23.642Z</time>
      </trkpt>
      <trkpt lat="46.06613" lon="6.11846">
        <ele>1226.2</ele>
        <time>2020-12-26T13:39:29.657Z</time>
      </trkpt>
      <trkpt lat="46.06614" lon="6.11845">
        <ele>1226.8</ele>
        <time>2020-12-26T13:39:30.653Z</time>
      </trkpt>
      <trkpt lat="46.06621" lon="6.1184">
        <ele>1228</ele>
        <time>2020-12-26T13:39:34.638Z</time>
      </trkpt>
      <trkpt lat="46.06623" lon="6.11839">
        <ele>1228.2</ele>
        <time>2020-12-26T13:39:35.647Z</time>
      </trkpt>
      <trkpt lat="46.0663" lon="6.11832">
        <ele>1228.8</ele>
        <time>2020-12-26T13:39:39.707Z</time>
      </trkpt>
      <trkpt lat="46.06632" lon="6.1183">
        <ele>1228.8</ele>
        <time>2020-12-26T13:39:40.645Z</time>
      </trkpt>
      <trkpt lat="46.06639" lon="6.11828">
        <ele>1228.8</ele>
        <time>2020-12-26T13:39:44.644Z</time>
      </trkpt>
      <trkpt lat="46.06641" lon="6.11828">
        <ele>1228.8</ele>
        <time>2020-12-26T13:39:45.688Z</time>
      </trkpt>
      <trkpt lat="46.06648" lon="6.11821">
        <ele>1230.5</ele>
        <time>2020-12-26T13:39:56.649Z</time>
      </trkpt>
      <trkpt lat="46.06648" lon="6.1182">
        <ele>1230.6</ele>
        <time>2020-12-26T13:39:57.688Z</time>
      </trkpt>
      <trkpt lat="46.06656" lon="6.11815">
        <ele>1230.9</ele>
        <time>2020-12-26T13:40:03.684Z</time>
      </trkpt>
      <trkpt lat="46.06657" lon="6.11814">
        <ele>1231.1</ele>
        <time>2020-12-26T13:40:04.646Z</time>
      </trkpt>
      <trkpt lat="46.06664" lon="6.11807">
        <ele>1232.4</ele>
        <time>2020-12-26T13:40:09.707Z</time>
      </trkpt>
      <trkpt lat="46.06665" lon="6.11806">
        <ele>1232.7</ele>
        <time>2020-12-26T13:40:10.642Z</time>
      </trkpt>
      <trkpt lat="46.06671" lon="6.11798">
        <ele>1237.5</ele>
        <time>2020-12-26T13:40:17.650Z</time>
      </trkpt>
      <trkpt lat="46.06672" lon="6.11797">
        <ele>1238.3</ele>
        <time>2020-12-26T13:40:18.642Z</time>
      </trkpt>
      <trkpt lat="46.06679" lon="6.1179">
        <ele>1243.6</ele>
        <time>2020-12-26T13:40:26.643Z</time>
      </trkpt>
      <trkpt lat="46.0668" lon="6.11789">
        <ele>1243.8</ele>
        <time>2020-12-26T13:40:27.638Z</time>
      </trkpt>
      <trkpt lat="46.06687" lon="6.11782">
        <ele>1243.2</ele>
        <time>2020-12-26T13:40:35.647Z</time>
      </trkpt>
      <trkpt lat="46.06688" lon="6.11781">
        <ele>1242.8</ele>
        <time>2020-12-26T13:40:36.642Z</time>
      </trkpt>
      <trkpt lat="46.06696" lon="6.11778">
        <ele>1242.1</ele>
        <time>2020-12-26T13:40:43.638Z</time>
      </trkpt>
      <trkpt lat="46.06697" lon="6.11777">
        <ele>1241.9</ele>
        <time>2020-12-26T13:40:44.647Z</time>
      </trkpt>
      <trkpt lat="46.06705" lon="6.11776">
        <ele>1240.5</ele>
        <time>2020-12-26T13:40:49.646Z</time>
      </trkpt>
      <trkpt lat="46.06707" lon="6.11776">
        <ele>1240.3</ele>
        <time>2020-12-26T13:40:50.640Z</time>
      </trkpt>
      <trkpt lat="46.06716" lon="6.11775">
        <ele>1239.4</ele>
        <time>2020-12-26T13:40:55.710Z</time>
      </trkpt>
      <trkpt lat="46.06717" lon="6.11774">
        <ele>1239.2</ele>
        <time>2020-12-26T13:40:56.652Z</time>
      </trkpt>
      <trkpt lat="46.06726" lon="6.11772">
        <ele>1238.5</ele>
        <time>2020-12-26T13:41:01.689Z</time>
      </trkpt>
      <trkpt lat="46.06727" lon="6.11772">
        <ele>1238.5</ele>
        <time>2020-12-26T13:41:02.648Z</time>
      </trkpt>
      <trkpt lat="46.06736" lon="6.11771">
        <ele>1238.9</ele>
        <time>2020-12-26T13:41:09.652Z</time>
      </trkpt>
      <trkpt lat="46.06737" lon="6.11771">
        <ele>1239.6</ele>
        <time>2020-12-26T13:41:10.654Z</time>
      </trkpt>
      <trkpt lat="46.06738" lon="6.11768">
        <ele>1240.5</ele>
        <time>2020-12-26T13:41:15.643Z</time>
      </trkpt>
      <trkpt lat="46.06738" lon="6.11768">
        <ele>1240.9</ele>
        <time>2020-12-26T13:41:16.650Z</time>
      </trkpt>
      <trkpt lat="46.06738" lon="6.11768">
        <ele>1241.2</ele>
        <time>2020-12-26T13:41:27.645Z</time>
      </trkpt>
      <trkpt lat="46.06738" lon="6.11767">
        <ele>1241.1</ele>
        <time>2020-12-26T13:41:28.635Z</time>
      </trkpt>
      <trkpt lat="46.06746" lon="6.11763">
        <ele>1240.3</ele>
        <time>2020-12-26T13:41:33.638Z</time>
      </trkpt>
      <trkpt lat="46.06749" lon="6.11761">
        <ele>1240.4</ele>
        <time>2020-12-26T13:41:34.650Z</time>
      </trkpt>
      <trkpt lat="46.06756" lon="6.11755">
        <ele>1241.7</ele>
        <time>2020-12-26T13:41:37.706Z</time>
      </trkpt>
      <trkpt lat="46.06759" lon="6.11752">
        <ele>1241.8</ele>
        <time>2020-12-26T13:41:38.631Z</time>
      </trkpt>
      <trkpt lat="46.06765" lon="6.11746">
        <ele>1243</ele>
        <time>2020-12-26T13:41:41.654Z</time>
      </trkpt>
      <trkpt lat="46.06767" lon="6.11744">
        <ele>1243.8</ele>
        <time>2020-12-26T13:41:42.641Z</time>
      </trkpt>
      <trkpt lat="46.06774" lon="6.11739">
        <ele>1245.9</ele>
        <time>2020-12-26T13:41:45.646Z</time>
      </trkpt>
      <trkpt lat="46.06775" lon="6.11737">
        <ele>1246.8</ele>
        <time>2020-12-26T13:41:46.662Z</time>
      </trkpt>
      <trkpt lat="46.06783" lon="6.1173">
        <ele>1250.3</ele>
        <time>2020-12-26T13:41:52.646Z</time>
      </trkpt>
      <trkpt lat="46.06784" lon="6.11729">
        <ele>1250.8</ele>
        <time>2020-12-26T13:41:53.655Z</time>
      </trkpt>
      <trkpt lat="46.06791" lon="6.11725">
        <ele>1255.3</ele>
        <time>2020-12-26T13:41:58.652Z</time>
      </trkpt>
      <trkpt lat="46.06793" lon="6.11724">
        <ele>1256</ele>
        <time>2020-12-26T13:41:59.650Z</time>
      </trkpt>
      <trkpt lat="46.06801" lon="6.11721">
        <ele>1261.2</ele>
        <time>2020-12-26T13:42:04.647Z</time>
      </trkpt>
      <trkpt lat="46.06802" lon="6.11721">
        <ele>1262</ele>
        <time>2020-12-26T13:42:05.675Z</time>
      </trkpt>
      <trkpt lat="46.06809" lon="6.11717">
        <ele>1264.4</ele>
        <time>2020-12-26T13:42:10.654Z</time>
      </trkpt>
      <trkpt lat="46.06811" lon="6.11716">
        <ele>1265</ele>
        <time>2020-12-26T13:42:11.642Z</time>
      </trkpt>
      <trkpt lat="46.06818" lon="6.11714">
        <ele>1267.5</ele>
        <time>2020-12-26T13:42:15.642Z</time>
      </trkpt>
      <trkpt lat="46.0682" lon="6.11713">
        <ele>1267.8</ele>
        <time>2020-12-26T13:42:16.651Z</time>
      </trkpt>
      <trkpt lat="46.06829" lon="6.1171">
        <ele>1268.9</ele>
        <time>2020-12-26T13:42:20.651Z</time>
      </trkpt>
      <trkpt lat="46.0683" lon="6.1171">
        <ele>1269.3</ele>
        <time>2020-12-26T13:42:21.652Z</time>
      </trkpt>
      <trkpt lat="46.06838" lon="6.11708">
        <ele>1270.5</ele>
        <time>2020-12-26T13:42:26.642Z</time>
      </trkpt>
      <trkpt lat="46.0684" lon="6.11708">
        <ele>1270.5</ele>
        <time>2020-12-26T13:42:27.684Z</time>
      </trkpt>
      <trkpt lat="46.06847" lon="6.11707">
        <ele>1271.7</ele>
        <time>2020-12-26T13:42:32.643Z</time>
      </trkpt>
      <trkpt lat="46.06849" lon="6.11707">
        <ele>1271.8</ele>
        <time>2020-12-26T13:42:33.649Z</time>
      </trkpt>
      <trkpt lat="46.06858" lon="6.11703">
        <ele>1271.2</ele>
        <time>2020-12-26T13:42:37.647Z</time>
      </trkpt>
      <trkpt lat="46.0686" lon="6.11702">
        <ele>1271</ele>
        <time>2020-12-26T13:42:38.653Z</time>
      </trkpt>
      <trkpt lat="46.06867" lon="6.117">
        <ele>1270.7</ele>
        <time>2020-12-26T13:42:42.647Z</time>
      </trkpt>
      <trkpt lat="46.06869" lon="6.117">
        <ele>1270.5</ele>
        <time>2020-12-26T13:42:43.647Z</time>
      </trkpt>
      <trkpt lat="46.06876" lon="6.11699">
        <ele>1271.1</ele>
        <time>2020-12-26T13:42:46.661Z</time>
      </trkpt>
      <trkpt lat="46.06878" lon="6.11699">
        <ele>1271.1</ele>
        <time>2020-12-26T13:42:47.697Z</time>
      </trkpt>
      <trkpt lat="46.06885" lon="6.11697">
        <ele>1270.3</ele>
        <time>2020-12-26T13:42:50.645Z</time>
      </trkpt>
      <trkpt lat="46.06888" lon="6.11697">
        <ele>1270.1</ele>
        <time>2020-12-26T13:42:51.646Z</time>
      </trkpt>
      <trkpt lat="46.06895" lon="6.11695">
        <ele>1268.9</ele>
        <time>2020-12-26T13:42:55.661Z</time>
      </trkpt>
      <trkpt lat="46.06897" lon="6.11692">
        <ele>1268.4</ele>
        <time>2020-12-26T13:42:56.643Z</time>
      </trkpt>
      <trkpt lat="46.06904" lon="6.11688">
        <ele>1267.8</ele>
        <time>2020-12-26T13:43:00.634Z</time>
      </trkpt>
      <trkpt lat="46.06905" lon="6.11688">
        <ele>1267.7</ele>
        <time>2020-12-26T13:43:01.647Z</time>
      </trkpt>
      <trkpt lat="46.06913" lon="6.11691">
        <ele>1266.7</ele>
        <time>2020-12-26T13:43:07.648Z</time>
      </trkpt>
      <trkpt lat="46.06915" lon="6.11692">
        <ele>1266.5</ele>
        <time>2020-12-26T13:43:08.643Z</time>
      </trkpt>
      <trkpt lat="46.06923" lon="6.11696">
        <ele>1266.5</ele>
        <time>2020-12-26T13:43:14.643Z</time>
      </trkpt>
      <trkpt lat="46.06925" lon="6.11695">
        <ele>1266.3</ele>
        <time>2020-12-26T13:43:15.642Z</time>
      </trkpt>
      <trkpt lat="46.06934" lon="6.11695">
        <ele>1265.5</ele>
        <time>2020-12-26T13:43:20.643Z</time>
      </trkpt>
      <trkpt lat="46.06936" lon="6.11695">
        <ele>1265.5</ele>
        <time>2020-12-26T13:43:21.676Z</time>
      </trkpt>
      <trkpt lat="46.06944" lon="6.11693">
        <ele>1265.7</ele>
        <time>2020-12-26T13:43:25.647Z</time>
      </trkpt>
      <trkpt lat="46.06945" lon="6.11693">
        <ele>1266.1</ele>
        <time>2020-12-26T13:43:26.641Z</time>
      </trkpt>
      <trkpt lat="46.06953" lon="6.11686">
        <ele>1267.1</ele>
        <time>2020-12-26T13:43:32.656Z</time>
      </trkpt>
      <trkpt lat="46.06954" lon="6.11684">
        <ele>1267.1</ele>
        <time>2020-12-26T13:43:33.641Z</time>
      </trkpt>
      <trkpt lat="46.0696" lon="6.11676">
        <ele>1269.5</ele>
        <time>2020-12-26T13:43:40.694Z</time>
      </trkpt>
      <trkpt lat="46.06961" lon="6.11675">
        <ele>1270.1</ele>
        <time>2020-12-26T13:43:41.650Z</time>
      </trkpt>
      <trkpt lat="46.06968" lon="6.1167">
        <ele>1270.7</ele>
        <time>2020-12-26T13:43:47.648Z</time>
      </trkpt>
      <trkpt lat="46.0697" lon="6.11669">
        <ele>1270.6</ele>
        <time>2020-12-26T13:43:48.648Z</time>
      </trkpt>
      <trkpt lat="46.06977" lon="6.11665">
        <ele>1271.9</ele>
        <time>2020-12-26T13:43:53.643Z</time>
      </trkpt>
      <trkpt lat="46.06978" lon="6.11664">
        <ele>1271.9</ele>
        <time>2020-12-26T13:43:54.651Z</time>
      </trkpt>
      <trkpt lat="46.06987" lon="6.11662">
        <ele>1268.1</ele>
        <time>2020-12-26T13:44:07.648Z</time>
      </trkpt>
      <trkpt lat="46.06988" lon="6.11661">
        <ele>1267.9</ele>
        <time>2020-12-26T13:44:08.644Z</time>
      </trkpt>
      <trkpt lat="46.06994" lon="6.11652">
        <ele>1267.6</ele>
        <time>2020-12-26T13:44:16.658Z</time>
      </trkpt>
      <trkpt lat="46.06995" lon="6.11651">
        <ele>1267.4</ele>
        <time>2020-12-26T13:44:17.648Z</time>
      </trkpt>
      <trkpt lat="46.07001" lon="6.11644">
        <ele>1264.5</ele>
        <time>2020-12-26T13:44:25.660Z</time>
      </trkpt>
      <trkpt lat="46.07002" lon="6.11643">
        <ele>1264.6</ele>
        <time>2020-12-26T13:44:26.652Z</time>
      </trkpt>
      <trkpt lat="46.07007" lon="6.11634">
        <ele>1265</ele>
        <time>2020-12-26T13:44:33.642Z</time>
      </trkpt>
      <trkpt lat="46.07008" lon="6.11633">
        <ele>1265.4</ele>
        <time>2020-12-26T13:44:34.702Z</time>
      </trkpt>
      <trkpt lat="46.07013" lon="6.11624">
        <ele>1265.7</ele>
        <time>2020-12-26T13:44:41.642Z</time>
      </trkpt>
      <trkpt lat="46.07014" lon="6.11623">
        <ele>1265.7</ele>
        <time>2020-12-26T13:44:42.638Z</time>
      </trkpt>
      <trkpt lat="46.07019" lon="6.11612">
        <ele>1267.6</ele>
        <time>2020-12-26T13:44:52.683Z</time>
      </trkpt>
      <trkpt lat="46.0702" lon="6.11611">
        <ele>1267.9</ele>
        <time>2020-12-26T13:44:53.652Z</time>
      </trkpt>
      <trkpt lat="46.07024" lon="6.11599">
        <ele>1269.4</ele>
        <time>2020-12-26T13:44:58.652Z</time>
      </trkpt>
      <trkpt lat="46.07025" lon="6.11597">
        <ele>1269.4</ele>
        <time>2020-12-26T13:44:59.643Z</time>
      </trkpt>
      <trkpt lat="46.07029" lon="6.11587">
        <ele>1269.6</ele>
        <time>2020-12-26T13:45:03.683Z</time>
      </trkpt>
      <trkpt lat="46.0703" lon="6.11585">
        <ele>1269.9</ele>
        <time>2020-12-26T13:45:04.645Z</time>
      </trkpt>
      <trkpt lat="46.07031" lon="6.11573">
        <ele>1271.9</ele>
        <time>2020-12-26T13:45:08.641Z</time>
      </trkpt>
      <trkpt lat="46.07032" lon="6.11571">
        <ele>1272.3</ele>
        <time>2020-12-26T13:45:09.648Z</time>
      </trkpt>
      <trkpt lat="46.07035" lon="6.11561">
        <ele>1273.1</ele>
        <time>2020-12-26T13:45:13.641Z</time>
      </trkpt>
      <trkpt lat="46.07036" lon="6.11559">
        <ele>1273.1</ele>
        <time>2020-12-26T13:45:14.719Z</time>
      </trkpt>
      <trkpt lat="46.07038" lon="6.11547">
        <ele>1272.9</ele>
        <time>2020-12-26T13:45:18.648Z</time>
      </trkpt>
      <trkpt lat="46.07039" lon="6.11543">
        <ele>1273</ele>
        <time>2020-12-26T13:45:19.649Z</time>
      </trkpt>
      <trkpt lat="46.07041" lon="6.11532">
        <ele>1273.8</ele>
        <time>2020-12-26T13:45:22.638Z</time>
      </trkpt>
      <trkpt lat="46.07042" lon="6.11529">
        <ele>1273.7</ele>
        <time>2020-12-26T13:45:23.649Z</time>
      </trkpt>
      <trkpt lat="46.07043" lon="6.11519">
        <ele>1273.6</ele>
        <time>2020-12-26T13:45:26.684Z</time>
      </trkpt>
      <trkpt lat="46.07044" lon="6.11516">
        <ele>1273.7</ele>
        <time>2020-12-26T13:45:27.649Z</time>
      </trkpt>
      <trkpt lat="46.07045" lon="6.11506">
        <ele>1274.7</ele>
        <time>2020-12-26T13:45:30.644Z</time>
      </trkpt>
      <trkpt lat="46.07045" lon="6.11503">
        <ele>1275.2</ele>
        <time>2020-12-26T13:45:31.644Z</time>
      </trkpt>
      <trkpt lat="46.07047" lon="6.11494">
        <ele>1275.9</ele>
        <time>2020-12-26T13:45:34.661Z</time>
      </trkpt>
      <trkpt lat="46.07048" lon="6.1149">
        <ele>1276.2</ele>
        <time>2020-12-26T13:45:35.646Z</time>
      </trkpt>
      <trkpt lat="46.0705" lon="6.11481">
        <ele>1278.3</ele>
        <time>2020-12-26T13:45:38.683Z</time>
      </trkpt>
      <trkpt lat="46.07052" lon="6.11478">
        <ele>1278.6</ele>
        <time>2020-12-26T13:45:39.644Z</time>
      </trkpt>
      <trkpt lat="46.07059" lon="6.11482">
        <ele>1278.4</ele>
        <time>2020-12-26T13:45:43.642Z</time>
      </trkpt>
      <trkpt lat="46.07061" lon="6.11484">
        <ele>1278.2</ele>
        <time>2020-12-26T13:45:44.633Z</time>
      </trkpt>
      <trkpt lat="46.07067" lon="6.11491">
        <ele>1277.1</ele>
        <time>2020-12-26T13:45:48.641Z</time>
      </trkpt>
      <trkpt lat="46.07068" lon="6.11492">
        <ele>1276.8</ele>
        <time>2020-12-26T13:45:49.642Z</time>
      </trkpt>
      <trkpt lat="46.07076" lon="6.11489">
        <ele>1276.5</ele>
        <time>2020-12-26T13:45:54.640Z</time>
      </trkpt>
      <trkpt lat="46.07077" lon="6.11488">
        <ele>1276.4</ele>
        <time>2020-12-26T13:45:55.644Z</time>
      </trkpt>
      <trkpt lat="46.07084" lon="6.11481">
        <ele>1275.7</ele>
        <time>2020-12-26T13:45:59.648Z</time>
      </trkpt>
      <trkpt lat="46.07085" lon="6.11479">
        <ele>1275.6</ele>
        <time>2020-12-26T13:46:00.641Z</time>
      </trkpt>
      <trkpt lat="46.07087" lon="6.11468">
        <ele>1275.8</ele>
        <time>2020-12-26T13:46:03.644Z</time>
      </trkpt>
      <trkpt lat="46.07088" lon="6.11466">
        <ele>1275.9</ele>
        <time>2020-12-26T13:46:04.638Z</time>
      </trkpt>
      <trkpt lat="46.07096" lon="6.11468">
        <ele>1276.4</ele>
        <time>2020-12-26T13:46:09.642Z</time>
      </trkpt>
      <trkpt lat="46.07099" lon="6.11469">
        <ele>1276.4</ele>
        <time>2020-12-26T13:46:10.651Z</time>
      </trkpt>
      <trkpt lat="46.07105" lon="6.11475">
        <ele>1276.7</ele>
        <time>2020-12-26T13:46:13.640Z</time>
      </trkpt>
      <trkpt lat="46.07107" lon="6.11477">
        <ele>1276.8</ele>
        <time>2020-12-26T13:46:14.643Z</time>
      </trkpt>
      <trkpt lat="46.07112" lon="6.11486">
        <ele>1276.7</ele>
        <time>2020-12-26T13:46:17.646Z</time>
      </trkpt>
      <trkpt lat="46.07113" lon="6.11491">
        <ele>1276.7</ele>
        <time>2020-12-26T13:46:18.643Z</time>
      </trkpt>
      <trkpt lat="46.07115" lon="6.11501">
        <ele>1276.9</ele>
        <time>2020-12-26T13:46:20.656Z</time>
      </trkpt>
      <trkpt lat="46.07115" lon="6.11504">
        <ele>1276.6</ele>
        <time>2020-12-26T13:46:21.642Z</time>
      </trkpt>
      <trkpt lat="46.07118" lon="6.11514">
        <ele>1276</ele>
        <time>2020-12-26T13:46:24.651Z</time>
      </trkpt>
      <trkpt lat="46.0712" lon="6.11516">
        <ele>1275.7</ele>
        <time>2020-12-26T13:46:25.689Z</time>
      </trkpt>
      <trkpt lat="46.07124" lon="6.11527">
        <ele>1274.5</ele>
        <time>2020-12-26T13:46:30.643Z</time>
      </trkpt>
      <trkpt lat="46.07125" lon="6.11529">
        <ele>1274.7</ele>
        <time>2020-12-26T13:46:31.644Z</time>
      </trkpt>
      <trkpt lat="46.07129" lon="6.11539">
        <ele>1273.7</ele>
        <time>2020-12-26T13:46:36.640Z</time>
      </trkpt>
      <trkpt lat="46.0713" lon="6.1154">
        <ele>1273.6</ele>
        <time>2020-12-26T13:46:37.642Z</time>
      </trkpt>
      <trkpt lat="46.07135" lon="6.11547">
        <ele>1272.9</ele>
        <time>2020-12-26T13:46:41.646Z</time>
      </trkpt>
      <trkpt lat="46.07137" lon="6.11549">
        <ele>1273</ele>
        <time>2020-12-26T13:46:42.649Z</time>
      </trkpt>
      <trkpt lat="46.07143" lon="6.11555">
        <ele>1273.4</ele>
        <time>2020-12-26T13:46:45.641Z</time>
      </trkpt>
      <trkpt lat="46.07145" lon="6.11557">
        <ele>1273.6</ele>
        <time>2020-12-26T13:46:46.645Z</time>
      </trkpt>
      <trkpt lat="46.07149" lon="6.11565">
        <ele>1274.7</ele>
        <time>2020-12-26T13:46:49.652Z</time>
      </trkpt>
      <trkpt lat="46.07151" lon="6.11568">
        <ele>1274.6</ele>
        <time>2020-12-26T13:46:50.646Z</time>
      </trkpt>
      <trkpt lat="46.07156" lon="6.11578">
        <ele>1273.2</ele>
        <time>2020-12-26T13:46:53.650Z</time>
      </trkpt>
      <trkpt lat="46.07158" lon="6.11581">
        <ele>1273.2</ele>
        <time>2020-12-26T13:46:54.652Z</time>
      </trkpt>
      <trkpt lat="46.07162" lon="6.11591">
        <ele>1272.2</ele>
        <time>2020-12-26T13:46:57.649Z</time>
      </trkpt>
      <trkpt lat="46.07163" lon="6.11593">
        <ele>1272.1</ele>
        <time>2020-12-26T13:46:58.657Z</time>
      </trkpt>
      <trkpt lat="46.07167" lon="6.11604">
        <ele>1271.5</ele>
        <time>2020-12-26T13:47:04.649Z</time>
      </trkpt>
      <trkpt lat="46.07169" lon="6.11606">
        <ele>1271.1</ele>
        <time>2020-12-26T13:47:05.641Z</time>
      </trkpt>
      <trkpt lat="46.07174" lon="6.11612">
        <ele>1270.8</ele>
        <time>2020-12-26T13:47:08.642Z</time>
      </trkpt>
      <trkpt lat="46.07176" lon="6.11614">
        <ele>1270.6</ele>
        <time>2020-12-26T13:47:09.658Z</time>
      </trkpt>
      <trkpt lat="46.07182" lon="6.11623">
        <ele>1270.6</ele>
        <time>2020-12-26T13:47:13.634Z</time>
      </trkpt>
      <trkpt lat="46.07183" lon="6.11625">
        <ele>1270.8</ele>
        <time>2020-12-26T13:47:14.644Z</time>
      </trkpt>
      <trkpt lat="46.07187" lon="6.11635">
        <ele>1271</ele>
        <time>2020-12-26T13:47:18.639Z</time>
      </trkpt>
      <trkpt lat="46.07188" lon="6.11637">
        <ele>1270.7</ele>
        <time>2020-12-26T13:47:19.689Z</time>
      </trkpt>
      <trkpt lat="46.07192" lon="6.11647">
        <ele>1270.1</ele>
        <time>2020-12-26T13:47:23.643Z</time>
      </trkpt>
      <trkpt lat="46.07193" lon="6.11649">
        <ele>1269.9</ele>
        <time>2020-12-26T13:47:24.651Z</time>
      </trkpt>
      <trkpt lat="46.072" lon="6.11658">
        <ele>1269.1</ele>
        <time>2020-12-26T13:47:30.638Z</time>
      </trkpt>
      <trkpt lat="46.072" lon="6.1166">
        <ele>1268.9</ele>
        <time>2020-12-26T13:47:31.690Z</time>
      </trkpt>
      <trkpt lat="46.07203" lon="6.11671">
        <ele>1268.4</ele>
        <time>2020-12-26T13:47:35.658Z</time>
      </trkpt>
      <trkpt lat="46.07204" lon="6.11674">
        <ele>1268.3</ele>
        <time>2020-12-26T13:47:36.642Z</time>
      </trkpt>
      <trkpt lat="46.07208" lon="6.11685">
        <ele>1268.2</ele>
        <time>2020-12-26T13:47:45.644Z</time>
      </trkpt>
      <trkpt lat="46.07207" lon="6.11686">
        <ele>1268.2</ele>
        <time>2020-12-26T13:47:46.647Z</time>
      </trkpt>
      <trkpt lat="46.07204" lon="6.11696">
        <ele>1267.9</ele>
        <time>2020-12-26T13:47:51.640Z</time>
      </trkpt>
      <trkpt lat="46.07203" lon="6.11698">
        <ele>1267.7</ele>
        <time>2020-12-26T13:47:52.645Z</time>
      </trkpt>
      <trkpt lat="46.07199" lon="6.11709">
        <ele>1267.5</ele>
        <time>2020-12-26T13:47:56.653Z</time>
      </trkpt>
      <trkpt lat="46.07198" lon="6.11711">
        <ele>1267.5</ele>
        <time>2020-12-26T13:47:57.638Z</time>
      </trkpt>
      <trkpt lat="46.07195" lon="6.1172">
        <ele>1267.6</ele>
        <time>2020-12-26T13:48:00.657Z</time>
      </trkpt>
      <trkpt lat="46.07194" lon="6.11723">
        <ele>1267.6</ele>
        <time>2020-12-26T13:48:01.636Z</time>
      </trkpt>
      <trkpt lat="46.0719" lon="6.11732">
        <ele>1267.4</ele>
        <time>2020-12-26T13:48:04.649Z</time>
      </trkpt>
      <trkpt lat="46.07189" lon="6.11735">
        <ele>1267</ele>
        <time>2020-12-26T13:48:05.640Z</time>
      </trkpt>
      <trkpt lat="46.07185" lon="6.11743">
        <ele>1266</ele>
        <time>2020-12-26T13:48:08.661Z</time>
      </trkpt>
      <trkpt lat="46.07183" lon="6.11746">
        <ele>1265.9</ele>
        <time>2020-12-26T13:48:09.642Z</time>
      </trkpt>
      <trkpt lat="46.07179" lon="6.11755">
        <ele>1265.4</ele>
        <time>2020-12-26T13:48:12.647Z</time>
      </trkpt>
      <trkpt lat="46.07177" lon="6.11758">
        <ele>1265.6</ele>
        <time>2020-12-26T13:48:13.651Z</time>
      </trkpt>
      <trkpt lat="46.07172" lon="6.11767">
        <ele>1265.3</ele>
        <time>2020-12-26T13:48:16.645Z</time>
      </trkpt>
      <trkpt lat="46.0717" lon="6.1177">
        <ele>1265.2</ele>
        <time>2020-12-26T13:48:17.647Z</time>
      </trkpt>
      <trkpt lat="46.07165" lon="6.11779">
        <ele>1265</ele>
        <time>2020-12-26T13:48:20.634Z</time>
      </trkpt>
      <trkpt lat="46.07164" lon="6.11782">
        <ele>1265</ele>
        <time>2020-12-26T13:48:21.641Z</time>
      </trkpt>
      <trkpt lat="46.07159" lon="6.11791">
        <ele>1265</ele>
        <time>2020-12-26T13:48:24.645Z</time>
      </trkpt>
      <trkpt lat="46.07157" lon="6.11794">
        <ele>1265</ele>
        <time>2020-12-26T13:48:25.649Z</time>
      </trkpt>
      <trkpt lat="46.07152" lon="6.11802">
        <ele>1265</ele>
        <time>2020-12-26T13:48:28.637Z</time>
      </trkpt>
      <trkpt lat="46.0715" lon="6.11805">
        <ele>1265.2</ele>
        <time>2020-12-26T13:48:29.651Z</time>
      </trkpt>
      <trkpt lat="46.07145" lon="6.11813">
        <ele>1265.5</ele>
        <time>2020-12-26T13:48:32.646Z</time>
      </trkpt>
      <trkpt lat="46.07144" lon="6.11816">
        <ele>1265.5</ele>
        <time>2020-12-26T13:48:33.650Z</time>
      </trkpt>
      <trkpt lat="46.07138" lon="6.11825">
        <ele>1265.1</ele>
        <time>2020-12-26T13:48:37.644Z</time>
      </trkpt>
      <trkpt lat="46.07136" lon="6.11827">
        <ele>1265</ele>
        <time>2020-12-26T13:48:38.644Z</time>
      </trkpt>
      <trkpt lat="46.07131" lon="6.11836">
        <ele>1264.7</ele>
        <time>2020-12-26T13:48:42.653Z</time>
      </trkpt>
      <trkpt lat="46.07129" lon="6.11838">
        <ele>1264.5</ele>
        <time>2020-12-26T13:48:43.644Z</time>
      </trkpt>
      <trkpt lat="46.07123" lon="6.11848">
        <ele>1263.7</ele>
        <time>2020-12-26T13:48:47.643Z</time>
      </trkpt>
      <trkpt lat="46.07122" lon="6.1185">
        <ele>1263.5</ele>
        <time>2020-12-26T13:48:48.645Z</time>
      </trkpt>
      <trkpt lat="46.07116" lon="6.11859">
        <ele>1263.3</ele>
        <time>2020-12-26T13:48:52.694Z</time>
      </trkpt>
      <trkpt lat="46.07115" lon="6.11861">
        <ele>1263.5</ele>
        <time>2020-12-26T13:48:53.641Z</time>
      </trkpt>
      <trkpt lat="46.07109" lon="6.1187">
        <ele>1264.1</ele>
        <time>2020-12-26T13:48:57.642Z</time>
      </trkpt>
      <trkpt lat="46.07108" lon="6.11873">
        <ele>1264.3</ele>
        <time>2020-12-26T13:48:58.695Z</time>
      </trkpt>
      <trkpt lat="46.07103" lon="6.11881">
        <ele>1264.6</ele>
        <time>2020-12-26T13:49:02.648Z</time>
      </trkpt>
      <trkpt lat="46.07101" lon="6.11883">
        <ele>1264.7</ele>
        <time>2020-12-26T13:49:03.648Z</time>
      </trkpt>
      <trkpt lat="46.07095" lon="6.11892">
        <ele>1264.7</ele>
        <time>2020-12-26T13:49:07.646Z</time>
      </trkpt>
      <trkpt lat="46.07094" lon="6.11895">
        <ele>1264.5</ele>
        <time>2020-12-26T13:49:08.649Z</time>
      </trkpt>
      <trkpt lat="46.07088" lon="6.11904">
        <ele>1264.4</ele>
        <time>2020-12-26T13:49:12.649Z</time>
      </trkpt>
      <trkpt lat="46.07086" lon="6.11906">
        <ele>1264.4</ele>
        <time>2020-12-26T13:49:13.642Z</time>
      </trkpt>
      <trkpt lat="46.0708" lon="6.11916">
        <ele>1265</ele>
        <time>2020-12-26T13:49:17.644Z</time>
      </trkpt>
      <trkpt lat="46.07079" lon="6.11918">
        <ele>1265.2</ele>
        <time>2020-12-26T13:49:18.653Z</time>
      </trkpt>
      <trkpt lat="46.07073" lon="6.11927">
        <ele>1266.4</ele>
        <time>2020-12-26T13:49:22.682Z</time>
      </trkpt>
      <trkpt lat="46.07072" lon="6.11929">
        <ele>1266.5</ele>
        <time>2020-12-26T13:49:23.648Z</time>
      </trkpt>
      <trkpt lat="46.07068" lon="6.11939">
        <ele>1268.6</ele>
        <time>2020-12-26T13:49:28.699Z</time>
      </trkpt>
      <trkpt lat="46.07067" lon="6.1194">
        <ele>1268.8</ele>
        <time>2020-12-26T13:49:29.641Z</time>
      </trkpt>
      <trkpt lat="46.07062" lon="6.1195">
        <ele>1270.1</ele>
        <time>2020-12-26T13:49:34.685Z</time>
      </trkpt>
      <trkpt lat="46.07061" lon="6.11951">
        <ele>1270.4</ele>
        <time>2020-12-26T13:49:35.640Z</time>
      </trkpt>
      <trkpt lat="46.07059" lon="6.11963">
        <ele>1272.2</ele>
        <time>2020-12-26T13:49:42.651Z</time>
      </trkpt>
      <trkpt lat="46.07058" lon="6.11965">
        <ele>1272.6</ele>
        <time>2020-12-26T13:49:43.653Z</time>
      </trkpt>
      <trkpt lat="46.07057" lon="6.11978">
        <ele>1274</ele>
        <time>2020-12-26T13:49:49.668Z</time>
      </trkpt>
      <trkpt lat="46.07057" lon="6.11979">
        <ele>1274.4</ele>
        <time>2020-12-26T13:49:50.655Z</time>
      </trkpt>
      <trkpt lat="46.07056" lon="6.1199">
        <ele>1279.1</ele>
        <time>2020-12-26T13:49:58.644Z</time>
      </trkpt>
      <trkpt lat="46.07056" lon="6.11992">
        <ele>1280</ele>
        <time>2020-12-26T13:49:59.643Z</time>
      </trkpt>
      <trkpt lat="46.07054" lon="6.12003">
        <ele>1286</ele>
        <time>2020-12-26T13:50:06.649Z</time>
      </trkpt>
      <trkpt lat="46.07054" lon="6.12005">
        <ele>1286.9</ele>
        <time>2020-12-26T13:50:07.645Z</time>
      </trkpt>
      <trkpt lat="46.07056" lon="6.12016">
        <ele>1292.8</ele>
        <time>2020-12-26T13:50:14.647Z</time>
      </trkpt>
      <trkpt lat="46.07056" lon="6.12018">
        <ele>1293.4</ele>
        <time>2020-12-26T13:50:15.696Z</time>
      </trkpt>
      <trkpt lat="46.07057" lon="6.1203">
        <ele>1296.8</ele>
        <time>2020-12-26T13:50:22.650Z</time>
      </trkpt>
      <trkpt lat="46.07057" lon="6.12032">
        <ele>1297.1</ele>
        <time>2020-12-26T13:50:23.656Z</time>
      </trkpt>
      <trkpt lat="46.07056" lon="6.12042">
        <ele>1298.2</ele>
        <time>2020-12-26T13:50:29.648Z</time>
      </trkpt>
      <trkpt lat="46.07056" lon="6.12045">
        <ele>1298.3</ele>
        <time>2020-12-26T13:50:30.645Z</time>
      </trkpt>
      <trkpt lat="46.07057" lon="6.12057">
        <ele>1298.7</ele>
        <time>2020-12-26T13:50:35.645Z</time>
      </trkpt>
      <trkpt lat="46.07057" lon="6.1206">
        <ele>1298.8</ele>
        <time>2020-12-26T13:50:36.650Z</time>
      </trkpt>
      <trkpt lat="46.07058" lon="6.12071">
        <ele>1298.5</ele>
        <time>2020-12-26T13:50:40.651Z</time>
      </trkpt>
      <trkpt lat="46.07058" lon="6.12074">
        <ele>1298.7</ele>
        <time>2020-12-26T13:50:41.658Z</time>
      </trkpt>
      <trkpt lat="46.07058" lon="6.12085">
        <ele>1300.2</ele>
        <time>2020-12-26T13:50:47.648Z</time>
      </trkpt>
      <trkpt lat="46.07058" lon="6.12087">
        <ele>1300</ele>
        <time>2020-12-26T13:50:48.641Z</time>
      </trkpt>
      <trkpt lat="46.07059" lon="6.12099">
        <ele>1299.8</ele>
        <time>2020-12-26T13:50:54.652Z</time>
      </trkpt>
      <trkpt lat="46.07058" lon="6.12102">
        <ele>1300</ele>
        <time>2020-12-26T13:50:55.655Z</time>
      </trkpt>
      <trkpt lat="46.07056" lon="6.12114">
        <ele>1299.1</ele>
        <time>2020-12-26T13:51:01.652Z</time>
      </trkpt>
      <trkpt lat="46.07056" lon="6.12115">
        <ele>1299</ele>
        <time>2020-12-26T13:51:02.693Z</time>
      </trkpt>
      <trkpt lat="46.07058" lon="6.12126">
        <ele>1297.6</ele>
        <time>2020-12-26T13:51:09.671Z</time>
      </trkpt>
      <trkpt lat="46.07058" lon="6.12128">
        <ele>1297.2</ele>
        <time>2020-12-26T13:51:10.644Z</time>
      </trkpt>
      <trkpt lat="46.07062" lon="6.1214">
        <ele>1294.9</ele>
        <time>2020-12-26T13:51:15.649Z</time>
      </trkpt>
      <trkpt lat="46.07062" lon="6.12142">
        <ele>1294.6</ele>
        <time>2020-12-26T13:51:16.644Z</time>
      </trkpt>
      <trkpt lat="46.07066" lon="6.12152">
        <ele>1294.6</ele>
        <time>2020-12-26T13:51:23.642Z</time>
      </trkpt>
      <trkpt lat="46.07066" lon="6.12154">
        <ele>1294.8</ele>
        <time>2020-12-26T13:51:24.657Z</time>
      </trkpt>
      <trkpt lat="46.0707" lon="6.12163">
        <ele>1295.8</ele>
        <time>2020-12-26T13:51:29.644Z</time>
      </trkpt>
      <trkpt lat="46.07071" lon="6.12165">
        <ele>1296.1</ele>
        <time>2020-12-26T13:51:30.649Z</time>
      </trkpt>
      <trkpt lat="46.07075" lon="6.12175">
        <ele>1296</ele>
        <time>2020-12-26T13:51:35.651Z</time>
      </trkpt>
      <trkpt lat="46.07076" lon="6.12177">
        <ele>1295.9</ele>
        <time>2020-12-26T13:51:36.652Z</time>
      </trkpt>
      <trkpt lat="46.0708" lon="6.12186">
        <ele>1295.3</ele>
        <time>2020-12-26T13:51:41.648Z</time>
      </trkpt>
      <trkpt lat="46.0708" lon="6.12188">
        <ele>1295.2</ele>
        <time>2020-12-26T13:51:42.649Z</time>
      </trkpt>
      <trkpt lat="46.07085" lon="6.12198">
        <ele>1295.6</ele>
        <time>2020-12-26T13:51:47.680Z</time>
      </trkpt>
      <trkpt lat="46.07087" lon="6.12199">
        <ele>1295.4</ele>
        <time>2020-12-26T13:51:48.657Z</time>
      </trkpt>
      <trkpt lat="46.07094" lon="6.12203">
        <ele>1295.1</ele>
        <time>2020-12-26T13:51:52.644Z</time>
      </trkpt>
      <trkpt lat="46.07096" lon="6.12204">
        <ele>1295</ele>
        <time>2020-12-26T13:51:53.654Z</time>
      </trkpt>
      <trkpt lat="46.07104" lon="6.12205">
        <ele>1294.1</ele>
        <time>2020-12-26T13:51:57.648Z</time>
      </trkpt>
      <trkpt lat="46.07106" lon="6.12206">
        <ele>1293.9</ele>
        <time>2020-12-26T13:51:58.648Z</time>
      </trkpt>
      <trkpt lat="46.07114" lon="6.12211">
        <ele>1293.4</ele>
        <time>2020-12-26T13:52:03.641Z</time>
      </trkpt>
      <trkpt lat="46.07114" lon="6.12213">
        <ele>1293.3</ele>
        <time>2020-12-26T13:52:04.632Z</time>
      </trkpt>
      <trkpt lat="46.07115" lon="6.12215">
        <ele>1293.3</ele>
        <time>2020-12-26T13:52:06.640Z</time>
      </trkpt>
      <trkpt lat="46.07115" lon="6.12215">
        <ele>1293.3</ele>
        <time>2020-12-26T13:52:07.642Z</time>
      </trkpt>
      <trkpt lat="46.07115" lon="6.12215">
        <ele>1290.7</ele>
        <time>2020-12-26T13:52:10.649Z</time>
      </trkpt>
      <trkpt lat="46.07115" lon="6.12216">
        <ele>1289.7</ele>
        <time>2020-12-26T13:52:11.640Z</time>
      </trkpt>
      <trkpt lat="46.07114" lon="6.12215">
        <ele>1288.3</ele>
        <time>2020-12-26T13:52:13.647Z</time>
      </trkpt>
      <trkpt lat="46.07111" lon="6.12225">
        <ele>1288.3</ele>
        <time>2020-12-26T13:52:14.689Z</time>
      </trkpt>
      <trkpt lat="46.07111" lon="6.12225">
        <ele>1288.3</ele>
        <time>2020-12-26T13:52:44.636Z</time>
      </trkpt>
      <trkpt lat="46.07112" lon="6.12225">
        <ele>1288.2</ele>
        <time>2020-12-26T13:52:45.686Z</time>
      </trkpt>
      <trkpt lat="46.0712" lon="6.12226">
        <ele>1288</ele>
        <time>2020-12-26T13:52:52.649Z</time>
      </trkpt>
      <trkpt lat="46.07122" lon="6.12227">
        <ele>1287.9</ele>
        <time>2020-12-26T13:52:53.646Z</time>
      </trkpt>
      <trkpt lat="46.0713" lon="6.12227">
        <ele>1288.4</ele>
        <time>2020-12-26T13:52:59.652Z</time>
      </trkpt>
      <trkpt lat="46.07132" lon="6.12227">
        <ele>1288.7</ele>
        <time>2020-12-26T13:53:00.644Z</time>
      </trkpt>
      <trkpt lat="46.07139" lon="6.12228">
        <ele>1290</ele>
        <time>2020-12-26T13:53:04.651Z</time>
      </trkpt>
      <trkpt lat="46.07141" lon="6.12228">
        <ele>1290.1</ele>
        <time>2020-12-26T13:53:05.645Z</time>
      </trkpt>
      <trkpt lat="46.07149" lon="6.12228">
        <ele>1291.5</ele>
        <time>2020-12-26T13:53:10.651Z</time>
      </trkpt>
      <trkpt lat="46.07151" lon="6.12228">
        <ele>1292</ele>
        <time>2020-12-26T13:53:11.661Z</time>
      </trkpt>
      <trkpt lat="46.07159" lon="6.12229">
        <ele>1294.3</ele>
        <time>2020-12-26T13:53:16.661Z</time>
      </trkpt>
      <trkpt lat="46.0716" lon="6.12229">
        <ele>1294.7</ele>
        <time>2020-12-26T13:53:17.653Z</time>
      </trkpt>
      <trkpt lat="46.0716" lon="6.12229">
        <ele>1295.2</ele>
        <time>2020-12-26T13:53:18.653Z</time>
      </trkpt>
      <trkpt lat="46.0716" lon="6.12229">
        <ele>1296.3</ele>
        <time>2020-12-26T13:53:20.692Z</time>
      </trkpt>
      <trkpt lat="46.07163" lon="6.12229">
        <ele>1296.9</ele>
        <time>2020-12-26T13:53:21.655Z</time>
      </trkpt>
      <trkpt lat="46.07172" lon="6.12229">
        <ele>1300</ele>
        <time>2020-12-26T13:53:29.648Z</time>
      </trkpt>
      <trkpt lat="46.07173" lon="6.12229">
        <ele>1300.3</ele>
        <time>2020-12-26T13:53:30.641Z</time>
      </trkpt>
      <trkpt lat="46.07181" lon="6.12229">
        <ele>1303.1</ele>
        <time>2020-12-26T13:53:40.653Z</time>
      </trkpt>
      <trkpt lat="46.07183" lon="6.12229">
        <ele>1303.6</ele>
        <time>2020-12-26T13:53:41.650Z</time>
      </trkpt>
      <trkpt lat="46.07191" lon="6.12229">
        <ele>1305.9</ele>
        <time>2020-12-26T13:53:48.629Z</time>
      </trkpt>
      <trkpt lat="46.07192" lon="6.12229">
        <ele>1306.2</ele>
        <time>2020-12-26T13:53:49.688Z</time>
      </trkpt>
      <trkpt lat="46.07201" lon="6.12229">
        <ele>1308.4</ele>
        <time>2020-12-26T13:53:59.651Z</time>
      </trkpt>
      <trkpt lat="46.07202" lon="6.12229">
        <ele>1308.5</ele>
        <time>2020-12-26T13:54:00.663Z</time>
      </trkpt>
      <trkpt lat="46.0721" lon="6.12228">
        <ele>1309.5</ele>
        <time>2020-12-26T13:54:07.709Z</time>
      </trkpt>
      <trkpt lat="46.07211" lon="6.12228">
        <ele>1309.7</ele>
        <time>2020-12-26T13:54:08.657Z</time>
      </trkpt>
      <trkpt lat="46.0722" lon="6.12226">
        <ele>1311.6</ele>
        <time>2020-12-26T13:54:17.649Z</time>
      </trkpt>
      <trkpt lat="46.07221" lon="6.12226">
        <ele>1311.9</ele>
        <time>2020-12-26T13:54:18.650Z</time>
      </trkpt>
      <trkpt lat="46.07229" lon="6.12227">
        <ele>1313.4</ele>
        <time>2020-12-26T13:54:29.666Z</time>
      </trkpt>
      <trkpt lat="46.07231" lon="6.12226">
        <ele>1313.7</ele>
        <time>2020-12-26T13:54:30.646Z</time>
      </trkpt>
      <trkpt lat="46.07239" lon="6.12226">
        <ele>1314.2</ele>
        <time>2020-12-26T13:54:38.650Z</time>
      </trkpt>
      <trkpt lat="46.0724" lon="6.12226">
        <ele>1314.4</ele>
        <time>2020-12-26T13:54:39.682Z</time>
      </trkpt>
      <trkpt lat="46.07248" lon="6.12229">
        <ele>1315.5</ele>
        <time>2020-12-26T13:54:51.654Z</time>
      </trkpt>
      <trkpt lat="46.07249" lon="6.12229">
        <ele>1315.5</ele>
        <time>2020-12-26T13:54:52.647Z</time>
      </trkpt>
      <trkpt lat="46.07257" lon="6.12231">
        <ele>1316.3</ele>
        <time>2020-12-26T13:55:00.649Z</time>
      </trkpt>
      <trkpt lat="46.07258" lon="6.12231">
        <ele>1316.3</ele>
        <time>2020-12-26T13:55:01.709Z</time>
      </trkpt>
      <trkpt lat="46.07267" lon="6.12234">
        <ele>1317.7</ele>
        <time>2020-12-26T13:55:08.642Z</time>
      </trkpt>
      <trkpt lat="46.07268" lon="6.12235">
        <ele>1317.8</ele>
        <time>2020-12-26T13:55:09.658Z</time>
      </trkpt>
      <trkpt lat="46.07276" lon="6.12238">
        <ele>1319.4</ele>
        <time>2020-12-26T13:55:17.653Z</time>
      </trkpt>
      <trkpt lat="46.07277" lon="6.12239">
        <ele>1319.8</ele>
        <time>2020-12-26T13:55:18.648Z</time>
      </trkpt>
      <trkpt lat="46.07284" lon="6.12242">
        <ele>1321.4</ele>
        <time>2020-12-26T13:55:25.701Z</time>
      </trkpt>
      <trkpt lat="46.07285" lon="6.12243">
        <ele>1321.5</ele>
        <time>2020-12-26T13:55:26.653Z</time>
      </trkpt>
      <trkpt lat="46.07293" lon="6.12246">
        <ele>1324.1</ele>
        <time>2020-12-26T13:55:35.680Z</time>
      </trkpt>
      <trkpt lat="46.07294" lon="6.12247">
        <ele>1324.4</ele>
        <time>2020-12-26T13:55:36.652Z</time>
      </trkpt>
      <trkpt lat="46.07301" lon="6.12253">
        <ele>1325.8</ele>
        <time>2020-12-26T13:55:44.650Z</time>
      </trkpt>
      <trkpt lat="46.07302" lon="6.12253">
        <ele>1326</ele>
        <time>2020-12-26T13:55:45.644Z</time>
      </trkpt>
      <trkpt lat="46.0731" lon="6.12257">
        <ele>1327.7</ele>
        <time>2020-12-26T13:55:52.650Z</time>
      </trkpt>
      <trkpt lat="46.07311" lon="6.12258">
        <ele>1327.9</ele>
        <time>2020-12-26T13:55:53.673Z</time>
      </trkpt>
      <trkpt lat="46.07319" lon="6.12261">
        <ele>1330.6</ele>
        <time>2020-12-26T13:56:00.645Z</time>
      </trkpt>
      <trkpt lat="46.0732" lon="6.12262">
        <ele>1331.1</ele>
        <time>2020-12-26T13:56:01.645Z</time>
      </trkpt>
      <trkpt lat="46.07327" lon="6.12268">
        <ele>1330.3</ele>
        <time>2020-12-26T13:56:12.647Z</time>
      </trkpt>
      <trkpt lat="46.07328" lon="6.12268">
        <ele>1330.5</ele>
        <time>2020-12-26T13:56:13.630Z</time>
      </trkpt>
      <trkpt lat="46.07336" lon="6.12273">
        <ele>1332.3</ele>
        <time>2020-12-26T13:56:21.644Z</time>
      </trkpt>
      <trkpt lat="46.07337" lon="6.12273">
        <ele>1332.6</ele>
        <time>2020-12-26T13:56:22.657Z</time>
      </trkpt>
      <trkpt lat="46.07345" lon="6.12275">
        <ele>1334.9</ele>
        <time>2020-12-26T13:56:30.686Z</time>
      </trkpt>
      <trkpt lat="46.07346" lon="6.12276">
        <ele>1335.1</ele>
        <time>2020-12-26T13:56:31.655Z</time>
      </trkpt>
      <trkpt lat="46.07354" lon="6.1228">
        <ele>1337.5</ele>
        <time>2020-12-26T13:56:40.654Z</time>
      </trkpt>
      <trkpt lat="46.07355" lon="6.12281">
        <ele>1338.1</ele>
        <time>2020-12-26T13:56:41.654Z</time>
      </trkpt>
      <trkpt lat="46.07362" lon="6.12285">
        <ele>1340.1</ele>
        <time>2020-12-26T13:56:48.684Z</time>
      </trkpt>
      <trkpt lat="46.07363" lon="6.12286">
        <ele>1340.5</ele>
        <time>2020-12-26T13:56:49.665Z</time>
      </trkpt>
      <trkpt lat="46.07371" lon="6.12289">
        <ele>1343.2</ele>
        <time>2020-12-26T13:56:55.655Z</time>
      </trkpt>
      <trkpt lat="46.07372" lon="6.1229">
        <ele>1343.7</ele>
        <time>2020-12-26T13:56:56.654Z</time>
      </trkpt>
      <trkpt lat="46.07377" lon="6.12298">
        <ele>1344.6</ele>
        <time>2020-12-26T13:57:02.632Z</time>
      </trkpt>
      <trkpt lat="46.07378" lon="6.12299">
        <ele>1344.8</ele>
        <time>2020-12-26T13:57:03.651Z</time>
      </trkpt>
      <trkpt lat="46.07385" lon="6.12306">
        <ele>1345.5</ele>
        <time>2020-12-26T13:57:13.641Z</time>
      </trkpt>
      <trkpt lat="46.07385" lon="6.12307">
        <ele>1345.5</ele>
        <time>2020-12-26T13:57:14.665Z</time>
      </trkpt>
      <trkpt lat="46.0739" lon="6.12317">
        <ele>1345.9</ele>
        <time>2020-12-26T13:57:23.646Z</time>
      </trkpt>
      <trkpt lat="46.07391" lon="6.12318">
        <ele>1345.7</ele>
        <time>2020-12-26T13:57:24.667Z</time>
      </trkpt>
      <trkpt lat="46.07397" lon="6.12325">
        <ele>1347.4</ele>
        <time>2020-12-26T13:57:37.647Z</time>
      </trkpt>
      <trkpt lat="46.07398" lon="6.12326">
        <ele>1347.4</ele>
        <time>2020-12-26T13:57:38.663Z</time>
      </trkpt>
      <trkpt lat="46.07406" lon="6.12331">
        <ele>1347.4</ele>
        <time>2020-12-26T13:57:45.650Z</time>
      </trkpt>
      <trkpt lat="46.07407" lon="6.12332">
        <ele>1347.5</ele>
        <time>2020-12-26T13:57:46.649Z</time>
      </trkpt>
      <trkpt lat="46.07414" lon="6.12339">
        <ele>1348.5</ele>
        <time>2020-12-26T13:57:51.661Z</time>
      </trkpt>
      <trkpt lat="46.07415" lon="6.1234">
        <ele>1348.7</ele>
        <time>2020-12-26T13:57:52.661Z</time>
      </trkpt>
      <trkpt lat="46.07424" lon="6.12345">
        <ele>1350.7</ele>
        <time>2020-12-26T13:57:58.665Z</time>
      </trkpt>
      <trkpt lat="46.07425" lon="6.12346">
        <ele>1351.2</ele>
        <time>2020-12-26T13:57:59.650Z</time>
      </trkpt>
      <trkpt lat="46.07432" lon="6.12352">
        <ele>1353.1</ele>
        <time>2020-12-26T13:58:03.652Z</time>
      </trkpt>
      <trkpt lat="46.07434" lon="6.12354">
        <ele>1353.3</ele>
        <time>2020-12-26T13:58:04.652Z</time>
      </trkpt>
      <trkpt lat="46.07441" lon="6.1236">
        <ele>1353.9</ele>
        <time>2020-12-26T13:58:08.655Z</time>
      </trkpt>
      <trkpt lat="46.07443" lon="6.12361">
        <ele>1353.9</ele>
        <time>2020-12-26T13:58:09.667Z</time>
      </trkpt>
      <trkpt lat="46.07449" lon="6.12367">
        <ele>1354.1</ele>
        <time>2020-12-26T13:58:12.681Z</time>
      </trkpt>
      <trkpt lat="46.07451" lon="6.12368">
        <ele>1354.4</ele>
        <time>2020-12-26T13:58:13.639Z</time>
      </trkpt>
      <trkpt lat="46.07457" lon="6.12373">
        <ele>1355</ele>
        <time>2020-12-26T13:58:16.653Z</time>
      </trkpt>
      <trkpt lat="46.07459" lon="6.12374">
        <ele>1355.2</ele>
        <time>2020-12-26T13:58:17.649Z</time>
      </trkpt>
      <trkpt lat="46.07465" lon="6.12378">
        <ele>1355.6</ele>
        <time>2020-12-26T13:58:20.653Z</time>
      </trkpt>
      <trkpt lat="46.07467" lon="6.1238">
        <ele>1355.8</ele>
        <time>2020-12-26T13:58:21.655Z</time>
      </trkpt>
      <trkpt lat="46.07474" lon="6.12387">
        <ele>1355</ele>
        <time>2020-12-26T13:58:25.665Z</time>
      </trkpt>
      <trkpt lat="46.07475" lon="6.1239">
        <ele>1354.8</ele>
        <time>2020-12-26T13:58:26.656Z</time>
      </trkpt>
      <trkpt lat="46.0748" lon="6.12399">
        <ele>1354.5</ele>
        <time>2020-12-26T13:58:30.692Z</time>
      </trkpt>
      <trkpt lat="46.07481" lon="6.12402">
        <ele>1354.4</ele>
        <time>2020-12-26T13:58:31.653Z</time>
      </trkpt>
      <trkpt lat="46.07485" lon="6.12411">
        <ele>1354.2</ele>
        <time>2020-12-26T13:58:35.653Z</time>
      </trkpt>
      <trkpt lat="46.07487" lon="6.12413">
        <ele>1354.4</ele>
        <time>2020-12-26T13:58:36.694Z</time>
      </trkpt>
      <trkpt lat="46.07493" lon="6.1242">
        <ele>1355</ele>
        <time>2020-12-26T13:58:40.651Z</time>
      </trkpt>
      <trkpt lat="46.07495" lon="6.12421">
        <ele>1355.4</ele>
        <time>2020-12-26T13:58:41.643Z</time>
      </trkpt>
      <trkpt lat="46.07501" lon="6.12428">
        <ele>1356.4</ele>
        <time>2020-12-26T13:58:45.646Z</time>
      </trkpt>
      <trkpt lat="46.07502" lon="6.1243">
        <ele>1356.6</ele>
        <time>2020-12-26T13:58:46.683Z</time>
      </trkpt>
      <trkpt lat="46.07508" lon="6.12436">
        <ele>1357.7</ele>
        <time>2020-12-26T13:58:50.642Z</time>
      </trkpt>
      <trkpt lat="46.0751" lon="6.12437">
        <ele>1358</ele>
        <time>2020-12-26T13:58:51.641Z</time>
      </trkpt>
      <trkpt lat="46.07516" lon="6.12442">
        <ele>1358.2</ele>
        <time>2020-12-26T13:58:55.650Z</time>
      </trkpt>
      <trkpt lat="46.07518" lon="6.12443">
        <ele>1358.2</ele>
        <time>2020-12-26T13:58:56.665Z</time>
      </trkpt>
      <trkpt lat="46.07524" lon="6.12447">
        <ele>1359</ele>
        <time>2020-12-26T13:59:00.655Z</time>
      </trkpt>
      <trkpt lat="46.07526" lon="6.12449">
        <ele>1359.2</ele>
        <time>2020-12-26T13:59:01.641Z</time>
      </trkpt>
      <trkpt lat="46.07532" lon="6.12457">
        <ele>1359.9</ele>
        <time>2020-12-26T13:59:06.650Z</time>
      </trkpt>
      <trkpt lat="46.07533" lon="6.12458">
        <ele>1360.2</ele>
        <time>2020-12-26T13:59:07.655Z</time>
      </trkpt>
      <trkpt lat="46.07541" lon="6.12463">
        <ele>1361.7</ele>
        <time>2020-12-26T13:59:12.662Z</time>
      </trkpt>
      <trkpt lat="46.07542" lon="6.12464">
        <ele>1361.8</ele>
        <time>2020-12-26T13:59:13.639Z</time>
      </trkpt>
      <trkpt lat="46.07548" lon="6.12472">
        <ele>1362.5</ele>
        <time>2020-12-26T13:59:18.677Z</time>
      </trkpt>
      <trkpt lat="46.07549" lon="6.12473">
        <ele>1362.6</ele>
        <time>2020-12-26T13:59:19.662Z</time>
      </trkpt>
      <trkpt lat="46.07556" lon="6.12481">
        <ele>1363.8</ele>
        <time>2020-12-26T13:59:30.656Z</time>
      </trkpt>
      <trkpt lat="46.07557" lon="6.12481">
        <ele>1363.9</ele>
        <time>2020-12-26T13:59:31.652Z</time>
      </trkpt>
      <trkpt lat="46.07564" lon="6.12485">
        <ele>1364.5</ele>
        <time>2020-12-26T13:59:39.656Z</time>
      </trkpt>
      <trkpt lat="46.07565" lon="6.12486">
        <ele>1364.8</ele>
        <time>2020-12-26T13:59:40.660Z</time>
      </trkpt>
      <trkpt lat="46.07573" lon="6.1249">
        <ele>1365.5</ele>
        <time>2020-12-26T13:59:46.715Z</time>
      </trkpt>
      <trkpt lat="46.07574" lon="6.1249">
        <ele>1365.6</ele>
        <time>2020-12-26T13:59:47.654Z</time>
      </trkpt>
      <trkpt lat="46.07581" lon="6.12495">
        <ele>1366.2</ele>
        <time>2020-12-26T13:59:53.655Z</time>
      </trkpt>
      <trkpt lat="46.07583" lon="6.12496">
        <ele>1366.2</ele>
        <time>2020-12-26T13:59:54.655Z</time>
      </trkpt>
      <trkpt lat="46.0759" lon="6.12501">
        <ele>1367.1</ele>
        <time>2020-12-26T13:59:58.656Z</time>
      </trkpt>
      <trkpt lat="46.07592" lon="6.12502">
        <ele>1367.3</ele>
        <time>2020-12-26T13:59:59.658Z</time>
      </trkpt>
      <trkpt lat="46.076" lon="6.12508">
        <ele>1367.8</ele>
        <time>2020-12-26T14:00:03.653Z</time>
      </trkpt>
      <trkpt lat="46.07601" lon="6.12509">
        <ele>1368</ele>
        <time>2020-12-26T14:00:04.646Z</time>
      </trkpt>
      <trkpt lat="46.07609" lon="6.12512">
        <ele>1369.6</ele>
        <time>2020-12-26T14:00:09.659Z</time>
      </trkpt>
      <trkpt lat="46.07611" lon="6.12512">
        <ele>1370</ele>
        <time>2020-12-26T14:00:10.695Z</time>
      </trkpt>
      <trkpt lat="46.07619" lon="6.12518">
        <ele>1372.1</ele>
        <time>2020-12-26T14:00:17.649Z</time>
      </trkpt>
      <trkpt lat="46.0762" lon="6.12518">
        <ele>1372.3</ele>
        <time>2020-12-26T14:00:18.653Z</time>
      </trkpt>
      <trkpt lat="46.07627" lon="6.12525">
        <ele>1373.6</ele>
        <time>2020-12-26T14:00:24.658Z</time>
      </trkpt>
      <trkpt lat="46.07628" lon="6.12526">
        <ele>1373.9</ele>
        <time>2020-12-26T14:00:25.654Z</time>
      </trkpt>
      <trkpt lat="46.07636" lon="6.1253">
        <ele>1375</ele>
        <time>2020-12-26T14:00:30.662Z</time>
      </trkpt>
      <trkpt lat="46.07638" lon="6.12531">
        <ele>1375.3</ele>
        <time>2020-12-26T14:00:31.699Z</time>
      </trkpt>
      <trkpt lat="46.07645" lon="6.12537">
        <ele>1375.8</ele>
        <time>2020-12-26T14:00:37.647Z</time>
      </trkpt>
      <trkpt lat="46.07646" lon="6.12538">
        <ele>1375.8</ele>
        <time>2020-12-26T14:00:38.658Z</time>
      </trkpt>
      <trkpt lat="46.07655" lon="6.1254">
        <ele>1376.2</ele>
        <time>2020-12-26T14:00:47.656Z</time>
      </trkpt>
      <trkpt lat="46.07655" lon="6.1254">
        <ele>1376.4</ele>
        <time>2020-12-26T14:00:48.661Z</time>
      </trkpt>
      <trkpt lat="46.07663" lon="6.12545">
        <ele>1379.4</ele>
        <time>2020-12-26T14:01:03.693Z</time>
      </trkpt>
      <trkpt lat="46.07664" lon="6.12545">
        <ele>1379.7</ele>
        <time>2020-12-26T14:01:04.656Z</time>
      </trkpt>
      <trkpt lat="46.07672" lon="6.12548">
        <ele>1382.5</ele>
        <time>2020-12-26T14:01:16.647Z</time>
      </trkpt>
      <trkpt lat="46.07673" lon="6.12549">
        <ele>1382.7</ele>
        <time>2020-12-26T14:01:17.656Z</time>
      </trkpt>
      <trkpt lat="46.07681" lon="6.12551">
        <ele>1383.1</ele>
        <time>2020-12-26T14:01:26.654Z</time>
      </trkpt>
      <trkpt lat="46.07682" lon="6.12552">
        <ele>1383.1</ele>
        <time>2020-12-26T14:01:27.644Z</time>
      </trkpt>
      <trkpt lat="46.07689" lon="6.12558">
        <ele>1384.1</ele>
        <time>2020-12-26T14:01:42.654Z</time>
      </trkpt>
      <trkpt lat="46.0769" lon="6.1256">
        <ele>1384.3</ele>
        <time>2020-12-26T14:01:43.638Z</time>
      </trkpt>
      <trkpt lat="46.07697" lon="6.12564">
        <ele>1385.7</ele>
        <time>2020-12-26T14:01:48.659Z</time>
      </trkpt>
      <trkpt lat="46.07698" lon="6.12565">
        <ele>1386.2</ele>
        <time>2020-12-26T14:01:49.659Z</time>
      </trkpt>
      <trkpt lat="46.07707" lon="6.12567">
        <ele>1389.7</ele>
        <time>2020-12-26T14:01:56.652Z</time>
      </trkpt>
      <trkpt lat="46.07708" lon="6.12568">
        <ele>1390</ele>
        <time>2020-12-26T14:01:57.694Z</time>
      </trkpt>
      <trkpt lat="46.07716" lon="6.1257">
        <ele>1391.3</ele>
        <time>2020-12-26T14:02:05.649Z</time>
      </trkpt>
      <trkpt lat="46.07717" lon="6.12571">
        <ele>1391.4</ele>
        <time>2020-12-26T14:02:06.659Z</time>
      </trkpt>
      <trkpt lat="46.07726" lon="6.12571">
        <ele>1392.2</ele>
        <time>2020-12-26T14:02:16.656Z</time>
      </trkpt>
      <trkpt lat="46.07726" lon="6.12571">
        <ele>1392.2</ele>
        <time>2020-12-26T14:02:17.659Z</time>
      </trkpt>
      <trkpt lat="46.07734" lon="6.12577">
        <ele>1391.9</ele>
        <time>2020-12-26T14:02:31.652Z</time>
      </trkpt>
      <trkpt lat="46.07734" lon="6.12577">
        <ele>1391.9</ele>
        <time>2020-12-26T14:02:32.701Z</time>
      </trkpt>
      <trkpt lat="46.07734" lon="6.12576">
        <ele>1391.9</ele>
        <time>2020-12-26T14:02:35.651Z</time>
      </trkpt>
      <trkpt lat="46.07734" lon="6.12575">
        <ele>1391.9</ele>
        <time>2020-12-26T14:02:36.649Z</time>
      </trkpt>
      <trkpt lat="46.07734" lon="6.12575">
        <ele>1392.1</ele>
        <time>2020-12-26T14:02:43.634Z</time>
      </trkpt>
      <trkpt lat="46.07732" lon="6.12574">
        <ele>1391.9</ele>
        <time>2020-12-26T14:02:44.658Z</time>
      </trkpt>
      <trkpt lat="46.07728" lon="6.12573">
        <ele>1392.4</ele>
        <time>2020-12-26T14:03:21.637Z</time>
      </trkpt>
      <trkpt lat="46.07728" lon="6.12573">
        <ele>1392.4</ele>
        <time>2020-12-26T14:03:22.648Z</time>
      </trkpt>
      <trkpt lat="46.07728" lon="6.12573">
        <ele>1392.4</ele>
        <time>2020-12-26T14:03:41.686Z</time>
      </trkpt>
      <trkpt lat="46.07728" lon="6.12573">
        <ele>1392.4</ele>
        <time>2020-12-26T14:03:42.643Z</time>
      </trkpt>
      <trkpt lat="46.07736" lon="6.12574">
        <ele>1391.3</ele>
        <time>2020-12-26T14:04:01.687Z</time>
      </trkpt>
      <trkpt lat="46.07738" lon="6.12574">
        <ele>1390.9</ele>
        <time>2020-12-26T14:04:02.655Z</time>
      </trkpt>
      <trkpt lat="46.07745" lon="6.12575">
        <ele>1390.2</ele>
        <time>2020-12-26T14:04:05.638Z</time>
      </trkpt>
      <trkpt lat="46.07748" lon="6.12576">
        <ele>1389.9</ele>
        <time>2020-12-26T14:04:06.633Z</time>
      </trkpt>
      <trkpt lat="46.07756" lon="6.12578">
        <ele>1389</ele>
        <time>2020-12-26T14:04:09.632Z</time>
      </trkpt>
      <trkpt lat="46.07758" lon="6.12579">
        <ele>1388.7</ele>
        <time>2020-12-26T14:04:10.684Z</time>
      </trkpt>
      <trkpt lat="46.07767" lon="6.1258">
        <ele>1387.3</ele>
        <time>2020-12-26T14:04:20.667Z</time>
      </trkpt>
      <trkpt lat="46.07767" lon="6.1258">
        <ele>1387.3</ele>
        <time>2020-12-26T14:04:21.636Z</time>
      </trkpt>
      <trkpt lat="46.07767" lon="6.1258">
        <ele>1387.3</ele>
        <time>2020-12-26T14:04:27.675Z</time>
      </trkpt>
      <trkpt lat="46.07768" lon="6.1258">
        <ele>1387.3</ele>
        <time>2020-12-26T14:04:28.649Z</time>
      </trkpt>
      <trkpt lat="46.0776" lon="6.1258">
        <ele>1387.5</ele>
        <time>2020-12-26T14:04:32.661Z</time>
      </trkpt>
      <trkpt lat="46.07758" lon="6.1258">
        <ele>1387.5</ele>
        <time>2020-12-26T14:04:33.644Z</time>
      </trkpt>
      <trkpt lat="46.0775" lon="6.12579">
        <ele>1388.1</ele>
        <time>2020-12-26T14:04:39.658Z</time>
      </trkpt>
      <trkpt lat="46.07748" lon="6.12579">
        <ele>1388.3</ele>
        <time>2020-12-26T14:04:40.640Z</time>
      </trkpt>
      <trkpt lat="46.07739" lon="6.12577">
        <ele>1389.5</ele>
        <time>2020-12-26T14:04:47.651Z</time>
      </trkpt>
      <trkpt lat="46.07739" lon="6.12577">
        <ele>1389.8</ele>
        <time>2020-12-26T14:04:48.638Z</time>
      </trkpt>
      <trkpt lat="46.07731" lon="6.12575">
        <ele>1389.8</ele>
        <time>2020-12-26T14:04:55.640Z</time>
      </trkpt>
      <trkpt lat="46.07729" lon="6.12574">
        <ele>1389.9</ele>
        <time>2020-12-26T14:04:56.627Z</time>
      </trkpt>
      <trkpt lat="46.07729" lon="6.12573">
        <ele>1390</ele>
        <time>2020-12-26T14:05:00.691Z</time>
      </trkpt>
      <trkpt lat="46.07729" lon="6.12573">
        <ele>1390</ele>
        <time>2020-12-26T14:05:01.655Z</time>
      </trkpt>
      <trkpt lat="46.07729" lon="6.12573">
        <ele>1390</ele>
        <time>2020-12-26T14:05:29.637Z</time>
      </trkpt>
      <trkpt lat="46.07727" lon="6.12573">
        <ele>1390</ele>
        <time>2020-12-26T14:05:30.680Z</time>
      </trkpt>
      <trkpt lat="46.07728" lon="6.12574">
        <ele>1390</ele>
        <time>2020-12-26T14:05:38.647Z</time>
      </trkpt>
      <trkpt lat="46.07728" lon="6.12573">
        <ele>1390</ele>
        <time>2020-12-26T14:05:39.640Z</time>
      </trkpt>
      <trkpt lat="46.07727" lon="6.12573">
        <ele>1390</ele>
        <time>2020-12-26T14:06:08.638Z</time>
      </trkpt>
      <trkpt lat="46.07727" lon="6.12574">
        <ele>1390.1</ele>
        <time>2020-12-26T14:06:09.648Z</time>
      </trkpt>
      <trkpt lat="46.07727" lon="6.12574">
        <ele>1390.1</ele>
        <time>2020-12-26T14:06:10.643Z</time>
      </trkpt>
      <trkpt lat="46.07728" lon="6.12574">
        <ele>1390</ele>
        <time>2020-12-26T14:06:29.643Z</time>
      </trkpt>
      <trkpt lat="46.07727" lon="6.12574">
        <ele>1389.9</ele>
        <time>2020-12-26T14:06:30.623Z</time>
      </trkpt>
      <trkpt lat="46.07725" lon="6.12576">
        <ele>1389.8</ele>
        <time>2020-12-26T14:06:33.638Z</time>
      </trkpt>
      <trkpt lat="46.07725" lon="6.12577">
        <ele>1389.8</ele>
        <time>2020-12-26T14:06:34.656Z</time>
      </trkpt>
      <trkpt lat="46.07724" lon="6.12577">
        <ele>1389.9</ele>
        <time>2020-12-26T14:06:42.657Z</time>
      </trkpt>
      <trkpt lat="46.07724" lon="6.12577">
        <ele>1390</ele>
        <time>2020-12-26T14:06:43.642Z</time>
      </trkpt>
      <trkpt lat="46.07722" lon="6.12577">
        <ele>1390.2</ele>
        <time>2020-12-26T14:06:48.648Z</time>
      </trkpt>
      <trkpt lat="46.07722" lon="6.12577">
        <ele>1390.3</ele>
        <time>2020-12-26T14:06:49.649Z</time>
      </trkpt>
      <trkpt lat="46.07722" lon="6.12576">
        <ele>1390.5</ele>
        <time>2020-12-26T14:07:16.654Z</time>
      </trkpt>
      <trkpt lat="46.07722" lon="6.12576">
        <ele>1390.6</ele>
        <time>2020-12-26T14:07:17.644Z</time>
      </trkpt>
      <trkpt lat="46.07722" lon="6.12575">
        <ele>1390.5</ele>
        <time>2020-12-26T14:07:18.667Z</time>
      </trkpt>
      <trkpt lat="46.07722" lon="6.12575">
        <ele>1390.4</ele>
        <time>2020-12-26T14:08:24.665Z</time>
      </trkpt>
      <trkpt lat="46.07722" lon="6.12575">
        <ele>1390.1</ele>
        <time>2020-12-26T14:08:25.661Z</time>
      </trkpt>
      <trkpt lat="46.07722" lon="6.12575">
        <ele>1390.2</ele>
        <time>2020-12-26T14:08:26.649Z</time>
      </trkpt>
      <trkpt lat="46.07722" lon="6.12575">
        <ele>1389.9</ele>
        <time>2020-12-26T14:08:50.655Z</time>
      </trkpt>
      <trkpt lat="46.07723" lon="6.12575">
        <ele>1389.3</ele>
        <time>2020-12-26T14:08:51.625Z</time>
      </trkpt>
      <trkpt lat="46.07725" lon="6.12575">
        <ele>1389.2</ele>
        <time>2020-12-26T14:08:55.645Z</time>
      </trkpt>
      <trkpt lat="46.07725" lon="6.12575">
        <ele>1389.2</ele>
        <time>2020-12-26T14:08:56.647Z</time>
      </trkpt>
      <trkpt lat="46.07725" lon="6.12575">
        <ele>1388.8</ele>
        <time>2020-12-26T14:08:57.635Z</time>
      </trkpt>
      <trkpt lat="46.07725" lon="6.12575">
        <ele>1388.8</ele>
        <time>2020-12-26T14:08:58.670Z</time>
      </trkpt>
      <trkpt lat="46.07725" lon="6.12574">
        <ele>1388.7</ele>
        <time>2020-12-26T14:09:11.690Z</time>
      </trkpt>
      <trkpt lat="46.07725" lon="6.12574">
        <ele>1388.9</ele>
        <time>2020-12-26T14:09:12.641Z</time>
      </trkpt>
      <trkpt lat="46.07716" lon="6.12574">
        <ele>1388.9</ele>
        <time>2020-12-26T14:09:17.647Z</time>
      </trkpt>
      <trkpt lat="46.07714" lon="6.12573">
        <ele>1388.8</ele>
        <time>2020-12-26T14:09:18.689Z</time>
      </trkpt>
      <trkpt lat="46.07707" lon="6.12567">
        <ele>1387.9</ele>
        <time>2020-12-26T14:09:22.650Z</time>
      </trkpt>
      <trkpt lat="46.07704" lon="6.12566">
        <ele>1387.8</ele>
        <time>2020-12-26T14:09:23.675Z</time>
      </trkpt>
      <trkpt lat="46.07696" lon="6.12563">
        <ele>1386.7</ele>
        <time>2020-12-26T14:09:26.658Z</time>
      </trkpt>
      <trkpt lat="46.07694" lon="6.12562">
        <ele>1386.6</ele>
        <time>2020-12-26T14:09:27.643Z</time>
      </trkpt>
      <trkpt lat="46.07687" lon="6.12557">
        <ele>1386</ele>
        <time>2020-12-26T14:09:30.704Z</time>
      </trkpt>
      <trkpt lat="46.07684" lon="6.12556">
        <ele>1385.7</ele>
        <time>2020-12-26T14:09:31.640Z</time>
      </trkpt>
      <trkpt lat="46.07677" lon="6.12551">
        <ele>1385.1</ele>
        <time>2020-12-26T14:09:34.649Z</time>
      </trkpt>
      <trkpt lat="46.07674" lon="6.1255">
        <ele>1384.9</ele>
        <time>2020-12-26T14:09:35.652Z</time>
      </trkpt>
      <trkpt lat="46.07668" lon="6.12547">
        <ele>1384.4</ele>
        <time>2020-12-26T14:09:37.652Z</time>
      </trkpt>
      <trkpt lat="46.07666" lon="6.12544">
        <ele>1384</ele>
        <time>2020-12-26T14:09:38.658Z</time>
      </trkpt>
      <trkpt lat="46.07657" lon="6.1254">
        <ele>1382.7</ele>
        <time>2020-12-26T14:09:41.659Z</time>
      </trkpt>
      <trkpt lat="46.07654" lon="6.12539">
        <ele>1382.3</ele>
        <time>2020-12-26T14:09:42.649Z</time>
      </trkpt>
      <trkpt lat="46.07647" lon="6.12537">
        <ele>1381.2</ele>
        <time>2020-12-26T14:09:45.644Z</time>
      </trkpt>
      <trkpt lat="46.07644" lon="6.12535">
        <ele>1380.7</ele>
        <time>2020-12-26T14:09:46.660Z</time>
      </trkpt>
      <trkpt lat="46.07642" lon="6.12533">
        <ele>1380.2</ele>
        <time>2020-12-26T14:09:47.697Z</time>
      </trkpt>
      <trkpt lat="46.07642" lon="6.12533">
        <ele>1379.3</ele>
        <time>2020-12-26T14:09:49.651Z</time>
      </trkpt>
      <trkpt lat="46.07637" lon="6.12529">
        <ele>1378.8</ele>
        <time>2020-12-26T14:09:50.665Z</time>
      </trkpt>
      <trkpt lat="46.0763" lon="6.12526">
        <ele>1377.2</ele>
        <time>2020-12-26T14:09:53.648Z</time>
      </trkpt>
      <trkpt lat="46.07627" lon="6.12524">
        <ele>1376.7</ele>
        <time>2020-12-26T14:09:54.661Z</time>
      </trkpt>
      <trkpt lat="46.0762" lon="6.1252">
        <ele>1375.5</ele>
        <time>2020-12-26T14:09:56.655Z</time>
      </trkpt>
      <trkpt lat="46.07616" lon="6.12518">
        <ele>1375</ele>
        <time>2020-12-26T14:09:57.636Z</time>
      </trkpt>
      <trkpt lat="46.07609" lon="6.12513">
        <ele>1373.9</ele>
        <time>2020-12-26T14:09:59.702Z</time>
      </trkpt>
      <trkpt lat="46.07606" lon="6.12512">
        <ele>1372.9</ele>
        <time>2020-12-26T14:10:00.654Z</time>
      </trkpt>
      <trkpt lat="46.07598" lon="6.12506">
        <ele>1370.1</ele>
        <time>2020-12-26T14:10:03.675Z</time>
      </trkpt>
      <trkpt lat="46.07596" lon="6.12504">
        <ele>1369.5</ele>
        <time>2020-12-26T14:10:04.653Z</time>
      </trkpt>
      <trkpt lat="46.07589" lon="6.125">
        <ele>1367.9</ele>
        <time>2020-12-26T14:10:07.654Z</time>
      </trkpt>
      <trkpt lat="46.07586" lon="6.12498">
        <ele>1367.3</ele>
        <time>2020-12-26T14:10:08.650Z</time>
      </trkpt>
      <trkpt lat="46.07578" lon="6.12493">
        <ele>1365.4</ele>
        <time>2020-12-26T14:10:11.650Z</time>
      </trkpt>
      <trkpt lat="46.07575" lon="6.12491">
        <ele>1364.9</ele>
        <time>2020-12-26T14:10:12.658Z</time>
      </trkpt>
      <trkpt lat="46.0757" lon="6.12488">
        <ele>1363.7</ele>
        <time>2020-12-26T14:10:14.656Z</time>
      </trkpt>
      <trkpt lat="46.07567" lon="6.12486">
        <ele>1363.1</ele>
        <time>2020-12-26T14:10:15.649Z</time>
      </trkpt>
      <trkpt lat="46.0756" lon="6.12481">
        <ele>1361.5</ele>
        <time>2020-12-26T14:10:18.653Z</time>
      </trkpt>
      <trkpt lat="46.07558" lon="6.12479">
        <ele>1361.1</ele>
        <time>2020-12-26T14:10:19.655Z</time>
      </trkpt>
      <trkpt lat="46.07553" lon="6.1247">
        <ele>1359.4</ele>
        <time>2020-12-26T14:10:23.650Z</time>
      </trkpt>
      <trkpt lat="46.07551" lon="6.12468">
        <ele>1359.2</ele>
        <time>2020-12-26T14:10:24.647Z</time>
      </trkpt>
      <trkpt lat="46.07546" lon="6.12462">
        <ele>1358.9</ele>
        <time>2020-12-26T14:10:27.665Z</time>
      </trkpt>
      <trkpt lat="46.07544" lon="6.1246">
        <ele>1358.6</ele>
        <time>2020-12-26T14:10:28.699Z</time>
      </trkpt>
      <trkpt lat="46.07538" lon="6.12454">
        <ele>1357.9</ele>
        <time>2020-12-26T14:10:31.661Z</time>
      </trkpt>
      <trkpt lat="46.07535" lon="6.12451">
        <ele>1357.6</ele>
        <time>2020-12-26T14:10:32.658Z</time>
      </trkpt>
      <trkpt lat="46.0753" lon="6.12444">
        <ele>1356.3</ele>
        <time>2020-12-26T14:10:35.672Z</time>
      </trkpt>
      <trkpt lat="46.07527" lon="6.12443">
        <ele>1355.7</ele>
        <time>2020-12-26T14:10:36.642Z</time>
      </trkpt>
      <trkpt lat="46.0752" lon="6.12438">
        <ele>1354.8</ele>
        <time>2020-12-26T14:10:39.651Z</time>
      </trkpt>
      <trkpt lat="46.07518" lon="6.12437">
        <ele>1354.3</ele>
        <time>2020-12-26T14:10:40.657Z</time>
      </trkpt>
      <trkpt lat="46.07511" lon="6.12432">
        <ele>1352.7</ele>
        <time>2020-12-26T14:10:43.634Z</time>
      </trkpt>
      <trkpt lat="46.07508" lon="6.1243">
        <ele>1352.3</ele>
        <time>2020-12-26T14:10:44.650Z</time>
      </trkpt>
      <trkpt lat="46.07502" lon="6.12423">
        <ele>1351.9</ele>
        <time>2020-12-26T14:10:47.659Z</time>
      </trkpt>
      <trkpt lat="46.07501" lon="6.12421">
        <ele>1351.7</ele>
        <time>2020-12-26T14:10:48.652Z</time>
      </trkpt>
      <trkpt lat="46.07495" lon="6.12413">
        <ele>1350.5</ele>
        <time>2020-12-26T14:10:51.708Z</time>
      </trkpt>
      <trkpt lat="46.07493" lon="6.1241">
        <ele>1350.2</ele>
        <time>2020-12-26T14:10:52.654Z</time>
      </trkpt>
      <trkpt lat="46.07489" lon="6.12403">
        <ele>1349.3</ele>
        <time>2020-12-26T14:10:54.653Z</time>
      </trkpt>
      <trkpt lat="46.07482" lon="6.12399">
        <ele>1349.1</ele>
        <time>2020-12-26T14:10:55.666Z</time>
      </trkpt>
      <trkpt lat="46.07475" lon="6.1239">
        <ele>1348.4</ele>
        <time>2020-12-26T14:10:58.651Z</time>
      </trkpt>
      <trkpt lat="46.07473" lon="6.12388">
        <ele>1348.1</ele>
        <time>2020-12-26T14:10:59.657Z</time>
      </trkpt>
      <trkpt lat="46.07466" lon="6.12383">
        <ele>1347.2</ele>
        <time>2020-12-26T14:11:02.648Z</time>
      </trkpt>
      <trkpt lat="46.07463" lon="6.12382">
        <ele>1346.8</ele>
        <time>2020-12-26T14:11:03.706Z</time>
      </trkpt>
      <trkpt lat="46.07456" lon="6.12379">
        <ele>1345.9</ele>
        <time>2020-12-26T14:11:05.653Z</time>
      </trkpt>
      <trkpt lat="46.07453" lon="6.12377">
        <ele>1345.5</ele>
        <time>2020-12-26T14:11:06.652Z</time>
      </trkpt>
      <trkpt lat="46.07445" lon="6.12373">
        <ele>1344.7</ele>
        <time>2020-12-26T14:11:09.711Z</time>
      </trkpt>
      <trkpt lat="46.07443" lon="6.12371">
        <ele>1344.6</ele>
        <time>2020-12-26T14:11:10.658Z</time>
      </trkpt>
      <trkpt lat="46.07436" lon="6.12366">
        <ele>1344</ele>
        <time>2020-12-26T14:11:13.634Z</time>
      </trkpt>
      <trkpt lat="46.07435" lon="6.12364">
        <ele>1343.8</ele>
        <time>2020-12-26T14:11:14.657Z</time>
      </trkpt>
      <trkpt lat="46.07432" lon="6.12363">
        <ele>1343.6</ele>
        <time>2020-12-26T14:11:15.694Z</time>
      </trkpt>
      <trkpt lat="46.0743" lon="6.12361">
        <ele>1343.4</ele>
        <time>2020-12-26T14:11:16.659Z</time>
      </trkpt>
      <trkpt lat="46.0743" lon="6.12361">
        <ele>1342.7</ele>
        <time>2020-12-26T14:11:18.657Z</time>
      </trkpt>
      <trkpt lat="46.07425" lon="6.12358">
        <ele>1342.5</ele>
        <time>2020-12-26T14:11:19.674Z</time>
      </trkpt>
      <trkpt lat="46.07419" lon="6.12353">
        <ele>1342.1</ele>
        <time>2020-12-26T14:11:22.656Z</time>
      </trkpt>
      <trkpt lat="46.07417" lon="6.12351">
        <ele>1342</ele>
        <time>2020-12-26T14:11:23.649Z</time>
      </trkpt>
      <trkpt lat="46.07412" lon="6.12349">
        <ele>1342.1</ele>
        <time>2020-12-26T14:11:25.655Z</time>
      </trkpt>
      <trkpt lat="46.07408" lon="6.12345">
        <ele>1342.3</ele>
        <time>2020-12-26T14:11:26.659Z</time>
      </trkpt>
      <trkpt lat="46.07401" lon="6.12339">
        <ele>1342.9</ele>
        <time>2020-12-26T14:11:28.652Z</time>
      </trkpt>
      <trkpt lat="46.07398" lon="6.12336">
        <ele>1343</ele>
        <time>2020-12-26T14:11:29.651Z</time>
      </trkpt>
      <trkpt lat="46.07391" lon="6.12331">
        <ele>1343.3</ele>
        <time>2020-12-26T14:11:32.636Z</time>
      </trkpt>
      <trkpt lat="46.07389" lon="6.12329">
        <ele>1343.5</ele>
        <time>2020-12-26T14:11:33.726Z</time>
      </trkpt>
      <trkpt lat="46.07383" lon="6.12323">
        <ele>1344.5</ele>
        <time>2020-12-26T14:11:37.645Z</time>
      </trkpt>
      <trkpt lat="46.07381" lon="6.12321">
        <ele>1344.7</ele>
        <time>2020-12-26T14:11:38.664Z</time>
      </trkpt>
      <trkpt lat="46.07374" lon="6.12314">
        <ele>1345.8</ele>
        <time>2020-12-26T14:11:42.655Z</time>
      </trkpt>
      <trkpt lat="46.07373" lon="6.12312">
        <ele>1346.1</ele>
        <time>2020-12-26T14:11:43.633Z</time>
      </trkpt>
      <trkpt lat="46.07365" lon="6.12305">
        <ele>1346.5</ele>
        <time>2020-12-26T14:11:47.652Z</time>
      </trkpt>
      <trkpt lat="46.07363" lon="6.12303">
        <ele>1346.1</ele>
        <time>2020-12-26T14:11:48.652Z</time>
      </trkpt>
      <trkpt lat="46.07357" lon="6.12296">
        <ele>1345.2</ele>
        <time>2020-12-26T14:11:51.698Z</time>
      </trkpt>
      <trkpt lat="46.07355" lon="6.12294">
        <ele>1345.3</ele>
        <time>2020-12-26T14:11:52.665Z</time>
      </trkpt>
      <trkpt lat="46.0735" lon="6.12286">
        <ele>1344.2</ele>
        <time>2020-12-26T14:11:55.662Z</time>
      </trkpt>
      <trkpt lat="46.07348" lon="6.12283">
        <ele>1343.7</ele>
        <time>2020-12-26T14:11:56.660Z</time>
      </trkpt>
      <trkpt lat="46.07341" lon="6.12276">
        <ele>1341.8</ele>
        <time>2020-12-26T14:11:59.669Z</time>
      </trkpt>
      <trkpt lat="46.07339" lon="6.12274">
        <ele>1341</ele>
        <time>2020-12-26T14:12:00.677Z</time>
      </trkpt>
      <trkpt lat="46.07332" lon="6.12267">
        <ele>1338.9</ele>
        <time>2020-12-26T14:12:03.654Z</time>
      </trkpt>
      <trkpt lat="46.07329" lon="6.12265">
        <ele>1338.3</ele>
        <time>2020-12-26T14:12:04.662Z</time>
      </trkpt>
      <trkpt lat="46.07321" lon="6.1226">
        <ele>1336.7</ele>
        <time>2020-12-26T14:12:07.650Z</time>
      </trkpt>
      <trkpt lat="46.07319" lon="6.12259">
        <ele>1336.2</ele>
        <time>2020-12-26T14:12:08.662Z</time>
      </trkpt>
      <trkpt lat="46.07311" lon="6.12253">
        <ele>1334.4</ele>
        <time>2020-12-26T14:12:11.659Z</time>
      </trkpt>
      <trkpt lat="46.07308" lon="6.12251">
        <ele>1334.1</ele>
        <time>2020-12-26T14:12:12.649Z</time>
      </trkpt>
      <trkpt lat="46.07302" lon="6.12248">
        <ele>1332.9</ele>
        <time>2020-12-26T14:12:14.664Z</time>
      </trkpt>
      <trkpt lat="46.073" lon="6.12245">
        <ele>1332.4</ele>
        <time>2020-12-26T14:12:15.649Z</time>
      </trkpt>
      <trkpt lat="46.07293" lon="6.12242">
        <ele>1331.3</ele>
        <time>2020-12-26T14:12:17.661Z</time>
      </trkpt>
      <trkpt lat="46.0729" lon="6.12241">
        <ele>1330.4</ele>
        <time>2020-12-26T14:12:18.652Z</time>
      </trkpt>
      <trkpt lat="46.07284" lon="6.12238">
        <ele>1328.9</ele>
        <time>2020-12-26T14:12:20.668Z</time>
      </trkpt>
      <trkpt lat="46.07281" lon="6.12237">
        <ele>1328.4</ele>
        <time>2020-12-26T14:12:21.714Z</time>
      </trkpt>
      <trkpt lat="46.07274" lon="6.12234">
        <ele>1326.8</ele>
        <time>2020-12-26T14:12:23.656Z</time>
      </trkpt>
      <trkpt lat="46.0727" lon="6.12232">
        <ele>1325.9</ele>
        <time>2020-12-26T14:12:24.678Z</time>
      </trkpt>
      <trkpt lat="46.07263" lon="6.12229">
        <ele>1324.7</ele>
        <time>2020-12-26T14:12:26.667Z</time>
      </trkpt>
      <trkpt lat="46.0726" lon="6.12228">
        <ele>1324.2</ele>
        <time>2020-12-26T14:12:27.703Z</time>
      </trkpt>
      <trkpt lat="46.07252" lon="6.12226">
        <ele>1323</ele>
        <time>2020-12-26T14:12:29.667Z</time>
      </trkpt>
      <trkpt lat="46.07248" lon="6.12225">
        <ele>1322.4</ele>
        <time>2020-12-26T14:12:30.657Z</time>
      </trkpt>
      <trkpt lat="46.0724" lon="6.12224">
        <ele>1320.6</ele>
        <time>2020-12-26T14:12:32.672Z</time>
      </trkpt>
      <trkpt lat="46.07237" lon="6.12223">
        <ele>1319.9</ele>
        <time>2020-12-26T14:12:33.705Z</time>
      </trkpt>
      <trkpt lat="46.07229" lon="6.12224">
        <ele>1318.7</ele>
        <time>2020-12-26T14:12:35.655Z</time>
      </trkpt>
      <trkpt lat="46.07226" lon="6.12224">
        <ele>1317.6</ele>
        <time>2020-12-26T14:12:36.651Z</time>
      </trkpt>
      <trkpt lat="46.07219" lon="6.12223">
        <ele>1315.7</ele>
        <time>2020-12-26T14:12:38.657Z</time>
      </trkpt>
      <trkpt lat="46.07216" lon="6.12223">
        <ele>1314.8</ele>
        <time>2020-12-26T14:12:39.691Z</time>
      </trkpt>
      <trkpt lat="46.07209" lon="6.12222">
        <ele>1313.6</ele>
        <time>2020-12-26T14:12:41.650Z</time>
      </trkpt>
      <trkpt lat="46.07205" lon="6.12222">
        <ele>1312.7</ele>
        <time>2020-12-26T14:12:42.650Z</time>
      </trkpt>
      <trkpt lat="46.07199" lon="6.12222">
        <ele>1310.8</ele>
        <time>2020-12-26T14:12:44.663Z</time>
      </trkpt>
      <trkpt lat="46.07196" lon="6.12222">
        <ele>1309.9</ele>
        <time>2020-12-26T14:12:45.653Z</time>
      </trkpt>
      <trkpt lat="46.07189" lon="6.12222">
        <ele>1308.1</ele>
        <time>2020-12-26T14:12:47.658Z</time>
      </trkpt>
      <trkpt lat="46.07186" lon="6.12222">
        <ele>1307.2</ele>
        <time>2020-12-26T14:12:48.656Z</time>
      </trkpt>
      <trkpt lat="46.07179" lon="6.12222">
        <ele>1305.6</ele>
        <time>2020-12-26T14:12:50.662Z</time>
      </trkpt>
      <trkpt lat="46.07176" lon="6.12222">
        <ele>1304.3</ele>
        <time>2020-12-26T14:12:51.704Z</time>
      </trkpt>
      <trkpt lat="46.07169" lon="6.12223">
        <ele>1302.4</ele>
        <time>2020-12-26T14:12:53.657Z</time>
      </trkpt>
      <trkpt lat="46.07166" lon="6.12224">
        <ele>1301.4</ele>
        <time>2020-12-26T14:12:54.649Z</time>
      </trkpt>
      <trkpt lat="46.07159" lon="6.12224">
        <ele>1299.2</ele>
        <time>2020-12-26T14:12:56.654Z</time>
      </trkpt>
      <trkpt lat="46.07155" lon="6.12224">
        <ele>1298.1</ele>
        <time>2020-12-26T14:12:57.651Z</time>
      </trkpt>
      <trkpt lat="46.07148" lon="6.12224">
        <ele>1296.1</ele>
        <time>2020-12-26T14:12:59.657Z</time>
      </trkpt>
      <trkpt lat="46.07145" lon="6.12224">
        <ele>1295.2</ele>
        <time>2020-12-26T14:13:00.658Z</time>
      </trkpt>
      <trkpt lat="46.07137" lon="6.12224">
        <ele>1293.5</ele>
        <time>2020-12-26T14:13:02.655Z</time>
      </trkpt>
      <trkpt lat="46.07134" lon="6.12224">
        <ele>1293</ele>
        <time>2020-12-26T14:13:03.695Z</time>
      </trkpt>
      <trkpt lat="46.07127" lon="6.12223">
        <ele>1291.3</ele>
        <time>2020-12-26T14:13:05.652Z</time>
      </trkpt>
      <trkpt lat="46.07123" lon="6.12222">
        <ele>1290.6</ele>
        <time>2020-12-26T14:13:06.664Z</time>
      </trkpt>
      <trkpt lat="46.07117" lon="6.12221">
        <ele>1289.2</ele>
        <time>2020-12-26T14:13:08.653Z</time>
      </trkpt>
      <trkpt lat="46.07113" lon="6.1222">
        <ele>1288.8</ele>
        <time>2020-12-26T14:13:09.701Z</time>
      </trkpt>
      <trkpt lat="46.07107" lon="6.12218">
        <ele>1287.4</ele>
        <time>2020-12-26T14:13:11.649Z</time>
      </trkpt>
      <trkpt lat="46.07104" lon="6.12216">
        <ele>1286.6</ele>
        <time>2020-12-26T14:13:12.653Z</time>
      </trkpt>
      <trkpt lat="46.07099" lon="6.12212">
        <ele>1285.2</ele>
        <time>2020-12-26T14:13:14.655Z</time>
      </trkpt>
      <trkpt lat="46.07096" lon="6.1221">
        <ele>1284.6</ele>
        <time>2020-12-26T14:13:15.694Z</time>
      </trkpt>
      <trkpt lat="46.07091" lon="6.12204">
        <ele>1283.1</ele>
        <time>2020-12-26T14:13:17.653Z</time>
      </trkpt>
      <trkpt lat="46.07089" lon="6.122">
        <ele>1282.2</ele>
        <time>2020-12-26T14:13:18.655Z</time>
      </trkpt>
      <trkpt lat="46.07085" lon="6.12193">
        <ele>1280.7</ele>
        <time>2020-12-26T14:13:20.658Z</time>
      </trkpt>
      <trkpt lat="46.07083" lon="6.1219">
        <ele>1280</ele>
        <time>2020-12-26T14:13:21.696Z</time>
      </trkpt>
      <trkpt lat="46.07079" lon="6.12183">
        <ele>1278.6</ele>
        <time>2020-12-26T14:13:23.663Z</time>
      </trkpt>
      <trkpt lat="46.07077" lon="6.12179">
        <ele>1278</ele>
        <time>2020-12-26T14:13:24.662Z</time>
      </trkpt>
      <trkpt lat="46.07072" lon="6.12173">
        <ele>1277.3</ele>
        <time>2020-12-26T14:13:26.653Z</time>
      </trkpt>
      <trkpt lat="46.07071" lon="6.12169">
        <ele>1277.1</ele>
        <time>2020-12-26T14:13:27.702Z</time>
      </trkpt>
      <trkpt lat="46.07067" lon="6.12159">
        <ele>1276.6</ele>
        <time>2020-12-26T14:13:30.648Z</time>
      </trkpt>
      <trkpt lat="46.07066" lon="6.12155">
        <ele>1276.8</ele>
        <time>2020-12-26T14:13:31.661Z</time>
      </trkpt>
      <trkpt lat="46.07063" lon="6.12144">
        <ele>1276.2</ele>
        <time>2020-12-26T14:13:35.636Z</time>
      </trkpt>
      <trkpt lat="46.07062" lon="6.12141">
        <ele>1276.3</ele>
        <time>2020-12-26T14:13:36.660Z</time>
      </trkpt>
      <trkpt lat="46.0706" lon="6.12131">
        <ele>1276.1</ele>
        <time>2020-12-26T14:13:40.641Z</time>
      </trkpt>
      <trkpt lat="46.07058" lon="6.12129">
        <ele>1276.1</ele>
        <time>2020-12-26T14:13:41.656Z</time>
      </trkpt>
      <trkpt lat="46.07055" lon="6.12118">
        <ele>1277.8</ele>
        <time>2020-12-26T14:13:46.656Z</time>
      </trkpt>
      <trkpt lat="46.07055" lon="6.12115">
        <ele>1278.2</ele>
        <time>2020-12-26T14:13:47.654Z</time>
      </trkpt>
      <trkpt lat="46.07053" lon="6.12105">
        <ele>1279.1</ele>
        <time>2020-12-26T14:13:51.695Z</time>
      </trkpt>
      <trkpt lat="46.07053" lon="6.12101">
        <ele>1279.2</ele>
        <time>2020-12-26T14:13:52.656Z</time>
      </trkpt>
      <trkpt lat="46.07053" lon="6.1209">
        <ele>1279.8</ele>
        <time>2020-12-26T14:13:55.652Z</time>
      </trkpt>
      <trkpt lat="46.07054" lon="6.12086">
        <ele>1279.8</ele>
        <time>2020-12-26T14:13:56.650Z</time>
      </trkpt>
      <trkpt lat="46.07055" lon="6.12073">
        <ele>1279.9</ele>
        <time>2020-12-26T14:13:59.652Z</time>
      </trkpt>
      <trkpt lat="46.07055" lon="6.12069">
        <ele>1280</ele>
        <time>2020-12-26T14:14:00.650Z</time>
      </trkpt>
      <trkpt lat="46.07057" lon="6.12057">
        <ele>1276.8</ele>
        <time>2020-12-26T14:14:05.640Z</time>
      </trkpt>
      <trkpt lat="46.07059" lon="6.12054">
        <ele>1275.8</ele>
        <time>2020-12-26T14:14:06.694Z</time>
      </trkpt>
      <trkpt lat="46.07059" lon="6.12043">
        <ele>1273.8</ele>
        <time>2020-12-26T14:14:09.669Z</time>
      </trkpt>
      <trkpt lat="46.07059" lon="6.12038">
        <ele>1273.4</ele>
        <time>2020-12-26T14:14:10.646Z</time>
      </trkpt>
      <trkpt lat="46.07057" lon="6.12026">
        <ele>1273.4</ele>
        <time>2020-12-26T14:14:13.653Z</time>
      </trkpt>
      <trkpt lat="46.07055" lon="6.12024">
        <ele>1273.4</ele>
        <time>2020-12-26T14:14:14.646Z</time>
      </trkpt>
      <trkpt lat="46.07051" lon="6.12013">
        <ele>1274.3</ele>
        <time>2020-12-26T14:14:21.644Z</time>
      </trkpt>
      <trkpt lat="46.07049" lon="6.12001">
        <ele>1274.3</ele>
        <time>2020-12-26T14:14:22.646Z</time>
      </trkpt>
      <trkpt lat="46.07049" lon="6.12001">
        <ele>1274.3</ele>
        <time>2020-12-26T14:14:23.672Z</time>
      </trkpt>
      <trkpt lat="46.07049" lon="6.12001">
        <ele>1274.3</ele>
        <time>2020-12-26T14:14:29.624Z</time>
      </trkpt>
      <trkpt lat="46.07049" lon="6.12001">
        <ele>1273.8</ele>
        <time>2020-12-26T14:14:30.634Z</time>
      </trkpt>
      <trkpt lat="46.07049" lon="6.12001">
        <ele>1274</ele>
        <time>2020-12-26T14:14:31.674Z</time>
      </trkpt>
      <trkpt lat="46.0705" lon="6.12001">
        <ele>1274.5</ele>
        <time>2020-12-26T14:14:32.629Z</time>
      </trkpt>
      <trkpt lat="46.0705" lon="6.12001">
        <ele>1274.5</ele>
        <time>2020-12-26T14:14:49.658Z</time>
      </trkpt>
      <trkpt lat="46.07051" lon="6.12002">
        <ele>1275.2</ele>
        <time>2020-12-26T14:14:50.668Z</time>
      </trkpt>
      <trkpt lat="46.07059" lon="6.11998">
        <ele>1277.1</ele>
        <time>2020-12-26T14:14:55.650Z</time>
      </trkpt>
      <trkpt lat="46.0706" lon="6.11998">
        <ele>1277.5</ele>
        <time>2020-12-26T14:14:56.641Z</time>
      </trkpt>
      <trkpt lat="46.07061" lon="6.11998">
        <ele>1277.7</ele>
        <time>2020-12-26T14:14:57.648Z</time>
      </trkpt>
      <trkpt lat="46.07061" lon="6.11998">
        <ele>1277.7</ele>
        <time>2020-12-26T14:14:59.655Z</time>
      </trkpt>
      <trkpt lat="46.0706" lon="6.11998">
        <ele>1277.6</ele>
        <time>2020-12-26T14:15:00.653Z</time>
      </trkpt>
      <trkpt lat="46.07059" lon="6.12003">
        <ele>1277</ele>
        <time>2020-12-26T14:15:06.677Z</time>
      </trkpt>
      <trkpt lat="46.07058" lon="6.12004">
        <ele>1276.9</ele>
        <time>2020-12-26T14:15:07.648Z</time>
      </trkpt>
      <trkpt lat="46.07058" lon="6.12004">
        <ele>1276.9</ele>
        <time>2020-12-26T14:15:37.653Z</time>
      </trkpt>
      <trkpt lat="46.07059" lon="6.12004">
        <ele>1277.4</ele>
        <time>2020-12-26T14:15:38.650Z</time>
      </trkpt>
      <trkpt lat="46.07065" lon="6.11997">
        <ele>1276.8</ele>
        <time>2020-12-26T14:15:45.660Z</time>
      </trkpt>
      <trkpt lat="46.07066" lon="6.11992">
        <ele>1275.8</ele>
        <time>2020-12-26T14:15:46.651Z</time>
      </trkpt>
      <trkpt lat="46.07068" lon="6.11981">
        <ele>1274.5</ele>
        <time>2020-12-26T14:15:48.649Z</time>
      </trkpt>
      <trkpt lat="46.07069" lon="6.11977">
        <ele>1273.9</ele>
        <time>2020-12-26T14:15:49.661Z</time>
      </trkpt>
      <trkpt lat="46.07071" lon="6.11972">
        <ele>1273.1</ele>
        <time>2020-12-26T14:15:52.677Z</time>
      </trkpt>
      <trkpt lat="46.07071" lon="6.11972">
        <ele>1273.1</ele>
        <time>2020-12-26T14:15:53.698Z</time>
      </trkpt>
      <trkpt lat="46.07071" lon="6.11971">
        <ele>1272.6</ele>
        <time>2020-12-26T14:15:54.664Z</time>
      </trkpt>
      <trkpt lat="46.07072" lon="6.1196">
        <ele>1270.7</ele>
        <time>2020-12-26T14:15:58.664Z</time>
      </trkpt>
      <trkpt lat="46.07072" lon="6.11956">
        <ele>1270.3</ele>
        <time>2020-12-26T14:15:59.701Z</time>
      </trkpt>
      <trkpt lat="46.07073" lon="6.11948">
        <ele>1269.3</ele>
        <time>2020-12-26T14:16:01.666Z</time>
      </trkpt>
      <trkpt lat="46.07075" lon="6.11943">
        <ele>1268.8</ele>
        <time>2020-12-26T14:16:02.665Z</time>
      </trkpt>
      <trkpt lat="46.07078" lon="6.11935">
        <ele>1267.9</ele>
        <time>2020-12-26T14:16:04.655Z</time>
      </trkpt>
      <trkpt lat="46.07079" lon="6.1193">
        <ele>1267.5</ele>
        <time>2020-12-26T14:16:05.640Z</time>
      </trkpt>
      <trkpt lat="46.07083" lon="6.11919">
        <ele>1266.3</ele>
        <time>2020-12-26T14:16:07.651Z</time>
      </trkpt>
      <trkpt lat="46.07086" lon="6.11914">
        <ele>1266</ele>
        <time>2020-12-26T14:16:08.670Z</time>
      </trkpt>
      <trkpt lat="46.07089" lon="6.1191">
        <ele>1266.2</ele>
        <time>2020-12-26T14:16:09.668Z</time>
      </trkpt>
      <trkpt lat="46.07089" lon="6.1191">
        <ele>1267</ele>
        <time>2020-12-26T14:16:11.649Z</time>
      </trkpt>
      <trkpt lat="46.07093" lon="6.11901">
        <ele>1267.3</ele>
        <time>2020-12-26T14:16:12.655Z</time>
      </trkpt>
      <trkpt lat="46.07098" lon="6.11893">
        <ele>1267.2</ele>
        <time>2020-12-26T14:16:15.667Z</time>
      </trkpt>
      <trkpt lat="46.071" lon="6.11889">
        <ele>1267</ele>
        <time>2020-12-26T14:16:16.696Z</time>
      </trkpt>
      <trkpt lat="46.07104" lon="6.11883">
        <ele>1266.4</ele>
        <time>2020-12-26T14:16:18.664Z</time>
      </trkpt>
      <trkpt lat="46.07106" lon="6.11879">
        <ele>1265.9</ele>
        <time>2020-12-26T14:16:19.664Z</time>
      </trkpt>
      <trkpt lat="46.07108" lon="6.11875">
        <ele>1265.5</ele>
        <time>2020-12-26T14:16:20.658Z</time>
      </trkpt>
      <trkpt lat="46.07112" lon="6.11869">
        <ele>1265</ele>
        <time>2020-12-26T14:16:21.649Z</time>
      </trkpt>
      <trkpt lat="46.07116" lon="6.11864">
        <ele>1264.7</ele>
        <time>2020-12-26T14:16:22.684Z</time>
      </trkpt>
      <trkpt lat="46.07119" lon="6.11859">
        <ele>1264.1</ele>
        <time>2020-12-26T14:16:23.659Z</time>
      </trkpt>
      <trkpt lat="46.07124" lon="6.11851">
        <ele>1263.3</ele>
        <time>2020-12-26T14:16:25.647Z</time>
      </trkpt>
      <trkpt lat="46.07126" lon="6.11847">
        <ele>1263</ele>
        <time>2020-12-26T14:16:26.656Z</time>
      </trkpt>
      <trkpt lat="46.07131" lon="6.1184">
        <ele>1262.4</ele>
        <time>2020-12-26T14:16:28.677Z</time>
      </trkpt>
      <trkpt lat="46.07133" lon="6.11837">
        <ele>1262.1</ele>
        <time>2020-12-26T14:16:29.661Z</time>
      </trkpt>
      <trkpt lat="46.07138" lon="6.11831">
        <ele>1261.8</ele>
        <time>2020-12-26T14:16:31.661Z</time>
      </trkpt>
      <trkpt lat="46.07141" lon="6.11828">
        <ele>1261.6</ele>
        <time>2020-12-26T14:16:32.651Z</time>
      </trkpt>
      <trkpt lat="46.07145" lon="6.11821">
        <ele>1261.3</ele>
        <time>2020-12-26T14:16:34.661Z</time>
      </trkpt>
      <trkpt lat="46.07147" lon="6.11817">
        <ele>1261</ele>
        <time>2020-12-26T14:16:35.656Z</time>
      </trkpt>
      <trkpt lat="46.07151" lon="6.11811">
        <ele>1260.5</ele>
        <time>2020-12-26T14:16:37.654Z</time>
      </trkpt>
      <trkpt lat="46.07153" lon="6.11807">
        <ele>1260</ele>
        <time>2020-12-26T14:16:38.680Z</time>
      </trkpt>
      <trkpt lat="46.07157" lon="6.11801">
        <ele>1259.8</ele>
        <time>2020-12-26T14:16:40.663Z</time>
      </trkpt>
      <trkpt lat="46.0716" lon="6.11797">
        <ele>1259.8</ele>
        <time>2020-12-26T14:16:41.654Z</time>
      </trkpt>
      <trkpt lat="46.07164" lon="6.1179">
        <ele>1259.7</ele>
        <time>2020-12-26T14:16:43.647Z</time>
      </trkpt>
      <trkpt lat="46.07166" lon="6.11787">
        <ele>1259.7</ele>
        <time>2020-12-26T14:16:44.663Z</time>
      </trkpt>
      <trkpt lat="46.07172" lon="6.1178">
        <ele>1259.7</ele>
        <time>2020-12-26T14:16:47.656Z</time>
      </trkpt>
      <trkpt lat="46.07174" lon="6.11777">
        <ele>1259.8</ele>
        <time>2020-12-26T14:16:48.660Z</time>
      </trkpt>
      <trkpt lat="46.07179" lon="6.1177">
        <ele>1259.7</ele>
        <time>2020-12-26T14:16:51.646Z</time>
      </trkpt>
      <trkpt lat="46.07181" lon="6.11767">
        <ele>1259.7</ele>
        <time>2020-12-26T14:16:52.655Z</time>
      </trkpt>
      <trkpt lat="46.07186" lon="6.11757">
        <ele>1259.3</ele>
        <time>2020-12-26T14:16:55.685Z</time>
      </trkpt>
      <trkpt lat="46.07188" lon="6.11754">
        <ele>1259.1</ele>
        <time>2020-12-26T14:16:56.671Z</time>
      </trkpt>
      <trkpt lat="46.07193" lon="6.11745">
        <ele>1258.1</ele>
        <time>2020-12-26T14:16:59.658Z</time>
      </trkpt>
      <trkpt lat="46.07194" lon="6.11741">
        <ele>1257.8</ele>
        <time>2020-12-26T14:17:00.652Z</time>
      </trkpt>
      <trkpt lat="46.07198" lon="6.11733">
        <ele>1256.6</ele>
        <time>2020-12-26T14:17:03.694Z</time>
      </trkpt>
      <trkpt lat="46.07199" lon="6.1173">
        <ele>1256.2</ele>
        <time>2020-12-26T14:17:04.660Z</time>
      </trkpt>
      <trkpt lat="46.07203" lon="6.1172">
        <ele>1255.3</ele>
        <time>2020-12-26T14:17:08.654Z</time>
      </trkpt>
      <trkpt lat="46.07204" lon="6.11718">
        <ele>1255.2</ele>
        <time>2020-12-26T14:17:09.688Z</time>
      </trkpt>
      <trkpt lat="46.07209" lon="6.11708">
        <ele>1254.9</ele>
        <time>2020-12-26T14:17:13.645Z</time>
      </trkpt>
      <trkpt lat="46.0721" lon="6.11705">
        <ele>1255</ele>
        <time>2020-12-26T14:17:14.651Z</time>
      </trkpt>
      <trkpt lat="46.07214" lon="6.11696">
        <ele>1254.8</ele>
        <time>2020-12-26T14:17:18.656Z</time>
      </trkpt>
      <trkpt lat="46.07215" lon="6.11693">
        <ele>1254.4</ele>
        <time>2020-12-26T14:17:19.663Z</time>
      </trkpt>
      <trkpt lat="46.07209" lon="6.11687">
        <ele>1254.9</ele>
        <time>2020-12-26T14:17:34.646Z</time>
      </trkpt>
      <trkpt lat="46.07207" lon="6.11683">
        <ele>1255</ele>
        <time>2020-12-26T14:17:35.670Z</time>
      </trkpt>
      <trkpt lat="46.07206" lon="6.11672">
        <ele>1253.7</ele>
        <time>2020-12-26T14:17:38.651Z</time>
      </trkpt>
      <trkpt lat="46.07207" lon="6.11668">
        <ele>1252.8</ele>
        <time>2020-12-26T14:17:39.692Z</time>
      </trkpt>
      <trkpt lat="46.07206" lon="6.1166">
        <ele>1252.1</ele>
        <time>2020-12-26T14:17:41.662Z</time>
      </trkpt>
      <trkpt lat="46.07205" lon="6.11655">
        <ele>1251.9</ele>
        <time>2020-12-26T14:17:42.639Z</time>
      </trkpt>
      <trkpt lat="46.072" lon="6.11645">
        <ele>1252.1</ele>
        <time>2020-12-26T14:17:45.706Z</time>
      </trkpt>
      <trkpt lat="46.07198" lon="6.11642">
        <ele>1252.4</ele>
        <time>2020-12-26T14:17:46.665Z</time>
      </trkpt>
      <trkpt lat="46.07193" lon="6.11634">
        <ele>1252.8</ele>
        <time>2020-12-26T14:17:49.653Z</time>
      </trkpt>
      <trkpt lat="46.07191" lon="6.11633">
        <ele>1252.8</ele>
        <time>2020-12-26T14:17:50.654Z</time>
      </trkpt>
      <trkpt lat="46.07184" lon="6.11625">
        <ele>1253.3</ele>
        <time>2020-12-26T14:17:54.668Z</time>
      </trkpt>
      <trkpt lat="46.07182" lon="6.11622">
        <ele>1253.5</ele>
        <time>2020-12-26T14:17:55.668Z</time>
      </trkpt>
      <trkpt lat="46.07176" lon="6.11617">
        <ele>1254.1</ele>
        <time>2020-12-26T14:17:58.660Z</time>
      </trkpt>
      <trkpt lat="46.07174" lon="6.11616">
        <ele>1254.2</ele>
        <time>2020-12-26T14:17:59.658Z</time>
      </trkpt>
      <trkpt lat="46.07167" lon="6.1161">
        <ele>1254.5</ele>
        <time>2020-12-26T14:18:02.653Z</time>
      </trkpt>
      <trkpt lat="46.07157" lon="6.11607">
        <ele>1254.4</ele>
        <time>2020-12-26T14:18:03.707Z</time>
      </trkpt>
      <trkpt lat="46.07151" lon="6.11601">
        <ele>1254</ele>
        <time>2020-12-26T14:18:05.661Z</time>
      </trkpt>
      <trkpt lat="46.07149" lon="6.11598">
        <ele>1254</ele>
        <time>2020-12-26T14:18:06.661Z</time>
      </trkpt>
      <trkpt lat="46.07144" lon="6.11591">
        <ele>1253.7</ele>
        <time>2020-12-26T14:18:09.703Z</time>
      </trkpt>
      <trkpt lat="46.07141" lon="6.11588">
        <ele>1253.7</ele>
        <time>2020-12-26T14:18:10.653Z</time>
      </trkpt>
      <trkpt lat="46.07134" lon="6.11583">
        <ele>1253.5</ele>
        <time>2020-12-26T14:18:13.651Z</time>
      </trkpt>
      <trkpt lat="46.07133" lon="6.11582">
        <ele>1253.5</ele>
        <time>2020-12-26T14:18:14.659Z</time>
      </trkpt>
      <trkpt lat="46.07126" lon="6.11573">
        <ele>1254.8</ele>
        <time>2020-12-26T14:18:19.653Z</time>
      </trkpt>
      <trkpt lat="46.07125" lon="6.11571">
        <ele>1255.1</ele>
        <time>2020-12-26T14:18:20.658Z</time>
      </trkpt>
      <trkpt lat="46.07121" lon="6.11566">
        <ele>1256.3</ele>
        <time>2020-12-26T14:18:23.652Z</time>
      </trkpt>
      <trkpt lat="46.0712" lon="6.11564">
        <ele>1256.5</ele>
        <time>2020-12-26T14:18:24.664Z</time>
      </trkpt>
      <trkpt lat="46.0712" lon="6.11564">
        <ele>1256.9</ele>
        <time>2020-12-26T14:18:26.704Z</time>
      </trkpt>
      <trkpt lat="46.07118" lon="6.11561">
        <ele>1256.7</ele>
        <time>2020-12-26T14:18:27.655Z</time>
      </trkpt>
      <trkpt lat="46.07112" lon="6.11553">
        <ele>1256.2</ele>
        <time>2020-12-26T14:18:33.649Z</time>
      </trkpt>
      <trkpt lat="46.07111" lon="6.11551">
        <ele>1256.3</ele>
        <time>2020-12-26T14:18:34.652Z</time>
      </trkpt>
      <trkpt lat="46.07106" lon="6.11543">
        <ele>1256</ele>
        <time>2020-12-26T14:18:38.651Z</time>
      </trkpt>
      <trkpt lat="46.07103" lon="6.11538">
        <ele>1256.1</ele>
        <time>2020-12-26T14:18:39.657Z</time>
      </trkpt>
      <trkpt lat="46.07099" lon="6.11529">
        <ele>1256.4</ele>
        <time>2020-12-26T14:18:41.642Z</time>
      </trkpt>
      <trkpt lat="46.07097" lon="6.11524">
        <ele>1256.6</ele>
        <time>2020-12-26T14:18:42.644Z</time>
      </trkpt>
      <trkpt lat="46.07094" lon="6.11515">
        <ele>1257</ele>
        <time>2020-12-26T14:18:44.654Z</time>
      </trkpt>
      <trkpt lat="46.07092" lon="6.11511">
        <ele>1257.4</ele>
        <time>2020-12-26T14:18:45.661Z</time>
      </trkpt>
      <trkpt lat="46.07088" lon="6.11502">
        <ele>1258.7</ele>
        <time>2020-12-26T14:18:48.649Z</time>
      </trkpt>
      <trkpt lat="46.07087" lon="6.115">
        <ele>1259.3</ele>
        <time>2020-12-26T14:18:49.700Z</time>
      </trkpt>
      <trkpt lat="46.07078" lon="6.11502">
        <ele>1260.2</ele>
        <time>2020-12-26T14:19:03.656Z</time>
      </trkpt>
      <trkpt lat="46.07078" lon="6.11502">
        <ele>1260.2</ele>
        <time>2020-12-26T14:19:04.675Z</time>
      </trkpt>
      <trkpt lat="46.07072" lon="6.11492">
        <ele>1264.3</ele>
        <time>2020-12-26T14:19:15.653Z</time>
      </trkpt>
      <trkpt lat="46.07071" lon="6.11491">
        <ele>1265.1</ele>
        <time>2020-12-26T14:19:16.660Z</time>
      </trkpt>
      <trkpt lat="46.07064" lon="6.11494">
        <ele>1268</ele>
        <time>2020-12-26T14:19:23.658Z</time>
      </trkpt>
      <trkpt lat="46.07062" lon="6.11494">
        <ele>1268.3</ele>
        <time>2020-12-26T14:19:24.650Z</time>
      </trkpt>
      <trkpt lat="46.07054" lon="6.11496">
        <ele>1267.7</ele>
        <time>2020-12-26T14:19:28.653Z</time>
      </trkpt>
      <trkpt lat="46.07053" lon="6.11496">
        <ele>1268</ele>
        <time>2020-12-26T14:19:29.653Z</time>
      </trkpt>
      <trkpt lat="46.07045" lon="6.11499">
        <ele>1270.8</ele>
        <time>2020-12-26T14:19:37.654Z</time>
      </trkpt>
      <trkpt lat="46.07044" lon="6.115">
        <ele>1270.9</ele>
        <time>2020-12-26T14:19:38.652Z</time>
      </trkpt>
      <trkpt lat="46.07039" lon="6.11508">
        <ele>1271.6</ele>
        <time>2020-12-26T14:19:42.722Z</time>
      </trkpt>
      <trkpt lat="46.07037" lon="6.11511">
        <ele>1271.9</ele>
        <time>2020-12-26T14:19:43.634Z</time>
      </trkpt>
      <trkpt lat="46.07031" lon="6.11519">
        <ele>1273.4</ele>
        <time>2020-12-26T14:19:47.663Z</time>
      </trkpt>
      <trkpt lat="46.07029" lon="6.1152">
        <ele>1273.4</ele>
        <time>2020-12-26T14:19:48.703Z</time>
      </trkpt>
      <trkpt lat="46.07023" lon="6.11529">
        <ele>1275</ele>
        <time>2020-12-26T14:19:54.730Z</time>
      </trkpt>
      <trkpt lat="46.07023" lon="6.11532">
        <ele>1275.3</ele>
        <time>2020-12-26T14:19:55.660Z</time>
      </trkpt>
      <trkpt lat="46.07017" lon="6.11541">
        <ele>1276.1</ele>
        <time>2020-12-26T14:19:59.682Z</time>
      </trkpt>
      <trkpt lat="46.07017" lon="6.11544">
        <ele>1276.1</ele>
        <time>2020-12-26T14:20:00.709Z</time>
      </trkpt>
      <trkpt lat="46.07016" lon="6.11556">
        <ele>1275.9</ele>
        <time>2020-12-26T14:20:03.654Z</time>
      </trkpt>
      <trkpt lat="46.07018" lon="6.11563">
        <ele>1275.9</ele>
        <time>2020-12-26T14:20:04.669Z</time>
      </trkpt>
      <trkpt lat="46.0702" lon="6.1157">
        <ele>1275.5</ele>
        <time>2020-12-26T14:20:05.654Z</time>
      </trkpt>
      <trkpt lat="46.07021" lon="6.11576">
        <ele>1275.4</ele>
        <time>2020-12-26T14:20:06.656Z</time>
      </trkpt>
      <trkpt lat="46.07021" lon="6.11586">
        <ele>1275.3</ele>
        <time>2020-12-26T14:20:08.651Z</time>
      </trkpt>
      <trkpt lat="46.07021" lon="6.1159">
        <ele>1275.3</ele>
        <time>2020-12-26T14:20:09.669Z</time>
      </trkpt>
      <trkpt lat="46.07019" lon="6.11602">
        <ele>1275.1</ele>
        <time>2020-12-26T14:20:12.656Z</time>
      </trkpt>
      <trkpt lat="46.07018" lon="6.11605">
        <ele>1275</ele>
        <time>2020-12-26T14:20:13.645Z</time>
      </trkpt>
      <trkpt lat="46.07014" lon="6.11616">
        <ele>1275</ele>
        <time>2020-12-26T14:20:16.694Z</time>
      </trkpt>
      <trkpt lat="46.07013" lon="6.11619">
        <ele>1274.7</ele>
        <time>2020-12-26T14:20:17.656Z</time>
      </trkpt>
      <trkpt lat="46.07008" lon="6.11629">
        <ele>1274.2</ele>
        <time>2020-12-26T14:20:20.655Z</time>
      </trkpt>
      <trkpt lat="46.07006" lon="6.11633">
        <ele>1274</ele>
        <time>2020-12-26T14:20:21.658Z</time>
      </trkpt>
      <trkpt lat="46.07" lon="6.11642">
        <ele>1273.7</ele>
        <time>2020-12-26T14:20:24.656Z</time>
      </trkpt>
      <trkpt lat="46.06999" lon="6.11644">
        <ele>1273.7</ele>
        <time>2020-12-26T14:20:25.649Z</time>
      </trkpt>
      <trkpt lat="46.06994" lon="6.11653">
        <ele>1273.6</ele>
        <time>2020-12-26T14:20:28.738Z</time>
      </trkpt>
      <trkpt lat="46.06993" lon="6.11656">
        <ele>1273.6</ele>
        <time>2020-12-26T14:20:29.659Z</time>
      </trkpt>
      <trkpt lat="46.06988" lon="6.11665">
        <ele>1273.8</ele>
        <time>2020-12-26T14:20:32.682Z</time>
      </trkpt>
      <trkpt lat="46.06986" lon="6.11668">
        <ele>1273.6</ele>
        <time>2020-12-26T14:20:33.656Z</time>
      </trkpt>
      <trkpt lat="46.0698" lon="6.11674">
        <ele>1273.1</ele>
        <time>2020-12-26T14:20:36.626Z</time>
      </trkpt>
      <trkpt lat="46.06978" lon="6.11675">
        <ele>1272.9</ele>
        <time>2020-12-26T14:20:37.639Z</time>
      </trkpt>
      <trkpt lat="46.06972" lon="6.11681">
        <ele>1272.9</ele>
        <time>2020-12-26T14:20:41.686Z</time>
      </trkpt>
      <trkpt lat="46.06971" lon="6.11683">
        <ele>1272.6</ele>
        <time>2020-12-26T14:20:42.653Z</time>
      </trkpt>
      <trkpt lat="46.06962" lon="6.11688">
        <ele>1271.8</ele>
        <time>2020-12-26T14:20:47.660Z</time>
      </trkpt>
      <trkpt lat="46.0696" lon="6.11688">
        <ele>1271.6</ele>
        <time>2020-12-26T14:20:48.656Z</time>
      </trkpt>
      <trkpt lat="46.06954" lon="6.11691">
        <ele>1268.1</ele>
        <time>2020-12-26T14:20:55.654Z</time>
      </trkpt>
      <trkpt lat="46.06952" lon="6.11692">
        <ele>1268.3</ele>
        <time>2020-12-26T14:20:56.670Z</time>
      </trkpt>
      <trkpt lat="46.06944" lon="6.11698">
        <ele>1268.3</ele>
        <time>2020-12-26T14:20:58.654Z</time>
      </trkpt>
      <trkpt lat="46.06941" lon="6.11699">
        <ele>1268.2</ele>
        <time>2020-12-26T14:20:59.649Z</time>
      </trkpt>
      <trkpt lat="46.06933" lon="6.11702">
        <ele>1267.7</ele>
        <time>2020-12-26T14:21:04.689Z</time>
      </trkpt>
      <trkpt lat="46.06932" lon="6.11702">
        <ele>1267.4</ele>
        <time>2020-12-26T14:21:05.656Z</time>
      </trkpt>
      <trkpt lat="46.06924" lon="6.11707">
        <ele>1266.3</ele>
        <time>2020-12-26T14:21:11.654Z</time>
      </trkpt>
      <trkpt lat="46.06922" lon="6.11708">
        <ele>1266</ele>
        <time>2020-12-26T14:21:12.652Z</time>
      </trkpt>
      <trkpt lat="46.06915" lon="6.11712">
        <ele>1265</ele>
        <time>2020-12-26T14:21:15.703Z</time>
      </trkpt>
      <trkpt lat="46.0691" lon="6.11714">
        <ele>1264.8</ele>
        <time>2020-12-26T14:21:16.659Z</time>
      </trkpt>
      <trkpt lat="46.06906" lon="6.11715">
        <ele>1264.2</ele>
        <time>2020-12-26T14:21:17.650Z</time>
      </trkpt>
      <trkpt lat="46.06901" lon="6.11716">
        <ele>1263.4</ele>
        <time>2020-12-26T14:21:18.667Z</time>
      </trkpt>
      <trkpt lat="46.06893" lon="6.11718">
        <ele>1261.9</ele>
        <time>2020-12-26T14:21:20.660Z</time>
      </trkpt>
      <trkpt lat="46.0689" lon="6.11719">
        <ele>1261.3</ele>
        <time>2020-12-26T14:21:21.704Z</time>
      </trkpt>
      <trkpt lat="46.06882" lon="6.11721">
        <ele>1260.2</ele>
        <time>2020-12-26T14:21:23.660Z</time>
      </trkpt>
      <trkpt lat="46.06878" lon="6.11722">
        <ele>1260.1</ele>
        <time>2020-12-26T14:21:24.652Z</time>
      </trkpt>
      <trkpt lat="46.0687" lon="6.11723">
        <ele>1260.2</ele>
        <time>2020-12-26T14:21:26.658Z</time>
      </trkpt>
      <trkpt lat="46.06866" lon="6.11723">
        <ele>1260.1</ele>
        <time>2020-12-26T14:21:27.698Z</time>
      </trkpt>
      <trkpt lat="46.06859" lon="6.11725">
        <ele>1259.9</ele>
        <time>2020-12-26T14:21:29.654Z</time>
      </trkpt>
      <trkpt lat="46.06856" lon="6.11725">
        <ele>1259.9</ele>
        <time>2020-12-26T14:21:30.680Z</time>
      </trkpt>
      <trkpt lat="46.06849" lon="6.11727">
        <ele>1259.5</ele>
        <time>2020-12-26T14:21:32.659Z</time>
      </trkpt>
      <trkpt lat="46.06847" lon="6.11727">
        <ele>1259.3</ele>
        <time>2020-12-26T14:21:33.692Z</time>
      </trkpt>
      <trkpt lat="46.06839" lon="6.11728">
        <ele>1258</ele>
        <time>2020-12-26T14:21:36.673Z</time>
      </trkpt>
      <trkpt lat="46.06836" lon="6.11728">
        <ele>1257.6</ele>
        <time>2020-12-26T14:21:37.649Z</time>
      </trkpt>
      <trkpt lat="46.0683" lon="6.11729">
        <ele>1257.5</ele>
        <time>2020-12-26T14:21:39.694Z</time>
      </trkpt>
      <trkpt lat="46.06827" lon="6.1173">
        <ele>1257.5</ele>
        <time>2020-12-26T14:21:40.662Z</time>
      </trkpt>
      <trkpt lat="46.0682" lon="6.11731">
        <ele>1256.7</ele>
        <time>2020-12-26T14:21:42.668Z</time>
      </trkpt>
      <trkpt lat="46.06817" lon="6.11732">
        <ele>1256.5</ele>
        <time>2020-12-26T14:21:43.637Z</time>
      </trkpt>
      <trkpt lat="46.06811" lon="6.11734">
        <ele>1256.1</ele>
        <time>2020-12-26T14:21:45.695Z</time>
      </trkpt>
      <trkpt lat="46.06808" lon="6.11734">
        <ele>1256.2</ele>
        <time>2020-12-26T14:21:46.680Z</time>
      </trkpt>
      <trkpt lat="46.06801" lon="6.11736">
        <ele>1256.2</ele>
        <time>2020-12-26T14:21:48.655Z</time>
      </trkpt>
      <trkpt lat="46.06798" lon="6.11736">
        <ele>1256</ele>
        <time>2020-12-26T14:21:49.644Z</time>
      </trkpt>
      <trkpt lat="46.06791" lon="6.11739">
        <ele>1255.9</ele>
        <time>2020-12-26T14:21:51.640Z</time>
      </trkpt>
      <trkpt lat="46.06787" lon="6.11741">
        <ele>1255.5</ele>
        <time>2020-12-26T14:21:52.660Z</time>
      </trkpt>
      <trkpt lat="46.06781" lon="6.11745">
        <ele>1254.9</ele>
        <time>2020-12-26T14:21:54.657Z</time>
      </trkpt>
      <trkpt lat="46.06778" lon="6.11747">
        <ele>1254.7</ele>
        <time>2020-12-26T14:21:55.650Z</time>
      </trkpt>
      <trkpt lat="46.06773" lon="6.11751">
        <ele>1254.7</ele>
        <time>2020-12-26T14:21:57.652Z</time>
      </trkpt>
      <trkpt lat="46.0677" lon="6.11754">
        <ele>1254.6</ele>
        <time>2020-12-26T14:21:58.657Z</time>
      </trkpt>
      <trkpt lat="46.06764" lon="6.11758">
        <ele>1254.3</ele>
        <time>2020-12-26T14:22:00.666Z</time>
      </trkpt>
      <trkpt lat="46.06761" lon="6.1176">
        <ele>1254</ele>
        <time>2020-12-26T14:22:01.650Z</time>
      </trkpt>
      <trkpt lat="46.06754" lon="6.11765">
        <ele>1253</ele>
        <time>2020-12-26T14:22:04.652Z</time>
      </trkpt>
      <trkpt lat="46.06751" lon="6.11766">
        <ele>1252.6</ele>
        <time>2020-12-26T14:22:05.663Z</time>
      </trkpt>
      <trkpt lat="46.06745" lon="6.11769">
        <ele>1251.9</ele>
        <time>2020-12-26T14:22:07.670Z</time>
      </trkpt>
      <trkpt lat="46.06742" lon="6.11769">
        <ele>1251.4</ele>
        <time>2020-12-26T14:22:08.657Z</time>
      </trkpt>
      <trkpt lat="46.06734" lon="6.11772">
        <ele>1250.2</ele>
        <time>2020-12-26T14:22:10.659Z</time>
      </trkpt>
      <trkpt lat="46.06729" lon="6.11774">
        <ele>1249.5</ele>
        <time>2020-12-26T14:22:11.652Z</time>
      </trkpt>
      <trkpt lat="46.06725" lon="6.11776">
        <ele>1249</ele>
        <time>2020-12-26T14:22:12.653Z</time>
      </trkpt>
      <trkpt lat="46.0672" lon="6.11778">
        <ele>1248.2</ele>
        <time>2020-12-26T14:22:13.640Z</time>
      </trkpt>
      <trkpt lat="46.06713" lon="6.1178">
        <ele>1246.4</ele>
        <time>2020-12-26T14:22:15.649Z</time>
      </trkpt>
      <trkpt lat="46.06709" lon="6.11782">
        <ele>1245.9</ele>
        <time>2020-12-26T14:22:16.681Z</time>
      </trkpt>
      <trkpt lat="46.06702" lon="6.11785">
        <ele>1244.8</ele>
        <time>2020-12-26T14:22:18.649Z</time>
      </trkpt>
      <trkpt lat="46.06699" lon="6.11787">
        <ele>1243.9</ele>
        <time>2020-12-26T14:22:19.660Z</time>
      </trkpt>
      <trkpt lat="46.06692" lon="6.11792">
        <ele>1243.1</ele>
        <time>2020-12-26T14:22:21.649Z</time>
      </trkpt>
      <trkpt lat="46.06689" lon="6.11794">
        <ele>1242.9</ele>
        <time>2020-12-26T14:22:22.659Z</time>
      </trkpt>
      <trkpt lat="46.06683" lon="6.11798">
        <ele>1242.1</ele>
        <time>2020-12-26T14:22:24.653Z</time>
      </trkpt>
      <trkpt lat="46.0668" lon="6.11802">
        <ele>1242.1</ele>
        <time>2020-12-26T14:22:25.649Z</time>
      </trkpt>
      <trkpt lat="46.06674" lon="6.11808">
        <ele>1241.4</ele>
        <time>2020-12-26T14:22:27.659Z</time>
      </trkpt>
      <trkpt lat="46.06671" lon="6.1181">
        <ele>1241.1</ele>
        <time>2020-12-26T14:22:28.644Z</time>
      </trkpt>
      <trkpt lat="46.06666" lon="6.11815">
        <ele>1240.4</ele>
        <time>2020-12-26T14:22:30.654Z</time>
      </trkpt>
      <trkpt lat="46.06663" lon="6.11817">
        <ele>1239.9</ele>
        <time>2020-12-26T14:22:31.654Z</time>
      </trkpt>
      <trkpt lat="46.06657" lon="6.1182">
        <ele>1239.1</ele>
        <time>2020-12-26T14:22:33.649Z</time>
      </trkpt>
      <trkpt lat="46.06654" lon="6.11822">
        <ele>1238.4</ele>
        <time>2020-12-26T14:22:34.657Z</time>
      </trkpt>
      <trkpt lat="46.06648" lon="6.11825">
        <ele>1236.8</ele>
        <time>2020-12-26T14:22:36.636Z</time>
      </trkpt>
      <trkpt lat="46.06645" lon="6.11827">
        <ele>1236.1</ele>
        <time>2020-12-26T14:22:37.660Z</time>
      </trkpt>
      <trkpt lat="46.06638" lon="6.1183">
        <ele>1234.4</ele>
        <time>2020-12-26T14:22:39.656Z</time>
      </trkpt>
      <trkpt lat="46.06635" lon="6.11831">
        <ele>1233.4</ele>
        <time>2020-12-26T14:22:40.662Z</time>
      </trkpt>
      <trkpt lat="46.06629" lon="6.11835">
        <ele>1231.3</ele>
        <time>2020-12-26T14:22:42.659Z</time>
      </trkpt>
      <trkpt lat="46.06626" lon="6.11837">
        <ele>1230.3</ele>
        <time>2020-12-26T14:22:43.649Z</time>
      </trkpt>
      <trkpt lat="46.0662" lon="6.11842">
        <ele>1228.7</ele>
        <time>2020-12-26T14:22:45.659Z</time>
      </trkpt>
      <trkpt lat="46.06617" lon="6.11844">
        <ele>1227.8</ele>
        <time>2020-12-26T14:22:46.666Z</time>
      </trkpt>
      <trkpt lat="46.06611" lon="6.11848">
        <ele>1226.3</ele>
        <time>2020-12-26T14:22:48.700Z</time>
      </trkpt>
      <trkpt lat="46.06609" lon="6.1185">
        <ele>1225.4</ele>
        <time>2020-12-26T14:22:49.678Z</time>
      </trkpt>
      <trkpt lat="46.06601" lon="6.11855">
        <ele>1224</ele>
        <time>2020-12-26T14:22:52.657Z</time>
      </trkpt>
      <trkpt lat="46.06599" lon="6.11857">
        <ele>1223.5</ele>
        <time>2020-12-26T14:22:53.660Z</time>
      </trkpt>
      <trkpt lat="46.06591" lon="6.1186">
        <ele>1220.7</ele>
        <time>2020-12-26T14:22:57.669Z</time>
      </trkpt>
      <trkpt lat="46.06589" lon="6.11861">
        <ele>1220</ele>
        <time>2020-12-26T14:22:58.691Z</time>
      </trkpt>
      <trkpt lat="46.06581" lon="6.11866">
        <ele>1217.6</ele>
        <time>2020-12-26T14:23:02.723Z</time>
      </trkpt>
      <trkpt lat="46.06579" lon="6.11865">
        <ele>1217.1</ele>
        <time>2020-12-26T14:23:03.656Z</time>
      </trkpt>
      <trkpt lat="46.0657" lon="6.11863">
        <ele>1215.5</ele>
        <time>2020-12-26T14:23:10.667Z</time>
      </trkpt>
      <trkpt lat="46.06569" lon="6.11866">
        <ele>1215.2</ele>
        <time>2020-12-26T14:23:11.666Z</time>
      </trkpt>
      <trkpt lat="46.06563" lon="6.11869">
        <ele>1213.7</ele>
        <time>2020-12-26T14:23:16.662Z</time>
      </trkpt>
      <trkpt lat="46.06561" lon="6.11872">
        <ele>1213.3</ele>
        <time>2020-12-26T14:23:17.658Z</time>
      </trkpt>
      <trkpt lat="46.06555" lon="6.1188">
        <ele>1212.4</ele>
        <time>2020-12-26T14:23:20.666Z</time>
      </trkpt>
      <trkpt lat="46.06553" lon="6.11881">
        <ele>1212.2</ele>
        <time>2020-12-26T14:23:21.672Z</time>
      </trkpt>
      <trkpt lat="46.06545" lon="6.1188">
        <ele>1212</ele>
        <time>2020-12-26T14:23:25.691Z</time>
      </trkpt>
      <trkpt lat="46.06544" lon="6.11879">
        <ele>1212.3</ele>
        <time>2020-12-26T14:23:26.650Z</time>
      </trkpt>
      <trkpt lat="46.06536" lon="6.11877">
        <ele>1213.2</ele>
        <time>2020-12-26T14:23:30.650Z</time>
      </trkpt>
      <trkpt lat="46.06534" lon="6.11876">
        <ele>1213.5</ele>
        <time>2020-12-26T14:23:31.701Z</time>
      </trkpt>
      <trkpt lat="46.06527" lon="6.11874">
        <ele>1213.4</ele>
        <time>2020-12-26T14:23:35.649Z</time>
      </trkpt>
      <trkpt lat="46.06525" lon="6.11873">
        <ele>1213.3</ele>
        <time>2020-12-26T14:23:36.658Z</time>
      </trkpt>
      <trkpt lat="46.06518" lon="6.1187">
        <ele>1212.8</ele>
        <time>2020-12-26T14:23:39.656Z</time>
      </trkpt>
      <trkpt lat="46.06516" lon="6.11868">
        <ele>1212.6</ele>
        <time>2020-12-26T14:23:40.656Z</time>
      </trkpt>
      <trkpt lat="46.06509" lon="6.11862">
        <ele>1211.4</ele>
        <time>2020-12-26T14:23:43.641Z</time>
      </trkpt>
      <trkpt lat="46.06507" lon="6.1186">
        <ele>1211</ele>
        <time>2020-12-26T14:23:44.635Z</time>
      </trkpt>
      <trkpt lat="46.065" lon="6.11855">
        <ele>1208.9</ele>
        <time>2020-12-26T14:23:47.644Z</time>
      </trkpt>
      <trkpt lat="46.06499" lon="6.11853">
        <ele>1208.3</ele>
        <time>2020-12-26T14:23:48.638Z</time>
      </trkpt>
      <trkpt lat="46.06493" lon="6.11847">
        <ele>1207.2</ele>
        <time>2020-12-26T14:23:51.650Z</time>
      </trkpt>
      <trkpt lat="46.0649" lon="6.11845">
        <ele>1206.8</ele>
        <time>2020-12-26T14:23:52.654Z</time>
      </trkpt>
      <trkpt lat="46.06483" lon="6.11842">
        <ele>1207.3</ele>
        <time>2020-12-26T14:23:55.641Z</time>
      </trkpt>
      <trkpt lat="46.0648" lon="6.11841">
        <ele>1207.9</ele>
        <time>2020-12-26T14:23:56.665Z</time>
      </trkpt>
      <trkpt lat="46.06474" lon="6.11839">
        <ele>1208.2</ele>
        <time>2020-12-26T14:23:59.638Z</time>
      </trkpt>
      <trkpt lat="46.06471" lon="6.11839">
        <ele>1208.1</ele>
        <time>2020-12-26T14:24:00.652Z</time>
      </trkpt>
      <trkpt lat="46.06465" lon="6.11838">
        <ele>1208.1</ele>
        <time>2020-12-26T14:24:02.662Z</time>
      </trkpt>
      <trkpt lat="46.06462" lon="6.11837">
        <ele>1207.9</ele>
        <time>2020-12-26T14:24:03.658Z</time>
      </trkpt>
      <trkpt lat="46.06455" lon="6.11835">
        <ele>1207.4</ele>
        <time>2020-12-26T14:24:05.659Z</time>
      </trkpt>
      <trkpt lat="46.06452" lon="6.11835">
        <ele>1207.6</ele>
        <time>2020-12-26T14:24:06.656Z</time>
      </trkpt>
      <trkpt lat="46.06446" lon="6.11834">
        <ele>1208.4</ele>
        <time>2020-12-26T14:24:08.679Z</time>
      </trkpt>
      <trkpt lat="46.06442" lon="6.11834">
        <ele>1208.4</ele>
        <time>2020-12-26T14:24:09.726Z</time>
      </trkpt>
      <trkpt lat="46.06433" lon="6.11833">
        <ele>1207.4</ele>
        <time>2020-12-26T14:24:12.697Z</time>
      </trkpt>
      <trkpt lat="46.06431" lon="6.11833">
        <ele>1207.1</ele>
        <time>2020-12-26T14:24:13.645Z</time>
      </trkpt>
      <trkpt lat="46.06422" lon="6.11832">
        <ele>1205.6</ele>
        <time>2020-12-26T14:24:17.655Z</time>
      </trkpt>
      <trkpt lat="46.0642" lon="6.11832">
        <ele>1205.4</ele>
        <time>2020-12-26T14:24:18.661Z</time>
      </trkpt>
      <trkpt lat="46.06413" lon="6.11837">
        <ele>1204.7</ele>
        <time>2020-12-26T14:24:21.677Z</time>
      </trkpt>
      <trkpt lat="46.06411" lon="6.11838">
        <ele>1204.6</ele>
        <time>2020-12-26T14:24:22.667Z</time>
      </trkpt>
      <trkpt lat="46.06404" lon="6.11841">
        <ele>1203.7</ele>
        <time>2020-12-26T14:24:25.660Z</time>
      </trkpt>
      <trkpt lat="46.06402" lon="6.11844">
        <ele>1203.6</ele>
        <time>2020-12-26T14:24:26.665Z</time>
      </trkpt>
      <trkpt lat="46.06396" lon="6.11853">
        <ele>1203.3</ele>
        <time>2020-12-26T14:24:29.684Z</time>
      </trkpt>
      <trkpt lat="46.06394" lon="6.11856">
        <ele>1203.4</ele>
        <time>2020-12-26T14:24:30.644Z</time>
      </trkpt>
      <trkpt lat="46.06387" lon="6.11864">
        <ele>1202.8</ele>
        <time>2020-12-26T14:24:33.657Z</time>
      </trkpt>
      <trkpt lat="46.06386" lon="6.11866">
        <ele>1202.3</ele>
        <time>2020-12-26T14:24:34.653Z</time>
      </trkpt>
      <trkpt lat="46.06379" lon="6.11872">
        <ele>1200.4</ele>
        <time>2020-12-26T14:24:38.656Z</time>
      </trkpt>
      <trkpt lat="46.06378" lon="6.11874">
        <ele>1199.9</ele>
        <time>2020-12-26T14:24:39.662Z</time>
      </trkpt>
      <trkpt lat="46.06369" lon="6.11876">
        <ele>1199.5</ele>
        <time>2020-12-26T14:24:46.653Z</time>
      </trkpt>
      <trkpt lat="46.06369" lon="6.11876">
        <ele>1199.5</ele>
        <time>2020-12-26T14:24:47.709Z</time>
      </trkpt>
      <trkpt lat="46.06363" lon="6.11882">
        <ele>1196.2</ele>
        <time>2020-12-26T14:24:54.652Z</time>
      </trkpt>
      <trkpt lat="46.06361" lon="6.11883">
        <ele>1196.1</ele>
        <time>2020-12-26T14:24:55.652Z</time>
      </trkpt>
      <trkpt lat="46.06353" lon="6.11889">
        <ele>1197</ele>
        <time>2020-12-26T14:24:58.655Z</time>
      </trkpt>
      <trkpt lat="46.06351" lon="6.11892">
        <ele>1197</ele>
        <time>2020-12-26T14:24:59.696Z</time>
      </trkpt>
      <trkpt lat="46.06345" lon="6.119">
        <ele>1197.2</ele>
        <time>2020-12-26T14:25:03.655Z</time>
      </trkpt>
      <trkpt lat="46.06344" lon="6.11902">
        <ele>1197.1</ele>
        <time>2020-12-26T14:25:04.673Z</time>
      </trkpt>
      <trkpt lat="46.06339" lon="6.11911">
        <ele>1196.6</ele>
        <time>2020-12-26T14:25:07.664Z</time>
      </trkpt>
      <trkpt lat="46.06337" lon="6.11914">
        <ele>1196.2</ele>
        <time>2020-12-26T14:25:08.650Z</time>
      </trkpt>
      <trkpt lat="46.06332" lon="6.1192">
        <ele>1196.2</ele>
        <time>2020-12-26T14:25:10.664Z</time>
      </trkpt>
      <trkpt lat="46.06329" lon="6.11924">
        <ele>1196.2</ele>
        <time>2020-12-26T14:25:11.701Z</time>
      </trkpt>
      <trkpt lat="46.06322" lon="6.11931">
        <ele>1196.6</ele>
        <time>2020-12-26T14:25:13.674Z</time>
      </trkpt>
      <trkpt lat="46.06319" lon="6.11934">
        <ele>1196.6</ele>
        <time>2020-12-26T14:25:14.651Z</time>
      </trkpt>
      <trkpt lat="46.06312" lon="6.1194">
        <ele>1195.9</ele>
        <time>2020-12-26T14:25:16.659Z</time>
      </trkpt>
      <trkpt lat="46.06309" lon="6.11943">
        <ele>1196</ele>
        <time>2020-12-26T14:25:17.690Z</time>
      </trkpt>
      <trkpt lat="46.06303" lon="6.11948">
        <ele>1196.2</ele>
        <time>2020-12-26T14:25:19.657Z</time>
      </trkpt>
      <trkpt lat="46.063" lon="6.1195">
        <ele>1196.2</ele>
        <time>2020-12-26T14:25:20.652Z</time>
      </trkpt>
      <trkpt lat="46.06295" lon="6.11954">
        <ele>1196.3</ele>
        <time>2020-12-26T14:25:22.661Z</time>
      </trkpt>
      <trkpt lat="46.06293" lon="6.11957">
        <ele>1196.6</ele>
        <time>2020-12-26T14:25:23.659Z</time>
      </trkpt>
      <trkpt lat="46.06287" lon="6.11964">
        <ele>1196.3</ele>
        <time>2020-12-26T14:25:26.672Z</time>
      </trkpt>
      <trkpt lat="46.06285" lon="6.11966">
        <ele>1196</ele>
        <time>2020-12-26T14:25:27.667Z</time>
      </trkpt>
      <trkpt lat="46.06278" lon="6.11973">
        <ele>1194.9</ele>
        <time>2020-12-26T14:25:30.654Z</time>
      </trkpt>
      <trkpt lat="46.06276" lon="6.11975">
        <ele>1194.4</ele>
        <time>2020-12-26T14:25:31.656Z</time>
      </trkpt>
      <trkpt lat="46.06272" lon="6.11981">
        <ele>1193.5</ele>
        <time>2020-12-26T14:25:33.652Z</time>
      </trkpt>
      <trkpt lat="46.0627" lon="6.11984">
        <ele>1193.2</ele>
        <time>2020-12-26T14:25:34.692Z</time>
      </trkpt>
      <trkpt lat="46.06264" lon="6.11991">
        <ele>1192.6</ele>
        <time>2020-12-26T14:25:36.658Z</time>
      </trkpt>
      <trkpt lat="46.06262" lon="6.11994">
        <ele>1192.5</ele>
        <time>2020-12-26T14:25:37.660Z</time>
      </trkpt>
      <trkpt lat="46.06256" lon="6.12">
        <ele>1191.8</ele>
        <time>2020-12-26T14:25:39.655Z</time>
      </trkpt>
      <trkpt lat="46.06253" lon="6.12004">
        <ele>1191.4</ele>
        <time>2020-12-26T14:25:40.656Z</time>
      </trkpt>
      <trkpt lat="46.06247" lon="6.1201">
        <ele>1191.1</ele>
        <time>2020-12-26T14:25:42.654Z</time>
      </trkpt>
      <trkpt lat="46.06245" lon="6.12013">
        <ele>1191</ele>
        <time>2020-12-26T14:25:43.649Z</time>
      </trkpt>
      <trkpt lat="46.0624" lon="6.12019">
        <ele>1190.4</ele>
        <time>2020-12-26T14:25:45.694Z</time>
      </trkpt>
      <trkpt lat="46.06237" lon="6.12022">
        <ele>1189.7</ele>
        <time>2020-12-26T14:25:46.654Z</time>
      </trkpt>
      <trkpt lat="46.06233" lon="6.12028">
        <ele>1190</ele>
        <time>2020-12-26T14:25:48.674Z</time>
      </trkpt>
      <trkpt lat="46.06231" lon="6.12031">
        <ele>1189.9</ele>
        <time>2020-12-26T14:25:49.661Z</time>
      </trkpt>
      <trkpt lat="46.06225" lon="6.12041">
        <ele>1189</ele>
        <time>2020-12-26T14:25:52.651Z</time>
      </trkpt>
      <trkpt lat="46.06224" lon="6.12044">
        <ele>1188.3</ele>
        <time>2020-12-26T14:25:53.663Z</time>
      </trkpt>
      <trkpt lat="46.06219" lon="6.12054">
        <ele>1186.2</ele>
        <time>2020-12-26T14:25:56.653Z</time>
      </trkpt>
      <trkpt lat="46.06218" lon="6.12057">
        <ele>1185.2</ele>
        <time>2020-12-26T14:25:57.701Z</time>
      </trkpt>
      <trkpt lat="46.06213" lon="6.12067">
        <ele>1183.3</ele>
        <time>2020-12-26T14:26:00.652Z</time>
      </trkpt>
      <trkpt lat="46.06211" lon="6.1207">
        <ele>1182.9</ele>
        <time>2020-12-26T14:26:01.656Z</time>
      </trkpt>
      <trkpt lat="46.06206" lon="6.12081">
        <ele>1182.8</ele>
        <time>2020-12-26T14:26:04.673Z</time>
      </trkpt>
      <trkpt lat="46.06205" lon="6.12085">
        <ele>1182.9</ele>
        <time>2020-12-26T14:26:05.648Z</time>
      </trkpt>
      <trkpt lat="46.062" lon="6.12094">
        <ele>1183.2</ele>
        <time>2020-12-26T14:26:08.654Z</time>
      </trkpt>
      <trkpt lat="46.06199" lon="6.12097">
        <ele>1183.4</ele>
        <time>2020-12-26T14:26:09.691Z</time>
      </trkpt>
      <trkpt lat="46.06195" lon="6.12104">
        <ele>1184.7</ele>
        <time>2020-12-26T14:26:12.659Z</time>
      </trkpt>
      <trkpt lat="46.06193" lon="6.12107">
        <ele>1185.2</ele>
        <time>2020-12-26T14:26:13.640Z</time>
      </trkpt>
      <trkpt lat="46.06187" lon="6.12114">
        <ele>1187.1</ele>
        <time>2020-12-26T14:26:17.654Z</time>
      </trkpt>
      <trkpt lat="46.06185" lon="6.12115">
        <ele>1187.1</ele>
        <time>2020-12-26T14:26:18.672Z</time>
      </trkpt>
      <trkpt lat="46.06181" lon="6.12122">
        <ele>1186.4</ele>
        <time>2020-12-26T14:26:21.714Z</time>
      </trkpt>
      <trkpt lat="46.06179" lon="6.12126">
        <ele>1186</ele>
        <time>2020-12-26T14:26:22.660Z</time>
      </trkpt>
      <trkpt lat="46.06176" lon="6.12134">
        <ele>1184.2</ele>
        <time>2020-12-26T14:26:25.657Z</time>
      </trkpt>
      <trkpt lat="46.06174" lon="6.12136">
        <ele>1183.6</ele>
        <time>2020-12-26T14:26:26.652Z</time>
      </trkpt>
      <trkpt lat="46.06169" lon="6.12147">
        <ele>1181.6</ele>
        <time>2020-12-26T14:26:30.662Z</time>
      </trkpt>
      <trkpt lat="46.06169" lon="6.12151">
        <ele>1181.5</ele>
        <time>2020-12-26T14:26:31.654Z</time>
      </trkpt>
      <trkpt lat="46.0617" lon="6.12157">
        <ele>1181.5</ele>
        <time>2020-12-26T14:26:32.669Z</time>
      </trkpt>
      <trkpt lat="46.06172" lon="6.12164">
        <ele>1181.7</ele>
        <time>2020-12-26T14:26:33.695Z</time>
      </trkpt>
      <trkpt lat="46.06174" lon="6.12176">
        <ele>1181.2</ele>
        <time>2020-12-26T14:26:35.661Z</time>
      </trkpt>
      <trkpt lat="46.06174" lon="6.1218">
        <ele>1180.9</ele>
        <time>2020-12-26T14:26:36.654Z</time>
      </trkpt>
      <trkpt lat="46.06172" lon="6.12192">
        <ele>1180.4</ele>
        <time>2020-12-26T14:26:39.691Z</time>
      </trkpt>
      <trkpt lat="46.0617" lon="6.12194">
        <ele>1180.1</ele>
        <time>2020-12-26T14:26:40.657Z</time>
      </trkpt>
      <trkpt lat="46.06167" lon="6.12205">
        <ele>1179.2</ele>
        <time>2020-12-26T14:26:43.641Z</time>
      </trkpt>
      <trkpt lat="46.06166" lon="6.12208">
        <ele>1179</ele>
        <time>2020-12-26T14:26:44.664Z</time>
      </trkpt>
      <trkpt lat="46.06162" lon="6.12216">
        <ele>1179.3</ele>
        <time>2020-12-26T14:26:47.659Z</time>
      </trkpt>
      <trkpt lat="46.06161" lon="6.12219">
        <ele>1179.4</ele>
        <time>2020-12-26T14:26:48.652Z</time>
      </trkpt>
      <trkpt lat="46.06156" lon="6.12229">
        <ele>1180.1</ele>
        <time>2020-12-26T14:26:52.656Z</time>
      </trkpt>
      <trkpt lat="46.06155" lon="6.12231">
        <ele>1180.4</ele>
        <time>2020-12-26T14:26:53.682Z</time>
      </trkpt>
      <trkpt lat="46.0615" lon="6.12241">
        <ele>1181.1</ele>
        <time>2020-12-26T14:26:57.690Z</time>
      </trkpt>
      <trkpt lat="46.06148" lon="6.12243">
        <ele>1181.2</ele>
        <time>2020-12-26T14:26:58.652Z</time>
      </trkpt>
      <trkpt lat="46.06143" lon="6.12252">
        <ele>1182.9</ele>
        <time>2020-12-26T14:27:02.659Z</time>
      </trkpt>
      <trkpt lat="46.06142" lon="6.12255">
        <ele>1183.1</ele>
        <time>2020-12-26T14:27:03.702Z</time>
      </trkpt>
      <trkpt lat="46.06137" lon="6.12262">
        <ele>1184.3</ele>
        <time>2020-12-26T14:27:06.653Z</time>
      </trkpt>
      <trkpt lat="46.06136" lon="6.12264">
        <ele>1184.6</ele>
        <time>2020-12-26T14:27:07.664Z</time>
      </trkpt>
      <trkpt lat="46.06129" lon="6.12272">
        <ele>1185.6</ele>
        <time>2020-12-26T14:27:11.663Z</time>
      </trkpt>
      <trkpt lat="46.06128" lon="6.12273">
        <ele>1185.9</ele>
        <time>2020-12-26T14:27:12.657Z</time>
      </trkpt>
      <trkpt lat="46.06121" lon="6.12278">
        <ele>1184.9</ele>
        <time>2020-12-26T14:27:16.653Z</time>
      </trkpt>
      <trkpt lat="46.06119" lon="6.12279">
        <ele>1185</ele>
        <time>2020-12-26T14:27:17.662Z</time>
      </trkpt>
      <trkpt lat="46.06113" lon="6.12287">
        <ele>1184.9</ele>
        <time>2020-12-26T14:27:22.660Z</time>
      </trkpt>
      <trkpt lat="46.06113" lon="6.12288">
        <ele>1184.9</ele>
        <time>2020-12-26T14:27:23.657Z</time>
      </trkpt>
      <trkpt lat="46.06114" lon="6.12281">
        <ele>1184.4</ele>
        <time>2020-12-26T14:27:33.671Z</time>
      </trkpt>
      <trkpt lat="46.06114" lon="6.12282">
        <ele>1184.2</ele>
        <time>2020-12-26T14:27:34.658Z</time>
      </trkpt>
      <trkpt lat="46.06114" lon="6.12282">
        <ele>1184.2</ele>
        <time>2020-12-26T14:27:40.659Z</time>
      </trkpt>
      <trkpt lat="46.06113" lon="6.12282">
        <ele>1183.1</ele>
        <time>2020-12-26T14:27:41.634Z</time>
      </trkpt>
      <trkpt lat="46.06111" lon="6.12282">
        <ele>1182</ele>
        <time>2020-12-26T14:27:42.648Z</time>
      </trkpt>
      <trkpt lat="46.06109" lon="6.12282">
        <ele>1181</ele>
        <time>2020-12-26T14:27:43.644Z</time>
      </trkpt>
      <trkpt lat="46.06109" lon="6.12282">
        <ele>1181</ele>
        <time>2020-12-26T14:27:45.664Z</time>
      </trkpt>
      <trkpt lat="46.06107" lon="6.12281">
        <ele>1180.1</ele>
        <time>2020-12-26T14:27:46.654Z</time>
      </trkpt>
      <trkpt lat="46.061" lon="6.12282">
        <ele>1180.7</ele>
        <time>2020-12-26T14:27:49.666Z</time>
      </trkpt>
      <trkpt lat="46.06098" lon="6.12281">
        <ele>1180.9</ele>
        <time>2020-12-26T14:27:50.699Z</time>
      </trkpt>
      <trkpt lat="46.06093" lon="6.12281">
        <ele>1182</ele>
        <time>2020-12-26T14:27:53.654Z</time>
      </trkpt>
      <trkpt lat="46.06091" lon="6.12281">
        <ele>1182</ele>
        <time>2020-12-26T14:27:54.659Z</time>
      </trkpt>
      <trkpt lat="46.06089" lon="6.12281">
        <ele>1180.3</ele>
        <time>2020-12-26T14:27:55.656Z</time>
      </trkpt>
      <trkpt lat="46.06085" lon="6.12289">
        <ele>1174.3</ele>
        <time>2020-12-26T14:28:10.656Z</time>
      </trkpt>
      <trkpt lat="46.06083" lon="6.12293">
        <ele>1173.8</ele>
        <time>2020-12-26T14:28:11.672Z</time>
      </trkpt>
      <trkpt lat="46.06082" lon="6.12304">
        <ele>1172.6</ele>
        <time>2020-12-26T14:28:14.690Z</time>
      </trkpt>
      <trkpt lat="46.06081" lon="6.12308">
        <ele>1172.3</ele>
        <time>2020-12-26T14:28:15.684Z</time>
      </trkpt>
      <trkpt lat="46.06078" lon="6.12319">
        <ele>1171.6</ele>
        <time>2020-12-26T14:28:18.659Z</time>
      </trkpt>
      <trkpt lat="46.06077" lon="6.12323">
        <ele>1171.3</ele>
        <time>2020-12-26T14:28:19.656Z</time>
      </trkpt>
      <trkpt lat="46.06077" lon="6.12327">
        <ele>1171</ele>
        <time>2020-12-26T14:28:20.664Z</time>
      </trkpt>
      <trkpt lat="46.06077" lon="6.12327">
        <ele>1170.5</ele>
        <time>2020-12-26T14:28:22.666Z</time>
      </trkpt>
      <trkpt lat="46.06075" lon="6.12334">
        <ele>1170.2</ele>
        <time>2020-12-26T14:28:23.670Z</time>
      </trkpt>
      <trkpt lat="46.06072" lon="6.12345">
        <ele>1168.9</ele>
        <time>2020-12-26T14:28:27.656Z</time>
      </trkpt>
      <trkpt lat="46.06071" lon="6.12348">
        <ele>1169</ele>
        <time>2020-12-26T14:28:28.654Z</time>
      </trkpt>
      <trkpt lat="46.06069" lon="6.12358">
        <ele>1168.3</ele>
        <time>2020-12-26T14:28:31.697Z</time>
      </trkpt>
      <trkpt lat="46.06067" lon="6.12365">
        <ele>1168</ele>
        <time>2020-12-26T14:28:32.654Z</time>
      </trkpt>
      <trkpt lat="46.06066" lon="6.12375">
        <ele>1168</ele>
        <time>2020-12-26T14:28:34.649Z</time>
      </trkpt>
      <trkpt lat="46.06065" lon="6.12379">
        <ele>1167.9</ele>
        <time>2020-12-26T14:28:35.664Z</time>
      </trkpt>
      <trkpt lat="46.06063" lon="6.12389">
        <ele>1168</ele>
        <time>2020-12-26T14:28:38.678Z</time>
      </trkpt>
      <trkpt lat="46.06062" lon="6.12392">
        <ele>1168</ele>
        <time>2020-12-26T14:28:39.660Z</time>
      </trkpt>
      <trkpt lat="46.06058" lon="6.12403">
        <ele>1167.9</ele>
        <time>2020-12-26T14:28:43.644Z</time>
      </trkpt>
      <trkpt lat="46.06057" lon="6.12406">
        <ele>1167.9</ele>
        <time>2020-12-26T14:28:44.661Z</time>
      </trkpt>
      <trkpt lat="46.06056" lon="6.12418">
        <ele>1166.8</ele>
        <time>2020-12-26T14:28:48.683Z</time>
      </trkpt>
      <trkpt lat="46.06055" lon="6.12421">
        <ele>1166.5</ele>
        <time>2020-12-26T14:28:49.654Z</time>
      </trkpt>
      <trkpt lat="46.06051" lon="6.12432">
        <ele>1165.9</ele>
        <time>2020-12-26T14:28:53.662Z</time>
      </trkpt>
      <trkpt lat="46.06049" lon="6.12435">
        <ele>1166</ele>
        <time>2020-12-26T14:28:54.657Z</time>
      </trkpt>
      <trkpt lat="46.06045" lon="6.12445">
        <ele>1166.1</ele>
        <time>2020-12-26T14:28:58.666Z</time>
      </trkpt>
      <trkpt lat="46.06044" lon="6.12448">
        <ele>1166.5</ele>
        <time>2020-12-26T14:28:59.696Z</time>
      </trkpt>
      <trkpt lat="46.0604" lon="6.12459">
        <ele>1167.5</ele>
        <time>2020-12-26T14:29:03.649Z</time>
      </trkpt>
      <trkpt lat="46.06039" lon="6.12462">
        <ele>1167.4</ele>
        <time>2020-12-26T14:29:04.661Z</time>
      </trkpt>
      <trkpt lat="46.06037" lon="6.12473">
        <ele>1166.8</ele>
        <time>2020-12-26T14:29:08.656Z</time>
      </trkpt>
      <trkpt lat="46.06036" lon="6.12476">
        <ele>1166.5</ele>
        <time>2020-12-26T14:29:09.668Z</time>
      </trkpt>
      <trkpt lat="46.06035" lon="6.12486">
        <ele>1166.2</ele>
        <time>2020-12-26T14:29:12.666Z</time>
      </trkpt>
      <trkpt lat="46.06035" lon="6.1249">
        <ele>1166.1</ele>
        <time>2020-12-26T14:29:13.644Z</time>
      </trkpt>
      <trkpt lat="46.06038" lon="6.12501">
        <ele>1165.3</ele>
        <time>2020-12-26T14:29:16.655Z</time>
      </trkpt>
      <trkpt lat="46.0604" lon="6.12504">
        <ele>1165.1</ele>
        <time>2020-12-26T14:29:17.656Z</time>
      </trkpt>
      <trkpt lat="46.06046" lon="6.12512">
        <ele>1164.8</ele>
        <time>2020-12-26T14:29:20.685Z</time>
      </trkpt>
      <trkpt lat="46.06048" lon="6.12514">
        <ele>1164.7</ele>
        <time>2020-12-26T14:29:21.681Z</time>
      </trkpt>
      <trkpt lat="46.06056" lon="6.12519">
        <ele>1163.7</ele>
        <time>2020-12-26T14:29:24.662Z</time>
      </trkpt>
      <trkpt lat="46.06058" lon="6.12521">
        <ele>1163.4</ele>
        <time>2020-12-26T14:29:25.661Z</time>
      </trkpt>
      <trkpt lat="46.06062" lon="6.12527">
        <ele>1162.6</ele>
        <time>2020-12-26T14:29:27.654Z</time>
      </trkpt>
      <trkpt lat="46.06064" lon="6.12531">
        <ele>1162.4</ele>
        <time>2020-12-26T14:29:28.658Z</time>
      </trkpt>
      <trkpt lat="46.06067" lon="6.1254">
        <ele>1162.3</ele>
        <time>2020-12-26T14:29:30.655Z</time>
      </trkpt>
      <trkpt lat="46.06068" lon="6.12544">
        <ele>1162.4</ele>
        <time>2020-12-26T14:29:31.652Z</time>
      </trkpt>
      <trkpt lat="46.06071" lon="6.12555">
        <ele>1162.8</ele>
        <time>2020-12-26T14:29:34.659Z</time>
      </trkpt>
      <trkpt lat="46.06072" lon="6.12557">
        <ele>1163.2</ele>
        <time>2020-12-26T14:29:35.689Z</time>
      </trkpt>
      <trkpt lat="46.06076" lon="6.12568">
        <ele>1162.9</ele>
        <time>2020-12-26T14:29:39.658Z</time>
      </trkpt>
      <trkpt lat="46.06077" lon="6.1257">
        <ele>1163</ele>
        <time>2020-12-26T14:29:40.689Z</time>
      </trkpt>
      <trkpt lat="46.06084" lon="6.12577">
        <ele>1163.3</ele>
        <time>2020-12-26T14:29:45.651Z</time>
      </trkpt>
      <trkpt lat="46.06086" lon="6.12578">
        <ele>1163.2</ele>
        <time>2020-12-26T14:29:46.673Z</time>
      </trkpt>
      <trkpt lat="46.06092" lon="6.12579">
        <ele>1163.6</ele>
        <time>2020-12-26T14:29:49.653Z</time>
      </trkpt>
      <trkpt lat="46.06095" lon="6.12579">
        <ele>1163.7</ele>
        <time>2020-12-26T14:29:50.657Z</time>
      </trkpt>
      <trkpt lat="46.06102" lon="6.12576">
        <ele>1164.2</ele>
        <time>2020-12-26T14:29:52.661Z</time>
      </trkpt>
      <trkpt lat="46.06105" lon="6.12574">
        <ele>1164.7</ele>
        <time>2020-12-26T14:29:53.698Z</time>
      </trkpt>
      <trkpt lat="46.06113" lon="6.12574">
        <ele>1166.3</ele>
        <time>2020-12-26T14:29:56.662Z</time>
      </trkpt>
      <trkpt lat="46.06115" lon="6.12575">
        <ele>1166.6</ele>
        <time>2020-12-26T14:29:57.657Z</time>
      </trkpt>
      <trkpt lat="46.06121" lon="6.12578">
        <ele>1167.1</ele>
        <time>2020-12-26T14:30:00.657Z</time>
      </trkpt>
      <trkpt lat="46.06124" lon="6.12579">
        <ele>1167.3</ele>
        <time>2020-12-26T14:30:01.652Z</time>
      </trkpt>
      <trkpt lat="46.06132" lon="6.1258">
        <ele>1167.8</ele>
        <time>2020-12-26T14:30:04.654Z</time>
      </trkpt>
      <trkpt lat="46.06134" lon="6.12581">
        <ele>1168.1</ele>
        <time>2020-12-26T14:30:05.657Z</time>
      </trkpt>
      <trkpt lat="46.06142" lon="6.12584">
        <ele>1168.9</ele>
        <time>2020-12-26T14:30:08.652Z</time>
      </trkpt>
      <trkpt lat="46.06144" lon="6.12586">
        <ele>1169.3</ele>
        <time>2020-12-26T14:30:09.654Z</time>
      </trkpt>
      <trkpt lat="46.06153" lon="6.12588">
        <ele>1169.9</ele>
        <time>2020-12-26T14:30:12.669Z</time>
      </trkpt>
      <trkpt lat="46.06155" lon="6.12589">
        <ele>1169.6</ele>
        <time>2020-12-26T14:30:13.640Z</time>
      </trkpt>
      <trkpt lat="46.06161" lon="6.1259">
        <ele>1169.3</ele>
        <time>2020-12-26T14:30:15.660Z</time>
      </trkpt>
      <trkpt lat="46.06164" lon="6.12591">
        <ele>1169.2</ele>
        <time>2020-12-26T14:30:16.649Z</time>
      </trkpt>
      <trkpt lat="46.06173" lon="6.12591">
        <ele>1169.2</ele>
        <time>2020-12-26T14:30:19.660Z</time>
      </trkpt>
      <trkpt lat="46.06176" lon="6.12592">
        <ele>1169.1</ele>
        <time>2020-12-26T14:30:20.655Z</time>
      </trkpt>
      <trkpt lat="46.06185" lon="6.12592">
        <ele>1169.7</ele>
        <time>2020-12-26T14:30:23.654Z</time>
      </trkpt>
      <trkpt lat="46.06187" lon="6.12593">
        <ele>1169.3</ele>
        <time>2020-12-26T14:30:24.660Z</time>
      </trkpt>
      <trkpt lat="46.06195" lon="6.12596">
        <ele>1169.4</ele>
        <time>2020-12-26T14:30:27.656Z</time>
      </trkpt>
      <trkpt lat="46.06198" lon="6.12597">
        <ele>1169.6</ele>
        <time>2020-12-26T14:30:28.688Z</time>
      </trkpt>
      <trkpt lat="46.06205" lon="6.126">
        <ele>1170.1</ele>
        <time>2020-12-26T14:30:31.656Z</time>
      </trkpt>
      <trkpt lat="46.06207" lon="6.12601">
        <ele>1170.6</ele>
        <time>2020-12-26T14:30:32.682Z</time>
      </trkpt>
      <trkpt lat="46.06216" lon="6.12605">
        <ele>1171.7</ele>
        <time>2020-12-26T14:30:36.661Z</time>
      </trkpt>
      <trkpt lat="46.06218" lon="6.12605">
        <ele>1171.7</ele>
        <time>2020-12-26T14:30:37.673Z</time>
      </trkpt>
      <trkpt lat="46.06226" lon="6.12609">
        <ele>1171.6</ele>
        <time>2020-12-26T14:30:41.666Z</time>
      </trkpt>
      <trkpt lat="46.06228" lon="6.1261">
        <ele>1171.5</ele>
        <time>2020-12-26T14:30:42.671Z</time>
      </trkpt>
      <trkpt lat="46.06235" lon="6.12614">
        <ele>1171.2</ele>
        <time>2020-12-26T14:30:45.656Z</time>
      </trkpt>
      <trkpt lat="46.06237" lon="6.12615">
        <ele>1170.8</ele>
        <time>2020-12-26T14:30:46.691Z</time>
      </trkpt>
      <trkpt lat="46.06246" lon="6.12618">
        <ele>1170.3</ele>
        <time>2020-12-26T14:30:49.658Z</time>
      </trkpt>
      <trkpt lat="46.06248" lon="6.12619">
        <ele>1170</ele>
        <time>2020-12-26T14:30:50.658Z</time>
      </trkpt>
      <trkpt lat="46.06257" lon="6.12622">
        <ele>1168.4</ele>
        <time>2020-12-26T14:30:53.654Z</time>
      </trkpt>
      <trkpt lat="46.0626" lon="6.12623">
        <ele>1167.3</ele>
        <time>2020-12-26T14:30:54.667Z</time>
      </trkpt>
      <trkpt lat="46.06266" lon="6.12625">
        <ele>1166</ele>
        <time>2020-12-26T14:30:56.657Z</time>
      </trkpt>
      <trkpt lat="46.06269" lon="6.12626">
        <ele>1165.2</ele>
        <time>2020-12-26T14:30:57.655Z</time>
      </trkpt>
      <trkpt lat="46.06276" lon="6.12631">
        <ele>1163.2</ele>
        <time>2020-12-26T14:31:00.664Z</time>
      </trkpt>
      <trkpt lat="46.06279" lon="6.12633">
        <ele>1162.4</ele>
        <time>2020-12-26T14:31:01.659Z</time>
      </trkpt>
      <trkpt lat="46.06287" lon="6.12637">
        <ele>1160.1</ele>
        <time>2020-12-26T14:31:04.666Z</time>
      </trkpt>
      <trkpt lat="46.06289" lon="6.12639">
        <ele>1159.2</ele>
        <time>2020-12-26T14:31:05.678Z</time>
      </trkpt>
      <trkpt lat="46.06298" lon="6.12643">
        <ele>1157</ele>
        <time>2020-12-26T14:31:08.654Z</time>
      </trkpt>
      <trkpt lat="46.063" lon="6.12644">
        <ele>1156.4</ele>
        <time>2020-12-26T14:31:09.689Z</time>
      </trkpt>
      <trkpt lat="46.06308" lon="6.12646">
        <ele>1154.7</ele>
        <time>2020-12-26T14:31:12.652Z</time>
      </trkpt>
      <trkpt lat="46.0631" lon="6.12646">
        <ele>1154.1</ele>
        <time>2020-12-26T14:31:13.641Z</time>
      </trkpt>
      <trkpt lat="46.06319" lon="6.1265">
        <ele>1153.2</ele>
        <time>2020-12-26T14:31:17.669Z</time>
      </trkpt>
      <trkpt lat="46.06321" lon="6.1265">
        <ele>1152.8</ele>
        <time>2020-12-26T14:31:18.659Z</time>
      </trkpt>
      <trkpt lat="46.06329" lon="6.12653">
        <ele>1152.8</ele>
        <time>2020-12-26T14:31:23.656Z</time>
      </trkpt>
      <trkpt lat="46.0633" lon="6.12653">
        <ele>1152.3</ele>
        <time>2020-12-26T14:31:24.657Z</time>
      </trkpt>
      <trkpt lat="46.06338" lon="6.12653">
        <ele>1150.5</ele>
        <time>2020-12-26T14:31:29.669Z</time>
      </trkpt>
      <trkpt lat="46.0634" lon="6.12653">
        <ele>1150.3</ele>
        <time>2020-12-26T14:31:30.663Z</time>
      </trkpt>
      <trkpt lat="46.06348" lon="6.12653">
        <ele>1149.8</ele>
        <time>2020-12-26T14:31:34.656Z</time>
      </trkpt>
      <trkpt lat="46.0635" lon="6.12653">
        <ele>1149.6</ele>
        <time>2020-12-26T14:31:35.652Z</time>
      </trkpt>
      <trkpt lat="46.06358" lon="6.12654">
        <ele>1148.2</ele>
        <time>2020-12-26T14:31:39.701Z</time>
      </trkpt>
      <trkpt lat="46.0636" lon="6.12654">
        <ele>1148</ele>
        <time>2020-12-26T14:31:40.656Z</time>
      </trkpt>
      <trkpt lat="46.06368" lon="6.12653">
        <ele>1146.7</ele>
        <time>2020-12-26T14:31:46.672Z</time>
      </trkpt>
      <trkpt lat="46.0637" lon="6.12654">
        <ele>1146.2</ele>
        <time>2020-12-26T14:31:47.662Z</time>
      </trkpt>
      <trkpt lat="46.06379" lon="6.12657">
        <ele>1143.3</ele>
        <time>2020-12-26T14:31:53.642Z</time>
      </trkpt>
      <trkpt lat="46.0638" lon="6.12657">
        <ele>1142.9</ele>
        <time>2020-12-26T14:31:54.654Z</time>
      </trkpt>
      <trkpt lat="46.06388" lon="6.1266">
        <ele>1139.8</ele>
        <time>2020-12-26T14:31:59.669Z</time>
      </trkpt>
      <trkpt lat="46.06389" lon="6.1266">
        <ele>1138.7</ele>
        <time>2020-12-26T14:32:00.690Z</time>
      </trkpt>
      <trkpt lat="46.06397" lon="6.12661">
        <ele>1135.7</ele>
        <time>2020-12-26T14:32:03.718Z</time>
      </trkpt>
      <trkpt lat="46.06399" lon="6.12662">
        <ele>1134.4</ele>
        <time>2020-12-26T14:32:04.664Z</time>
      </trkpt>
      <trkpt lat="46.06408" lon="6.12663">
        <ele>1130.6</ele>
        <time>2020-12-26T14:32:07.650Z</time>
      </trkpt>
      <trkpt lat="46.06411" lon="6.12664">
        <ele>1129.4</ele>
        <time>2020-12-26T14:32:08.651Z</time>
      </trkpt>
      <trkpt lat="46.06418" lon="6.12666">
        <ele>1125.5</ele>
        <time>2020-12-26T14:32:11.666Z</time>
      </trkpt>
      <trkpt lat="46.0642" lon="6.12666">
        <ele>1124.1</ele>
        <time>2020-12-26T14:32:12.656Z</time>
      </trkpt>
      <trkpt lat="46.06426" lon="6.12675">
        <ele>1116.9</ele>
        <time>2020-12-26T14:32:17.657Z</time>
      </trkpt>
      <trkpt lat="46.06427" lon="6.12677">
        <ele>1115.5</ele>
        <time>2020-12-26T14:32:18.661Z</time>
      </trkpt>
      <trkpt lat="46.06429" lon="6.12689">
        <ele>1112.8</ele>
        <time>2020-12-26T14:32:23.642Z</time>
      </trkpt>
      <trkpt lat="46.0643" lon="6.12691">
        <ele>1112.5</ele>
        <time>2020-12-26T14:32:24.654Z</time>
      </trkpt>
      <trkpt lat="46.06434" lon="6.127">
        <ele>1115.2</ele>
        <time>2020-12-26T14:32:29.653Z</time>
      </trkpt>
      <trkpt lat="46.06435" lon="6.12702">
        <ele>1116.6</ele>
        <time>2020-12-26T14:32:30.659Z</time>
      </trkpt>
      <trkpt lat="46.0644" lon="6.12711">
        <ele>1114.9</ele>
        <time>2020-12-26T14:32:33.637Z</time>
      </trkpt>
      <trkpt lat="46.06443" lon="6.12713">
        <ele>1113.7</ele>
        <time>2020-12-26T14:32:34.650Z</time>
      </trkpt>
      <trkpt lat="46.06451" lon="6.12717">
        <ele>1111.7</ele>
        <time>2020-12-26T14:32:36.658Z</time>
      </trkpt>
      <trkpt lat="46.06455" lon="6.12719">
        <ele>1110.8</ele>
        <time>2020-12-26T14:32:37.655Z</time>
      </trkpt>
      <trkpt lat="46.06461" lon="6.12724">
        <ele>1108.3</ele>
        <time>2020-12-26T14:32:39.695Z</time>
      </trkpt>
      <trkpt lat="46.06464" lon="6.12727">
        <ele>1106.4</ele>
        <time>2020-12-26T14:32:40.664Z</time>
      </trkpt>
      <trkpt lat="46.0647" lon="6.12732">
        <ele>1103.3</ele>
        <time>2020-12-26T14:32:42.656Z</time>
      </trkpt>
      <trkpt lat="46.06473" lon="6.12734">
        <ele>1102.3</ele>
        <time>2020-12-26T14:32:43.648Z</time>
      </trkpt>
      <trkpt lat="46.06479" lon="6.12739">
        <ele>1100.3</ele>
        <time>2020-12-26T14:32:45.709Z</time>
      </trkpt>
      <trkpt lat="46.06482" lon="6.12741">
        <ele>1099.1</ele>
        <time>2020-12-26T14:32:46.652Z</time>
      </trkpt>
      <trkpt lat="46.06488" lon="6.12746">
        <ele>1097.7</ele>
        <time>2020-12-26T14:32:48.655Z</time>
      </trkpt>
      <trkpt lat="46.06491" lon="6.12749">
        <ele>1096.8</ele>
        <time>2020-12-26T14:32:49.656Z</time>
      </trkpt>
      <trkpt lat="46.06496" lon="6.12753">
        <ele>1095.7</ele>
        <time>2020-12-26T14:32:51.696Z</time>
      </trkpt>
      <trkpt lat="46.06499" lon="6.12754">
        <ele>1095.2</ele>
        <time>2020-12-26T14:32:52.663Z</time>
      </trkpt>
      <trkpt lat="46.06506" lon="6.12759">
        <ele>1093.6</ele>
        <time>2020-12-26T14:32:55.666Z</time>
      </trkpt>
      <trkpt lat="46.06509" lon="6.1276">
        <ele>1093.4</ele>
        <time>2020-12-26T14:32:56.662Z</time>
      </trkpt>
      <trkpt lat="46.06517" lon="6.12762">
        <ele>1092.2</ele>
        <time>2020-12-26T14:32:59.657Z</time>
      </trkpt>
      <trkpt lat="46.06519" lon="6.12763">
        <ele>1091.9</ele>
        <time>2020-12-26T14:33:00.665Z</time>
      </trkpt>
      <trkpt lat="46.06528" lon="6.12763">
        <ele>1089.9</ele>
        <time>2020-12-26T14:33:03.704Z</time>
      </trkpt>
      <trkpt lat="46.0653" lon="6.12763">
        <ele>1089</ele>
        <time>2020-12-26T14:33:04.657Z</time>
      </trkpt>
      <trkpt lat="46.06539" lon="6.12763">
        <ele>1086.4</ele>
        <time>2020-12-26T14:33:07.652Z</time>
      </trkpt>
      <trkpt lat="46.06542" lon="6.12763">
        <ele>1085.7</ele>
        <time>2020-12-26T14:33:08.651Z</time>
      </trkpt>
      <trkpt lat="46.0655" lon="6.12765">
        <ele>1083.6</ele>
        <time>2020-12-26T14:33:11.663Z</time>
      </trkpt>
      <trkpt lat="46.06552" lon="6.12766">
        <ele>1083</ele>
        <time>2020-12-26T14:33:12.653Z</time>
      </trkpt>
      <trkpt lat="46.06559" lon="6.1277">
        <ele>1082.1</ele>
        <time>2020-12-26T14:33:16.668Z</time>
      </trkpt>
      <trkpt lat="46.0656" lon="6.12772">
        <ele>1082</ele>
        <time>2020-12-26T14:33:17.659Z</time>
      </trkpt>
      <trkpt lat="46.06563" lon="6.12782">
        <ele>1080.7</ele>
        <time>2020-12-26T14:33:23.656Z</time>
      </trkpt>
      <trkpt lat="46.06563" lon="6.12784">
        <ele>1080.5</ele>
        <time>2020-12-26T14:33:24.653Z</time>
      </trkpt>
      <trkpt lat="46.06568" lon="6.12793">
        <ele>1078.5</ele>
        <time>2020-12-26T14:33:32.654Z</time>
      </trkpt>
      <trkpt lat="46.06569" lon="6.12795">
        <ele>1078.4</ele>
        <time>2020-12-26T14:33:33.691Z</time>
      </trkpt>
      <trkpt lat="46.06572" lon="6.12804">
        <ele>1078.6</ele>
        <time>2020-12-26T14:33:37.656Z</time>
      </trkpt>
      <trkpt lat="46.06572" lon="6.12807">
        <ele>1078.5</ele>
        <time>2020-12-26T14:33:38.663Z</time>
      </trkpt>
      <trkpt lat="46.06574" lon="6.12819">
        <ele>1077</ele>
        <time>2020-12-26T14:33:42.661Z</time>
      </trkpt>
      <trkpt lat="46.06574" lon="6.12822">
        <ele>1077.2</ele>
        <time>2020-12-26T14:33:43.646Z</time>
      </trkpt>
      <trkpt lat="46.06573" lon="6.12834">
        <ele>1076.9</ele>
        <time>2020-12-26T14:33:47.659Z</time>
      </trkpt>
      <trkpt lat="46.06574" lon="6.12838">
        <ele>1076.9</ele>
        <time>2020-12-26T14:33:48.658Z</time>
      </trkpt>
      <trkpt lat="46.06577" lon="6.12847">
        <ele>1076.3</ele>
        <time>2020-12-26T14:33:51.656Z</time>
      </trkpt>
      <trkpt lat="46.06578" lon="6.1285">
        <ele>1075.9</ele>
        <time>2020-12-26T14:33:52.672Z</time>
      </trkpt>
      <trkpt lat="46.0658" lon="6.12861">
        <ele>1076.2</ele>
        <time>2020-12-26T14:33:55.645Z</time>
      </trkpt>
      <trkpt lat="46.0658" lon="6.12864">
        <ele>1076.1</ele>
        <time>2020-12-26T14:33:56.642Z</time>
      </trkpt>
      <trkpt lat="46.06586" lon="6.12874">
        <ele>1076.5</ele>
        <time>2020-12-26T14:34:08.656Z</time>
      </trkpt>
      <trkpt lat="46.06586" lon="6.12874">
        <ele>1076.5</ele>
        <time>2020-12-26T14:34:09.670Z</time>
      </trkpt>
      <trkpt lat="46.06585" lon="6.12886">
        <ele>1074.3</ele>
        <time>2020-12-26T14:34:18.676Z</time>
      </trkpt>
      <trkpt lat="46.06585" lon="6.12888">
        <ele>1074.4</ele>
        <time>2020-12-26T14:34:19.726Z</time>
      </trkpt>
      <trkpt lat="46.06586" lon="6.12901">
        <ele>1073.8</ele>
        <time>2020-12-26T14:34:25.710Z</time>
      </trkpt>
      <trkpt lat="46.06586" lon="6.12901">
        <ele>1073.8</ele>
        <time>2020-12-26T14:34:26.680Z</time>
      </trkpt>
      <trkpt lat="46.06586" lon="6.12901">
        <ele>1073.8</ele>
        <time>2020-12-26T14:34:29.659Z</time>
      </trkpt>
      <trkpt lat="46.06588" lon="6.12906">
        <ele>1073.8</ele>
        <time>2020-12-26T14:34:30.658Z</time>
      </trkpt>
      <trkpt lat="46.06588" lon="6.12907">
        <ele>1073.8</ele>
        <time>2020-12-26T14:34:31.663Z</time>
      </trkpt>
      <trkpt lat="46.06589" lon="6.12912">
        <ele>1073.8</ele>
        <time>2020-12-26T14:34:32.662Z</time>
      </trkpt>
      <trkpt lat="46.06589" lon="6.12912">
        <ele>1073.8</ele>
        <time>2020-12-26T14:34:41.679Z</time>
      </trkpt>
      <trkpt lat="46.06591" lon="6.12913">
        <ele>1073.9</ele>
        <time>2020-12-26T14:34:42.666Z</time>
      </trkpt>
      <trkpt lat="46.06595" lon="6.1292">
        <ele>1073.7</ele>
        <time>2020-12-26T14:34:46.655Z</time>
      </trkpt>
      <trkpt lat="46.06595" lon="6.1292">
        <ele>1073.7</ele>
        <time>2020-12-26T14:34:47.660Z</time>
      </trkpt>
      <trkpt lat="46.06595" lon="6.12922">
        <ele>1073.8</ele>
        <time>2020-12-26T14:34:48.657Z</time>
      </trkpt>
      <trkpt lat="46.06594" lon="6.1293">
        <ele>1075.1</ele>
        <time>2020-12-26T14:34:52.662Z</time>
      </trkpt>
      <trkpt lat="46.06594" lon="6.1293">
        <ele>1075.1</ele>
        <time>2020-12-26T14:34:53.675Z</time>
      </trkpt>
      <trkpt lat="46.06594" lon="6.1293">
        <ele>1075.1</ele>
        <time>2020-12-26T14:34:54.678Z</time>
      </trkpt>
      <trkpt lat="46.06594" lon="6.12932">
        <ele>1075.9</ele>
        <time>2020-12-26T14:34:55.700Z</time>
      </trkpt>
      <trkpt lat="46.06598" lon="6.12943">
        <ele>1078.3</ele>
        <time>2020-12-26T14:35:00.653Z</time>
      </trkpt>
      <trkpt lat="46.06598" lon="6.12945">
        <ele>1078.5</ele>
        <time>2020-12-26T14:35:01.703Z</time>
      </trkpt>
      <trkpt lat="46.066" lon="6.12953">
        <ele>1079.4</ele>
        <time>2020-12-26T14:35:03.661Z</time>
      </trkpt>
      <trkpt lat="46.06602" lon="6.12957">
        <ele>1079.9</ele>
        <time>2020-12-26T14:35:04.673Z</time>
      </trkpt>
      <trkpt lat="46.06606" lon="6.12965">
        <ele>1080.2</ele>
        <time>2020-12-26T14:35:06.654Z</time>
      </trkpt>
      <trkpt lat="46.06607" lon="6.1297">
        <ele>1080.5</ele>
        <time>2020-12-26T14:35:07.655Z</time>
      </trkpt>
      <trkpt lat="46.06608" lon="6.12979">
        <ele>1081.1</ele>
        <time>2020-12-26T14:35:09.673Z</time>
      </trkpt>
      <trkpt lat="46.06608" lon="6.12983">
        <ele>1081.6</ele>
        <time>2020-12-26T14:35:10.655Z</time>
      </trkpt>
      <trkpt lat="46.06612" lon="6.1299">
        <ele>1082.4</ele>
        <time>2020-12-26T14:35:12.688Z</time>
      </trkpt>
      <trkpt lat="46.06613" lon="6.12994">
        <ele>1082.8</ele>
        <time>2020-12-26T14:35:13.648Z</time>
      </trkpt>
      <trkpt lat="46.06615" lon="6.12997">
        <ele>1083</ele>
        <time>2020-12-26T14:35:14.666Z</time>
      </trkpt>
      <trkpt lat="46.06615" lon="6.12997">
        <ele>1083.4</ele>
        <time>2020-12-26T14:35:16.662Z</time>
      </trkpt>
      <trkpt lat="46.06619" lon="6.13004">
        <ele>1083.5</ele>
        <time>2020-12-26T14:35:17.655Z</time>
      </trkpt>
      <trkpt lat="46.06625" lon="6.13012">
        <ele>1083.6</ele>
        <time>2020-12-26T14:35:23.659Z</time>
      </trkpt>
      <trkpt lat="46.06627" lon="6.13013">
        <ele>1083.6</ele>
        <time>2020-12-26T14:35:24.694Z</time>
      </trkpt>
      <trkpt lat="46.06633" lon="6.13021">
        <ele>1083.7</ele>
        <time>2020-12-26T14:35:28.669Z</time>
      </trkpt>
      <trkpt lat="46.06634" lon="6.13022">
        <ele>1083.7</ele>
        <time>2020-12-26T14:35:29.649Z</time>
      </trkpt>
      <trkpt lat="46.06639" lon="6.13029">
        <ele>1083.4</ele>
        <time>2020-12-26T14:35:39.679Z</time>
      </trkpt>
      <trkpt lat="46.06642" lon="6.1303">
        <ele>1083.1</ele>
        <time>2020-12-26T14:35:40.646Z</time>
      </trkpt>
      <trkpt lat="46.06642" lon="6.1303">
        <ele>1083.1</ele>
        <time>2020-12-26T14:35:41.674Z</time>
      </trkpt>
      <trkpt lat="46.06642" lon="6.1303">
        <ele>1083.1</ele>
        <time>2020-12-26T14:35:43.644Z</time>
      </trkpt>
      <trkpt lat="46.06644" lon="6.1303">
        <ele>1082.4</ele>
        <time>2020-12-26T14:35:44.650Z</time>
      </trkpt>
      <trkpt lat="46.06646" lon="6.13031">
        <ele>1081.8</ele>
        <time>2020-12-26T14:35:45.668Z</time>
      </trkpt>
      <trkpt lat="46.06649" lon="6.13032">
        <ele>1081.3</ele>
        <time>2020-12-26T14:36:26.661Z</time>
      </trkpt>
      <trkpt lat="46.0665" lon="6.13034">
        <ele>1080.6</ele>
        <time>2020-12-26T14:36:27.665Z</time>
      </trkpt>
      <trkpt lat="46.0665" lon="6.13035">
        <ele>1079.9</ele>
        <time>2020-12-26T14:36:28.650Z</time>
      </trkpt>
      <trkpt lat="46.06651" lon="6.13037">
        <ele>1079.3</ele>
        <time>2020-12-26T14:36:29.641Z</time>
      </trkpt>
      <trkpt lat="46.06651" lon="6.13037">
        <ele>1079.3</ele>
        <time>2020-12-26T14:36:46.635Z</time>
      </trkpt>
      <trkpt lat="46.06652" lon="6.13037">
        <ele>1078.9</ele>
        <time>2020-12-26T14:36:47.640Z</time>
      </trkpt>
      <trkpt lat="46.06653" lon="6.13037">
        <ele>1078.9</ele>
        <time>2020-12-26T14:36:48.685Z</time>
      </trkpt>
      <trkpt lat="46.06653" lon="6.13038">
        <ele>1078.8</ele>
        <time>2020-12-26T14:36:49.663Z</time>
      </trkpt>
      <trkpt lat="46.06653" lon="6.13038">
        <ele>1078.5</ele>
        <time>2020-12-26T14:36:50.637Z</time>
      </trkpt>
      <trkpt lat="46.06653" lon="6.13038">
        <ele>1077.9</ele>
        <time>2020-12-26T14:36:51.641Z</time>
      </trkpt>
      <trkpt lat="46.06653" lon="6.13038">
        <ele>1077.9</ele>
        <time>2020-12-26T14:36:52.689Z</time>
      </trkpt>
      <trkpt lat="46.06653" lon="6.13038">
        <ele>1077.9</ele>
        <time>2020-12-26T14:36:53.664Z</time>
      </trkpt>
      <trkpt lat="46.06653" lon="6.13039">
        <ele>1077.6</ele>
        <time>2020-12-26T14:36:54.651Z</time>
      </trkpt>
      <trkpt lat="46.0666" lon="6.13042">
        <ele>1076.8</ele>
        <time>2020-12-26T14:37:02.660Z</time>
      </trkpt>
      <trkpt lat="46.06662" lon="6.13041">
        <ele>1076.6</ele>
        <time>2020-12-26T14:37:03.627Z</time>
      </trkpt>
      <trkpt lat="46.06662" lon="6.13041">
        <ele>1076.6</ele>
        <time>2020-12-26T14:37:15.672Z</time>
      </trkpt>
      <trkpt lat="46.06661" lon="6.13041">
        <ele>1076.1</ele>
        <time>2020-12-26T14:37:16.689Z</time>
      </trkpt>
      <trkpt lat="46.06659" lon="6.13041">
        <ele>1075.6</ele>
        <time>2020-12-26T14:37:19.643Z</time>
      </trkpt>
      <trkpt lat="46.0666" lon="6.13042">
        <ele>1075.6</ele>
        <time>2020-12-26T14:37:20.659Z</time>
      </trkpt>
      <trkpt lat="46.0666" lon="6.13042">
        <ele>1075.4</ele>
        <time>2020-12-26T14:37:21.693Z</time>
      </trkpt>
      <trkpt lat="46.0666" lon="6.13042">
        <ele>1075.4</ele>
        <time>2020-12-26T14:37:22.682Z</time>
      </trkpt>
      <trkpt lat="46.06661" lon="6.13043">
        <ele>1075.6</ele>
        <time>2020-12-26T14:37:23.696Z</time>
      </trkpt>
      <trkpt lat="46.06661" lon="6.13043">
        <ele>1075.6</ele>
        <time>2020-12-26T14:37:24.700Z</time>
      </trkpt>
      <trkpt lat="46.06661" lon="6.13043">
        <ele>1075.6</ele>
        <time>2020-12-26T14:37:30.661Z</time>
      </trkpt>
      <trkpt lat="46.06663" lon="6.13043">
        <ele>1075.7</ele>
        <time>2020-12-26T14:37:31.653Z</time>
      </trkpt>
      <trkpt lat="46.06663" lon="6.13044">
        <ele>1075.9</ele>
        <time>2020-12-26T14:37:33.661Z</time>
      </trkpt>
      <trkpt lat="46.06663" lon="6.13044">
        <ele>1075.9</ele>
        <time>2020-12-26T14:37:34.643Z</time>
      </trkpt>
      <trkpt lat="46.06664" lon="6.13046">
        <ele>1076</ele>
        <time>2020-12-26T14:37:35.655Z</time>
      </trkpt>
      <trkpt lat="46.06672" lon="6.1304">
        <ele>1075.5</ele>
        <time>2020-12-26T14:37:42.667Z</time>
      </trkpt>
      <trkpt lat="46.06671" lon="6.13039">
        <ele>1075.4</ele>
        <time>2020-12-26T14:37:43.641Z</time>
      </trkpt>
      <trkpt lat="46.06671" lon="6.13039">
        <ele>1075.4</ele>
        <time>2020-12-26T14:38:29.695Z</time>
      </trkpt>
      <trkpt lat="46.06672" lon="6.1304">
        <ele>1075.6</ele>
        <time>2020-12-26T14:38:30.641Z</time>
      </trkpt>
      <trkpt lat="46.06678" lon="6.13048">
        <ele>1074.7</ele>
        <time>2020-12-26T14:38:36.657Z</time>
      </trkpt>
      <trkpt lat="46.06679" lon="6.13052">
        <ele>1074.5</ele>
        <time>2020-12-26T14:38:37.655Z</time>
      </trkpt>
      <trkpt lat="46.06679" lon="6.13054">
        <ele>1074.1</ele>
        <time>2020-12-26T14:38:38.655Z</time>
      </trkpt>
      <trkpt lat="46.0668" lon="6.13055">
        <ele>1074.1</ele>
        <time>2020-12-26T14:38:39.673Z</time>
      </trkpt>
      <trkpt lat="46.0668" lon="6.13055">
        <ele>1074.1</ele>
        <time>2020-12-26T14:38:40.671Z</time>
      </trkpt>
      <trkpt lat="46.0668" lon="6.13055">
        <ele>1074.5</ele>
        <time>2020-12-26T14:39:00.655Z</time>
      </trkpt>
      <trkpt lat="46.06679" lon="6.13057">
        <ele>1074.4</ele>
        <time>2020-12-26T14:39:01.696Z</time>
      </trkpt>
      <trkpt lat="46.06679" lon="6.13069">
        <ele>1073.7</ele>
        <time>2020-12-26T14:39:10.704Z</time>
      </trkpt>
      <trkpt lat="46.06679" lon="6.1307">
        <ele>1073.7</ele>
        <time>2020-12-26T14:39:11.660Z</time>
      </trkpt>
      <trkpt lat="46.0668" lon="6.13076">
        <ele>1073.4</ele>
        <time>2020-12-26T14:39:21.651Z</time>
      </trkpt>
      <trkpt lat="46.0668" lon="6.13076">
        <ele>1073.4</ele>
        <time>2020-12-26T14:39:22.663Z</time>
      </trkpt>
      <trkpt lat="46.0668" lon="6.13076">
        <ele>1073</ele>
        <time>2020-12-26T14:39:30.654Z</time>
      </trkpt>
      <trkpt lat="46.06679" lon="6.13091">
        <ele>1073</ele>
        <time>2020-12-26T14:39:31.666Z</time>
      </trkpt>
      <trkpt lat="46.06674" lon="6.13101">
        <ele>1067.9</ele>
        <time>2020-12-26T14:39:45.695Z</time>
      </trkpt>
      <trkpt lat="46.06673" lon="6.13101">
        <ele>1067.9</ele>
        <time>2020-12-26T14:39:46.662Z</time>
      </trkpt>
      <trkpt lat="46.0667" lon="6.13104">
        <ele>1066.9</ele>
        <time>2020-12-26T14:39:54.650Z</time>
      </trkpt>
      <trkpt lat="46.0667" lon="6.13104">
        <ele>1066.9</ele>
        <time>2020-12-26T14:39:55.682Z</time>
      </trkpt>
      <trkpt lat="46.0667" lon="6.13104">
        <ele>1066.9</ele>
        <time>2020-12-26T14:40:02.653Z</time>
      </trkpt>
      <trkpt lat="46.06667" lon="6.13106">
        <ele>1066.9</ele>
        <time>2020-12-26T14:40:03.630Z</time>
      </trkpt>
      <trkpt lat="46.06661" lon="6.13112">
        <ele>1064.4</ele>
        <time>2020-12-26T14:40:39.643Z</time>
      </trkpt>
      <trkpt lat="46.06659" lon="6.13113">
        <ele>1064.4</ele>
        <time>2020-12-26T14:40:40.667Z</time>
      </trkpt>
      <trkpt lat="46.06652" lon="6.13119">
        <ele>1063.5</ele>
        <time>2020-12-26T14:40:43.660Z</time>
      </trkpt>
      <trkpt lat="46.0665" lon="6.13121">
        <ele>1063.1</ele>
        <time>2020-12-26T14:40:44.646Z</time>
      </trkpt>
      <trkpt lat="46.06646" lon="6.13131">
        <ele>1062.4</ele>
        <time>2020-12-26T14:40:48.656Z</time>
      </trkpt>
      <trkpt lat="46.06645" lon="6.13133">
        <ele>1062.1</ele>
        <time>2020-12-26T14:40:49.664Z</time>
      </trkpt>
      <trkpt lat="46.06645" lon="6.13143">
        <ele>1060.3</ele>
        <time>2020-12-26T14:40:53.659Z</time>
      </trkpt>
      <trkpt lat="46.06645" lon="6.13147">
        <ele>1060</ele>
        <time>2020-12-26T14:40:54.632Z</time>
      </trkpt>
      <trkpt lat="46.06645" lon="6.13156">
        <ele>1059.6</ele>
        <time>2020-12-26T14:40:56.639Z</time>
      </trkpt>
      <trkpt lat="46.06645" lon="6.13161">
        <ele>1059.2</ele>
        <time>2020-12-26T14:40:57.633Z</time>
      </trkpt>
      <trkpt lat="46.06643" lon="6.13172">
        <ele>1058.9</ele>
        <time>2020-12-26T14:40:59.651Z</time>
      </trkpt>
      <trkpt lat="46.06642" lon="6.13176">
        <ele>1058.6</ele>
        <time>2020-12-26T14:41:00.684Z</time>
      </trkpt>
      <trkpt lat="46.06638" lon="6.13185">
        <ele>1057.2</ele>
        <time>2020-12-26T14:41:03.662Z</time>
      </trkpt>
      <trkpt lat="46.06635" lon="6.13185">
        <ele>1056.5</ele>
        <time>2020-12-26T14:41:04.648Z</time>
      </trkpt>
      <trkpt lat="46.06627" lon="6.13185">
        <ele>1054.8</ele>
        <time>2020-12-26T14:41:07.635Z</time>
      </trkpt>
      <trkpt lat="46.06623" lon="6.13187">
        <ele>1054.2</ele>
        <time>2020-12-26T14:41:08.653Z</time>
      </trkpt>
      <trkpt lat="46.06614" lon="6.1319">
        <ele>1053</ele>
        <time>2020-12-26T14:41:10.644Z</time>
      </trkpt>
      <trkpt lat="46.0661" lon="6.13191">
        <ele>1052.4</ele>
        <time>2020-12-26T14:41:11.662Z</time>
      </trkpt>
      <trkpt lat="46.06602" lon="6.13194">
        <ele>1051.4</ele>
        <time>2020-12-26T14:41:13.638Z</time>
      </trkpt>
      <trkpt lat="46.06597" lon="6.13194">
        <ele>1051</ele>
        <time>2020-12-26T14:41:14.641Z</time>
      </trkpt>
      <trkpt lat="46.06589" lon="6.13196">
        <ele>1050.6</ele>
        <time>2020-12-26T14:41:16.635Z</time>
      </trkpt>
      <trkpt lat="46.06586" lon="6.13196">
        <ele>1050.1</ele>
        <time>2020-12-26T14:41:17.688Z</time>
      </trkpt>
      <trkpt lat="46.06578" lon="6.13196">
        <ele>1049.1</ele>
        <time>2020-12-26T14:41:19.656Z</time>
      </trkpt>
      <trkpt lat="46.06575" lon="6.13195">
        <ele>1048.7</ele>
        <time>2020-12-26T14:41:20.641Z</time>
      </trkpt>
      <trkpt lat="46.06568" lon="6.13194">
        <ele>1047.8</ele>
        <time>2020-12-26T14:41:22.644Z</time>
      </trkpt>
      <trkpt lat="46.06565" lon="6.13193">
        <ele>1047.4</ele>
        <time>2020-12-26T14:41:23.662Z</time>
      </trkpt>
      <trkpt lat="46.06557" lon="6.1319">
        <ele>1045.5</ele>
        <time>2020-12-26T14:41:26.651Z</time>
      </trkpt>
      <trkpt lat="46.06554" lon="6.13188">
        <ele>1044.4</ele>
        <time>2020-12-26T14:41:27.652Z</time>
      </trkpt>
      <trkpt lat="46.06546" lon="6.13188">
        <ele>1041.6</ele>
        <time>2020-12-26T14:41:30.649Z</time>
      </trkpt>
      <trkpt lat="46.06544" lon="6.13188">
        <ele>1040.4</ele>
        <time>2020-12-26T14:41:31.667Z</time>
      </trkpt>
      <trkpt lat="46.06536" lon="6.13192">
        <ele>1035.4</ele>
        <time>2020-12-26T14:41:48.646Z</time>
      </trkpt>
      <trkpt lat="46.06535" lon="6.13191">
        <ele>1035.2</ele>
        <time>2020-12-26T14:41:49.641Z</time>
      </trkpt>
      <trkpt lat="46.0653" lon="6.13181">
        <ele>1030.8</ele>
        <time>2020-12-26T14:41:54.663Z</time>
      </trkpt>
      <trkpt lat="46.06529" lon="6.1318">
        <ele>1029.1</ele>
        <time>2020-12-26T14:41:55.636Z</time>
      </trkpt>
      <trkpt lat="46.0652" lon="6.13183">
        <ele>1025.9</ele>
        <time>2020-12-26T14:42:06.635Z</time>
      </trkpt>
      <trkpt lat="46.0652" lon="6.13184">
        <ele>1025.5</ele>
        <time>2020-12-26T14:42:07.670Z</time>
      </trkpt>
      <trkpt lat="46.06515" lon="6.13193">
        <ele>1023.6</ele>
        <time>2020-12-26T14:42:14.644Z</time>
      </trkpt>
      <trkpt lat="46.06514" lon="6.13194">
        <ele>1023.1</ele>
        <time>2020-12-26T14:42:15.651Z</time>
      </trkpt>
      <trkpt lat="46.06506" lon="6.132">
        <ele>1021.2</ele>
        <time>2020-12-26T14:42:24.678Z</time>
      </trkpt>
      <trkpt lat="46.06505" lon="6.13201">
        <ele>1021</ele>
        <time>2020-12-26T14:42:25.643Z</time>
      </trkpt>
      <trkpt lat="46.06502" lon="6.13211">
        <ele>1020.2</ele>
        <time>2020-12-26T14:42:29.639Z</time>
      </trkpt>
      <trkpt lat="46.06501" lon="6.13214">
        <ele>1020.1</ele>
        <time>2020-12-26T14:42:30.663Z</time>
      </trkpt>
      <trkpt lat="46.06498" lon="6.13226">
        <ele>1019.5</ele>
        <time>2020-12-26T14:42:34.642Z</time>
      </trkpt>
      <trkpt lat="46.06497" lon="6.13228">
        <ele>1019.2</ele>
        <time>2020-12-26T14:42:35.640Z</time>
      </trkpt>
      <trkpt lat="46.06496" lon="6.13239">
        <ele>1018.9</ele>
        <time>2020-12-26T14:42:38.646Z</time>
      </trkpt>
      <trkpt lat="46.06496" lon="6.13242">
        <ele>1018.6</ele>
        <time>2020-12-26T14:42:39.644Z</time>
      </trkpt>
      <trkpt lat="46.06495" lon="6.13253">
        <ele>1017.4</ele>
        <time>2020-12-26T14:42:42.636Z</time>
      </trkpt>
      <trkpt lat="46.06495" lon="6.13256">
        <ele>1017.4</ele>
        <time>2020-12-26T14:42:43.646Z</time>
      </trkpt>
      <trkpt lat="46.06495" lon="6.13266">
        <ele>1015.1</ele>
        <time>2020-12-26T14:42:46.649Z</time>
      </trkpt>
      <trkpt lat="46.06496" lon="6.13269">
        <ele>1014.6</ele>
        <time>2020-12-26T14:42:47.668Z</time>
      </trkpt>
      <trkpt lat="46.06496" lon="6.1328">
        <ele>1012.2</ele>
        <time>2020-12-26T14:42:50.645Z</time>
      </trkpt>
      <trkpt lat="46.06498" lon="6.13283">
        <ele>1011.2</ele>
        <time>2020-12-26T14:42:51.650Z</time>
      </trkpt>
      <trkpt lat="46.065" lon="6.13293">
        <ele>1008.9</ele>
        <time>2020-12-26T14:42:54.647Z</time>
      </trkpt>
      <trkpt lat="46.06501" lon="6.13296">
        <ele>1008.5</ele>
        <time>2020-12-26T14:42:55.653Z</time>
      </trkpt>
      <trkpt lat="46.06502" lon="6.13308">
        <ele>1005.6</ele>
        <time>2020-12-26T14:42:59.638Z</time>
      </trkpt>
      <trkpt lat="46.06503" lon="6.13311">
        <ele>1004.9</ele>
        <time>2020-12-26T14:43:00.633Z</time>
      </trkpt>
      <trkpt lat="46.06507" lon="6.13321">
        <ele>1002.7</ele>
        <time>2020-12-26T14:43:03.661Z</time>
      </trkpt>
      <trkpt lat="46.06508" lon="6.13324">
        <ele>1002</ele>
        <time>2020-12-26T14:43:04.649Z</time>
      </trkpt>
      <trkpt lat="46.06511" lon="6.13334">
        <ele>1000.5</ele>
        <time>2020-12-26T14:43:08.663Z</time>
      </trkpt>
      <trkpt lat="46.06512" lon="6.13337">
        <ele>999.8</ele>
        <time>2020-12-26T14:43:09.648Z</time>
      </trkpt>
      <trkpt lat="46.06516" lon="6.13346">
        <ele>997.9</ele>
        <time>2020-12-26T14:43:13.648Z</time>
      </trkpt>
      <trkpt lat="46.06517" lon="6.13349">
        <ele>997.4</ele>
        <time>2020-12-26T14:43:14.691Z</time>
      </trkpt>
      <trkpt lat="46.06522" lon="6.13359">
        <ele>995.1</ele>
        <time>2020-12-26T14:43:18.670Z</time>
      </trkpt>
      <trkpt lat="46.06523" lon="6.13361">
        <ele>995</ele>
        <time>2020-12-26T14:43:19.638Z</time>
      </trkpt>
      <trkpt lat="46.06514" lon="6.13364">
        <ele>987.8</ele>
        <time>2020-12-26T14:43:32.669Z</time>
      </trkpt>
      <trkpt lat="46.06512" lon="6.13363">
        <ele>986.4</ele>
        <time>2020-12-26T14:43:33.638Z</time>
      </trkpt>
      <trkpt lat="46.0651" lon="6.13374">
        <ele>977.1</ele>
        <time>2020-12-26T14:43:47.653Z</time>
      </trkpt>
      <trkpt lat="46.0651" lon="6.13375">
        <ele>977.1</ele>
        <time>2020-12-26T14:43:48.647Z</time>
      </trkpt>
      <trkpt lat="46.06512" lon="6.1338">
        <ele>977.1</ele>
        <time>2020-12-26T14:43:52.643Z</time>
      </trkpt>
      <trkpt lat="46.06526" lon="6.13397">
        <ele>977.1</ele>
        <time>2020-12-26T14:43:53.651Z</time>
      </trkpt>
      <trkpt lat="46.06526" lon="6.13397">
        <ele>977.1</ele>
        <time>2020-12-26T14:43:54.643Z</time>
      </trkpt>
      <trkpt lat="46.06526" lon="6.13397">
        <ele>977.1</ele>
        <time>2020-12-26T14:44:06.659Z</time>
      </trkpt>
      <trkpt lat="46.06524" lon="6.13397">
        <ele>976.9</ele>
        <time>2020-12-26T14:44:07.643Z</time>
      </trkpt>
      <trkpt lat="46.0652" lon="6.13395">
        <ele>974.5</ele>
        <time>2020-12-26T14:44:10.652Z</time>
      </trkpt>
      <trkpt lat="46.0652" lon="6.13395">
        <ele>974.5</ele>
        <time>2020-12-26T14:44:11.646Z</time>
      </trkpt>
      <trkpt lat="46.0652" lon="6.13395">
        <ele>974.5</ele>
        <time>2020-12-26T14:44:41.649Z</time>
      </trkpt>
      <trkpt lat="46.06517" lon="6.13394">
        <ele>974</ele>
        <time>2020-12-26T14:44:42.663Z</time>
      </trkpt>
      <trkpt lat="46.06514" lon="6.13394">
        <ele>973.5</ele>
        <time>2020-12-26T14:44:43.692Z</time>
      </trkpt>
      <trkpt lat="46.06512" lon="6.13392">
        <ele>972.8</ele>
        <time>2020-12-26T14:44:44.658Z</time>
      </trkpt>
      <trkpt lat="46.06511" lon="6.1339">
        <ele>972.7</ele>
        <time>2020-12-26T14:44:45.646Z</time>
      </trkpt>
      <trkpt lat="46.0651" lon="6.13389">
        <ele>972.8</ele>
        <time>2020-12-26T14:44:46.658Z</time>
      </trkpt>
      <trkpt lat="46.06508" lon="6.13388">
        <ele>973</ele>
        <time>2020-12-26T14:44:47.638Z</time>
      </trkpt>
      <trkpt lat="46.06508" lon="6.13388">
        <ele>973</ele>
        <time>2020-12-26T14:46:08.643Z</time>
      </trkpt>
      <trkpt lat="46.06507" lon="6.13387">
        <ele>972.8</ele>
        <time>2020-12-26T14:46:09.660Z</time>
      </trkpt>
      <trkpt lat="46.06499" lon="6.13382">
        <ele>970.4</ele>
        <time>2020-12-26T14:46:19.638Z</time>
      </trkpt>
      <trkpt lat="46.06498" lon="6.13381">
        <ele>969.9</ele>
        <time>2020-12-26T14:46:20.664Z</time>
      </trkpt>
      <trkpt lat="46.06493" lon="6.13373">
        <ele>968.9</ele>
        <time>2020-12-26T14:46:27.642Z</time>
      </trkpt>
      <trkpt lat="46.06491" lon="6.13372">
        <ele>968.8</ele>
        <time>2020-12-26T14:46:28.638Z</time>
      </trkpt>
      <trkpt lat="46.06486" lon="6.13363">
        <ele>968.1</ele>
        <time>2020-12-26T14:46:31.644Z</time>
      </trkpt>
      <trkpt lat="46.06485" lon="6.13362">
        <ele>967.8</ele>
        <time>2020-12-26T14:46:32.677Z</time>
      </trkpt>
      <trkpt lat="46.06483" lon="6.1336">
        <ele>967.7</ele>
        <time>2020-12-26T14:46:33.669Z</time>
      </trkpt>
      <trkpt lat="46.0648" lon="6.13359">
        <ele>967.3</ele>
        <time>2020-12-26T14:46:34.643Z</time>
      </trkpt>
      <trkpt lat="46.0648" lon="6.13359">
        <ele>966.8</ele>
        <time>2020-12-26T14:46:36.640Z</time>
      </trkpt>
      <trkpt lat="46.06478" lon="6.13357">
        <ele>966.5</ele>
        <time>2020-12-26T14:46:37.647Z</time>
      </trkpt>
      <trkpt lat="46.06475" lon="6.13351">
        <ele>965.3</ele>
        <time>2020-12-26T14:46:44.648Z</time>
      </trkpt>
      <trkpt lat="46.06475" lon="6.13351">
        <ele>965.3</ele>
        <time>2020-12-26T14:46:45.668Z</time>
      </trkpt>
      <trkpt lat="46.06475" lon="6.13351">
        <ele>965.3</ele>
        <time>2020-12-26T14:46:50.635Z</time>
      </trkpt>
      <trkpt lat="46.06472" lon="6.13348">
        <ele>965.6</ele>
        <time>2020-12-26T14:46:51.639Z</time>
      </trkpt>
      <trkpt lat="46.06465" lon="6.1334">
        <ele>966.1</ele>
        <time>2020-12-26T14:46:58.638Z</time>
      </trkpt>
      <trkpt lat="46.06464" lon="6.13339">
        <ele>966.4</ele>
        <time>2020-12-26T14:46:59.656Z</time>
      </trkpt>
      <trkpt lat="46.06458" lon="6.1333">
        <ele>966.7</ele>
        <time>2020-12-26T14:47:05.644Z</time>
      </trkpt>
      <trkpt lat="46.06458" lon="6.13328">
        <ele>966.5</ele>
        <time>2020-12-26T14:47:06.642Z</time>
      </trkpt>
      <trkpt lat="46.0646" lon="6.1334">
        <ele>977.9</ele>
        <time>2020-12-26T14:47:37.633Z</time>
      </trkpt>
      <trkpt lat="46.06463" lon="6.13344">
        <ele>978.1</ele>
        <time>2020-12-26T14:47:38.660Z</time>
      </trkpt>
      <trkpt lat="46.06469" lon="6.1335">
        <ele>978.2</ele>
        <time>2020-12-26T14:47:40.657Z</time>
      </trkpt>
      <trkpt lat="46.06472" lon="6.13352">
        <ele>978.1</ele>
        <time>2020-12-26T14:47:41.656Z</time>
      </trkpt>
      <trkpt lat="46.06478" lon="6.13357">
        <ele>978.2</ele>
        <time>2020-12-26T14:47:43.657Z</time>
      </trkpt>
      <trkpt lat="46.06481" lon="6.1336">
        <ele>978.1</ele>
        <time>2020-12-26T14:47:44.653Z</time>
      </trkpt>
      <trkpt lat="46.06488" lon="6.13365">
        <ele>978.1</ele>
        <time>2020-12-26T14:47:47.643Z</time>
      </trkpt>
      <trkpt lat="46.06491" lon="6.13367">
        <ele>978.3</ele>
        <time>2020-12-26T14:47:48.656Z</time>
      </trkpt>
      <trkpt lat="46.06498" lon="6.13372">
        <ele>978.9</ele>
        <time>2020-12-26T14:47:52.674Z</time>
      </trkpt>
      <trkpt lat="46.065" lon="6.13373">
        <ele>978.9</ele>
        <time>2020-12-26T14:47:53.639Z</time>
      </trkpt>
      <trkpt lat="46.06507" lon="6.13379">
        <ele>977.4</ele>
        <time>2020-12-26T14:48:00.665Z</time>
      </trkpt>
      <trkpt lat="46.06508" lon="6.1338">
        <ele>977.3</ele>
        <time>2020-12-26T14:48:01.665Z</time>
      </trkpt>
      <trkpt lat="46.06514" lon="6.13385">
        <ele>977.2</ele>
        <time>2020-12-26T14:48:05.662Z</time>
      </trkpt>
      <trkpt lat="46.06517" lon="6.13385">
        <ele>977.1</ele>
        <time>2020-12-26T14:48:06.642Z</time>
      </trkpt>
      <trkpt lat="46.06524" lon="6.13388">
        <ele>976.5</ele>
        <time>2020-12-26T14:48:09.650Z</time>
      </trkpt>
      <trkpt lat="46.06526" lon="6.13389">
        <ele>976.2</ele>
        <time>2020-12-26T14:48:10.645Z</time>
      </trkpt>
      <trkpt lat="46.06533" lon="6.13391">
        <ele>975.6</ele>
        <time>2020-12-26T14:48:13.683Z</time>
      </trkpt>
      <trkpt lat="46.06535" lon="6.13391">
        <ele>975.3</ele>
        <time>2020-12-26T14:48:14.651Z</time>
      </trkpt>
      <trkpt lat="46.06544" lon="6.13392">
        <ele>973</ele>
        <time>2020-12-26T14:48:20.655Z</time>
      </trkpt>
      <trkpt lat="46.06544" lon="6.13393">
        <ele>972.5</ele>
        <time>2020-12-26T14:48:21.659Z</time>
      </trkpt>
      <trkpt lat="46.06551" lon="6.13401">
        <ele>971.7</ele>
        <time>2020-12-26T14:48:27.654Z</time>
      </trkpt>
      <trkpt lat="46.06552" lon="6.13403">
        <ele>971.7</ele>
        <time>2020-12-26T14:48:28.648Z</time>
      </trkpt>
      <trkpt lat="46.06557" lon="6.13412">
        <ele>972.8</ele>
        <time>2020-12-26T14:48:33.641Z</time>
      </trkpt>
      <trkpt lat="46.06557" lon="6.13415">
        <ele>972.9</ele>
        <time>2020-12-26T14:48:34.692Z</time>
      </trkpt>
      <trkpt lat="46.06555" lon="6.13427">
        <ele>973.1</ele>
        <time>2020-12-26T14:48:39.640Z</time>
      </trkpt>
      <trkpt lat="46.06555" lon="6.13429">
        <ele>973.1</ele>
        <time>2020-12-26T14:48:40.650Z</time>
      </trkpt>
      <trkpt lat="46.06562" lon="6.13433">
        <ele>971.2</ele>
        <time>2020-12-26T14:48:49.650Z</time>
      </trkpt>
      <trkpt lat="46.06564" lon="6.13431">
        <ele>970.5</ele>
        <time>2020-12-26T14:48:50.720Z</time>
      </trkpt>
      <trkpt lat="46.06567" lon="6.13442">
        <ele>963.4</ele>
        <time>2020-12-26T14:48:58.682Z</time>
      </trkpt>
      <trkpt lat="46.06566" lon="6.13445">
        <ele>962.5</ele>
        <time>2020-12-26T14:48:59.666Z</time>
      </trkpt>
      <trkpt lat="46.06565" lon="6.13455">
        <ele>959.2</ele>
        <time>2020-12-26T14:49:05.652Z</time>
      </trkpt>
      <trkpt lat="46.06564" lon="6.13457">
        <ele>958.8</ele>
        <time>2020-12-26T14:49:06.669Z</time>
      </trkpt>
      <trkpt lat="46.06565" lon="6.13469">
        <ele>955</ele>
        <time>2020-12-26T14:49:11.644Z</time>
      </trkpt>
      <trkpt lat="46.06566" lon="6.13472">
        <ele>953.8</ele>
        <time>2020-12-26T14:49:12.650Z</time>
      </trkpt>
      <trkpt lat="46.06567" lon="6.13482">
        <ele>951.5</ele>
        <time>2020-12-26T14:49:16.653Z</time>
      </trkpt>
      <trkpt lat="46.06567" lon="6.13485">
        <ele>950.8</ele>
        <time>2020-12-26T14:49:17.634Z</time>
      </trkpt>
      <trkpt lat="46.06567" lon="6.13498">
        <ele>947.2</ele>
        <time>2020-12-26T14:49:20.664Z</time>
      </trkpt>
      <trkpt lat="46.06566" lon="6.13502">
        <ele>946.4</ele>
        <time>2020-12-26T14:49:21.648Z</time>
      </trkpt>
      <trkpt lat="46.06564" lon="6.13513">
        <ele>945.7</ele>
        <time>2020-12-26T14:49:23.670Z</time>
      </trkpt>
      <trkpt lat="46.06563" lon="6.13517">
        <ele>945.3</ele>
        <time>2020-12-26T14:49:24.686Z</time>
      </trkpt>
      <trkpt lat="46.06562" lon="6.13528">
        <ele>944.7</ele>
        <time>2020-12-26T14:49:26.671Z</time>
      </trkpt>
      <trkpt lat="46.06561" lon="6.13532">
        <ele>944.9</ele>
        <time>2020-12-26T14:49:27.648Z</time>
      </trkpt>
      <trkpt lat="46.0656" lon="6.13541">
        <ele>946.5</ele>
        <time>2020-12-26T14:49:29.643Z</time>
      </trkpt>
      <trkpt lat="46.06559" lon="6.13545">
        <ele>947.3</ele>
        <time>2020-12-26T14:49:30.639Z</time>
      </trkpt>
      <trkpt lat="46.06555" lon="6.13556">
        <ele>948.5</ele>
        <time>2020-12-26T14:49:33.637Z</time>
      </trkpt>
      <trkpt lat="46.06554" lon="6.13559">
        <ele>949.1</ele>
        <time>2020-12-26T14:49:34.649Z</time>
      </trkpt>
      <trkpt lat="46.0655" lon="6.1357">
        <ele>949.8</ele>
        <time>2020-12-26T14:49:37.644Z</time>
      </trkpt>
      <trkpt lat="46.06549" lon="6.13574">
        <ele>949.8</ele>
        <time>2020-12-26T14:49:38.644Z</time>
      </trkpt>
      <trkpt lat="46.06545" lon="6.13585">
        <ele>949.9</ele>
        <time>2020-12-26T14:49:41.641Z</time>
      </trkpt>
      <trkpt lat="46.06543" lon="6.13589">
        <ele>949.8</ele>
        <time>2020-12-26T14:49:42.686Z</time>
      </trkpt>
      <trkpt lat="46.06538" lon="6.13597">
        <ele>948.5</ele>
        <time>2020-12-26T14:49:45.654Z</time>
      </trkpt>
      <trkpt lat="46.06537" lon="6.136">
        <ele>948.2</ele>
        <time>2020-12-26T14:49:46.639Z</time>
      </trkpt>
      <trkpt lat="46.06533" lon="6.13608">
        <ele>949.8</ele>
        <time>2020-12-26T14:49:49.645Z</time>
      </trkpt>
      <trkpt lat="46.06532" lon="6.13611">
        <ele>950.4</ele>
        <time>2020-12-26T14:49:50.637Z</time>
      </trkpt>
      <trkpt lat="46.06526" lon="6.13619">
        <ele>952.1</ele>
        <time>2020-12-26T14:49:55.644Z</time>
      </trkpt>
      <trkpt lat="46.06525" lon="6.1362">
        <ele>952.1</ele>
        <time>2020-12-26T14:49:56.649Z</time>
      </trkpt>
      <trkpt lat="46.06523" lon="6.13632">
        <ele>951.6</ele>
        <time>2020-12-26T14:50:09.653Z</time>
      </trkpt>
      <trkpt lat="46.06523" lon="6.13633">
        <ele>951.6</ele>
        <time>2020-12-26T14:50:10.643Z</time>
      </trkpt>
      <trkpt lat="46.06522" lon="6.13625">
        <ele>951.6</ele>
        <time>2020-12-26T14:50:22.653Z</time>
      </trkpt>
      <trkpt lat="46.06522" lon="6.13625">
        <ele>951.6</ele>
        <time>2020-12-26T14:50:23.643Z</time>
      </trkpt>
      <trkpt lat="46.06522" lon="6.13626">
        <ele>951.6</ele>
        <time>2020-12-26T14:51:34.656Z</time>
      </trkpt>
      <trkpt lat="46.06521" lon="6.13626">
        <ele>950.8</ele>
        <time>2020-12-26T14:51:35.653Z</time>
      </trkpt>
      <trkpt lat="46.06512" lon="6.13628">
        <ele>945.1</ele>
        <time>2020-12-26T14:51:41.654Z</time>
      </trkpt>
      <trkpt lat="46.0651" lon="6.13628">
        <ele>944.2</ele>
        <time>2020-12-26T14:51:42.658Z</time>
      </trkpt>
      <trkpt lat="46.06503" lon="6.1363">
        <ele>939.9</ele>
        <time>2020-12-26T14:51:46.656Z</time>
      </trkpt>
      <trkpt lat="46.06501" lon="6.13632">
        <ele>938.9</ele>
        <time>2020-12-26T14:51:47.667Z</time>
      </trkpt>
      <trkpt lat="46.06493" lon="6.13636">
        <ele>936.7</ele>
        <time>2020-12-26T14:51:50.654Z</time>
      </trkpt>
      <trkpt lat="46.0649" lon="6.13636">
        <ele>936.3</ele>
        <time>2020-12-26T14:51:51.662Z</time>
      </trkpt>
      <trkpt lat="46.06482" lon="6.13639">
        <ele>934.3</ele>
        <time>2020-12-26T14:51:55.660Z</time>
      </trkpt>
      <trkpt lat="46.0648" lon="6.1364">
        <ele>933.9</ele>
        <time>2020-12-26T14:51:56.651Z</time>
      </trkpt>
      <trkpt lat="46.06476" lon="6.13641">
        <ele>933</ele>
        <time>2020-12-26T14:51:58.669Z</time>
      </trkpt>
      <trkpt lat="46.06474" lon="6.13641">
        <ele>932.5</ele>
        <time>2020-12-26T14:51:59.672Z</time>
      </trkpt>
      <trkpt lat="46.06474" lon="6.13641">
        <ele>931.9</ele>
        <time>2020-12-26T14:52:01.665Z</time>
      </trkpt>
      <trkpt lat="46.06471" lon="6.13642">
        <ele>931.4</ele>
        <time>2020-12-26T14:52:02.647Z</time>
      </trkpt>
      <trkpt lat="46.06463" lon="6.13644">
        <ele>929</ele>
        <time>2020-12-26T14:52:12.696Z</time>
      </trkpt>
      <trkpt lat="46.06462" lon="6.13644">
        <ele>928.7</ele>
        <time>2020-12-26T14:52:13.675Z</time>
      </trkpt>
      <trkpt lat="46.06455" lon="6.13644">
        <ele>928.4</ele>
        <time>2020-12-26T14:52:15.669Z</time>
      </trkpt>
      <trkpt lat="46.06452" lon="6.13644">
        <ele>927.9</ele>
        <time>2020-12-26T14:52:16.658Z</time>
      </trkpt>
      <trkpt lat="46.06444" lon="6.13645">
        <ele>928.8</ele>
        <time>2020-12-26T14:52:19.661Z</time>
      </trkpt>
      <trkpt lat="46.06442" lon="6.13645">
        <ele>929.1</ele>
        <time>2020-12-26T14:52:20.654Z</time>
      </trkpt>
      <trkpt lat="46.06434" lon="6.13645">
        <ele>929.1</ele>
        <time>2020-12-26T14:52:24.655Z</time>
      </trkpt>
      <trkpt lat="46.06432" lon="6.13645">
        <ele>928.9</ele>
        <time>2020-12-26T14:52:25.658Z</time>
      </trkpt>
      <trkpt lat="46.06424" lon="6.13647">
        <ele>929.4</ele>
        <time>2020-12-26T14:52:29.668Z</time>
      </trkpt>
      <trkpt lat="46.06421" lon="6.13648">
        <ele>929.5</ele>
        <time>2020-12-26T14:52:30.660Z</time>
      </trkpt>
      <trkpt lat="46.06414" lon="6.13651">
        <ele>930.7</ele>
        <time>2020-12-26T14:52:33.657Z</time>
      </trkpt>
      <trkpt lat="46.06412" lon="6.13652">
        <ele>930.6</ele>
        <time>2020-12-26T14:52:34.663Z</time>
      </trkpt>
      <trkpt lat="46.06404" lon="6.13656">
        <ele>930.1</ele>
        <time>2020-12-26T14:52:38.698Z</time>
      </trkpt>
      <trkpt lat="46.06402" lon="6.13657">
        <ele>930.2</ele>
        <time>2020-12-26T14:52:39.662Z</time>
      </trkpt>
      <trkpt lat="46.06394" lon="6.13661">
        <ele>930.5</ele>
        <time>2020-12-26T14:52:43.672Z</time>
      </trkpt>
      <trkpt lat="46.06392" lon="6.13663">
        <ele>930.4</ele>
        <time>2020-12-26T14:52:44.694Z</time>
      </trkpt>
      <trkpt lat="46.06384" lon="6.13666">
        <ele>930.5</ele>
        <time>2020-12-26T14:52:47.672Z</time>
      </trkpt>
      <trkpt lat="46.06382" lon="6.13667">
        <ele>930.8</ele>
        <time>2020-12-26T14:52:48.655Z</time>
      </trkpt>
      <trkpt lat="46.06374" lon="6.13671">
        <ele>931.3</ele>
        <time>2020-12-26T14:52:53.655Z</time>
      </trkpt>
      <trkpt lat="46.06372" lon="6.13671">
        <ele>931.3</ele>
        <time>2020-12-26T14:52:54.684Z</time>
      </trkpt>
      <trkpt lat="46.06367" lon="6.13679">
        <ele>932.8</ele>
        <time>2020-12-26T14:53:02.701Z</time>
      </trkpt>
      <trkpt lat="46.06367" lon="6.13681">
        <ele>932.9</ele>
        <time>2020-12-26T14:53:03.664Z</time>
      </trkpt>
      <trkpt lat="46.06362" lon="6.13691">
        <ele>933.2</ele>
        <time>2020-12-26T14:53:07.666Z</time>
      </trkpt>
      <trkpt lat="46.06362" lon="6.13693">
        <ele>932.7</ele>
        <time>2020-12-26T14:53:08.725Z</time>
      </trkpt>
      <trkpt lat="46.0636" lon="6.13705">
        <ele>931.1</ele>
        <time>2020-12-26T14:53:12.656Z</time>
      </trkpt>
      <trkpt lat="46.0636" lon="6.13709">
        <ele>930.9</ele>
        <time>2020-12-26T14:53:13.658Z</time>
      </trkpt>
      <trkpt lat="46.0636" lon="6.13721">
        <ele>930.7</ele>
        <time>2020-12-26T14:53:17.656Z</time>
      </trkpt>
      <trkpt lat="46.0636" lon="6.13724">
        <ele>931</ele>
        <time>2020-12-26T14:53:18.659Z</time>
      </trkpt>
      <trkpt lat="46.06359" lon="6.13733">
        <ele>933.7</ele>
        <time>2020-12-26T14:53:21.657Z</time>
      </trkpt>
      <trkpt lat="46.06359" lon="6.13737">
        <ele>934.6</ele>
        <time>2020-12-26T14:53:22.655Z</time>
      </trkpt>
      <trkpt lat="46.06357" lon="6.13748">
        <ele>937.5</ele>
        <time>2020-12-26T14:53:25.666Z</time>
      </trkpt>
      <trkpt lat="46.06356" lon="6.13751">
        <ele>938.6</ele>
        <time>2020-12-26T14:53:26.661Z</time>
      </trkpt>
      <trkpt lat="46.06351" lon="6.13761">
        <ele>937.2</ele>
        <time>2020-12-26T14:53:31.654Z</time>
      </trkpt>
      <trkpt lat="46.0635" lon="6.13762">
        <ele>936.5</ele>
        <time>2020-12-26T14:53:32.689Z</time>
      </trkpt>
      <trkpt lat="46.06342" lon="6.1376">
        <ele>935</ele>
        <time>2020-12-26T14:53:40.658Z</time>
      </trkpt>
      <trkpt lat="46.06341" lon="6.13759">
        <ele>935.1</ele>
        <time>2020-12-26T14:53:41.655Z</time>
      </trkpt>
      <trkpt lat="46.06337" lon="6.1377">
        <ele>936.3</ele>
        <time>2020-12-26T14:53:46.642Z</time>
      </trkpt>
      <trkpt lat="46.06336" lon="6.13773">
        <ele>936.2</ele>
        <time>2020-12-26T14:53:47.687Z</time>
      </trkpt>
      <trkpt lat="46.06331" lon="6.13783">
        <ele>934.5</ele>
        <time>2020-12-26T14:53:51.681Z</time>
      </trkpt>
      <trkpt lat="46.0633" lon="6.13786">
        <ele>934.1</ele>
        <time>2020-12-26T14:53:52.648Z</time>
      </trkpt>
      <trkpt lat="46.06324" lon="6.13792">
        <ele>932.8</ele>
        <time>2020-12-26T14:53:55.657Z</time>
      </trkpt>
      <trkpt lat="46.06322" lon="6.13793">
        <ele>932.5</ele>
        <time>2020-12-26T14:53:56.653Z</time>
      </trkpt>
      <trkpt lat="46.06314" lon="6.13796">
        <ele>931.2</ele>
        <time>2020-12-26T14:53:59.654Z</time>
      </trkpt>
      <trkpt lat="46.06311" lon="6.13798">
        <ele>930.9</ele>
        <time>2020-12-26T14:54:00.660Z</time>
      </trkpt>
      <trkpt lat="46.06304" lon="6.13801">
        <ele>929.2</ele>
        <time>2020-12-26T14:54:03.660Z</time>
      </trkpt>
      <trkpt lat="46.06301" lon="6.13802">
        <ele>928.8</ele>
        <time>2020-12-26T14:54:04.700Z</time>
      </trkpt>
      <trkpt lat="46.06293" lon="6.13805">
        <ele>926.9</ele>
        <time>2020-12-26T14:54:07.658Z</time>
      </trkpt>
      <trkpt lat="46.06291" lon="6.13806">
        <ele>926.4</ele>
        <time>2020-12-26T14:54:08.658Z</time>
      </trkpt>
      <trkpt lat="46.06283" lon="6.13808">
        <ele>924.7</ele>
        <time>2020-12-26T14:54:11.661Z</time>
      </trkpt>
      <trkpt lat="46.0628" lon="6.13809">
        <ele>924.3</ele>
        <time>2020-12-26T14:54:12.662Z</time>
      </trkpt>
      <trkpt lat="46.06272" lon="6.13809">
        <ele>923.6</ele>
        <time>2020-12-26T14:54:15.654Z</time>
      </trkpt>
      <trkpt lat="46.06269" lon="6.1381">
        <ele>923.4</ele>
        <time>2020-12-26T14:54:16.663Z</time>
      </trkpt>
      <trkpt lat="46.0626" lon="6.1381">
        <ele>922.5</ele>
        <time>2020-12-26T14:54:19.667Z</time>
      </trkpt>
      <trkpt lat="46.06257" lon="6.13811">
        <ele>922.1</ele>
        <time>2020-12-26T14:54:20.656Z</time>
      </trkpt>
      <trkpt lat="46.06251" lon="6.13811">
        <ele>921.1</ele>
        <time>2020-12-26T14:54:22.674Z</time>
      </trkpt>
      <trkpt lat="46.06248" lon="6.13811">
        <ele>920.6</ele>
        <time>2020-12-26T14:54:23.694Z</time>
      </trkpt>
      <trkpt lat="46.06241" lon="6.13811">
        <ele>919.7</ele>
        <time>2020-12-26T14:54:25.659Z</time>
      </trkpt>
      <trkpt lat="46.06238" lon="6.13812">
        <ele>919</ele>
        <time>2020-12-26T14:54:26.659Z</time>
      </trkpt>
      <trkpt lat="46.06232" lon="6.13812">
        <ele>917.3</ele>
        <time>2020-12-26T14:54:28.657Z</time>
      </trkpt>
      <trkpt lat="46.06228" lon="6.13813">
        <ele>916.4</ele>
        <time>2020-12-26T14:54:29.660Z</time>
      </trkpt>
      <trkpt lat="46.06222" lon="6.13813">
        <ele>914.7</ele>
        <time>2020-12-26T14:54:31.657Z</time>
      </trkpt>
      <trkpt lat="46.06218" lon="6.13814">
        <ele>914</ele>
        <time>2020-12-26T14:54:32.699Z</time>
      </trkpt>
      <trkpt lat="46.06212" lon="6.13816">
        <ele>912.4</ele>
        <time>2020-12-26T14:54:34.661Z</time>
      </trkpt>
      <trkpt lat="46.06209" lon="6.13816">
        <ele>911.6</ele>
        <time>2020-12-26T14:54:35.656Z</time>
      </trkpt>
      <trkpt lat="46.06203" lon="6.13818">
        <ele>910</ele>
        <time>2020-12-26T14:54:37.669Z</time>
      </trkpt>
      <trkpt lat="46.062" lon="6.13819">
        <ele>909.2</ele>
        <time>2020-12-26T14:54:38.652Z</time>
      </trkpt>
      <trkpt lat="46.06193" lon="6.1382">
        <ele>907.9</ele>
        <time>2020-12-26T14:54:40.697Z</time>
      </trkpt>
      <trkpt lat="46.0619" lon="6.13821">
        <ele>907.3</ele>
        <time>2020-12-26T14:54:41.666Z</time>
      </trkpt>
      <trkpt lat="46.06182" lon="6.13825">
        <ele>905.6</ele>
        <time>2020-12-26T14:54:44.700Z</time>
      </trkpt>
      <trkpt lat="46.06179" lon="6.13826">
        <ele>905.3</ele>
        <time>2020-12-26T14:54:45.668Z</time>
      </trkpt>
      <trkpt lat="46.0617" lon="6.13829">
        <ele>904.5</ele>
        <time>2020-12-26T14:54:48.656Z</time>
      </trkpt>
      <trkpt lat="46.06168" lon="6.13831">
        <ele>904.3</ele>
        <time>2020-12-26T14:54:49.668Z</time>
      </trkpt>
      <trkpt lat="46.0616" lon="6.13833">
        <ele>903.5</ele>
        <time>2020-12-26T14:54:52.663Z</time>
      </trkpt>
      <trkpt lat="46.06157" lon="6.13835">
        <ele>903.3</ele>
        <time>2020-12-26T14:54:53.658Z</time>
      </trkpt>
      <trkpt lat="46.0615" lon="6.13839">
        <ele>902.6</ele>
        <time>2020-12-26T14:54:56.693Z</time>
      </trkpt>
      <trkpt lat="46.06148" lon="6.13841">
        <ele>902.4</ele>
        <time>2020-12-26T14:54:57.650Z</time>
      </trkpt>
      <trkpt lat="46.06141" lon="6.13846">
        <ele>901.6</ele>
        <time>2020-12-26T14:55:00.661Z</time>
      </trkpt>
      <trkpt lat="46.06139" lon="6.13848">
        <ele>901.4</ele>
        <time>2020-12-26T14:55:01.660Z</time>
      </trkpt>
      <trkpt lat="46.06133" lon="6.13854">
        <ele>901.3</ele>
        <time>2020-12-26T14:55:04.665Z</time>
      </trkpt>
      <trkpt lat="46.06131" lon="6.13856">
        <ele>901</ele>
        <time>2020-12-26T14:55:05.657Z</time>
      </trkpt>
      <trkpt lat="46.06124" lon="6.13862">
        <ele>900.6</ele>
        <time>2020-12-26T14:55:08.662Z</time>
      </trkpt>
      <trkpt lat="46.06122" lon="6.13864">
        <ele>900.6</ele>
        <time>2020-12-26T14:55:09.666Z</time>
      </trkpt>
      <trkpt lat="46.06116" lon="6.13871">
        <ele>900.2</ele>
        <time>2020-12-26T14:55:12.675Z</time>
      </trkpt>
      <trkpt lat="46.06114" lon="6.13874">
        <ele>900</ele>
        <time>2020-12-26T14:55:13.685Z</time>
      </trkpt>
      <trkpt lat="46.06108" lon="6.1388">
        <ele>900.5</ele>
        <time>2020-12-26T14:55:16.660Z</time>
      </trkpt>
      <trkpt lat="46.06106" lon="6.13882">
        <ele>900.5</ele>
        <time>2020-12-26T14:55:17.659Z</time>
      </trkpt>
      <trkpt lat="46.06099" lon="6.13889">
        <ele>900.6</ele>
        <time>2020-12-26T14:55:20.683Z</time>
      </trkpt>
      <trkpt lat="46.06097" lon="6.13892">
        <ele>900.5</ele>
        <time>2020-12-26T14:55:21.659Z</time>
      </trkpt>
      <trkpt lat="46.0609" lon="6.13898">
        <ele>900.2</ele>
        <time>2020-12-26T14:55:24.658Z</time>
      </trkpt>
      <trkpt lat="46.06088" lon="6.139">
        <ele>899.9</ele>
        <time>2020-12-26T14:55:25.669Z</time>
      </trkpt>
      <trkpt lat="46.06083" lon="6.13907">
        <ele>899.5</ele>
        <time>2020-12-26T14:55:28.668Z</time>
      </trkpt>
      <trkpt lat="46.06082" lon="6.1391">
        <ele>899.3</ele>
        <time>2020-12-26T14:55:29.653Z</time>
      </trkpt>
      <trkpt lat="46.06076" lon="6.13918">
        <ele>899.9</ele>
        <time>2020-12-26T14:55:35.656Z</time>
      </trkpt>
      <trkpt lat="46.06075" lon="6.13919">
        <ele>899.6</ele>
        <time>2020-12-26T14:55:36.662Z</time>
      </trkpt>
      <trkpt lat="46.06075" lon="6.13926">
        <ele>900.5</ele>
        <time>2020-12-26T14:55:48.700Z</time>
      </trkpt>
      <trkpt lat="46.06074" lon="6.13922">
        <ele>900.5</ele>
        <time>2020-12-26T14:55:49.663Z</time>
      </trkpt>
      <trkpt lat="46.06074" lon="6.13922">
        <ele>900.5</ele>
        <time>2020-12-26T14:56:33.639Z</time>
      </trkpt>
      <trkpt lat="46.06074" lon="6.13922">
        <ele>900.7</ele>
        <time>2020-12-26T14:56:34.694Z</time>
      </trkpt>
      <trkpt lat="46.06074" lon="6.13922">
        <ele>900.7</ele>
        <time>2020-12-26T14:56:35.654Z</time>
      </trkpt>
      <trkpt lat="46.06073" lon="6.13922">
        <ele>900.7</ele>
        <time>2020-12-26T14:56:38.649Z</time>
      </trkpt>
      <trkpt lat="46.06073" lon="6.13922">
        <ele>900.7</ele>
        <time>2020-12-26T14:56:39.653Z</time>
      </trkpt>
      <trkpt lat="46.06065" lon="6.13928">
        <ele>900.4</ele>
        <time>2020-12-26T14:56:43.662Z</time>
      </trkpt>
      <trkpt lat="46.06063" lon="6.1393">
        <ele>900.3</ele>
        <time>2020-12-26T14:56:44.697Z</time>
      </trkpt>
      <trkpt lat="46.06056" lon="6.13934">
        <ele>900</ele>
        <time>2020-12-26T14:56:47.659Z</time>
      </trkpt>
      <trkpt lat="46.06053" lon="6.13935">
        <ele>899.9</ele>
        <time>2020-12-26T14:56:48.653Z</time>
      </trkpt>
      <trkpt lat="46.06046" lon="6.13938">
        <ele>899.1</ele>
        <time>2020-12-26T14:56:51.668Z</time>
      </trkpt>
      <trkpt lat="46.06043" lon="6.13939">
        <ele>899</ele>
        <time>2020-12-26T14:56:52.673Z</time>
      </trkpt>
      <trkpt lat="46.06036" lon="6.13939">
        <ele>898.3</ele>
        <time>2020-12-26T14:56:55.660Z</time>
      </trkpt>
      <trkpt lat="46.06033" lon="6.13938">
        <ele>898.2</ele>
        <time>2020-12-26T14:56:56.697Z</time>
      </trkpt>
      <trkpt lat="46.06025" lon="6.13936">
        <ele>897.6</ele>
        <time>2020-12-26T14:56:59.663Z</time>
      </trkpt>
      <trkpt lat="46.06021" lon="6.13935">
        <ele>897.4</ele>
        <time>2020-12-26T14:57:00.658Z</time>
      </trkpt>
      <trkpt lat="46.06015" lon="6.13933">
        <ele>896.9</ele>
        <time>2020-12-26T14:57:02.693Z</time>
      </trkpt>
      <trkpt lat="46.06012" lon="6.13932">
        <ele>896.6</ele>
        <time>2020-12-26T14:57:03.657Z</time>
      </trkpt>
      <trkpt lat="46.06003" lon="6.13929">
        <ele>896.1</ele>
        <time>2020-12-26T14:57:06.664Z</time>
      </trkpt>
      <trkpt lat="46.06001" lon="6.13927">
        <ele>895.8</ele>
        <time>2020-12-26T14:57:07.660Z</time>
      </trkpt>
      <trkpt lat="46.05992" lon="6.13924">
        <ele>895.2</ele>
        <time>2020-12-26T14:57:10.662Z</time>
      </trkpt>
      <trkpt lat="46.05989" lon="6.13923">
        <ele>894.9</ele>
        <time>2020-12-26T14:57:11.663Z</time>
      </trkpt>
      <trkpt lat="46.05986" lon="6.13923">
        <ele>894.7</ele>
        <time>2020-12-26T14:57:12.665Z</time>
      </trkpt>
      <trkpt lat="46.05984" lon="6.13922">
        <ele>894.5</ele>
        <time>2020-12-26T14:57:13.670Z</time>
      </trkpt>
      <trkpt lat="46.05984" lon="6.13922">
        <ele>893.7</ele>
        <time>2020-12-26T14:57:15.712Z</time>
      </trkpt>
      <trkpt lat="46.05979" lon="6.13922">
        <ele>893.2</ele>
        <time>2020-12-26T14:57:16.650Z</time>
      </trkpt>
      <trkpt lat="46.0597" lon="6.13923">
        <ele>891</ele>
        <time>2020-12-26T14:57:20.658Z</time>
      </trkpt>
      <trkpt lat="46.05968" lon="6.13925">
        <ele>890.5</ele>
        <time>2020-12-26T14:57:21.717Z</time>
      </trkpt>
      <trkpt lat="46.05962" lon="6.13926">
        <ele>889.5</ele>
        <time>2020-12-26T14:57:23.661Z</time>
      </trkpt>
      <trkpt lat="46.05958" lon="6.13928">
        <ele>888.9</ele>
        <time>2020-12-26T14:57:24.656Z</time>
      </trkpt>
      <trkpt lat="46.05949" lon="6.13929">
        <ele>887.7</ele>
        <time>2020-12-26T14:57:26.670Z</time>
      </trkpt>
      <trkpt lat="46.05946" lon="6.1393">
        <ele>887.1</ele>
        <time>2020-12-26T14:57:27.657Z</time>
      </trkpt>
      <trkpt lat="46.0594" lon="6.13929">
        <ele>885.7</ele>
        <time>2020-12-26T14:57:29.664Z</time>
      </trkpt>
      <trkpt lat="46.05937" lon="6.13931">
        <ele>884.6</ele>
        <time>2020-12-26T14:57:30.679Z</time>
      </trkpt>
      <trkpt lat="46.0593" lon="6.13932">
        <ele>883.4</ele>
        <time>2020-12-26T14:57:32.689Z</time>
      </trkpt>
      <trkpt lat="46.05927" lon="6.13932">
        <ele>883</ele>
        <time>2020-12-26T14:57:33.661Z</time>
      </trkpt>
      <trkpt lat="46.05919" lon="6.13931">
        <ele>881.3</ele>
        <time>2020-12-26T14:57:36.662Z</time>
      </trkpt>
      <trkpt lat="46.05916" lon="6.1393">
        <ele>880.8</ele>
        <time>2020-12-26T14:57:37.645Z</time>
      </trkpt>
      <trkpt lat="46.05909" lon="6.13929">
        <ele>879.7</ele>
        <time>2020-12-26T14:57:40.659Z</time>
      </trkpt>
      <trkpt lat="46.05906" lon="6.13928">
        <ele>879.4</ele>
        <time>2020-12-26T14:57:41.675Z</time>
      </trkpt>
      <trkpt lat="46.05898" lon="6.13926">
        <ele>878.4</ele>
        <time>2020-12-26T14:57:44.653Z</time>
      </trkpt>
      <trkpt lat="46.05895" lon="6.13926">
        <ele>878.1</ele>
        <time>2020-12-26T14:57:45.660Z</time>
      </trkpt>
      <trkpt lat="46.05888" lon="6.13923">
        <ele>877.5</ele>
        <time>2020-12-26T14:57:48.652Z</time>
      </trkpt>
      <trkpt lat="46.05885" lon="6.13922">
        <ele>877.3</ele>
        <time>2020-12-26T14:57:49.660Z</time>
      </trkpt>
      <trkpt lat="46.05877" lon="6.13919">
        <ele>877</ele>
        <time>2020-12-26T14:57:52.660Z</time>
      </trkpt>
      <trkpt lat="46.05874" lon="6.13918">
        <ele>876.9</ele>
        <time>2020-12-26T14:57:53.661Z</time>
      </trkpt>
      <trkpt lat="46.05866" lon="6.13915">
        <ele>876.5</ele>
        <time>2020-12-26T14:57:56.703Z</time>
      </trkpt>
      <trkpt lat="46.05864" lon="6.13913">
        <ele>876.3</ele>
        <time>2020-12-26T14:57:57.666Z</time>
      </trkpt>
      <trkpt lat="46.05856" lon="6.13908">
        <ele>876</ele>
        <time>2020-12-26T14:58:00.662Z</time>
      </trkpt>
      <trkpt lat="46.05853" lon="6.13907">
        <ele>875.8</ele>
        <time>2020-12-26T14:58:01.651Z</time>
      </trkpt>
      <trkpt lat="46.05846" lon="6.13903">
        <ele>875.3</ele>
        <time>2020-12-26T14:58:04.666Z</time>
      </trkpt>
      <trkpt lat="46.05843" lon="6.13901">
        <ele>875.2</ele>
        <time>2020-12-26T14:58:05.661Z</time>
      </trkpt>
      <trkpt lat="46.05835" lon="6.13898">
        <ele>875.2</ele>
        <time>2020-12-26T14:58:08.686Z</time>
      </trkpt>
      <trkpt lat="46.05833" lon="6.13897">
        <ele>875.1</ele>
        <time>2020-12-26T14:58:09.656Z</time>
      </trkpt>
      <trkpt lat="46.05825" lon="6.13894">
        <ele>875.3</ele>
        <time>2020-12-26T14:58:12.687Z</time>
      </trkpt>
      <trkpt lat="46.05822" lon="6.13893">
        <ele>875.5</ele>
        <time>2020-12-26T14:58:13.663Z</time>
      </trkpt>
      <trkpt lat="46.05814" lon="6.1389">
        <ele>875.2</ele>
        <time>2020-12-26T14:58:16.660Z</time>
      </trkpt>
      <trkpt lat="46.05811" lon="6.13889">
        <ele>875.1</ele>
        <time>2020-12-26T14:58:17.666Z</time>
      </trkpt>
      <trkpt lat="46.05803" lon="6.13885">
        <ele>874.9</ele>
        <time>2020-12-26T14:58:20.693Z</time>
      </trkpt>
      <trkpt lat="46.058" lon="6.13884">
        <ele>874.9</ele>
        <time>2020-12-26T14:58:21.661Z</time>
      </trkpt>
      <trkpt lat="46.05792" lon="6.13882">
        <ele>874.9</ele>
        <time>2020-12-26T14:58:24.655Z</time>
      </trkpt>
      <trkpt lat="46.05789" lon="6.13882">
        <ele>874.6</ele>
        <time>2020-12-26T14:58:25.654Z</time>
      </trkpt>
      <trkpt lat="46.0578" lon="6.1388">
        <ele>873.8</ele>
        <time>2020-12-26T14:58:28.654Z</time>
      </trkpt>
      <trkpt lat="46.05778" lon="6.1388">
        <ele>873.5</ele>
        <time>2020-12-26T14:58:29.662Z</time>
      </trkpt>
      <trkpt lat="46.0577" lon="6.13878">
        <ele>872.8</ele>
        <time>2020-12-26T14:58:32.653Z</time>
      </trkpt>
      <trkpt lat="46.05767" lon="6.13877">
        <ele>872.3</ele>
        <time>2020-12-26T14:58:33.659Z</time>
      </trkpt>
      <trkpt lat="46.05758" lon="6.13874">
        <ele>871.7</ele>
        <time>2020-12-26T14:58:36.673Z</time>
      </trkpt>
      <trkpt lat="46.05756" lon="6.13873">
        <ele>871.3</ele>
        <time>2020-12-26T14:58:37.669Z</time>
      </trkpt>
      <trkpt lat="46.05747" lon="6.13871">
        <ele>870.2</ele>
        <time>2020-12-26T14:58:40.656Z</time>
      </trkpt>
      <trkpt lat="46.05745" lon="6.1387">
        <ele>869.8</ele>
        <time>2020-12-26T14:58:41.663Z</time>
      </trkpt>
      <trkpt lat="46.05736" lon="6.1387">
        <ele>868.5</ele>
        <time>2020-12-26T14:58:44.662Z</time>
      </trkpt>
      <trkpt lat="46.05733" lon="6.13869">
        <ele>868.1</ele>
        <time>2020-12-26T14:58:45.661Z</time>
      </trkpt>
      <trkpt lat="46.05725" lon="6.1387">
        <ele>867.6</ele>
        <time>2020-12-26T14:58:48.660Z</time>
      </trkpt>
      <trkpt lat="46.05722" lon="6.1387">
        <ele>867.5</ele>
        <time>2020-12-26T14:58:49.659Z</time>
      </trkpt>
      <trkpt lat="46.05713" lon="6.13869">
        <ele>867.4</ele>
        <time>2020-12-26T14:58:52.668Z</time>
      </trkpt>
      <trkpt lat="46.05711" lon="6.13868">
        <ele>867.5</ele>
        <time>2020-12-26T14:58:53.672Z</time>
      </trkpt>
      <trkpt lat="46.05702" lon="6.13867">
        <ele>867.6</ele>
        <time>2020-12-26T14:58:56.679Z</time>
      </trkpt>
      <trkpt lat="46.057" lon="6.13866">
        <ele>867.7</ele>
        <time>2020-12-26T14:58:57.655Z</time>
      </trkpt>
      <trkpt lat="46.05692" lon="6.13866">
        <ele>868</ele>
        <time>2020-12-26T14:59:00.663Z</time>
      </trkpt>
      <trkpt lat="46.05689" lon="6.13866">
        <ele>868.1</ele>
        <time>2020-12-26T14:59:01.662Z</time>
      </trkpt>
      <trkpt lat="46.05681" lon="6.13867">
        <ele>868.8</ele>
        <time>2020-12-26T14:59:04.650Z</time>
      </trkpt>
      <trkpt lat="46.05679" lon="6.13867">
        <ele>869.1</ele>
        <time>2020-12-26T14:59:05.657Z</time>
      </trkpt>
      <trkpt lat="46.05671" lon="6.13868">
        <ele>869.7</ele>
        <time>2020-12-26T14:59:08.660Z</time>
      </trkpt>
      <trkpt lat="46.05669" lon="6.13868">
        <ele>869.9</ele>
        <time>2020-12-26T14:59:09.656Z</time>
      </trkpt>
      <trkpt lat="46.05661" lon="6.13869">
        <ele>869.9</ele>
        <time>2020-12-26T14:59:12.658Z</time>
      </trkpt>
      <trkpt lat="46.05658" lon="6.13869">
        <ele>869.7</ele>
        <time>2020-12-26T14:59:13.660Z</time>
      </trkpt>
      <trkpt lat="46.0565" lon="6.13869">
        <ele>869.2</ele>
        <time>2020-12-26T14:59:16.666Z</time>
      </trkpt>
      <trkpt lat="46.05648" lon="6.13869">
        <ele>869</ele>
        <time>2020-12-26T14:59:17.704Z</time>
      </trkpt>
      <trkpt lat="46.0564" lon="6.13866">
        <ele>868.3</ele>
        <time>2020-12-26T14:59:20.659Z</time>
      </trkpt>
      <trkpt lat="46.05638" lon="6.13864">
        <ele>867.9</ele>
        <time>2020-12-26T14:59:21.658Z</time>
      </trkpt>
      <trkpt lat="46.05632" lon="6.13859">
        <ele>866.8</ele>
        <time>2020-12-26T14:59:24.658Z</time>
      </trkpt>
      <trkpt lat="46.05629" lon="6.13856">
        <ele>866.4</ele>
        <time>2020-12-26T14:59:25.660Z</time>
      </trkpt>
      <trkpt lat="46.05622" lon="6.13851">
        <ele>865.4</ele>
        <time>2020-12-26T14:59:28.660Z</time>
      </trkpt>
      <trkpt lat="46.0562" lon="6.13849">
        <ele>865.1</ele>
        <time>2020-12-26T14:59:29.725Z</time>
      </trkpt>
      <trkpt lat="46.05614" lon="6.13841">
        <ele>864.3</ele>
        <time>2020-12-26T14:59:32.657Z</time>
      </trkpt>
      <trkpt lat="46.05613" lon="6.13838">
        <ele>864.1</ele>
        <time>2020-12-26T14:59:33.663Z</time>
      </trkpt>
      <trkpt lat="46.05608" lon="6.1383">
        <ele>863.4</ele>
        <time>2020-12-26T14:59:36.667Z</time>
      </trkpt>
      <trkpt lat="46.05607" lon="6.13826">
        <ele>863.1</ele>
        <time>2020-12-26T14:59:37.644Z</time>
      </trkpt>
      <trkpt lat="46.05603" lon="6.13816">
        <ele>862</ele>
        <time>2020-12-26T14:59:40.658Z</time>
      </trkpt>
      <trkpt lat="46.05602" lon="6.13813">
        <ele>861.7</ele>
        <time>2020-12-26T14:59:41.683Z</time>
      </trkpt>
      <trkpt lat="46.05597" lon="6.13805">
        <ele>860.6</ele>
        <time>2020-12-26T14:59:44.659Z</time>
      </trkpt>
      <trkpt lat="46.05595" lon="6.13804">
        <ele>860.3</ele>
        <time>2020-12-26T14:59:45.664Z</time>
      </trkpt>
      <trkpt lat="46.05588" lon="6.13798">
        <ele>859.4</ele>
        <time>2020-12-26T14:59:48.663Z</time>
      </trkpt>
      <trkpt lat="46.05586" lon="6.13797">
        <ele>859</ele>
        <time>2020-12-26T14:59:49.677Z</time>
      </trkpt>
      <trkpt lat="46.05579" lon="6.13793">
        <ele>858.3</ele>
        <time>2020-12-26T14:59:52.706Z</time>
      </trkpt>
      <trkpt lat="46.05577" lon="6.13791">
        <ele>857.9</ele>
        <time>2020-12-26T14:59:53.663Z</time>
      </trkpt>
      <trkpt lat="46.05571" lon="6.13785">
        <ele>857.1</ele>
        <time>2020-12-26T14:59:56.662Z</time>
      </trkpt>
      <trkpt lat="46.05569" lon="6.13783">
        <ele>856.9</ele>
        <time>2020-12-26T14:59:57.666Z</time>
      </trkpt>
      <trkpt lat="46.05563" lon="6.13778">
        <ele>856.4</ele>
        <time>2020-12-26T15:00:00.645Z</time>
      </trkpt>
      <trkpt lat="46.05561" lon="6.13776">
        <ele>856.4</ele>
        <time>2020-12-26T15:00:01.654Z</time>
      </trkpt>
      <trkpt lat="46.05554" lon="6.13771">
        <ele>856.1</ele>
        <time>2020-12-26T15:00:04.715Z</time>
      </trkpt>
      <trkpt lat="46.05552" lon="6.1377">
        <ele>856.2</ele>
        <time>2020-12-26T15:00:05.652Z</time>
      </trkpt>
      <trkpt lat="46.05546" lon="6.13765">
        <ele>856</ele>
        <time>2020-12-26T15:00:08.668Z</time>
      </trkpt>
      <trkpt lat="46.05544" lon="6.13763">
        <ele>855.8</ele>
        <time>2020-12-26T15:00:09.661Z</time>
      </trkpt>
      <trkpt lat="46.05538" lon="6.13764">
        <ele>856.1</ele>
        <time>2020-12-26T15:00:21.650Z</time>
      </trkpt>
      <trkpt lat="46.05542" lon="6.13764">
        <ele>856.1</ele>
        <time>2020-12-26T15:00:22.651Z</time>
      </trkpt>
      <trkpt lat="46.05542" lon="6.13764">
        <ele>856.1</ele>
        <time>2020-12-26T15:00:47.672Z</time>
      </trkpt>
      <trkpt lat="46.05541" lon="6.13765">
        <ele>856.5</ele>
        <time>2020-12-26T15:00:48.679Z</time>
      </trkpt>
      <trkpt lat="46.0554" lon="6.13764">
        <ele>856.8</ele>
        <time>2020-12-26T15:00:50.660Z</time>
      </trkpt>
      <trkpt lat="46.05539" lon="6.13763">
        <ele>856.8</ele>
        <time>2020-12-26T15:00:51.664Z</time>
      </trkpt>
      <trkpt lat="46.05539" lon="6.13763">
        <ele>856.8</ele>
        <time>2020-12-26T15:00:52.655Z</time>
      </trkpt>
      <trkpt lat="46.05539" lon="6.13762">
        <ele>856.8</ele>
        <time>2020-12-26T15:00:53.656Z</time>
      </trkpt>
      <trkpt lat="46.05538" lon="6.13756">
        <ele>856.7</ele>
        <time>2020-12-26T15:00:56.647Z</time>
      </trkpt>
      <trkpt lat="46.05538" lon="6.13754">
        <ele>856.6</ele>
        <time>2020-12-26T15:00:57.647Z</time>
      </trkpt>
      <trkpt lat="46.05539" lon="6.13754">
        <ele>856.6</ele>
        <time>2020-12-26T15:01:02.674Z</time>
      </trkpt>
      <trkpt lat="46.05539" lon="6.13753">
        <ele>856.6</ele>
        <time>2020-12-26T15:01:03.655Z</time>
      </trkpt>
      <trkpt lat="46.05541" lon="6.13741">
        <ele>856.9</ele>
        <time>2020-12-26T15:01:10.697Z</time>
      </trkpt>
      <trkpt lat="46.05542" lon="6.1374">
        <ele>856.8</ele>
        <time>2020-12-26T15:01:11.656Z</time>
      </trkpt>
      <trkpt lat="46.05544" lon="6.13739">
        <ele>856.6</ele>
        <time>2020-12-26T15:01:13.679Z</time>
      </trkpt>
      <trkpt lat="46.05544" lon="6.13739">
        <ele>856.5</ele>
        <time>2020-12-26T15:01:14.662Z</time>
      </trkpt>
      <trkpt lat="46.05544" lon="6.13739">
        <ele>855.5</ele>
        <time>2020-12-26T15:02:35.663Z</time>
      </trkpt>
      <trkpt lat="46.05543" lon="6.13736">
        <ele>855.6</ele>
        <time>2020-12-26T15:02:36.657Z</time>
      </trkpt>
      <trkpt lat="46.05545" lon="6.13725">
        <ele>855.8</ele>
        <time>2020-12-26T15:02:41.667Z</time>
      </trkpt>
      <trkpt lat="46.05546" lon="6.13722">
        <ele>855.4</ele>
        <time>2020-12-26T15:02:42.657Z</time>
      </trkpt>
      <trkpt lat="46.05549" lon="6.13711">
        <ele>854.8</ele>
        <time>2020-12-26T15:02:46.656Z</time>
      </trkpt>
      <trkpt lat="46.05551" lon="6.13706">
        <ele>854.2</ele>
        <time>2020-12-26T15:02:47.658Z</time>
      </trkpt>
      <trkpt lat="46.05552" lon="6.13695">
        <ele>852.5</ele>
        <time>2020-12-26T15:02:49.669Z</time>
      </trkpt>
      <trkpt lat="46.05553" lon="6.13691">
        <ele>851.9</ele>
        <time>2020-12-26T15:02:50.657Z</time>
      </trkpt>
      <trkpt lat="46.05554" lon="6.13682">
        <ele>850.8</ele>
        <time>2020-12-26T15:02:52.664Z</time>
      </trkpt>
      <trkpt lat="46.05555" lon="6.13677">
        <ele>850.4</ele>
        <time>2020-12-26T15:02:53.656Z</time>
      </trkpt>
      <trkpt lat="46.05555" lon="6.13668">
        <ele>849.6</ele>
        <time>2020-12-26T15:02:55.653Z</time>
      </trkpt>
      <trkpt lat="46.05555" lon="6.13664">
        <ele>849.2</ele>
        <time>2020-12-26T15:02:56.671Z</time>
      </trkpt>
      <trkpt lat="46.05554" lon="6.13651">
        <ele>847.8</ele>
        <time>2020-12-26T15:02:59.667Z</time>
      </trkpt>
      <trkpt lat="46.05553" lon="6.13647">
        <ele>847.4</ele>
        <time>2020-12-26T15:03:00.660Z</time>
      </trkpt>
      <trkpt lat="46.05553" lon="6.13634">
        <ele>845.5</ele>
        <time>2020-12-26T15:03:03.654Z</time>
      </trkpt>
      <trkpt lat="46.05553" lon="6.1363">
        <ele>844.6</ele>
        <time>2020-12-26T15:03:04.655Z</time>
      </trkpt>
      <trkpt lat="46.05552" lon="6.13618">
        <ele>842.7</ele>
        <time>2020-12-26T15:03:07.665Z</time>
      </trkpt>
      <trkpt lat="46.05552" lon="6.13614">
        <ele>842.2</ele>
        <time>2020-12-26T15:03:08.684Z</time>
      </trkpt>
      <trkpt lat="46.05551" lon="6.13601">
        <ele>840.9</ele>
        <time>2020-12-26T15:03:11.667Z</time>
      </trkpt>
      <trkpt lat="46.05552" lon="6.13597">
        <ele>840.3</ele>
        <time>2020-12-26T15:03:12.656Z</time>
      </trkpt>
      <trkpt lat="46.05552" lon="6.13585">
        <ele>838.2</ele>
        <time>2020-12-26T15:03:15.664Z</time>
      </trkpt>
      <trkpt lat="46.05553" lon="6.13581">
        <ele>837.6</ele>
        <time>2020-12-26T15:03:16.655Z</time>
      </trkpt>
      <trkpt lat="46.05553" lon="6.13569">
        <ele>836.7</ele>
        <time>2020-12-26T15:03:19.655Z</time>
      </trkpt>
      <trkpt lat="46.05553" lon="6.13566">
        <ele>836.4</ele>
        <time>2020-12-26T15:03:20.695Z</time>
      </trkpt>
      <trkpt lat="46.05552" lon="6.13555">
        <ele>835.3</ele>
        <time>2020-12-26T15:03:23.660Z</time>
      </trkpt>
      <trkpt lat="46.05552" lon="6.13552">
        <ele>835</ele>
        <time>2020-12-26T15:03:24.660Z</time>
      </trkpt>
      <trkpt lat="46.0555" lon="6.1354">
        <ele>833.7</ele>
        <time>2020-12-26T15:03:28.653Z</time>
      </trkpt>
      <trkpt lat="46.05549" lon="6.13538">
        <ele>833.4</ele>
        <time>2020-12-26T15:03:29.658Z</time>
      </trkpt>
      <trkpt lat="46.05544" lon="6.13528">
        <ele>832.5</ele>
        <time>2020-12-26T15:03:33.689Z</time>
      </trkpt>
      <trkpt lat="46.05544" lon="6.13525">
        <ele>832.4</ele>
        <time>2020-12-26T15:03:34.653Z</time>
      </trkpt>
      <trkpt lat="46.05551" lon="6.13522">
        <ele>830.8</ele>
        <time>2020-12-26T15:03:39.686Z</time>
      </trkpt>
      <trkpt lat="46.05553" lon="6.13522">
        <ele>830.3</ele>
        <time>2020-12-26T15:03:40.654Z</time>
      </trkpt>
      <trkpt lat="46.05561" lon="6.13524">
        <ele>828.7</ele>
        <time>2020-12-26T15:03:44.655Z</time>
      </trkpt>
      <trkpt lat="46.05563" lon="6.13524">
        <ele>828.3</ele>
        <time>2020-12-26T15:03:45.661Z</time>
      </trkpt>
      <trkpt lat="46.05571" lon="6.1353">
        <ele>826.7</ele>
        <time>2020-12-26T15:03:50.662Z</time>
      </trkpt>
      <trkpt lat="46.05572" lon="6.13531">
        <ele>826.6</ele>
        <time>2020-12-26T15:03:51.658Z</time>
      </trkpt>
      <trkpt lat="46.05578" lon="6.13528">
        <ele>826.6</ele>
        <time>2020-12-26T15:03:55.654Z</time>
      </trkpt>
      <trkpt lat="46.0558" lon="6.13524">
        <ele>826.5</ele>
        <time>2020-12-26T15:03:56.663Z</time>
      </trkpt>
      <trkpt lat="46.05586" lon="6.13518">
        <ele>825.9</ele>
        <time>2020-12-26T15:03:59.665Z</time>
      </trkpt>
      <trkpt lat="46.05588" lon="6.13517">
        <ele>825.5</ele>
        <time>2020-12-26T15:04:00.697Z</time>
      </trkpt>
      <trkpt lat="46.05595" lon="6.13509">
        <ele>824.8</ele>
        <time>2020-12-26T15:04:05.652Z</time>
      </trkpt>
      <trkpt lat="46.05596" lon="6.13508">
        <ele>824.8</ele>
        <time>2020-12-26T15:04:06.656Z</time>
      </trkpt>
      <trkpt lat="46.05597" lon="6.13496">
        <ele>824.5</ele>
        <time>2020-12-26T15:04:16.665Z</time>
      </trkpt>
      <trkpt lat="46.05596" lon="6.13495">
        <ele>824.8</ele>
        <time>2020-12-26T15:04:17.657Z</time>
      </trkpt>
      <trkpt lat="46.05587" lon="6.13494">
        <ele>829.1</ele>
        <time>2020-12-26T15:04:31.650Z</time>
      </trkpt>
      <trkpt lat="46.05587" lon="6.13494">
        <ele>829.2</ele>
        <time>2020-12-26T15:04:32.659Z</time>
      </trkpt>
      <trkpt lat="46.05587" lon="6.13482">
        <ele>834.8</ele>
        <time>2020-12-26T15:04:44.663Z</time>
      </trkpt>
      <trkpt lat="46.05587" lon="6.1348">
        <ele>835.5</ele>
        <time>2020-12-26T15:04:45.657Z</time>
      </trkpt>
      <trkpt lat="46.05586" lon="6.13468">
        <ele>836.1</ele>
        <time>2020-12-26T15:04:51.657Z</time>
      </trkpt>
      <trkpt lat="46.05586" lon="6.13466">
        <ele>836.1</ele>
        <time>2020-12-26T15:04:52.712Z</time>
      </trkpt>
      <trkpt lat="46.05584" lon="6.13453">
        <ele>834.4</ele>
        <time>2020-12-26T15:04:57.653Z</time>
      </trkpt>
      <trkpt lat="46.05585" lon="6.1345">
        <ele>834.3</ele>
        <time>2020-12-26T15:04:58.707Z</time>
      </trkpt>
      <trkpt lat="46.05589" lon="6.13439">
        <ele>832.3</ele>
        <time>2020-12-26T15:05:03.666Z</time>
      </trkpt>
      <trkpt lat="46.05589" lon="6.13436">
        <ele>831.4</ele>
        <time>2020-12-26T15:05:04.701Z</time>
      </trkpt>
      <trkpt lat="46.05585" lon="6.13427">
        <ele>830</ele>
        <time>2020-12-26T15:05:09.659Z</time>
      </trkpt>
      <trkpt lat="46.05584" lon="6.13425">
        <ele>830</ele>
        <time>2020-12-26T15:05:10.716Z</time>
      </trkpt>
      <trkpt lat="46.05579" lon="6.13415">
        <ele>830</ele>
        <time>2020-12-26T15:05:14.665Z</time>
      </trkpt>
      <trkpt lat="46.05578" lon="6.13413">
        <ele>829.8</ele>
        <time>2020-12-26T15:05:15.660Z</time>
      </trkpt>
      <trkpt lat="46.05574" lon="6.13403">
        <ele>830.2</ele>
        <time>2020-12-26T15:05:19.675Z</time>
      </trkpt>
      <trkpt lat="46.05573" lon="6.134">
        <ele>830.2</ele>
        <time>2020-12-26T15:05:20.665Z</time>
      </trkpt>
      <trkpt lat="46.0557" lon="6.13388">
        <ele>830.3</ele>
        <time>2020-12-26T15:05:24.672Z</time>
      </trkpt>
      <trkpt lat="46.05569" lon="6.13386">
        <ele>829.8</ele>
        <time>2020-12-26T15:05:25.661Z</time>
      </trkpt>
      <trkpt lat="46.05566" lon="6.13374">
        <ele>830.5</ele>
        <time>2020-12-26T15:05:30.647Z</time>
      </trkpt>
      <trkpt lat="46.05566" lon="6.13371">
        <ele>830.8</ele>
        <time>2020-12-26T15:05:31.661Z</time>
      </trkpt>
      <trkpt lat="46.05562" lon="6.1336">
        <ele>831.6</ele>
        <time>2020-12-26T15:05:35.664Z</time>
      </trkpt>
      <trkpt lat="46.05561" lon="6.13359">
        <ele>831.4</ele>
        <time>2020-12-26T15:05:36.657Z</time>
      </trkpt>
      <trkpt lat="46.05562" lon="6.13347">
        <ele>830</ele>
        <time>2020-12-26T15:05:48.648Z</time>
      </trkpt>
      <trkpt lat="46.05563" lon="6.13344">
        <ele>830</ele>
        <time>2020-12-26T15:05:49.660Z</time>
      </trkpt>
      <trkpt lat="46.05565" lon="6.13342">
        <ele>830</ele>
        <time>2020-12-26T15:05:51.648Z</time>
      </trkpt>
      <trkpt lat="46.05565" lon="6.13342">
        <ele>830</ele>
        <time>2020-12-26T15:05:52.655Z</time>
      </trkpt>
      <trkpt lat="46.05565" lon="6.13342">
        <ele>830</ele>
        <time>2020-12-26T15:06:00.657Z</time>
      </trkpt>
      <trkpt lat="46.0557" lon="6.13337">
        <ele>830</ele>
        <time>2020-12-26T15:06:01.654Z</time>
      </trkpt>
      <trkpt lat="46.05576" lon="6.1333">
        <ele>829.2</ele>
        <time>2020-12-26T15:06:11.670Z</time>
      </trkpt>
      <trkpt lat="46.05579" lon="6.1333">
        <ele>829.2</ele>
        <time>2020-12-26T15:06:12.667Z</time>
      </trkpt>
      <trkpt lat="46.05587" lon="6.1333">
        <ele>829.6</ele>
        <time>2020-12-26T15:06:18.645Z</time>
      </trkpt>
      <trkpt lat="46.05588" lon="6.13331">
        <ele>829.8</ele>
        <time>2020-12-26T15:06:19.664Z</time>
      </trkpt>
      <trkpt lat="46.05594" lon="6.13336">
        <ele>831</ele>
        <time>2020-12-26T15:06:23.660Z</time>
      </trkpt>
      <trkpt lat="46.05596" lon="6.13337">
        <ele>831.2</ele>
        <time>2020-12-26T15:06:24.660Z</time>
      </trkpt>
      <trkpt lat="46.05604" lon="6.13343">
        <ele>832.6</ele>
        <time>2020-12-26T15:06:29.653Z</time>
      </trkpt>
      <trkpt lat="46.05605" lon="6.13344">
        <ele>833</ele>
        <time>2020-12-26T15:06:30.656Z</time>
      </trkpt>
      <trkpt lat="46.05613" lon="6.13346">
        <ele>834.1</ele>
        <time>2020-12-26T15:06:35.667Z</time>
      </trkpt>
      <trkpt lat="46.05615" lon="6.13347">
        <ele>834.1</ele>
        <time>2020-12-26T15:06:36.653Z</time>
      </trkpt>
      <trkpt lat="46.05621" lon="6.13341">
        <ele>833.5</ele>
        <time>2020-12-26T15:06:40.682Z</time>
      </trkpt>
      <trkpt lat="46.05622" lon="6.13338">
        <ele>833.2</ele>
        <time>2020-12-26T15:06:41.656Z</time>
      </trkpt>
      <trkpt lat="46.0562" lon="6.13326">
        <ele>832.3</ele>
        <time>2020-12-26T15:06:47.664Z</time>
      </trkpt>
      <trkpt lat="46.0562" lon="6.13325">
        <ele>832.1</ele>
        <time>2020-12-26T15:06:48.662Z</time>
      </trkpt>
      <trkpt lat="46.05619" lon="6.13325">
        <ele>831</ele>
        <time>2020-12-26T15:06:55.662Z</time>
      </trkpt>
      <trkpt lat="46.05619" lon="6.13326">
        <ele>831</ele>
        <time>2020-12-26T15:06:56.694Z</time>
      </trkpt>
      <trkpt lat="46.05619" lon="6.13327">
        <ele>831</ele>
        <time>2020-12-26T15:06:57.664Z</time>
      </trkpt>
      <trkpt lat="46.05619" lon="6.13328">
        <ele>831</ele>
        <time>2020-12-26T15:06:58.657Z</time>
      </trkpt>
      <trkpt lat="46.0562" lon="6.13328">
        <ele>831</ele>
        <time>2020-12-26T15:06:59.658Z</time>
      </trkpt>
      <trkpt lat="46.0562" lon="6.1333">
        <ele>831</ele>
        <time>2020-12-26T15:07:00.693Z</time>
      </trkpt>
      <trkpt lat="46.0562" lon="6.13331">
        <ele>831</ele>
        <time>2020-12-26T15:07:01.663Z</time>
      </trkpt>
      <trkpt lat="46.0562" lon="6.13332">
        <ele>831</ele>
        <time>2020-12-26T15:07:02.710Z</time>
      </trkpt>
      <trkpt lat="46.05621" lon="6.13334">
        <ele>831</ele>
        <time>2020-12-26T15:07:04.655Z</time>
      </trkpt>
      <trkpt lat="46.05621" lon="6.13335">
        <ele>831</ele>
        <time>2020-12-26T15:07:05.654Z</time>
      </trkpt>
      <trkpt lat="46.05621" lon="6.13335">
        <ele>831</ele>
        <time>2020-12-26T15:07:11.670Z</time>
      </trkpt>
      <trkpt lat="46.05621" lon="6.1334">
        <ele>831</ele>
        <time>2020-12-26T15:07:12.662Z</time>
      </trkpt>
      <trkpt lat="46.05618" lon="6.13342">
        <ele>830.6</ele>
        <time>2020-12-26T15:07:18.669Z</time>
      </trkpt>
      <trkpt lat="46.05618" lon="6.13342">
        <ele>830.6</ele>
        <time>2020-12-26T15:07:19.661Z</time>
      </trkpt>
      <trkpt lat="46.05618" lon="6.13342">
        <ele>830.9</ele>
        <time>2020-12-26T15:07:22.696Z</time>
      </trkpt>
      <trkpt lat="46.05618" lon="6.13345">
        <ele>831.2</ele>
        <time>2020-12-26T15:07:23.663Z</time>
      </trkpt>
      <trkpt lat="46.05622" lon="6.13356">
        <ele>833.6</ele>
        <time>2020-12-26T15:07:29.658Z</time>
      </trkpt>
      <trkpt lat="46.05623" lon="6.13357">
        <ele>833.9</ele>
        <time>2020-12-26T15:07:30.659Z</time>
      </trkpt>
      <trkpt lat="46.0563" lon="6.1336">
        <ele>835.3</ele>
        <time>2020-12-26T15:07:39.666Z</time>
      </trkpt>
      <trkpt lat="46.0563" lon="6.1336">
        <ele>835.3</ele>
        <time>2020-12-26T15:07:40.655Z</time>
      </trkpt>
      <trkpt lat="46.0563" lon="6.1336">
        <ele>835.3</ele>
        <time>2020-12-26T15:07:48.683Z</time>
      </trkpt>
      <trkpt lat="46.05632" lon="6.13361">
        <ele>835.3</ele>
        <time>2020-12-26T15:07:49.668Z</time>
      </trkpt>
      <trkpt lat="46.05634" lon="6.13361">
        <ele>835.3</ele>
        <time>2020-12-26T15:08:13.650Z</time>
      </trkpt>
      <trkpt lat="46.05634" lon="6.13361">
        <ele>835.3</ele>
        <time>2020-12-26T15:08:14.645Z</time>
      </trkpt>
      <trkpt lat="46.05634" lon="6.13361">
        <ele>835</ele>
        <time>2020-12-26T15:08:19.641Z</time>
      </trkpt>
      <trkpt lat="46.05634" lon="6.13361">
        <ele>835.3</ele>
        <time>2020-12-26T15:08:20.659Z</time>
      </trkpt>
      <trkpt lat="46.05643" lon="6.13363">
        <ele>836.9</ele>
        <time>2020-12-26T15:08:29.668Z</time>
      </trkpt>
      <trkpt lat="46.05644" lon="6.13363">
        <ele>837.3</ele>
        <time>2020-12-26T15:08:30.664Z</time>
      </trkpt>
      <trkpt lat="46.05647" lon="6.13366">
        <ele>838.2</ele>
        <time>2020-12-26T15:08:39.651Z</time>
      </trkpt>
      <trkpt lat="46.05647" lon="6.13366">
        <ele>838.2</ele>
        <time>2020-12-26T15:08:40.665Z</time>
      </trkpt>
      <trkpt lat="46.05647" lon="6.13366">
        <ele>838.2</ele>
        <time>2020-12-26T15:08:42.646Z</time>
      </trkpt>
      <trkpt lat="46.05648" lon="6.13367">
        <ele>838.4</ele>
        <time>2020-12-26T15:08:43.659Z</time>
      </trkpt>
      <trkpt lat="46.05639" lon="6.13365">
        <ele>840.3</ele>
        <time>2020-12-26T15:08:52.691Z</time>
      </trkpt>
      <trkpt lat="46.05638" lon="6.13365">
        <ele>840</ele>
        <time>2020-12-26T15:08:53.659Z</time>
      </trkpt>
      <trkpt lat="46.0563" lon="6.1336">
        <ele>839.7</ele>
        <time>2020-12-26T15:08:58.648Z</time>
      </trkpt>
      <trkpt lat="46.05629" lon="6.13359">
        <ele>839.6</ele>
        <time>2020-12-26T15:08:59.656Z</time>
      </trkpt>
      <trkpt lat="46.05628" lon="6.13348">
        <ele>840.3</ele>
        <time>2020-12-26T15:09:12.655Z</time>
      </trkpt>
      <trkpt lat="46.05627" lon="6.13346">
        <ele>840.3</ele>
        <time>2020-12-26T15:09:13.651Z</time>
      </trkpt>
      <trkpt lat="46.05624" lon="6.13335">
        <ele>840.6</ele>
        <time>2020-12-26T15:09:19.671Z</time>
      </trkpt>
      <trkpt lat="46.05624" lon="6.13333">
        <ele>840.3</ele>
        <time>2020-12-26T15:09:20.650Z</time>
      </trkpt>
      <trkpt lat="46.05622" lon="6.13321">
        <ele>840.9</ele>
        <time>2020-12-26T15:09:29.665Z</time>
      </trkpt>
      <trkpt lat="46.05621" lon="6.1332">
        <ele>840.9</ele>
        <time>2020-12-26T15:09:30.658Z</time>
      </trkpt>
      <trkpt lat="46.05618" lon="6.13309">
        <ele>840.3</ele>
        <time>2020-12-26T15:09:39.649Z</time>
      </trkpt>
      <trkpt lat="46.05618" lon="6.13308">
        <ele>840.1</ele>
        <time>2020-12-26T15:09:40.662Z</time>
      </trkpt>
      <trkpt lat="46.05615" lon="6.13296">
        <ele>839.8</ele>
        <time>2020-12-26T15:09:48.701Z</time>
      </trkpt>
      <trkpt lat="46.05614" lon="6.13294">
        <ele>839.7</ele>
        <time>2020-12-26T15:09:49.662Z</time>
      </trkpt>
      <trkpt lat="46.05612" lon="6.13283">
        <ele>839.4</ele>
        <time>2020-12-26T15:09:56.724Z</time>
      </trkpt>
      <trkpt lat="46.05612" lon="6.1328">
        <ele>839.8</ele>
        <time>2020-12-26T15:09:57.655Z</time>
      </trkpt>
      <trkpt lat="46.05614" lon="6.13269">
        <ele>841.3</ele>
        <time>2020-12-26T15:10:05.670Z</time>
      </trkpt>
      <trkpt lat="46.05615" lon="6.13267">
        <ele>841.7</ele>
        <time>2020-12-26T15:10:06.673Z</time>
      </trkpt>
      <trkpt lat="46.05616" lon="6.13254">
        <ele>844.1</ele>
        <time>2020-12-26T15:10:15.668Z</time>
      </trkpt>
      <trkpt lat="46.05616" lon="6.13253">
        <ele>844.1</ele>
        <time>2020-12-26T15:10:16.657Z</time>
      </trkpt>
      <trkpt lat="46.05624" lon="6.13247">
        <ele>845.2</ele>
        <time>2020-12-26T15:10:23.663Z</time>
      </trkpt>
      <trkpt lat="46.05625" lon="6.13246">
        <ele>845.2</ele>
        <time>2020-12-26T15:10:24.668Z</time>
      </trkpt>
      <trkpt lat="46.05632" lon="6.13238">
        <ele>846.7</ele>
        <time>2020-12-26T15:10:31.698Z</time>
      </trkpt>
      <trkpt lat="46.05633" lon="6.13237">
        <ele>846.9</ele>
        <time>2020-12-26T15:10:32.654Z</time>
      </trkpt>
      <trkpt lat="46.0564" lon="6.13231">
        <ele>848.3</ele>
        <time>2020-12-26T15:10:39.668Z</time>
      </trkpt>
      <trkpt lat="46.05641" lon="6.13229">
        <ele>848.7</ele>
        <time>2020-12-26T15:10:40.663Z</time>
      </trkpt>
      <trkpt lat="46.05647" lon="6.13221">
        <ele>852.9</ele>
        <time>2020-12-26T15:10:48.666Z</time>
      </trkpt>
      <trkpt lat="46.05648" lon="6.13221">
        <ele>853.2</ele>
        <time>2020-12-26T15:10:49.665Z</time>
      </trkpt>
      <trkpt lat="46.05655" lon="6.13215">
        <ele>856.5</ele>
        <time>2020-12-26T15:11:07.682Z</time>
      </trkpt>
      <trkpt lat="46.05656" lon="6.13214">
        <ele>856.9</ele>
        <time>2020-12-26T15:11:08.660Z</time>
      </trkpt>
      <trkpt lat="46.05654" lon="6.13202">
        <ele>858.4</ele>
        <time>2020-12-26T15:11:26.666Z</time>
      </trkpt>
      <trkpt lat="46.05653" lon="6.13201">
        <ele>858.7</ele>
        <time>2020-12-26T15:11:27.661Z</time>
      </trkpt>
      <trkpt lat="46.05647" lon="6.13192">
        <ele>863.9</ele>
        <time>2020-12-26T15:11:39.659Z</time>
      </trkpt>
      <trkpt lat="46.05647" lon="6.13192">
        <ele>864.4</ele>
        <time>2020-12-26T15:11:40.690Z</time>
      </trkpt>
      <trkpt lat="46.05639" lon="6.13187">
        <ele>869</ele>
        <time>2020-12-26T15:11:51.668Z</time>
      </trkpt>
      <trkpt lat="46.05638" lon="6.13185">
        <ele>869.4</ele>
        <time>2020-12-26T15:11:52.667Z</time>
      </trkpt>
      <trkpt lat="46.05631" lon="6.13177">
        <ele>869</ele>
        <time>2020-12-26T15:11:58.660Z</time>
      </trkpt>
      <trkpt lat="46.0563" lon="6.13176">
        <ele>868.7</ele>
        <time>2020-12-26T15:11:59.656Z</time>
      </trkpt>
      <trkpt lat="46.05624" lon="6.13167">
        <ele>868.9</ele>
        <time>2020-12-26T15:12:05.672Z</time>
      </trkpt>
      <trkpt lat="46.05623" lon="6.13165">
        <ele>869</ele>
        <time>2020-12-26T15:12:06.670Z</time>
      </trkpt>
      <trkpt lat="46.05618" lon="6.13156">
        <ele>869.5</ele>
        <time>2020-12-26T15:12:12.657Z</time>
      </trkpt>
      <trkpt lat="46.05617" lon="6.13154">
        <ele>869.5</ele>
        <time>2020-12-26T15:12:13.661Z</time>
      </trkpt>
      <trkpt lat="46.05613" lon="6.13143">
        <ele>870</ele>
        <time>2020-12-26T15:12:21.700Z</time>
      </trkpt>
      <trkpt lat="46.05612" lon="6.13142">
        <ele>870</ele>
        <time>2020-12-26T15:12:22.668Z</time>
      </trkpt>
      <trkpt lat="46.05604" lon="6.13146">
        <ele>871.3</ele>
        <time>2020-12-26T15:12:36.667Z</time>
      </trkpt>
      <trkpt lat="46.05603" lon="6.13147">
        <ele>870.4</ele>
        <time>2020-12-26T15:12:37.672Z</time>
      </trkpt>
      <trkpt lat="46.05596" lon="6.13142">
        <ele>871.1</ele>
        <time>2020-12-26T15:12:39.660Z</time>
      </trkpt>
      <trkpt lat="46.05593" lon="6.13137">
        <ele>872.2</ele>
        <time>2020-12-26T15:12:40.677Z</time>
      </trkpt>
      <trkpt lat="46.0559" lon="6.13127">
        <ele>872.8</ele>
        <time>2020-12-26T15:12:43.660Z</time>
      </trkpt>
      <trkpt lat="46.05589" lon="6.13124">
        <ele>873.3</ele>
        <time>2020-12-26T15:12:44.659Z</time>
      </trkpt>
      <trkpt lat="46.05589" lon="6.13116">
        <ele>874.4</ele>
        <time>2020-12-26T15:12:46.669Z</time>
      </trkpt>
      <trkpt lat="46.05587" lon="6.13109">
        <ele>875.2</ele>
        <time>2020-12-26T15:12:47.654Z</time>
      </trkpt>
      <trkpt lat="46.05583" lon="6.13099">
        <ele>875.7</ele>
        <time>2020-12-26T15:12:50.690Z</time>
      </trkpt>
      <trkpt lat="46.05582" lon="6.13097">
        <ele>875.9</ele>
        <time>2020-12-26T15:12:51.694Z</time>
      </trkpt>
      <trkpt lat="46.05576" lon="6.13089">
        <ele>880.3</ele>
        <time>2020-12-26T15:12:56.655Z</time>
      </trkpt>
      <trkpt lat="46.05575" lon="6.13088">
        <ele>880.6</ele>
        <time>2020-12-26T15:12:57.674Z</time>
      </trkpt>
      <trkpt lat="46.05568" lon="6.13079">
        <ele>883.5</ele>
        <time>2020-12-26T15:13:04.661Z</time>
      </trkpt>
      <trkpt lat="46.05567" lon="6.13078">
        <ele>883.7</ele>
        <time>2020-12-26T15:13:05.659Z</time>
      </trkpt>
      <trkpt lat="46.05561" lon="6.1307">
        <ele>885.1</ele>
        <time>2020-12-26T15:13:12.648Z</time>
      </trkpt>
      <trkpt lat="46.0556" lon="6.13069">
        <ele>885.5</ele>
        <time>2020-12-26T15:13:13.663Z</time>
      </trkpt>
      <trkpt lat="46.05553" lon="6.13064">
        <ele>886.8</ele>
        <time>2020-12-26T15:13:20.663Z</time>
      </trkpt>
      <trkpt lat="46.05552" lon="6.13063">
        <ele>887.1</ele>
        <time>2020-12-26T15:13:21.693Z</time>
      </trkpt>
      <trkpt lat="46.05545" lon="6.13058">
        <ele>888.2</ele>
        <time>2020-12-26T15:13:26.674Z</time>
      </trkpt>
      <trkpt lat="46.05543" lon="6.13057">
        <ele>888.3</ele>
        <time>2020-12-26T15:13:27.653Z</time>
      </trkpt>
      <trkpt lat="46.05536" lon="6.13053">
        <ele>887.6</ele>
        <time>2020-12-26T15:13:32.640Z</time>
      </trkpt>
      <trkpt lat="46.05535" lon="6.13052">
        <ele>887.1</ele>
        <time>2020-12-26T15:13:33.671Z</time>
      </trkpt>
      <trkpt lat="46.05528" lon="6.13046">
        <ele>885.6</ele>
        <time>2020-12-26T15:13:38.649Z</time>
      </trkpt>
      <trkpt lat="46.05526" lon="6.13043">
        <ele>885.2</ele>
        <time>2020-12-26T15:13:39.670Z</time>
      </trkpt>
      <trkpt lat="46.0552" lon="6.13037">
        <ele>884.2</ele>
        <time>2020-12-26T15:13:42.654Z</time>
      </trkpt>
      <trkpt lat="46.05518" lon="6.13035">
        <ele>883.9</ele>
        <time>2020-12-26T15:13:43.656Z</time>
      </trkpt>
      <trkpt lat="46.05512" lon="6.13028">
        <ele>882.6</ele>
        <time>2020-12-26T15:13:47.655Z</time>
      </trkpt>
      <trkpt lat="46.05511" lon="6.13027">
        <ele>882.5</ele>
        <time>2020-12-26T15:13:48.668Z</time>
      </trkpt>
      <trkpt lat="46.05504" lon="6.13023">
        <ele>882.2</ele>
        <time>2020-12-26T15:13:54.660Z</time>
      </trkpt>
      <trkpt lat="46.05502" lon="6.13022">
        <ele>882.2</ele>
        <time>2020-12-26T15:13:55.664Z</time>
      </trkpt>
      <trkpt lat="46.05495" lon="6.13014">
        <ele>882.1</ele>
        <time>2020-12-26T15:14:02.663Z</time>
      </trkpt>
      <trkpt lat="46.05495" lon="6.13013">
        <ele>882.2</ele>
        <time>2020-12-26T15:14:03.663Z</time>
      </trkpt>
      <trkpt lat="46.0549" lon="6.13004">
        <ele>883.4</ele>
        <time>2020-12-26T15:14:12.669Z</time>
      </trkpt>
      <trkpt lat="46.05489" lon="6.13002">
        <ele>883.6</ele>
        <time>2020-12-26T15:14:13.680Z</time>
      </trkpt>
      <trkpt lat="46.05483" lon="6.12995">
        <ele>882.2</ele>
        <time>2020-12-26T15:14:18.651Z</time>
      </trkpt>
      <trkpt lat="46.05482" lon="6.12993">
        <ele>882.2</ele>
        <time>2020-12-26T15:14:19.662Z</time>
      </trkpt>
      <trkpt lat="46.05477" lon="6.12983">
        <ele>882.7</ele>
        <time>2020-12-26T15:14:24.658Z</time>
      </trkpt>
      <trkpt lat="46.05475" lon="6.12981">
        <ele>882.9</ele>
        <time>2020-12-26T15:14:25.669Z</time>
      </trkpt>
      <trkpt lat="46.05469" lon="6.12971">
        <ele>884.7</ele>
        <time>2020-12-26T15:14:30.671Z</time>
      </trkpt>
      <trkpt lat="46.05468" lon="6.1297">
        <ele>885.1</ele>
        <time>2020-12-26T15:14:31.664Z</time>
      </trkpt>
      <trkpt lat="46.05463" lon="6.12963">
        <ele>887.2</ele>
        <time>2020-12-26T15:14:35.673Z</time>
      </trkpt>
      <trkpt lat="46.05461" lon="6.1296">
        <ele>887.7</ele>
        <time>2020-12-26T15:14:36.693Z</time>
      </trkpt>
      <trkpt lat="46.05455" lon="6.12953">
        <ele>889.5</ele>
        <time>2020-12-26T15:14:40.665Z</time>
      </trkpt>
      <trkpt lat="46.05454" lon="6.12951">
        <ele>889.6</ele>
        <time>2020-12-26T15:14:41.660Z</time>
      </trkpt>
      <trkpt lat="46.05448" lon="6.12943">
        <ele>889.9</ele>
        <time>2020-12-26T15:14:46.655Z</time>
      </trkpt>
      <trkpt lat="46.05447" lon="6.12941">
        <ele>890.1</ele>
        <time>2020-12-26T15:14:47.654Z</time>
      </trkpt>
      <trkpt lat="46.05442" lon="6.12931">
        <ele>891.2</ele>
        <time>2020-12-26T15:14:54.644Z</time>
      </trkpt>
      <trkpt lat="46.05442" lon="6.1293">
        <ele>891.4</ele>
        <time>2020-12-26T15:14:55.662Z</time>
      </trkpt>
      <trkpt lat="46.05437" lon="6.1292">
        <ele>894.8</ele>
        <time>2020-12-26T15:15:03.678Z</time>
      </trkpt>
      <trkpt lat="46.05436" lon="6.12919">
        <ele>895.2</ele>
        <time>2020-12-26T15:15:04.654Z</time>
      </trkpt>
      <trkpt lat="46.0543" lon="6.12911">
        <ele>898</ele>
        <time>2020-12-26T15:15:10.649Z</time>
      </trkpt>
      <trkpt lat="46.05429" lon="6.12909">
        <ele>898.5</ele>
        <time>2020-12-26T15:15:11.671Z</time>
      </trkpt>
      <trkpt lat="46.05422" lon="6.129">
        <ele>899.2</ele>
        <time>2020-12-26T15:15:17.655Z</time>
      </trkpt>
      <trkpt lat="46.05421" lon="6.12899">
        <ele>899.5</ele>
        <time>2020-12-26T15:15:18.659Z</time>
      </trkpt>
      <trkpt lat="46.05416" lon="6.12889">
        <ele>900.7</ele>
        <time>2020-12-26T15:15:23.661Z</time>
      </trkpt>
      <trkpt lat="46.05414" lon="6.12887">
        <ele>900.8</ele>
        <time>2020-12-26T15:15:24.692Z</time>
      </trkpt>
      <trkpt lat="46.05409" lon="6.12878">
        <ele>900</ele>
        <time>2020-12-26T15:15:28.641Z</time>
      </trkpt>
      <trkpt lat="46.05408" lon="6.12876">
        <ele>900</ele>
        <time>2020-12-26T15:15:29.663Z</time>
      </trkpt>
      <trkpt lat="46.05403" lon="6.12867">
        <ele>900.1</ele>
        <time>2020-12-26T15:15:35.678Z</time>
      </trkpt>
      <trkpt lat="46.05402" lon="6.12865">
        <ele>900.1</ele>
        <time>2020-12-26T15:15:36.644Z</time>
      </trkpt>
      <trkpt lat="46.05398" lon="6.12854">
        <ele>899.3</ele>
        <time>2020-12-26T15:15:48.661Z</time>
      </trkpt>
      <trkpt lat="46.05398" lon="6.12853">
        <ele>899.2</ele>
        <time>2020-12-26T15:15:49.654Z</time>
      </trkpt>
      <trkpt lat="46.05392" lon="6.12843">
        <ele>899.9</ele>
        <time>2020-12-26T15:15:56.647Z</time>
      </trkpt>
      <trkpt lat="46.05391" lon="6.12842">
        <ele>899.7</ele>
        <time>2020-12-26T15:15:57.662Z</time>
      </trkpt>
      <trkpt lat="46.05385" lon="6.12834">
        <ele>899.7</ele>
        <time>2020-12-26T15:16:04.676Z</time>
      </trkpt>
      <trkpt lat="46.05384" lon="6.12833">
        <ele>899.9</ele>
        <time>2020-12-26T15:16:05.675Z</time>
      </trkpt>
      <trkpt lat="46.05379" lon="6.12827">
        <ele>899.8</ele>
        <time>2020-12-26T15:16:10.668Z</time>
      </trkpt>
      <trkpt lat="46.05377" lon="6.12824">
        <ele>899.8</ele>
        <time>2020-12-26T15:16:11.652Z</time>
      </trkpt>
      <trkpt lat="46.05372" lon="6.12817">
        <ele>900.2</ele>
        <time>2020-12-26T15:16:14.690Z</time>
      </trkpt>
      <trkpt lat="46.0537" lon="6.12815">
        <ele>900.4</ele>
        <time>2020-12-26T15:16:15.664Z</time>
      </trkpt>
      <trkpt lat="46.05363" lon="6.12809">
        <ele>901.4</ele>
        <time>2020-12-26T15:16:20.648Z</time>
      </trkpt>
      <trkpt lat="46.05361" lon="6.12808">
        <ele>901.7</ele>
        <time>2020-12-26T15:16:21.661Z</time>
      </trkpt>
      <trkpt lat="46.05354" lon="6.12803">
        <ele>903.1</ele>
        <time>2020-12-26T15:16:29.639Z</time>
      </trkpt>
      <trkpt lat="46.05352" lon="6.12802">
        <ele>903.1</ele>
        <time>2020-12-26T15:16:30.684Z</time>
      </trkpt>
      <trkpt lat="46.05345" lon="6.12797">
        <ele>904.4</ele>
        <time>2020-12-26T15:16:35.662Z</time>
      </trkpt>
      <trkpt lat="46.05344" lon="6.12795">
        <ele>905.2</ele>
        <time>2020-12-26T15:16:36.679Z</time>
      </trkpt>
      <trkpt lat="46.05337" lon="6.12789">
        <ele>905</ele>
        <time>2020-12-26T15:16:42.641Z</time>
      </trkpt>
      <trkpt lat="46.05336" lon="6.12788">
        <ele>904.4</ele>
        <time>2020-12-26T15:16:43.668Z</time>
      </trkpt>
      <trkpt lat="46.05329" lon="6.12782">
        <ele>904</ele>
        <time>2020-12-26T15:16:46.663Z</time>
      </trkpt>
      <trkpt lat="46.05327" lon="6.12781">
        <ele>904</ele>
        <time>2020-12-26T15:16:47.657Z</time>
      </trkpt>
      <trkpt lat="46.0532" lon="6.12775">
        <ele>903.9</ele>
        <time>2020-12-26T15:16:51.655Z</time>
      </trkpt>
      <trkpt lat="46.05319" lon="6.12774">
        <ele>904</ele>
        <time>2020-12-26T15:16:52.660Z</time>
      </trkpt>
      <trkpt lat="46.05311" lon="6.12767">
        <ele>902.3</ele>
        <time>2020-12-26T15:16:58.692Z</time>
      </trkpt>
      <trkpt lat="46.0531" lon="6.12766">
        <ele>901.9</ele>
        <time>2020-12-26T15:16:59.674Z</time>
      </trkpt>
      <trkpt lat="46.05302" lon="6.12761">
        <ele>900.3</ele>
        <time>2020-12-26T15:17:05.646Z</time>
      </trkpt>
      <trkpt lat="46.05301" lon="6.1276">
        <ele>900</ele>
        <time>2020-12-26T15:17:06.654Z</time>
      </trkpt>
      <trkpt lat="46.05293" lon="6.12755">
        <ele>899.1</ele>
        <time>2020-12-26T15:17:12.646Z</time>
      </trkpt>
      <trkpt lat="46.05291" lon="6.12755">
        <ele>898.7</ele>
        <time>2020-12-26T15:17:13.805Z</time>
      </trkpt>
      <trkpt lat="46.05284" lon="6.1275">
        <ele>898</ele>
        <time>2020-12-26T15:17:25.661Z</time>
      </trkpt>
      <trkpt lat="46.05282" lon="6.1275">
        <ele>897.9</ele>
        <time>2020-12-26T15:17:26.666Z</time>
      </trkpt>
      <trkpt lat="46.05274" lon="6.12745">
        <ele>897.4</ele>
        <time>2020-12-26T15:17:33.657Z</time>
      </trkpt>
      <trkpt lat="46.05273" lon="6.12745">
        <ele>897.4</ele>
        <time>2020-12-26T15:17:34.692Z</time>
      </trkpt>
      <trkpt lat="46.05266" lon="6.12739">
        <ele>896.7</ele>
        <time>2020-12-26T15:17:41.656Z</time>
      </trkpt>
      <trkpt lat="46.05264" lon="6.12738">
        <ele>896.6</ele>
        <time>2020-12-26T15:17:42.678Z</time>
      </trkpt>
      <trkpt lat="46.05257" lon="6.12731">
        <ele>896.3</ele>
        <time>2020-12-26T15:17:45.696Z</time>
      </trkpt>
      <trkpt lat="46.05255" lon="6.12729">
        <ele>896.3</ele>
        <time>2020-12-26T15:17:46.664Z</time>
      </trkpt>
      <trkpt lat="46.05248" lon="6.12722">
        <ele>896.5</ele>
        <time>2020-12-26T15:17:50.665Z</time>
      </trkpt>
      <trkpt lat="46.05247" lon="6.1272">
        <ele>896.4</ele>
        <time>2020-12-26T15:17:51.691Z</time>
      </trkpt>
      <trkpt lat="46.05242" lon="6.1271">
        <ele>896.3</ele>
        <time>2020-12-26T15:17:59.650Z</time>
      </trkpt>
      <trkpt lat="46.05242" lon="6.12709">
        <ele>896.2</ele>
        <time>2020-12-26T15:18:00.652Z</time>
      </trkpt>
      <trkpt lat="46.05249" lon="6.12703">
        <ele>898.4</ele>
        <time>2020-12-26T15:18:21.696Z</time>
      </trkpt>
      <trkpt lat="46.0525" lon="6.12703">
        <ele>898.6</ele>
        <time>2020-12-26T15:18:22.681Z</time>
      </trkpt>
      <trkpt lat="46.05244" lon="6.12703">
        <ele>905.5</ele>
        <time>2020-12-26T15:18:35.672Z</time>
      </trkpt>
      <trkpt lat="46.05241" lon="6.12702">
        <ele>906</ele>
        <time>2020-12-26T15:18:36.655Z</time>
      </trkpt>
      <trkpt lat="46.05234" lon="6.12699">
        <ele>905.8</ele>
        <time>2020-12-26T15:18:40.660Z</time>
      </trkpt>
      <trkpt lat="46.05232" lon="6.12699">
        <ele>905.4</ele>
        <time>2020-12-26T15:18:41.670Z</time>
      </trkpt>
      <trkpt lat="46.05224" lon="6.12697">
        <ele>905.2</ele>
        <time>2020-12-26T15:18:47.652Z</time>
      </trkpt>
      <trkpt lat="46.05222" lon="6.12697">
        <ele>905.5</ele>
        <time>2020-12-26T15:18:48.660Z</time>
      </trkpt>
      <trkpt lat="46.05214" lon="6.12699">
        <ele>907.8</ele>
        <time>2020-12-26T15:18:56.739Z</time>
      </trkpt>
      <trkpt lat="46.05212" lon="6.127">
        <ele>907.8</ele>
        <time>2020-12-26T15:18:57.669Z</time>
      </trkpt>
      <trkpt lat="46.05204" lon="6.12699">
        <ele>908.5</ele>
        <time>2020-12-26T15:19:02.673Z</time>
      </trkpt>
      <trkpt lat="46.05202" lon="6.12698">
        <ele>908.8</ele>
        <time>2020-12-26T15:19:03.662Z</time>
      </trkpt>
      <trkpt lat="46.05195" lon="6.12696">
        <ele>909.4</ele>
        <time>2020-12-26T15:19:08.669Z</time>
      </trkpt>
      <trkpt lat="46.05193" lon="6.12695">
        <ele>909.6</ele>
        <time>2020-12-26T15:19:09.686Z</time>
      </trkpt>
      <trkpt lat="46.05185" lon="6.12693">
        <ele>909.9</ele>
        <time>2020-12-26T15:19:14.667Z</time>
      </trkpt>
      <trkpt lat="46.05183" lon="6.12693">
        <ele>909.9</ele>
        <time>2020-12-26T15:19:15.663Z</time>
      </trkpt>
      <trkpt lat="46.05177" lon="6.12691">
        <ele>909.9</ele>
        <time>2020-12-26T15:19:18.666Z</time>
      </trkpt>
      <trkpt lat="46.05174" lon="6.12689">
        <ele>910</ele>
        <time>2020-12-26T15:19:19.657Z</time>
      </trkpt>
      <trkpt lat="46.05167" lon="6.12683">
        <ele>910.2</ele>
        <time>2020-12-26T15:19:21.677Z</time>
      </trkpt>
      <trkpt lat="46.05164" lon="6.12679">
        <ele>910.6</ele>
        <time>2020-12-26T15:19:22.675Z</time>
      </trkpt>
      <trkpt lat="46.05156" lon="6.12673">
        <ele>910.9</ele>
        <time>2020-12-26T15:19:24.661Z</time>
      </trkpt>
      <trkpt lat="46.05153" lon="6.12669">
        <ele>910.8</ele>
        <time>2020-12-26T15:19:25.662Z</time>
      </trkpt>
      <trkpt lat="46.05149" lon="6.12666">
        <ele>910.5</ele>
        <time>2020-12-26T15:19:26.653Z</time>
      </trkpt>
      <trkpt lat="46.05145" lon="6.12662">
        <ele>910.3</ele>
        <time>2020-12-26T15:19:27.687Z</time>
      </trkpt>
      <trkpt lat="46.05137" lon="6.12658">
        <ele>910.2</ele>
        <time>2020-12-26T15:19:29.665Z</time>
      </trkpt>
      <trkpt lat="46.05134" lon="6.12656">
        <ele>910.1</ele>
        <time>2020-12-26T15:19:30.699Z</time>
      </trkpt>
      <trkpt lat="46.05128" lon="6.12652">
        <ele>909.7</ele>
        <time>2020-12-26T15:19:32.662Z</time>
      </trkpt>
      <trkpt lat="46.05125" lon="6.1265">
        <ele>909.5</ele>
        <time>2020-12-26T15:19:33.662Z</time>
      </trkpt>
      <trkpt lat="46.05119" lon="6.12645">
        <ele>909.4</ele>
        <time>2020-12-26T15:19:35.676Z</time>
      </trkpt>
      <trkpt lat="46.05116" lon="6.12643">
        <ele>909.4</ele>
        <time>2020-12-26T15:19:36.669Z</time>
      </trkpt>
      <trkpt lat="46.05111" lon="6.12639">
        <ele>909.6</ele>
        <time>2020-12-26T15:19:38.678Z</time>
      </trkpt>
      <trkpt lat="46.05108" lon="6.12637">
        <ele>909.8</ele>
        <time>2020-12-26T15:19:39.663Z</time>
      </trkpt>
      <trkpt lat="46.05102" lon="6.12633">
        <ele>909.7</ele>
        <time>2020-12-26T15:19:41.669Z</time>
      </trkpt>
      <trkpt lat="46.051" lon="6.1263">
        <ele>909.5</ele>
        <time>2020-12-26T15:19:42.676Z</time>
      </trkpt>
      <trkpt lat="46.05094" lon="6.12625">
        <ele>908.9</ele>
        <time>2020-12-26T15:19:44.665Z</time>
      </trkpt>
      <trkpt lat="46.05091" lon="6.12622">
        <ele>908.7</ele>
        <time>2020-12-26T15:19:45.664Z</time>
      </trkpt>
      <trkpt lat="46.05086" lon="6.12615">
        <ele>908.6</ele>
        <time>2020-12-26T15:19:47.681Z</time>
      </trkpt>
      <trkpt lat="46.05084" lon="6.12613">
        <ele>908.2</ele>
        <time>2020-12-26T15:19:48.664Z</time>
      </trkpt>
      <trkpt lat="46.05077" lon="6.12605">
        <ele>906.4</ele>
        <time>2020-12-26T15:19:54.699Z</time>
      </trkpt>
      <trkpt lat="46.05076" lon="6.12603">
        <ele>906.5</ele>
        <time>2020-12-26T15:19:55.664Z</time>
      </trkpt>
      <trkpt lat="46.05073" lon="6.12595">
        <ele>906.3</ele>
        <time>2020-12-26T15:19:57.664Z</time>
      </trkpt>
      <trkpt lat="46.05071" lon="6.12592">
        <ele>905.9</ele>
        <time>2020-12-26T15:19:58.665Z</time>
      </trkpt>
      <trkpt lat="46.05065" lon="6.12585">
        <ele>905.2</ele>
        <time>2020-12-26T15:20:01.664Z</time>
      </trkpt>
      <trkpt lat="46.05063" lon="6.12583">
        <ele>905.2</ele>
        <time>2020-12-26T15:20:02.701Z</time>
      </trkpt>
      <trkpt lat="46.05058" lon="6.12573">
        <ele>905.9</ele>
        <time>2020-12-26T15:20:06.681Z</time>
      </trkpt>
      <trkpt lat="46.05057" lon="6.12571">
        <ele>906.1</ele>
        <time>2020-12-26T15:20:07.693Z</time>
      </trkpt>
      <trkpt lat="46.05052" lon="6.12562">
        <ele>906.8</ele>
        <time>2020-12-26T15:20:11.715Z</time>
      </trkpt>
      <trkpt lat="46.0505" lon="6.12559">
        <ele>907.2</ele>
        <time>2020-12-26T15:20:12.668Z</time>
      </trkpt>
      <trkpt lat="46.05046" lon="6.1255">
        <ele>908.4</ele>
        <time>2020-12-26T15:20:15.673Z</time>
      </trkpt>
      <trkpt lat="46.05044" lon="6.12547">
        <ele>908.9</ele>
        <time>2020-12-26T15:20:16.659Z</time>
      </trkpt>
      <trkpt lat="46.05039" lon="6.12539">
        <ele>910.7</ele>
        <time>2020-12-26T15:20:19.674Z</time>
      </trkpt>
      <trkpt lat="46.05038" lon="6.12536">
        <ele>911.3</ele>
        <time>2020-12-26T15:20:20.661Z</time>
      </trkpt>
      <trkpt lat="46.05034" lon="6.12528">
        <ele>913.4</ele>
        <time>2020-12-26T15:20:23.704Z</time>
      </trkpt>
      <trkpt lat="46.05033" lon="6.12525">
        <ele>914.1</ele>
        <time>2020-12-26T15:20:24.661Z</time>
      </trkpt>
      <trkpt lat="46.0503" lon="6.12515">
        <ele>915.9</ele>
        <time>2020-12-26T15:20:27.663Z</time>
      </trkpt>
      <trkpt lat="46.05029" lon="6.12512">
        <ele>916.4</ele>
        <time>2020-12-26T15:20:28.677Z</time>
      </trkpt>
      <trkpt lat="46.05023" lon="6.12503">
        <ele>917.1</ele>
        <time>2020-12-26T15:20:32.647Z</time>
      </trkpt>
      <trkpt lat="46.05022" lon="6.12501">
        <ele>918.1</ele>
        <time>2020-12-26T15:20:33.665Z</time>
      </trkpt>
      <trkpt lat="46.05013" lon="6.12499">
        <ele>919.5</ele>
        <time>2020-12-26T15:20:39.672Z</time>
      </trkpt>
      <trkpt lat="46.05012" lon="6.12499">
        <ele>919.3</ele>
        <time>2020-12-26T15:20:40.675Z</time>
      </trkpt>
      <trkpt lat="46.05005" lon="6.12491">
        <ele>919</ele>
        <time>2020-12-26T15:20:46.657Z</time>
      </trkpt>
      <trkpt lat="46.05004" lon="6.1249">
        <ele>919.1</ele>
        <time>2020-12-26T15:20:47.704Z</time>
      </trkpt>
      <trkpt lat="46.04996" lon="6.12482">
        <ele>919.3</ele>
        <time>2020-12-26T15:20:52.664Z</time>
      </trkpt>
      <trkpt lat="46.04995" lon="6.12481">
        <ele>919</ele>
        <time>2020-12-26T15:20:53.660Z</time>
      </trkpt>
      <trkpt lat="46.04989" lon="6.12474">
        <ele>917.9</ele>
        <time>2020-12-26T15:20:57.659Z</time>
      </trkpt>
      <trkpt lat="46.04988" lon="6.12472">
        <ele>917.5</ele>
        <time>2020-12-26T15:20:58.700Z</time>
      </trkpt>
      <trkpt lat="46.04983" lon="6.12462">
        <ele>916.5</ele>
        <time>2020-12-26T15:21:02.673Z</time>
      </trkpt>
      <trkpt lat="46.04982" lon="6.1246">
        <ele>916.3</ele>
        <time>2020-12-26T15:21:03.674Z</time>
      </trkpt>
      <trkpt lat="46.04976" lon="6.12452">
        <ele>915.2</ele>
        <time>2020-12-26T15:21:07.661Z</time>
      </trkpt>
      <trkpt lat="46.04975" lon="6.12451">
        <ele>914.9</ele>
        <time>2020-12-26T15:21:08.670Z</time>
      </trkpt>
      <trkpt lat="46.04969" lon="6.12441">
        <ele>913</ele>
        <time>2020-12-26T15:21:14.686Z</time>
      </trkpt>
      <trkpt lat="46.04969" lon="6.12439">
        <ele>913</ele>
        <time>2020-12-26T15:21:15.669Z</time>
      </trkpt>
      <trkpt lat="46.04964" lon="6.12431">
        <ele>911.4</ele>
        <time>2020-12-26T15:21:20.658Z</time>
      </trkpt>
      <trkpt lat="46.04963" lon="6.12429">
        <ele>910.8</ele>
        <time>2020-12-26T15:21:21.668Z</time>
      </trkpt>
      <trkpt lat="46.04958" lon="6.12419">
        <ele>908.7</ele>
        <time>2020-12-26T15:21:26.666Z</time>
      </trkpt>
      <trkpt lat="46.04957" lon="6.12417">
        <ele>908.3</ele>
        <time>2020-12-26T15:21:27.758Z</time>
      </trkpt>
      <trkpt lat="46.04953" lon="6.12407">
        <ele>907.2</ele>
        <time>2020-12-26T15:21:31.661Z</time>
      </trkpt>
      <trkpt lat="46.04952" lon="6.12405">
        <ele>907</ele>
        <time>2020-12-26T15:21:32.670Z</time>
      </trkpt>
      <trkpt lat="46.04947" lon="6.12395">
        <ele>905.9</ele>
        <time>2020-12-26T15:21:37.658Z</time>
      </trkpt>
      <trkpt lat="46.04946" lon="6.12393">
        <ele>905.7</ele>
        <time>2020-12-26T15:21:38.670Z</time>
      </trkpt>
      <trkpt lat="46.04942" lon="6.12384">
        <ele>906</ele>
        <time>2020-12-26T15:21:44.673Z</time>
      </trkpt>
      <trkpt lat="46.04941" lon="6.12382">
        <ele>906.1</ele>
        <time>2020-12-26T15:21:45.661Z</time>
      </trkpt>
      <trkpt lat="46.04938" lon="6.12371">
        <ele>904.7</ele>
        <time>2020-12-26T15:21:50.732Z</time>
      </trkpt>
      <trkpt lat="46.04937" lon="6.12368">
        <ele>904.3</ele>
        <time>2020-12-26T15:21:51.653Z</time>
      </trkpt>
      <trkpt lat="46.04934" lon="6.12358">
        <ele>905</ele>
        <time>2020-12-26T15:21:54.660Z</time>
      </trkpt>
      <trkpt lat="46.04932" lon="6.12355">
        <ele>905.1</ele>
        <time>2020-12-26T15:21:55.665Z</time>
      </trkpt>
      <trkpt lat="46.04927" lon="6.12346">
        <ele>904.1</ele>
        <time>2020-12-26T15:21:58.675Z</time>
      </trkpt>
      <trkpt lat="46.04926" lon="6.12343">
        <ele>904.2</ele>
        <time>2020-12-26T15:21:59.662Z</time>
      </trkpt>
      <trkpt lat="46.0492" lon="6.12333">
        <ele>904.4</ele>
        <time>2020-12-26T15:22:03.668Z</time>
      </trkpt>
      <trkpt lat="46.04919" lon="6.12331">
        <ele>904.5</ele>
        <time>2020-12-26T15:22:04.667Z</time>
      </trkpt>
      <trkpt lat="46.04913" lon="6.12321">
        <ele>904.9</ele>
        <time>2020-12-26T15:22:08.663Z</time>
      </trkpt>
      <trkpt lat="46.04912" lon="6.12319">
        <ele>904.9</ele>
        <time>2020-12-26T15:22:09.661Z</time>
      </trkpt>
      <trkpt lat="46.04907" lon="6.12309">
        <ele>905.4</ele>
        <time>2020-12-26T15:22:13.663Z</time>
      </trkpt>
      <trkpt lat="46.04905" lon="6.12306">
        <ele>905.6</ele>
        <time>2020-12-26T15:22:14.663Z</time>
      </trkpt>
      <trkpt lat="46.049" lon="6.12297">
        <ele>906.2</ele>
        <time>2020-12-26T15:22:18.663Z</time>
      </trkpt>
      <trkpt lat="46.04899" lon="6.12294">
        <ele>906.2</ele>
        <time>2020-12-26T15:22:19.668Z</time>
      </trkpt>
      <trkpt lat="46.04894" lon="6.12284">
        <ele>905.1</ele>
        <time>2020-12-26T15:22:23.661Z</time>
      </trkpt>
      <trkpt lat="46.04892" lon="6.12282">
        <ele>905</ele>
        <time>2020-12-26T15:22:24.657Z</time>
      </trkpt>
      <trkpt lat="46.04888" lon="6.12274">
        <ele>905.5</ele>
        <time>2020-12-26T15:22:27.664Z</time>
      </trkpt>
      <trkpt lat="46.04886" lon="6.12271">
        <ele>905.6</ele>
        <time>2020-12-26T15:22:28.657Z</time>
      </trkpt>
      <trkpt lat="46.04881" lon="6.12264">
        <ele>905.7</ele>
        <time>2020-12-26T15:22:31.658Z</time>
      </trkpt>
      <trkpt lat="46.0488" lon="6.12262">
        <ele>905.6</ele>
        <time>2020-12-26T15:22:32.705Z</time>
      </trkpt>
      <trkpt lat="46.04875" lon="6.12254">
        <ele>905.6</ele>
        <time>2020-12-26T15:22:35.659Z</time>
      </trkpt>
      <trkpt lat="46.04873" lon="6.12252">
        <ele>905.7</ele>
        <time>2020-12-26T15:22:36.658Z</time>
      </trkpt>
      <trkpt lat="46.04867" lon="6.12244">
        <ele>906</ele>
        <time>2020-12-26T15:22:39.664Z</time>
      </trkpt>
      <trkpt lat="46.04865" lon="6.12242">
        <ele>905.9</ele>
        <time>2020-12-26T15:22:40.676Z</time>
      </trkpt>
      <trkpt lat="46.0486" lon="6.12236">
        <ele>905.1</ele>
        <time>2020-12-26T15:22:43.681Z</time>
      </trkpt>
      <trkpt lat="46.04858" lon="6.12233">
        <ele>905.5</ele>
        <time>2020-12-26T15:22:44.667Z</time>
      </trkpt>
      <trkpt lat="46.04852" lon="6.12227">
        <ele>906.1</ele>
        <time>2020-12-26T15:22:47.689Z</time>
      </trkpt>
      <trkpt lat="46.0485" lon="6.12225">
        <ele>906.3</ele>
        <time>2020-12-26T15:22:48.656Z</time>
      </trkpt>
      <trkpt lat="46.04842" lon="6.1222">
        <ele>907</ele>
        <time>2020-12-26T15:22:52.660Z</time>
      </trkpt>
      <trkpt lat="46.04841" lon="6.12218">
        <ele>907</ele>
        <time>2020-12-26T15:22:53.645Z</time>
      </trkpt>
      <trkpt lat="46.04835" lon="6.12211">
        <ele>906.1</ele>
        <time>2020-12-26T15:22:57.668Z</time>
      </trkpt>
      <trkpt lat="46.04833" lon="6.12209">
        <ele>905.9</ele>
        <time>2020-12-26T15:22:58.660Z</time>
      </trkpt>
      <trkpt lat="46.04826" lon="6.12204">
        <ele>905.1</ele>
        <time>2020-12-26T15:23:02.655Z</time>
      </trkpt>
      <trkpt lat="46.04824" lon="6.12203">
        <ele>905.1</ele>
        <time>2020-12-26T15:23:03.665Z</time>
      </trkpt>
      <trkpt lat="46.04818" lon="6.12196">
        <ele>905</ele>
        <time>2020-12-26T15:23:08.718Z</time>
      </trkpt>
      <trkpt lat="46.04817" lon="6.12194">
        <ele>905</ele>
        <time>2020-12-26T15:23:09.659Z</time>
      </trkpt>
      <trkpt lat="46.04812" lon="6.12185">
        <ele>905.1</ele>
        <time>2020-12-26T15:23:14.701Z</time>
      </trkpt>
      <trkpt lat="46.0481" lon="6.12183">
        <ele>905.1</ele>
        <time>2020-12-26T15:23:15.660Z</time>
      </trkpt>
      <trkpt lat="46.04806" lon="6.12175">
        <ele>905.4</ele>
        <time>2020-12-26T15:23:19.666Z</time>
      </trkpt>
      <trkpt lat="46.04804" lon="6.12172">
        <ele>905.5</ele>
        <time>2020-12-26T15:23:20.714Z</time>
      </trkpt>
      <trkpt lat="46.04799" lon="6.12163">
        <ele>907</ele>
        <time>2020-12-26T15:23:24.658Z</time>
      </trkpt>
      <trkpt lat="46.04797" lon="6.1216">
        <ele>907.1</ele>
        <time>2020-12-26T15:23:25.669Z</time>
      </trkpt>
      <trkpt lat="46.04793" lon="6.12149">
        <ele>908.3</ele>
        <time>2020-12-26T15:23:29.668Z</time>
      </trkpt>
      <trkpt lat="46.04792" lon="6.12147">
        <ele>908.4</ele>
        <time>2020-12-26T15:23:30.659Z</time>
      </trkpt>
      <trkpt lat="46.04786" lon="6.12137">
        <ele>909.6</ele>
        <time>2020-12-26T15:23:35.670Z</time>
      </trkpt>
      <trkpt lat="46.04786" lon="6.12135">
        <ele>909.6</ele>
        <time>2020-12-26T15:23:36.661Z</time>
      </trkpt>
      <trkpt lat="46.04781" lon="6.12126">
        <ele>910.5</ele>
        <time>2020-12-26T15:23:45.656Z</time>
      </trkpt>
      <trkpt lat="46.04781" lon="6.12125">
        <ele>910.6</ele>
        <time>2020-12-26T15:23:46.650Z</time>
      </trkpt>
      <trkpt lat="46.04775" lon="6.12115">
        <ele>911.1</ele>
        <time>2020-12-26T15:23:51.674Z</time>
      </trkpt>
      <trkpt lat="46.04774" lon="6.12112">
        <ele>911.1</ele>
        <time>2020-12-26T15:23:52.666Z</time>
      </trkpt>
      <trkpt lat="46.0477" lon="6.12103">
        <ele>911.1</ele>
        <time>2020-12-26T15:23:56.665Z</time>
      </trkpt>
      <trkpt lat="46.04769" lon="6.12101">
        <ele>911.1</ele>
        <time>2020-12-26T15:23:57.669Z</time>
      </trkpt>
      <trkpt lat="46.04766" lon="6.1209">
        <ele>911.4</ele>
        <time>2020-12-26T15:24:03.661Z</time>
      </trkpt>
      <trkpt lat="46.04765" lon="6.12088">
        <ele>911.4</ele>
        <time>2020-12-26T15:24:04.668Z</time>
      </trkpt>
      <trkpt lat="46.04762" lon="6.12079">
        <ele>911.7</ele>
        <time>2020-12-26T15:24:08.690Z</time>
      </trkpt>
      <trkpt lat="46.0476" lon="6.12076">
        <ele>912</ele>
        <time>2020-12-26T15:24:09.664Z</time>
      </trkpt>
      <trkpt lat="46.04754" lon="6.12067">
        <ele>913</ele>
        <time>2020-12-26T15:24:13.667Z</time>
      </trkpt>
      <trkpt lat="46.04752" lon="6.12065">
        <ele>913.1</ele>
        <time>2020-12-26T15:24:14.658Z</time>
      </trkpt>
      <trkpt lat="46.04748" lon="6.12057">
        <ele>913.6</ele>
        <time>2020-12-26T15:24:17.657Z</time>
      </trkpt>
      <trkpt lat="46.04746" lon="6.12055">
        <ele>914</ele>
        <time>2020-12-26T15:24:18.654Z</time>
      </trkpt>
      <trkpt lat="46.0474" lon="6.12048">
        <ele>914.7</ele>
        <time>2020-12-26T15:24:21.659Z</time>
      </trkpt>
      <trkpt lat="46.04738" lon="6.12046">
        <ele>915</ele>
        <time>2020-12-26T15:24:22.705Z</time>
      </trkpt>
      <trkpt lat="46.0473" lon="6.12038">
        <ele>915.6</ele>
        <time>2020-12-26T15:24:25.694Z</time>
      </trkpt>
      <trkpt lat="46.04728" lon="6.12037">
        <ele>916</ele>
        <time>2020-12-26T15:24:26.666Z</time>
      </trkpt>
      <trkpt lat="46.0472" lon="6.1203">
        <ele>916.6</ele>
        <time>2020-12-26T15:24:29.684Z</time>
      </trkpt>
      <trkpt lat="46.04717" lon="6.12029">
        <ele>916.7</ele>
        <time>2020-12-26T15:24:30.661Z</time>
      </trkpt>
      <trkpt lat="46.04709" lon="6.12023">
        <ele>917.4</ele>
        <time>2020-12-26T15:24:33.659Z</time>
      </trkpt>
      <trkpt lat="46.04707" lon="6.12022">
        <ele>917.3</ele>
        <time>2020-12-26T15:24:34.658Z</time>
      </trkpt>
      <trkpt lat="46.04698" lon="6.12017">
        <ele>917.4</ele>
        <time>2020-12-26T15:24:37.711Z</time>
      </trkpt>
      <trkpt lat="46.04696" lon="6.12015">
        <ele>917.2</ele>
        <time>2020-12-26T15:24:38.661Z</time>
      </trkpt>
      <trkpt lat="46.04689" lon="6.12009">
        <ele>916.3</ele>
        <time>2020-12-26T15:24:41.666Z</time>
      </trkpt>
      <trkpt lat="46.04687" lon="6.12007">
        <ele>916</ele>
        <time>2020-12-26T15:24:42.659Z</time>
      </trkpt>
      <trkpt lat="46.04681" lon="6.12">
        <ele>914.8</ele>
        <time>2020-12-26T15:24:45.666Z</time>
      </trkpt>
      <trkpt lat="46.04678" lon="6.11997">
        <ele>914</ele>
        <time>2020-12-26T15:24:46.670Z</time>
      </trkpt>
      <trkpt lat="46.04671" lon="6.11992">
        <ele>911.7</ele>
        <time>2020-12-26T15:24:49.652Z</time>
      </trkpt>
      <trkpt lat="46.04669" lon="6.11989">
        <ele>911.4</ele>
        <time>2020-12-26T15:24:50.659Z</time>
      </trkpt>
      <trkpt lat="46.04662" lon="6.11982">
        <ele>910.9</ele>
        <time>2020-12-26T15:24:53.668Z</time>
      </trkpt>
      <trkpt lat="46.0466" lon="6.11981">
        <ele>911.1</ele>
        <time>2020-12-26T15:24:54.676Z</time>
      </trkpt>
      <trkpt lat="46.04653" lon="6.11975">
        <ele>910.8</ele>
        <time>2020-12-26T15:24:57.658Z</time>
      </trkpt>
      <trkpt lat="46.04651" lon="6.11973">
        <ele>910.8</ele>
        <time>2020-12-26T15:24:58.674Z</time>
      </trkpt>
      <trkpt lat="46.04644" lon="6.11966">
        <ele>911.2</ele>
        <time>2020-12-26T15:25:01.731Z</time>
      </trkpt>
      <trkpt lat="46.04641" lon="6.11964">
        <ele>911.2</ele>
        <time>2020-12-26T15:25:02.664Z</time>
      </trkpt>
      <trkpt lat="46.04635" lon="6.11958">
        <ele>910.9</ele>
        <time>2020-12-26T15:25:05.687Z</time>
      </trkpt>
      <trkpt lat="46.04632" lon="6.11956">
        <ele>910.8</ele>
        <time>2020-12-26T15:25:06.660Z</time>
      </trkpt>
      <trkpt lat="46.04626" lon="6.11949">
        <ele>911</ele>
        <time>2020-12-26T15:25:09.660Z</time>
      </trkpt>
      <trkpt lat="46.04623" lon="6.11947">
        <ele>910.9</ele>
        <time>2020-12-26T15:25:10.665Z</time>
      </trkpt>
      <trkpt lat="46.04616" lon="6.1194">
        <ele>910.6</ele>
        <time>2020-12-26T15:25:13.698Z</time>
      </trkpt>
      <trkpt lat="46.04614" lon="6.11937">
        <ele>910.6</ele>
        <time>2020-12-26T15:25:14.660Z</time>
      </trkpt>
      <trkpt lat="46.04607" lon="6.1193">
        <ele>910.3</ele>
        <time>2020-12-26T15:25:17.672Z</time>
      </trkpt>
      <trkpt lat="46.04604" lon="6.11927">
        <ele>910.2</ele>
        <time>2020-12-26T15:25:18.661Z</time>
      </trkpt>
      <trkpt lat="46.046" lon="6.11921">
        <ele>909.3</ele>
        <time>2020-12-26T15:25:20.673Z</time>
      </trkpt>
      <trkpt lat="46.04598" lon="6.11918">
        <ele>908.6</ele>
        <time>2020-12-26T15:25:21.665Z</time>
      </trkpt>
      <trkpt lat="46.04592" lon="6.1191">
        <ele>907.6</ele>
        <time>2020-12-26T15:25:24.662Z</time>
      </trkpt>
      <trkpt lat="46.04591" lon="6.11907">
        <ele>907.4</ele>
        <time>2020-12-26T15:25:25.706Z</time>
      </trkpt>
      <trkpt lat="46.04586" lon="6.11899">
        <ele>906.6</ele>
        <time>2020-12-26T15:25:28.661Z</time>
      </trkpt>
      <trkpt lat="46.04584" lon="6.11897">
        <ele>906.3</ele>
        <time>2020-12-26T15:25:29.675Z</time>
      </trkpt>
      <trkpt lat="46.04579" lon="6.1189">
        <ele>906.3</ele>
        <time>2020-12-26T15:25:32.668Z</time>
      </trkpt>
      <trkpt lat="46.04577" lon="6.11888">
        <ele>906.2</ele>
        <time>2020-12-26T15:25:33.682Z</time>
      </trkpt>
      <trkpt lat="46.04571" lon="6.11879">
        <ele>906.1</ele>
        <time>2020-12-26T15:25:37.669Z</time>
      </trkpt>
      <trkpt lat="46.04569" lon="6.11877">
        <ele>906</ele>
        <time>2020-12-26T15:25:38.693Z</time>
      </trkpt>
      <trkpt lat="46.04562" lon="6.11872">
        <ele>905.9</ele>
        <time>2020-12-26T15:25:42.707Z</time>
      </trkpt>
      <trkpt lat="46.0456" lon="6.1187">
        <ele>905.9</ele>
        <time>2020-12-26T15:25:43.657Z</time>
      </trkpt>
      <trkpt lat="46.04553" lon="6.11867">
        <ele>905.7</ele>
        <time>2020-12-26T15:25:46.670Z</time>
      </trkpt>
      <trkpt lat="46.04551" lon="6.11865">
        <ele>905.5</ele>
        <time>2020-12-26T15:25:47.657Z</time>
      </trkpt>
      <trkpt lat="46.04545" lon="6.1186">
        <ele>905.1</ele>
        <time>2020-12-26T15:25:50.654Z</time>
      </trkpt>
      <trkpt lat="46.04543" lon="6.11858">
        <ele>905.1</ele>
        <time>2020-12-26T15:25:51.660Z</time>
      </trkpt>
      <trkpt lat="46.04538" lon="6.11851">
        <ele>905.2</ele>
        <time>2020-12-26T15:25:54.701Z</time>
      </trkpt>
      <trkpt lat="46.04535" lon="6.11849">
        <ele>905.2</ele>
        <time>2020-12-26T15:25:55.652Z</time>
      </trkpt>
      <trkpt lat="46.0453" lon="6.11841">
        <ele>905.7</ele>
        <time>2020-12-26T15:25:58.663Z</time>
      </trkpt>
      <trkpt lat="46.04529" lon="6.11839">
        <ele>906</ele>
        <time>2020-12-26T15:25:59.666Z</time>
      </trkpt>
      <trkpt lat="46.04524" lon="6.11831">
        <ele>906.3</ele>
        <time>2020-12-26T15:26:02.661Z</time>
      </trkpt>
      <trkpt lat="46.04522" lon="6.11828">
        <ele>906.3</ele>
        <time>2020-12-26T15:26:03.726Z</time>
      </trkpt>
      <trkpt lat="46.04516" lon="6.1182">
        <ele>905.8</ele>
        <time>2020-12-26T15:26:06.660Z</time>
      </trkpt>
      <trkpt lat="46.04514" lon="6.11818">
        <ele>905.2</ele>
        <time>2020-12-26T15:26:07.671Z</time>
      </trkpt>
      <trkpt lat="46.0451" lon="6.11811">
        <ele>904</ele>
        <time>2020-12-26T15:26:10.676Z</time>
      </trkpt>
      <trkpt lat="46.04508" lon="6.11808">
        <ele>903.4</ele>
        <time>2020-12-26T15:26:11.713Z</time>
      </trkpt>
      <trkpt lat="46.04502" lon="6.11801">
        <ele>902.2</ele>
        <time>2020-12-26T15:26:14.664Z</time>
      </trkpt>
      <trkpt lat="46.045" lon="6.11799">
        <ele>902</ele>
        <time>2020-12-26T15:26:15.697Z</time>
      </trkpt>
      <trkpt lat="46.04495" lon="6.11793">
        <ele>902.6</ele>
        <time>2020-12-26T15:26:18.670Z</time>
      </trkpt>
      <trkpt lat="46.04493" lon="6.1179">
        <ele>903.3</ele>
        <time>2020-12-26T15:26:19.665Z</time>
      </trkpt>
      <trkpt lat="46.04489" lon="6.11785">
        <ele>903.8</ele>
        <time>2020-12-26T15:26:21.658Z</time>
      </trkpt>
      <trkpt lat="46.04486" lon="6.11782">
        <ele>904</ele>
        <time>2020-12-26T15:26:22.672Z</time>
      </trkpt>
      <trkpt lat="46.0448" lon="6.11774">
        <ele>902.9</ele>
        <time>2020-12-26T15:26:25.679Z</time>
      </trkpt>
      <trkpt lat="46.04477" lon="6.11771">
        <ele>902.4</ele>
        <time>2020-12-26T15:26:26.673Z</time>
      </trkpt>
      <trkpt lat="46.0447" lon="6.11764">
        <ele>901.1</ele>
        <time>2020-12-26T15:26:29.665Z</time>
      </trkpt>
      <trkpt lat="46.04468" lon="6.11761">
        <ele>900.8</ele>
        <time>2020-12-26T15:26:30.649Z</time>
      </trkpt>
      <trkpt lat="46.04461" lon="6.11753">
        <ele>900.2</ele>
        <time>2020-12-26T15:26:33.657Z</time>
      </trkpt>
      <trkpt lat="46.04459" lon="6.1175">
        <ele>899.7</ele>
        <time>2020-12-26T15:26:34.661Z</time>
      </trkpt>
      <trkpt lat="46.04452" lon="6.11742">
        <ele>899.5</ele>
        <time>2020-12-26T15:26:37.667Z</time>
      </trkpt>
      <trkpt lat="46.0445" lon="6.11739">
        <ele>899.5</ele>
        <time>2020-12-26T15:26:38.665Z</time>
      </trkpt>
      <trkpt lat="46.04442" lon="6.11733">
        <ele>899.3</ele>
        <time>2020-12-26T15:26:42.659Z</time>
      </trkpt>
      <trkpt lat="46.0444" lon="6.11732">
        <ele>899.3</ele>
        <time>2020-12-26T15:26:43.674Z</time>
      </trkpt>
      <trkpt lat="46.04438" lon="6.11721">
        <ele>898.2</ele>
        <time>2020-12-26T15:26:50.661Z</time>
      </trkpt>
      <trkpt lat="46.04438" lon="6.11719">
        <ele>898.1</ele>
        <time>2020-12-26T15:26:51.669Z</time>
      </trkpt>
      <trkpt lat="46.04438" lon="6.11706">
        <ele>897.8</ele>
        <time>2020-12-26T15:26:57.675Z</time>
      </trkpt>
      <trkpt lat="46.04437" lon="6.11704">
        <ele>897.5</ele>
        <time>2020-12-26T15:26:58.700Z</time>
      </trkpt>
      <trkpt lat="46.04431" lon="6.11697">
        <ele>897.5</ele>
        <time>2020-12-26T15:27:01.657Z</time>
      </trkpt>
      <trkpt lat="46.04428" lon="6.11695">
        <ele>897.4</ele>
        <time>2020-12-26T15:27:02.664Z</time>
      </trkpt>
      <trkpt lat="46.04422" lon="6.11689">
        <ele>897.8</ele>
        <time>2020-12-26T15:27:05.675Z</time>
      </trkpt>
      <trkpt lat="46.0442" lon="6.11687">
        <ele>898.1</ele>
        <time>2020-12-26T15:27:06.669Z</time>
      </trkpt>
      <trkpt lat="46.04411" lon="6.11683">
        <ele>898.6</ele>
        <time>2020-12-26T15:27:09.661Z</time>
      </trkpt>
      <trkpt lat="46.04409" lon="6.11682">
        <ele>898.6</ele>
        <time>2020-12-26T15:27:10.671Z</time>
      </trkpt>
      <trkpt lat="46.04401" lon="6.11681">
        <ele>897.5</ele>
        <time>2020-12-26T15:27:13.668Z</time>
      </trkpt>
      <trkpt lat="46.04399" lon="6.1168">
        <ele>897.3</ele>
        <time>2020-12-26T15:27:14.663Z</time>
      </trkpt>
      <trkpt lat="46.0439" lon="6.11682">
        <ele>894.9</ele>
        <time>2020-12-26T15:27:18.662Z</time>
      </trkpt>
      <trkpt lat="46.04388" lon="6.11682">
        <ele>894.3</ele>
        <time>2020-12-26T15:27:19.663Z</time>
      </trkpt>
      <trkpt lat="46.04383" lon="6.11672">
        <ele>892.7</ele>
        <time>2020-12-26T15:27:23.662Z</time>
      </trkpt>
      <trkpt lat="46.04382" lon="6.11669">
        <ele>892</ele>
        <time>2020-12-26T15:27:24.663Z</time>
      </trkpt>
      <trkpt lat="46.04378" lon="6.11661">
        <ele>889.9</ele>
        <time>2020-12-26T15:27:27.664Z</time>
      </trkpt>
      <trkpt lat="46.04377" lon="6.11658">
        <ele>889.3</ele>
        <time>2020-12-26T15:27:28.661Z</time>
      </trkpt>
      <trkpt lat="46.04371" lon="6.11652">
        <ele>887.7</ele>
        <time>2020-12-26T15:27:31.651Z</time>
      </trkpt>
      <trkpt lat="46.0437" lon="6.1165">
        <ele>887.4</ele>
        <time>2020-12-26T15:27:32.705Z</time>
      </trkpt>
      <trkpt lat="46.04367" lon="6.1164">
        <ele>886.5</ele>
        <time>2020-12-26T15:27:35.660Z</time>
      </trkpt>
      <trkpt lat="46.04366" lon="6.11636">
        <ele>886.1</ele>
        <time>2020-12-26T15:27:36.661Z</time>
      </trkpt>
      <trkpt lat="46.04362" lon="6.11626">
        <ele>885</ele>
        <time>2020-12-26T15:27:39.662Z</time>
      </trkpt>
      <trkpt lat="46.0436" lon="6.11623">
        <ele>884.6</ele>
        <time>2020-12-26T15:27:40.667Z</time>
      </trkpt>
      <trkpt lat="46.04355" lon="6.11616">
        <ele>883.5</ele>
        <time>2020-12-26T15:27:43.667Z</time>
      </trkpt>
      <trkpt lat="46.04353" lon="6.11614">
        <ele>883.3</ele>
        <time>2020-12-26T15:27:44.678Z</time>
      </trkpt>
      <trkpt lat="46.04347" lon="6.11609">
        <ele>882.3</ele>
        <time>2020-12-26T15:27:47.655Z</time>
      </trkpt>
      <trkpt lat="46.04345" lon="6.11608">
        <ele>881.6</ele>
        <time>2020-12-26T15:27:48.670Z</time>
      </trkpt>
      <trkpt lat="46.04338" lon="6.11603">
        <ele>880.2</ele>
        <time>2020-12-26T15:27:51.660Z</time>
      </trkpt>
      <trkpt lat="46.04336" lon="6.11601">
        <ele>880.1</ele>
        <time>2020-12-26T15:27:52.658Z</time>
      </trkpt>
      <trkpt lat="46.04329" lon="6.11598">
        <ele>879.5</ele>
        <time>2020-12-26T15:27:55.701Z</time>
      </trkpt>
      <trkpt lat="46.04326" lon="6.11597">
        <ele>879</ele>
        <time>2020-12-26T15:27:56.676Z</time>
      </trkpt>
      <trkpt lat="46.0432" lon="6.11596">
        <ele>877.7</ele>
        <time>2020-12-26T15:27:58.724Z</time>
      </trkpt>
      <trkpt lat="46.04317" lon="6.11595">
        <ele>877.2</ele>
        <time>2020-12-26T15:27:59.660Z</time>
      </trkpt>
      <trkpt lat="46.04308" lon="6.11593">
        <ele>875.1</ele>
        <time>2020-12-26T15:28:02.661Z</time>
      </trkpt>
      <trkpt lat="46.04305" lon="6.11593">
        <ele>874.6</ele>
        <time>2020-12-26T15:28:03.668Z</time>
      </trkpt>
      <trkpt lat="46.04298" lon="6.11595">
        <ele>874.7</ele>
        <time>2020-12-26T15:28:05.674Z</time>
      </trkpt>
      <trkpt lat="46.04295" lon="6.11597">
        <ele>874.3</ele>
        <time>2020-12-26T15:28:06.664Z</time>
      </trkpt>
      <trkpt lat="46.04289" lon="6.11602">
        <ele>873.4</ele>
        <time>2020-12-26T15:28:08.677Z</time>
      </trkpt>
      <trkpt lat="46.04286" lon="6.11604">
        <ele>872.8</ele>
        <time>2020-12-26T15:28:09.674Z</time>
      </trkpt>
      <trkpt lat="46.04282" lon="6.11611">
        <ele>872.5</ele>
        <time>2020-12-26T15:28:11.665Z</time>
      </trkpt>
      <trkpt lat="46.04279" lon="6.11614">
        <ele>872.3</ele>
        <time>2020-12-26T15:28:12.666Z</time>
      </trkpt>
      <trkpt lat="46.04273" lon="6.11623">
        <ele>872.3</ele>
        <time>2020-12-26T15:28:15.666Z</time>
      </trkpt>
      <trkpt lat="46.04271" lon="6.11626">
        <ele>872.1</ele>
        <time>2020-12-26T15:28:16.696Z</time>
      </trkpt>
      <trkpt lat="46.04266" lon="6.11635">
        <ele>871.8</ele>
        <time>2020-12-26T15:28:19.718Z</time>
      </trkpt>
      <trkpt lat="46.04264" lon="6.11638">
        <ele>871.7</ele>
        <time>2020-12-26T15:28:20.697Z</time>
      </trkpt>
      <trkpt lat="46.04259" lon="6.11646">
        <ele>870.9</ele>
        <time>2020-12-26T15:28:23.661Z</time>
      </trkpt>
      <trkpt lat="46.04257" lon="6.11649">
        <ele>870.6</ele>
        <time>2020-12-26T15:28:24.662Z</time>
      </trkpt>
      <trkpt lat="46.0425" lon="6.11657">
        <ele>869.9</ele>
        <time>2020-12-26T15:28:27.657Z</time>
      </trkpt>
      <trkpt lat="46.04248" lon="6.1166">
        <ele>869.8</ele>
        <time>2020-12-26T15:28:28.660Z</time>
      </trkpt>
      <trkpt lat="46.04242" lon="6.1167">
        <ele>869.5</ele>
        <time>2020-12-26T15:28:31.665Z</time>
      </trkpt>
      <trkpt lat="46.0424" lon="6.11673">
        <ele>869.5</ele>
        <time>2020-12-26T15:28:32.665Z</time>
      </trkpt>
      <trkpt lat="46.04235" lon="6.11683">
        <ele>868.9</ele>
        <time>2020-12-26T15:28:35.658Z</time>
      </trkpt>
      <trkpt lat="46.04233" lon="6.11686">
        <ele>868.6</ele>
        <time>2020-12-26T15:28:36.664Z</time>
      </trkpt>
      <trkpt lat="46.04228" lon="6.11696">
        <ele>868.3</ele>
        <time>2020-12-26T15:28:39.663Z</time>
      </trkpt>
      <trkpt lat="46.04226" lon="6.11699">
        <ele>868.2</ele>
        <time>2020-12-26T15:28:40.676Z</time>
      </trkpt>
      <trkpt lat="46.04222" lon="6.1171">
        <ele>868.7</ele>
        <time>2020-12-26T15:28:43.666Z</time>
      </trkpt>
      <trkpt lat="46.0422" lon="6.11713">
        <ele>868.7</ele>
        <time>2020-12-26T15:28:44.672Z</time>
      </trkpt>
      <trkpt lat="46.04216" lon="6.11722">
        <ele>868.5</ele>
        <time>2020-12-26T15:28:47.647Z</time>
      </trkpt>
      <trkpt lat="46.04214" lon="6.11724">
        <ele>868.3</ele>
        <time>2020-12-26T15:28:48.643Z</time>
      </trkpt>
      <trkpt lat="46.04209" lon="6.11732">
        <ele>867.9</ele>
        <time>2020-12-26T15:28:51.670Z</time>
      </trkpt>
      <trkpt lat="46.04208" lon="6.11735">
        <ele>867.8</ele>
        <time>2020-12-26T15:28:52.646Z</time>
      </trkpt>
      <trkpt lat="46.04204" lon="6.11744">
        <ele>867.6</ele>
        <time>2020-12-26T15:28:55.677Z</time>
      </trkpt>
      <trkpt lat="46.04203" lon="6.11747">
        <ele>867.6</ele>
        <time>2020-12-26T15:28:56.664Z</time>
      </trkpt>
      <trkpt lat="46.04203" lon="6.11758">
        <ele>867.6</ele>
        <time>2020-12-26T15:28:59.686Z</time>
      </trkpt>
      <trkpt lat="46.04204" lon="6.11761">
        <ele>867.7</ele>
        <time>2020-12-26T15:29:00.661Z</time>
      </trkpt>
      <trkpt lat="46.04197" lon="6.11767">
        <ele>866.2</ele>
        <time>2020-12-26T15:29:09.702Z</time>
      </trkpt>
      <trkpt lat="46.04195" lon="6.11765">
        <ele>865.9</ele>
        <time>2020-12-26T15:29:10.714Z</time>
      </trkpt>
      <trkpt lat="46.04189" lon="6.11761">
        <ele>865.1</ele>
        <time>2020-12-26T15:29:13.660Z</time>
      </trkpt>
      <trkpt lat="46.04187" lon="6.11759">
        <ele>864.7</ele>
        <time>2020-12-26T15:29:14.670Z</time>
      </trkpt>
      <trkpt lat="46.0418" lon="6.11754">
        <ele>863.8</ele>
        <time>2020-12-26T15:29:17.660Z</time>
      </trkpt>
      <trkpt lat="46.04178" lon="6.11752">
        <ele>863.5</ele>
        <time>2020-12-26T15:29:18.658Z</time>
      </trkpt>
      <trkpt lat="46.04172" lon="6.11747">
        <ele>862.6</ele>
        <time>2020-12-26T15:29:21.669Z</time>
      </trkpt>
      <trkpt lat="46.0417" lon="6.11746">
        <ele>862.4</ele>
        <time>2020-12-26T15:29:22.701Z</time>
      </trkpt>
      <trkpt lat="46.04164" lon="6.1174">
        <ele>862</ele>
        <time>2020-12-26T15:29:25.687Z</time>
      </trkpt>
      <trkpt lat="46.04162" lon="6.11739">
        <ele>861.7</ele>
        <time>2020-12-26T15:29:26.668Z</time>
      </trkpt>
      <trkpt lat="46.04155" lon="6.11734">
        <ele>861.3</ele>
        <time>2020-12-26T15:29:29.670Z</time>
      </trkpt>
      <trkpt lat="46.04153" lon="6.11733">
        <ele>861.3</ele>
        <time>2020-12-26T15:29:30.658Z</time>
      </trkpt>
      <trkpt lat="46.04147" lon="6.11727">
        <ele>861</ele>
        <time>2020-12-26T15:29:33.717Z</time>
      </trkpt>
      <trkpt lat="46.04145" lon="6.11724">
        <ele>861</ele>
        <time>2020-12-26T15:29:34.664Z</time>
      </trkpt>
      <trkpt lat="46.04139" lon="6.11717">
        <ele>861.4</ele>
        <time>2020-12-26T15:29:37.668Z</time>
      </trkpt>
      <trkpt lat="46.04137" lon="6.11715">
        <ele>861.6</ele>
        <time>2020-12-26T15:29:38.655Z</time>
      </trkpt>
      <trkpt lat="46.04131" lon="6.11709">
        <ele>861.9</ele>
        <time>2020-12-26T15:29:41.670Z</time>
      </trkpt>
      <trkpt lat="46.04129" lon="6.11707">
        <ele>861.9</ele>
        <time>2020-12-26T15:29:42.661Z</time>
      </trkpt>
      <trkpt lat="46.04124" lon="6.11699">
        <ele>861.8</ele>
        <time>2020-12-26T15:29:45.669Z</time>
      </trkpt>
      <trkpt lat="46.04122" lon="6.11696">
        <ele>861.9</ele>
        <time>2020-12-26T15:29:46.662Z</time>
      </trkpt>
      <trkpt lat="46.04118" lon="6.11688">
        <ele>861.7</ele>
        <time>2020-12-26T15:29:49.672Z</time>
      </trkpt>
      <trkpt lat="46.04116" lon="6.11686">
        <ele>861.6</ele>
        <time>2020-12-26T15:29:50.659Z</time>
      </trkpt>
      <trkpt lat="46.04111" lon="6.11677">
        <ele>861</ele>
        <time>2020-12-26T15:29:53.650Z</time>
      </trkpt>
      <trkpt lat="46.04109" lon="6.11675">
        <ele>861</ele>
        <time>2020-12-26T15:29:54.681Z</time>
      </trkpt>
      <trkpt lat="46.04104" lon="6.11667">
        <ele>860.9</ele>
        <time>2020-12-26T15:29:57.655Z</time>
      </trkpt>
      <trkpt lat="46.04102" lon="6.11664">
        <ele>860.7</ele>
        <time>2020-12-26T15:29:58.684Z</time>
      </trkpt>
      <trkpt lat="46.04097" lon="6.11656">
        <ele>860.7</ele>
        <time>2020-12-26T15:30:01.663Z</time>
      </trkpt>
      <trkpt lat="46.04096" lon="6.11653">
        <ele>860.8</ele>
        <time>2020-12-26T15:30:02.663Z</time>
      </trkpt>
      <trkpt lat="46.04091" lon="6.11645">
        <ele>860.7</ele>
        <time>2020-12-26T15:30:05.670Z</time>
      </trkpt>
      <trkpt lat="46.04089" lon="6.11643">
        <ele>860.8</ele>
        <time>2020-12-26T15:30:06.662Z</time>
      </trkpt>
      <trkpt lat="46.04083" lon="6.11635">
        <ele>860.3</ele>
        <time>2020-12-26T15:30:09.673Z</time>
      </trkpt>
      <trkpt lat="46.04081" lon="6.11633">
        <ele>860.2</ele>
        <time>2020-12-26T15:30:10.664Z</time>
      </trkpt>
      <trkpt lat="46.04075" lon="6.11629">
        <ele>860.4</ele>
        <time>2020-12-26T15:30:13.702Z</time>
      </trkpt>
      <trkpt lat="46.04073" lon="6.11628">
        <ele>860.5</ele>
        <time>2020-12-26T15:30:14.664Z</time>
      </trkpt>
      <trkpt lat="46.04064" lon="6.11625">
        <ele>861.6</ele>
        <time>2020-12-26T15:30:18.654Z</time>
      </trkpt>
      <trkpt lat="46.04062" lon="6.11625">
        <ele>862</ele>
        <time>2020-12-26T15:30:19.736Z</time>
      </trkpt>
      <trkpt lat="46.04055" lon="6.11621">
        <ele>863.1</ele>
        <time>2020-12-26T15:30:23.665Z</time>
      </trkpt>
      <trkpt lat="46.04052" lon="6.1162">
        <ele>863.1</ele>
        <time>2020-12-26T15:30:24.677Z</time>
      </trkpt>
      <trkpt lat="46.04044" lon="6.11617">
        <ele>863</ele>
        <time>2020-12-26T15:30:28.664Z</time>
      </trkpt>
      <trkpt lat="46.04042" lon="6.11615">
        <ele>863.2</ele>
        <time>2020-12-26T15:30:29.663Z</time>
      </trkpt>
      <trkpt lat="46.04035" lon="6.11613">
        <ele>862.9</ele>
        <time>2020-12-26T15:30:32.665Z</time>
      </trkpt>
      <trkpt lat="46.04033" lon="6.11612">
        <ele>863</ele>
        <time>2020-12-26T15:30:33.660Z</time>
      </trkpt>
      <trkpt lat="46.04026" lon="6.11609">
        <ele>863.4</ele>
        <time>2020-12-26T15:30:36.697Z</time>
      </trkpt>
      <trkpt lat="46.04023" lon="6.11608">
        <ele>863.5</ele>
        <time>2020-12-26T15:30:37.676Z</time>
      </trkpt>
      <trkpt lat="46.04016" lon="6.11605">
        <ele>863.6</ele>
        <time>2020-12-26T15:30:40.675Z</time>
      </trkpt>
      <trkpt lat="46.04014" lon="6.11604">
        <ele>863.6</ele>
        <time>2020-12-26T15:30:41.672Z</time>
      </trkpt>
      <trkpt lat="46.04007" lon="6.11601">
        <ele>863.3</ele>
        <time>2020-12-26T15:30:44.671Z</time>
      </trkpt>
      <trkpt lat="46.04005" lon="6.116">
        <ele>863.1</ele>
        <time>2020-12-26T15:30:45.693Z</time>
      </trkpt>
      <trkpt lat="46.03998" lon="6.11597">
        <ele>863.5</ele>
        <time>2020-12-26T15:30:48.700Z</time>
      </trkpt>
      <trkpt lat="46.03995" lon="6.11596">
        <ele>863.8</ele>
        <time>2020-12-26T15:30:49.674Z</time>
      </trkpt>
      <trkpt lat="46.03988" lon="6.11592">
        <ele>864.3</ele>
        <time>2020-12-26T15:30:52.657Z</time>
      </trkpt>
      <trkpt lat="46.03986" lon="6.11591">
        <ele>864.1</ele>
        <time>2020-12-26T15:30:53.664Z</time>
      </trkpt>
      <trkpt lat="46.03979" lon="6.11586">
        <ele>863.2</ele>
        <time>2020-12-26T15:30:56.654Z</time>
      </trkpt>
      <trkpt lat="46.03977" lon="6.11584">
        <ele>862.9</ele>
        <time>2020-12-26T15:30:57.662Z</time>
      </trkpt>
      <trkpt lat="46.0397" lon="6.11577">
        <ele>861.9</ele>
        <time>2020-12-26T15:31:00.722Z</time>
      </trkpt>
      <trkpt lat="46.03967" lon="6.11575">
        <ele>861.7</ele>
        <time>2020-12-26T15:31:01.683Z</time>
      </trkpt>
      <trkpt lat="46.0396" lon="6.11568">
        <ele>861.1</ele>
        <time>2020-12-26T15:31:04.684Z</time>
      </trkpt>
      <trkpt lat="46.03957" lon="6.11566">
        <ele>860.7</ele>
        <time>2020-12-26T15:31:05.648Z</time>
      </trkpt>
      <trkpt lat="46.0395" lon="6.11559">
        <ele>860.3</ele>
        <time>2020-12-26T15:31:08.668Z</time>
      </trkpt>
      <trkpt lat="46.03948" lon="6.11557">
        <ele>860.6</ele>
        <time>2020-12-26T15:31:09.676Z</time>
      </trkpt>
      <trkpt lat="46.03942" lon="6.11549">
        <ele>861.4</ele>
        <time>2020-12-26T15:31:13.660Z</time>
      </trkpt>
      <trkpt lat="46.03941" lon="6.11548">
        <ele>861.8</ele>
        <time>2020-12-26T15:31:14.676Z</time>
      </trkpt>
      <trkpt lat="46.03934" lon="6.1154">
        <ele>863.3</ele>
        <time>2020-12-26T15:31:20.661Z</time>
      </trkpt>
      <trkpt lat="46.03932" lon="6.11538">
        <ele>863.3</ele>
        <time>2020-12-26T15:31:21.672Z</time>
      </trkpt>
      <trkpt lat="46.03926" lon="6.11531">
        <ele>863.3</ele>
        <time>2020-12-26T15:31:25.671Z</time>
      </trkpt>
      <trkpt lat="46.03925" lon="6.11529">
        <ele>863.3</ele>
        <time>2020-12-26T15:31:26.658Z</time>
      </trkpt>
      <trkpt lat="46.03919" lon="6.11522">
        <ele>862.4</ele>
        <time>2020-12-26T15:31:32.670Z</time>
      </trkpt>
      <trkpt lat="46.03918" lon="6.1152">
        <ele>862.2</ele>
        <time>2020-12-26T15:31:33.665Z</time>
      </trkpt>
      <trkpt lat="46.03912" lon="6.11515">
        <ele>861.1</ele>
        <time>2020-12-26T15:31:37.661Z</time>
      </trkpt>
      <trkpt lat="46.0391" lon="6.11513">
        <ele>860.9</ele>
        <time>2020-12-26T15:31:38.667Z</time>
      </trkpt>
      <trkpt lat="46.03904" lon="6.11506">
        <ele>859.6</ele>
        <time>2020-12-26T15:31:42.669Z</time>
      </trkpt>
      <trkpt lat="46.03902" lon="6.11505">
        <ele>859.6</ele>
        <time>2020-12-26T15:31:43.659Z</time>
      </trkpt>
      <trkpt lat="46.03896" lon="6.11497">
        <ele>858.8</ele>
        <time>2020-12-26T15:31:47.666Z</time>
      </trkpt>
      <trkpt lat="46.03894" lon="6.11495">
        <ele>858.6</ele>
        <time>2020-12-26T15:31:48.664Z</time>
      </trkpt>
      <trkpt lat="46.03886" lon="6.11495">
        <ele>856.8</ele>
        <time>2020-12-26T15:31:55.676Z</time>
      </trkpt>
      <trkpt lat="46.03885" lon="6.11493">
        <ele>856.6</ele>
        <time>2020-12-26T15:31:56.672Z</time>
      </trkpt>
      <trkpt lat="46.03878" lon="6.11488">
        <ele>855.4</ele>
        <time>2020-12-26T15:32:00.668Z</time>
      </trkpt>
      <trkpt lat="46.03876" lon="6.11487">
        <ele>855.1</ele>
        <time>2020-12-26T15:32:01.662Z</time>
      </trkpt>
      <trkpt lat="46.03871" lon="6.11479">
        <ele>852.5</ele>
        <time>2020-12-26T15:32:06.653Z</time>
      </trkpt>
      <trkpt lat="46.03869" lon="6.11477">
        <ele>852.5</ele>
        <time>2020-12-26T15:32:07.668Z</time>
      </trkpt>
      <trkpt lat="46.03864" lon="6.11473">
        <ele>852.5</ele>
        <time>2020-12-26T15:32:13.695Z</time>
      </trkpt>
      <trkpt lat="46.03864" lon="6.11473">
        <ele>852.5</ele>
        <time>2020-12-26T15:32:14.665Z</time>
      </trkpt>
      <trkpt lat="46.03864" lon="6.11473">
        <ele>852.5</ele>
        <time>2020-12-26T15:32:39.694Z</time>
      </trkpt>
      <trkpt lat="46.03855" lon="6.1147">
        <ele>853.2</ele>
        <time>2020-12-26T15:32:40.713Z</time>
      </trkpt>
      <trkpt lat="46.03848" lon="6.11466">
        <ele>853.7</ele>
        <time>2020-12-26T15:32:45.670Z</time>
      </trkpt>
      <trkpt lat="46.03846" lon="6.11465">
        <ele>854.3</ele>
        <time>2020-12-26T15:32:46.697Z</time>
      </trkpt>
      <trkpt lat="46.03838" lon="6.11459">
        <ele>854.8</ele>
        <time>2020-12-26T15:32:52.731Z</time>
      </trkpt>
      <trkpt lat="46.03837" lon="6.11459">
        <ele>854.6</ele>
        <time>2020-12-26T15:32:53.682Z</time>
      </trkpt>
      <trkpt lat="46.0383" lon="6.11452">
        <ele>854.4</ele>
        <time>2020-12-26T15:32:59.670Z</time>
      </trkpt>
      <trkpt lat="46.03828" lon="6.1145">
        <ele>854</ele>
        <time>2020-12-26T15:33:00.662Z</time>
      </trkpt>
      <trkpt lat="46.03822" lon="6.11441">
        <ele>854.5</ele>
        <time>2020-12-26T15:33:04.681Z</time>
      </trkpt>
      <trkpt lat="46.03819" lon="6.11438">
        <ele>854.9</ele>
        <time>2020-12-26T15:33:05.673Z</time>
      </trkpt>
      <trkpt lat="46.03817" lon="6.11434">
        <ele>855.2</ele>
        <time>2020-12-26T15:33:06.665Z</time>
      </trkpt>
      <trkpt lat="46.03812" lon="6.11427">
        <ele>855.5</ele>
        <time>2020-12-26T15:33:07.650Z</time>
      </trkpt>
      <trkpt lat="46.03808" lon="6.1142">
        <ele>856.1</ele>
        <time>2020-12-26T15:33:08.670Z</time>
      </trkpt>
      <trkpt lat="46.03804" lon="6.11414">
        <ele>856.4</ele>
        <time>2020-12-26T15:33:09.673Z</time>
      </trkpt>
      <trkpt lat="46.03801" lon="6.11408">
        <ele>856.6</ele>
        <time>2020-12-26T15:33:10.682Z</time>
      </trkpt>
      <trkpt lat="46.03798" lon="6.11403">
        <ele>856.9</ele>
        <time>2020-12-26T15:33:11.673Z</time>
      </trkpt>
      <trkpt lat="46.03794" lon="6.11393">
        <ele>857.9</ele>
        <time>2020-12-26T15:33:13.668Z</time>
      </trkpt>
      <trkpt lat="46.03792" lon="6.11388">
        <ele>858.2</ele>
        <time>2020-12-26T15:33:14.666Z</time>
      </trkpt>
      <trkpt lat="46.03789" lon="6.1138">
        <ele>858.5</ele>
        <time>2020-12-26T15:33:16.657Z</time>
      </trkpt>
      <trkpt lat="46.03787" lon="6.11377">
        <ele>859.2</ele>
        <time>2020-12-26T15:33:17.672Z</time>
      </trkpt>
      <trkpt lat="46.03784" lon="6.11366">
        <ele>860.1</ele>
        <time>2020-12-26T15:33:20.703Z</time>
      </trkpt>
      <trkpt lat="46.03783" lon="6.11363">
        <ele>860.4</ele>
        <time>2020-12-26T15:33:21.664Z</time>
      </trkpt>
      <trkpt lat="46.03778" lon="6.11355">
        <ele>861.5</ele>
        <time>2020-12-26T15:33:24.668Z</time>
      </trkpt>
      <trkpt lat="46.03777" lon="6.11352">
        <ele>862.2</ele>
        <time>2020-12-26T15:33:25.658Z</time>
      </trkpt>
      <trkpt lat="46.03772" lon="6.11342">
        <ele>864.5</ele>
        <time>2020-12-26T15:33:29.661Z</time>
      </trkpt>
      <trkpt lat="46.03771" lon="6.11339">
        <ele>865</ele>
        <time>2020-12-26T15:33:30.661Z</time>
      </trkpt>
      <trkpt lat="46.03768" lon="6.11327">
        <ele>866.9</ele>
        <time>2020-12-26T15:33:34.666Z</time>
      </trkpt>
      <trkpt lat="46.03767" lon="6.11324">
        <ele>867.3</ele>
        <time>2020-12-26T15:33:35.661Z</time>
      </trkpt>
      <trkpt lat="46.03765" lon="6.11312">
        <ele>868.4</ele>
        <time>2020-12-26T15:33:38.660Z</time>
      </trkpt>
      <trkpt lat="46.03765" lon="6.11309">
        <ele>868.8</ele>
        <time>2020-12-26T15:33:39.681Z</time>
      </trkpt>
      <trkpt lat="46.03764" lon="6.11298">
        <ele>869.2</ele>
        <time>2020-12-26T15:33:42.685Z</time>
      </trkpt>
      <trkpt lat="46.03764" lon="6.11295">
        <ele>869.3</ele>
        <time>2020-12-26T15:33:43.666Z</time>
      </trkpt>
      <trkpt lat="46.03764" lon="6.11285">
        <ele>870</ele>
        <time>2020-12-26T15:33:46.667Z</time>
      </trkpt>
      <trkpt lat="46.03764" lon="6.11282">
        <ele>870.8</ele>
        <time>2020-12-26T15:33:47.663Z</time>
      </trkpt>
      <trkpt lat="46.03764" lon="6.11272">
        <ele>872.8</ele>
        <time>2020-12-26T15:33:50.660Z</time>
      </trkpt>
      <trkpt lat="46.03765" lon="6.11269">
        <ele>873.1</ele>
        <time>2020-12-26T15:33:51.661Z</time>
      </trkpt>
      <trkpt lat="46.03767" lon="6.11257">
        <ele>874.5</ele>
        <time>2020-12-26T15:33:55.677Z</time>
      </trkpt>
      <trkpt lat="46.03767" lon="6.11255">
        <ele>874.8</ele>
        <time>2020-12-26T15:33:56.666Z</time>
      </trkpt>
      <trkpt lat="46.03768" lon="6.11243">
        <ele>875.1</ele>
        <time>2020-12-26T15:34:00.668Z</time>
      </trkpt>
      <trkpt lat="46.03767" lon="6.1124">
        <ele>874.9</ele>
        <time>2020-12-26T15:34:01.664Z</time>
      </trkpt>
      <trkpt lat="46.03764" lon="6.11229">
        <ele>876</ele>
        <time>2020-12-26T15:34:05.710Z</time>
      </trkpt>
      <trkpt lat="46.03763" lon="6.11227">
        <ele>876.4</ele>
        <time>2020-12-26T15:34:06.662Z</time>
      </trkpt>
      <trkpt lat="46.03758" lon="6.11218">
        <ele>877</ele>
        <time>2020-12-26T15:34:10.662Z</time>
      </trkpt>
      <trkpt lat="46.03756" lon="6.11217">
        <ele>877</ele>
        <time>2020-12-26T15:34:11.704Z</time>
      </trkpt>
      <trkpt lat="46.0375" lon="6.11209">
        <ele>877.3</ele>
        <time>2020-12-26T15:34:15.673Z</time>
      </trkpt>
      <trkpt lat="46.03749" lon="6.11208">
        <ele>877.3</ele>
        <time>2020-12-26T15:34:16.659Z</time>
      </trkpt>
      <trkpt lat="46.03742" lon="6.11201">
        <ele>876</ele>
        <time>2020-12-26T15:34:20.669Z</time>
      </trkpt>
      <trkpt lat="46.0374" lon="6.11199">
        <ele>875.3</ele>
        <time>2020-12-26T15:34:21.674Z</time>
      </trkpt>
      <trkpt lat="46.03735" lon="6.11192">
        <ele>874.8</ele>
        <time>2020-12-26T15:34:24.672Z</time>
      </trkpt>
      <trkpt lat="46.03733" lon="6.1119">
        <ele>874.4</ele>
        <time>2020-12-26T15:34:25.666Z</time>
      </trkpt>
      <trkpt lat="46.03728" lon="6.11181">
        <ele>873.3</ele>
        <time>2020-12-26T15:34:29.667Z</time>
      </trkpt>
      <trkpt lat="46.03727" lon="6.11179">
        <ele>872.9</ele>
        <time>2020-12-26T15:34:30.667Z</time>
      </trkpt>
      <trkpt lat="46.03723" lon="6.11169">
        <ele>871.7</ele>
        <time>2020-12-26T15:34:34.712Z</time>
      </trkpt>
      <trkpt lat="46.03722" lon="6.11167">
        <ele>871.6</ele>
        <time>2020-12-26T15:34:35.676Z</time>
      </trkpt>
      <trkpt lat="46.03718" lon="6.11155">
        <ele>872.5</ele>
        <time>2020-12-26T15:34:40.704Z</time>
      </trkpt>
      <trkpt lat="46.03717" lon="6.11153">
        <ele>872.6</ele>
        <time>2020-12-26T15:34:41.666Z</time>
      </trkpt>
      <trkpt lat="46.03712" lon="6.11145">
        <ele>872.9</ele>
        <time>2020-12-26T15:34:45.669Z</time>
      </trkpt>
      <trkpt lat="46.0371" lon="6.11143">
        <ele>873</ele>
        <time>2020-12-26T15:34:46.703Z</time>
      </trkpt>
      <trkpt lat="46.03703" lon="6.11136">
        <ele>873.2</ele>
        <time>2020-12-26T15:34:50.688Z</time>
      </trkpt>
      <trkpt lat="46.03701" lon="6.11134">
        <ele>873.3</ele>
        <time>2020-12-26T15:34:51.668Z</time>
      </trkpt>
      <trkpt lat="46.03693" lon="6.11128">
        <ele>873.7</ele>
        <time>2020-12-26T15:34:55.671Z</time>
      </trkpt>
      <trkpt lat="46.03691" lon="6.11126">
        <ele>873.8</ele>
        <time>2020-12-26T15:34:56.730Z</time>
      </trkpt>
      <trkpt lat="46.03684" lon="6.11119">
        <ele>873</ele>
        <time>2020-12-26T15:35:00.696Z</time>
      </trkpt>
      <trkpt lat="46.03682" lon="6.11116">
        <ele>872.5</ele>
        <time>2020-12-26T15:35:01.660Z</time>
      </trkpt>
      <trkpt lat="46.03677" lon="6.11109">
        <ele>872</ele>
        <time>2020-12-26T15:35:04.671Z</time>
      </trkpt>
      <trkpt lat="46.03676" lon="6.11105">
        <ele>871.5</ele>
        <time>2020-12-26T15:35:05.666Z</time>
      </trkpt>
      <trkpt lat="46.03672" lon="6.11095">
        <ele>869.5</ele>
        <time>2020-12-26T15:35:08.675Z</time>
      </trkpt>
      <trkpt lat="46.0367" lon="6.11091">
        <ele>868.9</ele>
        <time>2020-12-26T15:35:09.702Z</time>
      </trkpt>
      <trkpt lat="46.03667" lon="6.11079">
        <ele>867.9</ele>
        <time>2020-12-26T15:35:12.674Z</time>
      </trkpt>
      <trkpt lat="46.03666" lon="6.11076">
        <ele>867.6</ele>
        <time>2020-12-26T15:35:13.684Z</time>
      </trkpt>
      <trkpt lat="46.03662" lon="6.11065">
        <ele>865.5</ele>
        <time>2020-12-26T15:35:16.671Z</time>
      </trkpt>
      <trkpt lat="46.0366" lon="6.11062">
        <ele>865.1</ele>
        <time>2020-12-26T15:35:17.664Z</time>
      </trkpt>
      <trkpt lat="46.03656" lon="6.11054">
        <ele>865.3</ele>
        <time>2020-12-26T15:35:20.706Z</time>
      </trkpt>
      <trkpt lat="46.03654" lon="6.11052">
        <ele>865</ele>
        <time>2020-12-26T15:35:21.675Z</time>
      </trkpt>
      <trkpt lat="46.0365" lon="6.11044">
        <ele>864.6</ele>
        <time>2020-12-26T15:35:24.666Z</time>
      </trkpt>
      <trkpt lat="46.03649" lon="6.11041">
        <ele>864.5</ele>
        <time>2020-12-26T15:35:25.662Z</time>
      </trkpt>
      <trkpt lat="46.03645" lon="6.11032">
        <ele>864.9</ele>
        <time>2020-12-26T15:35:28.676Z</time>
      </trkpt>
      <trkpt lat="46.03644" lon="6.11029">
        <ele>864.7</ele>
        <time>2020-12-26T15:35:29.670Z</time>
      </trkpt>
      <trkpt lat="46.03641" lon="6.1102">
        <ele>863.5</ele>
        <time>2020-12-26T15:35:32.662Z</time>
      </trkpt>
      <trkpt lat="46.0364" lon="6.11017">
        <ele>863</ele>
        <time>2020-12-26T15:35:33.676Z</time>
      </trkpt>
      <trkpt lat="46.03637" lon="6.11005">
        <ele>861.5</ele>
        <time>2020-12-26T15:35:37.663Z</time>
      </trkpt>
      <trkpt lat="46.03636" lon="6.11002">
        <ele>861.4</ele>
        <time>2020-12-26T15:35:38.713Z</time>
      </trkpt>
      <trkpt lat="46.03634" lon="6.10993">
        <ele>861</ele>
        <time>2020-12-26T15:35:41.665Z</time>
      </trkpt>
      <trkpt lat="46.03633" lon="6.10989">
        <ele>860.5</ele>
        <time>2020-12-26T15:35:42.671Z</time>
      </trkpt>
      <trkpt lat="46.03629" lon="6.1098">
        <ele>860</ele>
        <time>2020-12-26T15:35:45.664Z</time>
      </trkpt>
      <trkpt lat="46.03628" lon="6.10976">
        <ele>859.7</ele>
        <time>2020-12-26T15:35:46.668Z</time>
      </trkpt>
      <trkpt lat="46.03626" lon="6.10966">
        <ele>858.1</ele>
        <time>2020-12-26T15:35:49.669Z</time>
      </trkpt>
      <trkpt lat="46.03625" lon="6.10963">
        <ele>857.8</ele>
        <time>2020-12-26T15:35:50.660Z</time>
      </trkpt>
      <trkpt lat="46.03623" lon="6.10953">
        <ele>857.3</ele>
        <time>2020-12-26T15:35:53.677Z</time>
      </trkpt>
      <trkpt lat="46.03623" lon="6.1095">
        <ele>856.8</ele>
        <time>2020-12-26T15:35:54.667Z</time>
      </trkpt>
      <trkpt lat="46.03622" lon="6.10939">
        <ele>855.3</ele>
        <time>2020-12-26T15:35:57.723Z</time>
      </trkpt>
      <trkpt lat="46.03623" lon="6.10935">
        <ele>854.7</ele>
        <time>2020-12-26T15:35:58.672Z</time>
      </trkpt>
      <trkpt lat="46.03624" lon="6.10924">
        <ele>851.2</ele>
        <time>2020-12-26T15:36:01.657Z</time>
      </trkpt>
      <trkpt lat="46.03625" lon="6.1092">
        <ele>850</ele>
        <time>2020-12-26T15:36:02.665Z</time>
      </trkpt>
      <trkpt lat="46.03628" lon="6.10911">
        <ele>848.7</ele>
        <time>2020-12-26T15:36:05.653Z</time>
      </trkpt>
      <trkpt lat="46.0363" lon="6.10907">
        <ele>848.8</ele>
        <time>2020-12-26T15:36:06.705Z</time>
      </trkpt>
      <trkpt lat="46.03632" lon="6.10899">
        <ele>849.2</ele>
        <time>2020-12-26T15:36:08.665Z</time>
      </trkpt>
      <trkpt lat="46.03633" lon="6.10895">
        <ele>849</ele>
        <time>2020-12-26T15:36:09.681Z</time>
      </trkpt>
      <trkpt lat="46.03634" lon="6.10882">
        <ele>849.6</ele>
        <time>2020-12-26T15:36:12.704Z</time>
      </trkpt>
      <trkpt lat="46.03633" lon="6.10879">
        <ele>849.6</ele>
        <time>2020-12-26T15:36:13.668Z</time>
      </trkpt>
      <trkpt lat="46.03626" lon="6.10882">
        <ele>845.8</ele>
        <time>2020-12-26T15:36:17.674Z</time>
      </trkpt>
      <trkpt lat="46.03624" lon="6.10883">
        <ele>844.8</ele>
        <time>2020-12-26T15:36:18.658Z</time>
      </trkpt>
      <trkpt lat="46.03618" lon="6.10893">
        <ele>842.6</ele>
        <time>2020-12-26T15:36:25.680Z</time>
      </trkpt>
      <trkpt lat="46.03618" lon="6.10894">
        <ele>842.7</ele>
        <time>2020-12-26T15:36:26.668Z</time>
      </trkpt>
      <trkpt lat="46.03614" lon="6.10904">
        <ele>848.3</ele>
        <time>2020-12-26T15:36:42.712Z</time>
      </trkpt>
      <trkpt lat="46.03613" lon="6.10906">
        <ele>848.6</ele>
        <time>2020-12-26T15:36:43.699Z</time>
      </trkpt>
      <trkpt lat="46.03609" lon="6.10917">
        <ele>849.9</ele>
        <time>2020-12-26T15:36:48.668Z</time>
      </trkpt>
      <trkpt lat="46.03609" lon="6.1092">
        <ele>850.4</ele>
        <time>2020-12-26T15:36:49.666Z</time>
      </trkpt>
      <trkpt lat="46.03606" lon="6.1093">
        <ele>853.5</ele>
        <time>2020-12-26T15:36:53.651Z</time>
      </trkpt>
      <trkpt lat="46.03605" lon="6.10934">
        <ele>854</ele>
        <time>2020-12-26T15:36:54.712Z</time>
      </trkpt>
      <trkpt lat="46.03602" lon="6.10945">
        <ele>855.1</ele>
        <time>2020-12-26T15:36:58.664Z</time>
      </trkpt>
      <trkpt lat="46.03601" lon="6.10948">
        <ele>855.6</ele>
        <time>2020-12-26T15:36:59.680Z</time>
      </trkpt>
      <trkpt lat="46.03598" lon="6.10959">
        <ele>856.2</ele>
        <time>2020-12-26T15:37:03.699Z</time>
      </trkpt>
      <trkpt lat="46.03597" lon="6.10962">
        <ele>856.6</ele>
        <time>2020-12-26T15:37:04.677Z</time>
      </trkpt>
      <trkpt lat="46.03594" lon="6.10973">
        <ele>858</ele>
        <time>2020-12-26T15:37:08.673Z</time>
      </trkpt>
      <trkpt lat="46.03593" lon="6.10975">
        <ele>858.4</ele>
        <time>2020-12-26T15:37:09.675Z</time>
      </trkpt>
      <trkpt lat="46.0359" lon="6.10987">
        <ele>859.4</ele>
        <time>2020-12-26T15:37:13.674Z</time>
      </trkpt>
      <trkpt lat="46.03589" lon="6.10989">
        <ele>859.7</ele>
        <time>2020-12-26T15:37:14.666Z</time>
      </trkpt>
      <trkpt lat="46.03585" lon="6.11">
        <ele>859.1</ele>
        <time>2020-12-26T15:37:18.746Z</time>
      </trkpt>
      <trkpt lat="46.03583" lon="6.11002">
        <ele>858.8</ele>
        <time>2020-12-26T15:37:19.669Z</time>
      </trkpt>
      <trkpt lat="46.03578" lon="6.11009">
        <ele>857.5</ele>
        <time>2020-12-26T15:37:23.658Z</time>
      </trkpt>
      <trkpt lat="46.03576" lon="6.11011">
        <ele>856.5</ele>
        <time>2020-12-26T15:37:24.690Z</time>
      </trkpt>
      <trkpt lat="46.03571" lon="6.1102">
        <ele>855.2</ele>
        <time>2020-12-26T15:37:29.675Z</time>
      </trkpt>
      <trkpt lat="46.0357" lon="6.11023">
        <ele>855.3</ele>
        <time>2020-12-26T15:37:30.672Z</time>
      </trkpt>
      <trkpt lat="46.03567" lon="6.11033">
        <ele>855.6</ele>
        <time>2020-12-26T15:37:34.679Z</time>
      </trkpt>
      <trkpt lat="46.03566" lon="6.11036">
        <ele>855.4</ele>
        <time>2020-12-26T15:37:35.663Z</time>
      </trkpt>
      <trkpt lat="46.03567" lon="6.11045">
        <ele>854.7</ele>
        <time>2020-12-26T15:37:37.673Z</time>
      </trkpt>
      <trkpt lat="46.03568" lon="6.1105">
        <ele>854.5</ele>
        <time>2020-12-26T15:37:38.664Z</time>
      </trkpt>
      <trkpt lat="46.03565" lon="6.11061">
        <ele>855.8</ele>
        <time>2020-12-26T15:37:42.697Z</time>
      </trkpt>
      <trkpt lat="46.03564" lon="6.11062">
        <ele>855.8</ele>
        <time>2020-12-26T15:37:43.657Z</time>
      </trkpt>
      <trkpt lat="46.03555" lon="6.11063">
        <ele>859.1</ele>
        <time>2020-12-26T15:37:51.700Z</time>
      </trkpt>
      <trkpt lat="46.03554" lon="6.11063">
        <ele>858.9</ele>
        <time>2020-12-26T15:37:52.669Z</time>
      </trkpt>
      <trkpt lat="46.03548" lon="6.11057">
        <ele>858.4</ele>
        <time>2020-12-26T15:37:57.678Z</time>
      </trkpt>
      <trkpt lat="46.03546" lon="6.11056">
        <ele>858</ele>
        <time>2020-12-26T15:37:58.672Z</time>
      </trkpt>
      <trkpt lat="46.03541" lon="6.11049">
        <ele>856.8</ele>
        <time>2020-12-26T15:38:01.658Z</time>
      </trkpt>
      <trkpt lat="46.03539" lon="6.11047">
        <ele>856.5</ele>
        <time>2020-12-26T15:38:02.665Z</time>
      </trkpt>
      <trkpt lat="46.03533" lon="6.11041">
        <ele>854.1</ele>
        <time>2020-12-26T15:38:05.688Z</time>
      </trkpt>
      <trkpt lat="46.0353" lon="6.11039">
        <ele>853</ele>
        <time>2020-12-26T15:38:06.673Z</time>
      </trkpt>
      <trkpt lat="46.03524" lon="6.11031">
        <ele>850.1</ele>
        <time>2020-12-26T15:38:09.692Z</time>
      </trkpt>
      <trkpt lat="46.03523" lon="6.11028">
        <ele>848.8</ele>
        <time>2020-12-26T15:38:10.730Z</time>
      </trkpt>
      <trkpt lat="46.03521" lon="6.11017">
        <ele>845.8</ele>
        <time>2020-12-26T15:38:13.670Z</time>
      </trkpt>
      <trkpt lat="46.0352" lon="6.11014">
        <ele>845.3</ele>
        <time>2020-12-26T15:38:14.681Z</time>
      </trkpt>
      <trkpt lat="46.03519" lon="6.11003">
        <ele>841.6</ele>
        <time>2020-12-26T15:38:17.669Z</time>
      </trkpt>
      <trkpt lat="46.03518" lon="6.11">
        <ele>840.8</ele>
        <time>2020-12-26T15:38:18.683Z</time>
      </trkpt>
      <trkpt lat="46.03522" lon="6.10989">
        <ele>827.1</ele>
        <time>2020-12-26T15:38:24.667Z</time>
      </trkpt>
      <trkpt lat="46.03522" lon="6.10987">
        <ele>825.6</ele>
        <time>2020-12-26T15:38:25.677Z</time>
      </trkpt>
      <trkpt lat="46.03518" lon="6.10977">
        <ele>823.3</ele>
        <time>2020-12-26T15:38:29.664Z</time>
      </trkpt>
      <trkpt lat="46.03516" lon="6.10975">
        <ele>823.3</ele>
        <time>2020-12-26T15:38:30.707Z</time>
      </trkpt>
      <trkpt lat="46.03519" lon="6.1097">
        <ele>824.9</ele>
        <time>2020-12-26T15:38:40.674Z</time>
      </trkpt>
    </trkseg>
  </trk>
</gpx>